<?xml version="1.0" encoding="utf-8"?>
<gpx xmlns:xsi="http://www.w3.org/2001/XMLSchema-instance" xmlns:xsd="http://www.w3.org/2001/XMLSchema" version="1.1" creator="Shapelink.com" xmlns="http://www.topografix.com/GPX/1/1" xmlns:gpxtpx="http://www.garmin.com/xmlschemas/TrackPointExtension/v1">
  <metadata>
    <name>Alpine skiing 44.87 km, 2018-01-30</name>
    <desc></desc>
    <author><name>Stefan Östlund</name></author> 
    <time>2018-01-30T09:26:21Z</time>
  </metadata>
  <trk>
    <name>Alpine skiing 44.87 km, 2018-01-30</name>
    <trkseg>
      <trkpt lat="45.69355485545" lon="6.908338762137">
        <ele>1866.6</ele>
        <time>2018-01-30T09:26:21Z</time>
      </trkpt>
      <trkpt lat="45.69362442522" lon="6.908392909211">
        <ele>1864.4</ele>
        <time>2018-01-30T09:26:22Z</time>
      </trkpt>
      <trkpt lat="45.69368812766" lon="6.908458455669">
        <ele>1862</ele>
        <time>2018-01-30T09:26:23Z</time>
      </trkpt>
      <trkpt lat="45.693753590299" lon="6.908484858654">
        <ele>1863.6</ele>
        <time>2018-01-30T09:26:24Z</time>
      </trkpt>
      <trkpt lat="45.69395886303" lon="6.908573622975">
        <ele>1861.2</ele>
        <time>2018-01-30T09:26:27Z</time>
      </trkpt>
      <trkpt lat="45.694012842466" lon="6.908632463913">
        <ele>1859</ele>
        <time>2018-01-30T09:26:28Z</time>
      </trkpt>
      <trkpt lat="45.694057601812" lon="6.908684515512">
        <ele>1856.4</ele>
        <time>2018-01-30T09:26:29Z</time>
      </trkpt>
      <trkpt lat="45.69410219352" lon="6.908729274858">
        <ele>1853.8</ele>
        <time>2018-01-30T09:26:30Z</time>
      </trkpt>
      <trkpt lat="45.694156340594" lon="6.908771184358">
        <ele>1852</ele>
        <time>2018-01-30T09:26:31Z</time>
      </trkpt>
      <trkpt lat="45.694216103541" lon="6.908801526836">
        <ele>1850.8</ele>
        <time>2018-01-30T09:26:32Z</time>
      </trkpt>
      <trkpt lat="45.694365049904" lon="6.908758946784">
        <ele>1848.8</ele>
        <time>2018-01-30T09:26:34Z</time>
      </trkpt>
      <trkpt lat="45.694453311311" lon="6.908761545173">
        <ele>1847.4</ele>
        <time>2018-01-30T09:26:35Z</time>
      </trkpt>
      <trkpt lat="45.694534867198" lon="6.908801862112">
        <ele>1845.4</ele>
        <time>2018-01-30T09:26:36Z</time>
      </trkpt>
      <trkpt lat="45.694612483592" lon="6.908807729442">
        <ele>1842.8</ele>
        <time>2018-01-30T09:26:37Z</time>
      </trkpt>
      <trkpt lat="45.694690854357" lon="6.908750732522">
        <ele>1839.8</ele>
        <time>2018-01-30T09:26:38Z</time>
      </trkpt>
      <trkpt lat="45.694781295058" lon="6.908702536597">
        <ele>1837.2</ele>
        <time>2018-01-30T09:26:39Z</time>
      </trkpt>
      <trkpt lat="45.694859498185" lon="6.908698680923">
        <ele>1834.6</ele>
        <time>2018-01-30T09:26:40Z</time>
      </trkpt>
      <trkpt lat="45.694919009675" lon="6.908721731148">
        <ele>1831.8</ele>
        <time>2018-01-30T09:26:41Z</time>
      </trkpt>
      <trkpt lat="45.694968965799" lon="6.908728688125">
        <ele>1828.2</ele>
        <time>2018-01-30T09:26:42Z</time>
      </trkpt>
      <trkpt lat="45.695018921923" lon="6.908707481918">
        <ele>1824.8</ele>
        <time>2018-01-30T09:26:43Z</time>
      </trkpt>
      <trkpt lat="45.695073404273" lon="6.908702117502">
        <ele>1822</ele>
        <time>2018-01-30T09:26:44Z</time>
      </trkpt>
      <trkpt lat="45.695123444216" lon="6.90872659265">
        <ele>1819.8</ele>
        <time>2018-01-30T09:26:45Z</time>
      </trkpt>
      <trkpt lat="45.695173148883" lon="6.908752660359">
        <ele>1817.8</ele>
        <time>2018-01-30T09:26:46Z</time>
      </trkpt>
      <trkpt lat="45.695226290129" lon="6.908735561283">
        <ele>1815.4</ele>
        <time>2018-01-30T09:26:47Z</time>
      </trkpt>
      <trkpt lat="45.695287226542" lon="6.908691723946">
        <ele>1813.4</ele>
        <time>2018-01-30T09:26:48Z</time>
      </trkpt>
      <trkpt lat="45.695356544855" lon="6.908678312906">
        <ele>1811.4</ele>
        <time>2018-01-30T09:26:49Z</time>
      </trkpt>
      <trkpt lat="45.695432736326" lon="6.908669679549">
        <ele>1809.6</ele>
        <time>2018-01-30T09:26:50Z</time>
      </trkpt>
      <trkpt lat="45.695519069896" lon="6.908613353181">
        <ele>1806.8</ele>
        <time>2018-01-30T09:26:51Z</time>
      </trkpt>
      <trkpt lat="45.695627950777" lon="6.908569432025">
        <ele>1803.2</ele>
        <time>2018-01-30T09:26:52Z</time>
      </trkpt>
      <trkpt lat="45.695731551061" lon="6.908537496986">
        <ele>1799.6</ele>
        <time>2018-01-30T09:26:53Z</time>
      </trkpt>
      <trkpt lat="45.695833307327" lon="6.908504388481">
        <ele>1796</ele>
        <time>2018-01-30T09:26:54Z</time>
      </trkpt>
      <trkpt lat="45.695919221802" lon="6.908416043255">
        <ele>1792</ele>
        <time>2018-01-30T09:26:55Z</time>
      </trkpt>
      <trkpt lat="45.696010835969" lon="6.90834437801">
        <ele>1787.8</ele>
        <time>2018-01-30T09:26:56Z</time>
      </trkpt>
      <trkpt lat="45.69610043848" lon="6.908283357778">
        <ele>1783.6</ele>
        <time>2018-01-30T09:26:57Z</time>
      </trkpt>
      <trkpt lat="45.69617755196" lon="6.908198449131">
        <ele>1779.8</ele>
        <time>2018-01-30T09:26:58Z</time>
      </trkpt>
      <trkpt lat="45.696225496428" lon="6.90809292101">
        <ele>1776.2</ele>
        <time>2018-01-30T09:26:59Z</time>
      </trkpt>
      <trkpt lat="45.696258604933" lon="6.907987728165">
        <ele>1773</ele>
        <time>2018-01-30T09:27:00Z</time>
      </trkpt>
      <trkpt lat="45.696286097565" lon="6.90789426998">
        <ele>1770.4</ele>
        <time>2018-01-30T09:27:01Z</time>
      </trkpt>
      <trkpt lat="45.696305040659" lon="6.907801649985">
        <ele>1768.6</ele>
        <time>2018-01-30T09:27:02Z</time>
      </trkpt>
      <trkpt lat="45.696334964042" lon="6.907744485427">
        <ele>1767</ele>
        <time>2018-01-30T09:27:03Z</time>
      </trkpt>
      <trkpt lat="45.696368994556" lon="6.907745239798">
        <ele>1765.8</ele>
        <time>2018-01-30T09:27:04Z</time>
      </trkpt>
      <trkpt lat="45.696405958735" lon="6.907749095472">
        <ele>1764.6</ele>
        <time>2018-01-30T09:27:05Z</time>
      </trkpt>
      <trkpt lat="45.696449460796" lon="6.907719675003">
        <ele>1764</ele>
        <time>2018-01-30T09:27:06Z</time>
      </trkpt>
      <trkpt lat="45.696485000052" lon="6.907671059983">
        <ele>1763.4</ele>
        <time>2018-01-30T09:27:07Z</time>
      </trkpt>
      <trkpt lat="45.696542416067" lon="6.907570812459">
        <ele>1761.4</ele>
        <time>2018-01-30T09:27:09Z</time>
      </trkpt>
      <trkpt lat="45.696582816825" lon="6.907560837998">
        <ele>1760.2</ele>
        <time>2018-01-30T09:27:10Z</time>
      </trkpt>
      <trkpt lat="45.696617014977" lon="6.907555222125">
        <ele>1759</ele>
        <time>2018-01-30T09:27:11Z</time>
      </trkpt>
      <trkpt lat="45.696646351627" lon="6.907519431412">
        <ele>1758</ele>
        <time>2018-01-30T09:27:12Z</time>
      </trkpt>
      <trkpt lat="45.696679879227" lon="6.907483389242">
        <ele>1757</ele>
        <time>2018-01-30T09:27:13Z</time>
      </trkpt>
      <trkpt lat="45.69672237546" lon="6.907488753658">
        <ele>1755.8</ele>
        <time>2018-01-30T09:27:14Z</time>
      </trkpt>
      <trkpt lat="45.696770487566" lon="6.907484227432">
        <ele>1754.2</ele>
        <time>2018-01-30T09:27:15Z</time>
      </trkpt>
      <trkpt lat="45.696814157265" lon="6.907432762566">
        <ele>1752.4</ele>
        <time>2018-01-30T09:27:16Z</time>
      </trkpt>
      <trkpt lat="45.69686822052" lon="6.907395966025">
        <ele>1750.8</ele>
        <time>2018-01-30T09:27:17Z</time>
      </trkpt>
      <trkpt lat="45.69692521744" lon="6.907413903291">
        <ele>1748.6</ele>
        <time>2018-01-30T09:27:18Z</time>
      </trkpt>
      <trkpt lat="45.697005516042" lon="6.907424129209">
        <ele>1746.2</ele>
        <time>2018-01-30T09:27:19Z</time>
      </trkpt>
      <trkpt lat="45.697046252076" lon="6.907358750389">
        <ele>1743.4</ele>
        <time>2018-01-30T09:27:20Z</time>
      </trkpt>
      <trkpt lat="45.697091933431" lon="6.907282056004">
        <ele>1740.6</ele>
        <time>2018-01-30T09:27:21Z</time>
      </trkpt>
      <trkpt lat="45.697146164324" lon="6.907267136222">
        <ele>1737.6</ele>
        <time>2018-01-30T09:27:22Z</time>
      </trkpt>
      <trkpt lat="45.69720349652" lon="6.907275015208">
        <ele>1734.4</ele>
        <time>2018-01-30T09:27:23Z</time>
      </trkpt>
      <trkpt lat="45.697264516752" lon="6.907241655246">
        <ele>1731.4</ele>
        <time>2018-01-30T09:27:24Z</time>
      </trkpt>
      <trkpt lat="45.697301480931" lon="6.907177533711">
        <ele>1728.4</ele>
        <time>2018-01-30T09:27:25Z</time>
      </trkpt>
      <trkpt lat="45.697280526181" lon="6.907089188485">
        <ele>1726</ele>
        <time>2018-01-30T09:27:26Z</time>
      </trkpt>
      <trkpt lat="45.69728647733" lon="6.907010147168">
        <ele>1723.6</ele>
        <time>2018-01-30T09:27:27Z</time>
      </trkpt>
      <trkpt lat="45.697331488133" lon="6.906954910447">
        <ele>1721.4</ele>
        <time>2018-01-30T09:27:28Z</time>
      </trkpt>
      <trkpt lat="45.697400638808" lon="6.906919706467">
        <ele>1719.2</ele>
        <time>2018-01-30T09:27:29Z</time>
      </trkpt>
      <trkpt lat="45.697466520542" lon="6.906864050651">
        <ele>1717.6</ele>
        <time>2018-01-30T09:27:30Z</time>
      </trkpt>
      <trkpt lat="45.697472806967" lon="6.906754247761">
        <ele>1715.8</ele>
        <time>2018-01-30T09:27:31Z</time>
      </trkpt>
      <trkpt lat="45.697499796685" lon="6.906670177304">
        <ele>1713.4</ele>
        <time>2018-01-30T09:27:32Z</time>
      </trkpt>
      <trkpt lat="45.697555033406" lon="6.906641259749">
        <ele>1710.4</ele>
        <time>2018-01-30T09:27:33Z</time>
      </trkpt>
      <trkpt lat="45.697620412226" lon="6.90664452869">
        <ele>1707.4</ele>
        <time>2018-01-30T09:27:34Z</time>
      </trkpt>
      <trkpt lat="45.697664249563" lon="6.906607396873">
        <ele>1704.2</ele>
        <time>2018-01-30T09:27:35Z</time>
      </trkpt>
      <trkpt lat="45.69769719043" lon="6.906531959773">
        <ele>1701.2</ele>
        <time>2018-01-30T09:27:36Z</time>
      </trkpt>
      <trkpt lat="45.697752594789" lon="6.906477225966">
        <ele>1698.2</ele>
        <time>2018-01-30T09:27:37Z</time>
      </trkpt>
      <trkpt lat="45.69780950789" lon="6.906465910401">
        <ele>1695.4</ele>
        <time>2018-01-30T09:27:38Z</time>
      </trkpt>
      <trkpt lat="45.697847729354" lon="6.90643749576">
        <ele>1692.8</ele>
        <time>2018-01-30T09:27:39Z</time>
      </trkpt>
      <trkpt lat="45.69785812291" lon="6.906373038949">
        <ele>1690.2</ele>
        <time>2018-01-30T09:27:40Z</time>
      </trkpt>
      <trkpt lat="45.697860386023" lon="6.906284358447">
        <ele>1687.8</ele>
        <time>2018-01-30T09:27:41Z</time>
      </trkpt>
      <trkpt lat="45.697882514239" lon="6.906225266052">
        <ele>1685.2</ele>
        <time>2018-01-30T09:27:42Z</time>
      </trkpt>
      <trkpt lat="45.697921406255" lon="6.906209088985">
        <ele>1682.6</ele>
        <time>2018-01-30T09:27:43Z</time>
      </trkpt>
      <trkpt lat="45.697973038759" lon="6.906212441745">
        <ele>1680.6</ele>
        <time>2018-01-30T09:27:44Z</time>
      </trkpt>
      <trkpt lat="45.69799474788" lon="6.90616843677">
        <ele>1678.6</ele>
        <time>2018-01-30T09:27:45Z</time>
      </trkpt>
      <trkpt lat="45.698002710685" lon="6.906082773752">
        <ele>1676.4</ele>
        <time>2018-01-30T09:27:46Z</time>
      </trkpt>
      <trkpt lat="45.698030370955" lon="6.906018568398">
        <ele>1674</ele>
        <time>2018-01-30T09:27:47Z</time>
      </trkpt>
      <trkpt lat="45.698084266572" lon="6.905978922011">
        <ele>1671.6</ele>
        <time>2018-01-30T09:27:48Z</time>
      </trkpt>
      <trkpt lat="45.698138413646" lon="6.905940700547">
        <ele>1669.4</ele>
        <time>2018-01-30T09:27:49Z</time>
      </trkpt>
      <trkpt lat="45.698148891021" lon="6.905868448569">
        <ele>1667</ele>
        <time>2018-01-30T09:27:50Z</time>
      </trkpt>
      <trkpt lat="45.698173617626" lon="6.905781863542">
        <ele>1664.6</ele>
        <time>2018-01-30T09:27:51Z</time>
      </trkpt>
      <trkpt lat="45.698215946221" lon="6.905740205499">
        <ele>1661.8</ele>
        <time>2018-01-30T09:27:52Z</time>
      </trkpt>
      <trkpt lat="45.698267327268" lon="6.905734002893">
        <ele>1659</ele>
        <time>2018-01-30T09:27:53Z</time>
      </trkpt>
      <trkpt lat="45.698311751338" lon="6.9057049177">
        <ele>1656.8</ele>
        <time>2018-01-30T09:27:54Z</time>
      </trkpt>
      <trkpt lat="45.698357097417" lon="6.905621433976">
        <ele>1654.6</ele>
        <time>2018-01-30T09:27:55Z</time>
      </trkpt>
      <trkpt lat="45.698417614735" lon="6.905571980766">
        <ele>1652.4</ele>
        <time>2018-01-30T09:27:56Z</time>
      </trkpt>
      <trkpt lat="45.698483747926" lon="6.905561000477">
        <ele>1650.2</ele>
        <time>2018-01-30T09:27:57Z</time>
      </trkpt>
      <trkpt lat="45.698547198909" lon="6.905550355464">
        <ele>1647.8</ele>
        <time>2018-01-30T09:27:58Z</time>
      </trkpt>
      <trkpt lat="45.69860662658" lon="6.905510038525">
        <ele>1645.4</ele>
        <time>2018-01-30T09:27:59Z</time>
      </trkpt>
      <trkpt lat="45.698613667376" lon="6.905436864538">
        <ele>1643.2</ele>
        <time>2018-01-30T09:28:00Z</time>
      </trkpt>
      <trkpt lat="45.698606794218" lon="6.905383304197">
        <ele>1641</ele>
        <time>2018-01-30T09:28:01Z</time>
      </trkpt>
      <trkpt lat="45.698615930489" lon="6.905307364183">
        <ele>1639.2</ele>
        <time>2018-01-30T09:28:02Z</time>
      </trkpt>
      <trkpt lat="45.698641662922" lon="6.905238548784">
        <ele>1637.4</ele>
        <time>2018-01-30T09:28:03Z</time>
      </trkpt>
      <trkpt lat="45.698672927409" lon="6.905172834688">
        <ele>1635.8</ele>
        <time>2018-01-30T09:28:04Z</time>
      </trkpt>
      <trkpt lat="45.698694468892" lon="6.905105863307">
        <ele>1634.8</ele>
        <time>2018-01-30T09:28:05Z</time>
      </trkpt>
      <trkpt lat="45.698703688982" lon="6.904982817015">
        <ele>1633.4</ele>
        <time>2018-01-30T09:28:07Z</time>
      </trkpt>
      <trkpt lat="45.698629928262" lon="6.904841833457">
        <ele>1633</ele>
        <time>2018-01-30T09:28:13Z</time>
      </trkpt>
      <trkpt lat="45.698615259937" lon="6.904846694959">
        <ele>1633</ele>
        <time>2018-01-30T09:28:18Z</time>
      </trkpt>
      <trkpt lat="45.698403197867" lon="6.90498658887">
        <ele>1631.6</ele>
        <time>2018-01-30T09:29:04Z</time>
      </trkpt>
      <trkpt lat="45.698195410566" lon="6.905057499744">
        <ele>1631.4</ele>
        <time>2018-01-30T09:29:10Z</time>
      </trkpt>
      <trkpt lat="45.698102958209" lon="6.905102091452">
        <ele>1634</ele>
        <time>2018-01-30T09:29:13Z</time>
      </trkpt>
      <trkpt lat="45.695252106381" lon="6.906489212083">
        <ele>1784</ele>
        <time>2018-01-30T09:30:45Z</time>
      </trkpt>
      <trkpt lat="45.695038116474" lon="6.90659507548">
        <ele>1783.6</ele>
        <time>2018-01-30T09:30:51Z</time>
      </trkpt>
      <trkpt lat="45.694801495437" lon="6.906709739872">
        <ele>1783.4</ele>
        <time>2018-01-30T09:30:57Z</time>
      </trkpt>
      <trkpt lat="45.69462522408" lon="6.90679959384">
        <ele>1784</ele>
        <time>2018-01-30T09:31:03Z</time>
      </trkpt>
      <trkpt lat="45.69456990354" lon="6.906832702345">
        <ele>1786</ele>
        <time>2018-01-30T09:31:06Z</time>
      </trkpt>
      <trkpt lat="45.686378775584" lon="6.911774670585">
        <ele>2104.6</ele>
        <time>2018-01-30T09:36:19Z</time>
      </trkpt>
      <trkpt lat="45.686543312281" lon="6.91172898923">
        <ele>2103.4</ele>
        <time>2018-01-30T09:36:25Z</time>
      </trkpt>
      <trkpt lat="45.686679769613" lon="6.911733096361">
        <ele>2102.2</ele>
        <time>2018-01-30T09:36:28Z</time>
      </trkpt>
      <trkpt lat="45.686796445661" lon="6.911703424435">
        <ele>2101.8</ele>
        <time>2018-01-30T09:36:29Z</time>
      </trkpt>
      <trkpt lat="45.686856124789" lon="6.911683140237">
        <ele>2100.4</ele>
        <time>2018-01-30T09:36:31Z</time>
      </trkpt>
      <trkpt lat="45.687033988707" lon="6.911647517162">
        <ele>2098.8</ele>
        <time>2018-01-30T09:36:33Z</time>
      </trkpt>
      <trkpt lat="45.687160974492" lon="6.911632345923">
        <ele>2097</ele>
        <time>2018-01-30T09:36:35Z</time>
      </trkpt>
      <trkpt lat="45.687212690815" lon="6.911542659593">
        <ele>2095.2</ele>
        <time>2018-01-30T09:36:37Z</time>
      </trkpt>
      <trkpt lat="45.687192238979" lon="6.911474263289">
        <ele>2094</ele>
        <time>2018-01-30T09:36:38Z</time>
      </trkpt>
      <trkpt lat="45.687122501571" lon="6.911400921664">
        <ele>2092.8</ele>
        <time>2018-01-30T09:36:39Z</time>
      </trkpt>
      <trkpt lat="45.687025103893" lon="6.911343505649">
        <ele>2091.6</ele>
        <time>2018-01-30T09:36:40Z</time>
      </trkpt>
      <trkpt lat="45.686928376767" lon="6.911270918395">
        <ele>2090.2</ele>
        <time>2018-01-30T09:36:41Z</time>
      </trkpt>
      <trkpt lat="45.68684095355" lon="6.911172347251">
        <ele>2088.6</ele>
        <time>2018-01-30T09:36:42Z</time>
      </trkpt>
      <trkpt lat="45.686747663003" lon="6.911066064759">
        <ele>2086.6</ele>
        <time>2018-01-30T09:36:43Z</time>
      </trkpt>
      <trkpt lat="45.686661916166" lon="6.910941425906">
        <ele>2084.2</ele>
        <time>2018-01-30T09:36:44Z</time>
      </trkpt>
      <trkpt lat="45.686583880677" lon="6.910799352701">
        <ele>2081.8</ele>
        <time>2018-01-30T09:36:45Z</time>
      </trkpt>
      <trkpt lat="45.686583880677" lon="6.910799352701">
        <ele>2079.6</ele>
        <time>2018-01-30T09:36:46Z</time>
      </trkpt>
      <trkpt lat="45.686405513845" lon="6.91054714133">
        <ele>2077.6</ele>
        <time>2018-01-30T09:36:47Z</time>
      </trkpt>
      <trkpt lat="45.686333597143" lon="6.910416718966">
        <ele>2075.4</ele>
        <time>2018-01-30T09:36:48Z</time>
      </trkpt>
      <trkpt lat="45.686275091481" lon="6.910271963553">
        <ele>2073.6</ele>
        <time>2018-01-30T09:36:49Z</time>
      </trkpt>
      <trkpt lat="45.686212562507" lon="6.910131650547">
        <ele>2072</ele>
        <time>2018-01-30T09:36:50Z</time>
      </trkpt>
      <trkpt lat="45.686154392121" lon="6.909987481867">
        <ele>2070.4</ele>
        <time>2018-01-30T09:36:51Z</time>
      </trkpt>
      <trkpt lat="45.686154392121" lon="6.909987481867">
        <ele>2068.6</ele>
        <time>2018-01-30T09:36:52Z</time>
      </trkpt>
      <trkpt lat="45.686112817897" lon="6.909834176916">
        <ele>2066.8</ele>
        <time>2018-01-30T09:36:53Z</time>
      </trkpt>
      <trkpt lat="45.686073590605" lon="6.909670562228">
        <ele>2064.8</ele>
        <time>2018-01-30T09:36:54Z</time>
      </trkpt>
      <trkpt lat="45.686030842915" lon="6.909307039225">
        <ele>2063</ele>
        <time>2018-01-30T09:36:55Z</time>
      </trkpt>
      <trkpt lat="45.68604383486" lon="6.909111573317">
        <ele>2061</ele>
        <time>2018-01-30T09:36:56Z</time>
      </trkpt>
      <trkpt lat="45.686087336921" lon="6.908891632261">
        <ele>2058.6</ele>
        <time>2018-01-30T09:36:57Z</time>
      </trkpt>
      <trkpt lat="45.686145088212" lon="6.908667416436">
        <ele>2055.8</ele>
        <time>2018-01-30T09:36:58Z</time>
      </trkpt>
      <trkpt lat="45.68621566381" lon="6.908436243634">
        <ele>2052.4</ele>
        <time>2018-01-30T09:36:59Z</time>
      </trkpt>
      <trkpt lat="45.686289089254" lon="6.908215799664">
        <ele>2048.8</ele>
        <time>2018-01-30T09:37:00Z</time>
      </trkpt>
      <trkpt lat="45.686289089254" lon="6.908215799664">
        <ele>2045</ele>
        <time>2018-01-30T09:37:01Z</time>
      </trkpt>
      <trkpt lat="45.686362263241" lon="6.907995439513">
        <ele>2042.6</ele>
        <time>2018-01-30T09:37:02Z</time>
      </trkpt>
      <trkpt lat="45.68643778416" lon="6.90777943795">
        <ele>2040.6</ele>
        <time>2018-01-30T09:37:03Z</time>
      </trkpt>
      <trkpt lat="45.68651657402" lon="6.907568297889">
        <ele>2039</ele>
        <time>2018-01-30T09:37:04Z</time>
      </trkpt>
      <trkpt lat="45.686667029125" lon="6.907166301965">
        <ele>2037</ele>
        <time>2018-01-30T09:37:05Z</time>
      </trkpt>
      <trkpt lat="45.686667029125" lon="6.907166301965">
        <ele>2035.2</ele>
        <time>2018-01-30T09:37:06Z</time>
      </trkpt>
      <trkpt lat="45.686742298587" lon="6.906983744183">
        <ele>2033.6</ele>
        <time>2018-01-30T09:37:07Z</time>
      </trkpt>
      <trkpt lat="45.686817400411" lon="6.906812501966">
        <ele>2032.4</ele>
        <time>2018-01-30T09:37:08Z</time>
      </trkpt>
      <trkpt lat="45.686998952365" lon="6.906365579058">
        <ele>2030.8</ele>
        <time>2018-01-30T09:37:10Z</time>
      </trkpt>
      <trkpt lat="45.687114706404" lon="6.906113032411">
        <ele>2029.6</ele>
        <time>2018-01-30T09:37:12Z</time>
      </trkpt>
      <trkpt lat="45.687230292805" lon="6.905910693345">
        <ele>2028.4</ele>
        <time>2018-01-30T09:37:15Z</time>
      </trkpt>
      <trkpt lat="45.687371779277" lon="6.905736014549">
        <ele>2028.4</ele>
        <time>2018-01-30T09:37:18Z</time>
      </trkpt>
      <trkpt lat="45.687613513273" lon="6.905686645158">
        <ele>2028.4</ele>
        <time>2018-01-30T09:37:24Z</time>
      </trkpt>
      <trkpt lat="45.687839070202" lon="6.905736685101">
        <ele>2027.4</ele>
        <time>2018-01-30T09:37:30Z</time>
      </trkpt>
      <trkpt lat="45.687839070202" lon="6.905736685101">
        <ele>2027.4</ele>
        <time>2018-01-30T09:37:31Z</time>
      </trkpt>
      <trkpt lat="45.68800100851" lon="6.905858641746">
        <ele>2026.2</ele>
        <time>2018-01-30T09:37:36Z</time>
      </trkpt>
      <trkpt lat="45.688040068164" lon="6.905914549019">
        <ele>2026</ele>
        <time>2018-01-30T09:37:37Z</time>
      </trkpt>
      <trkpt lat="45.688119696214" lon="6.906008007204">
        <ele>2024.8</ele>
        <time>2018-01-30T09:37:39Z</time>
      </trkpt>
      <trkpt lat="45.688238551556" lon="6.906023681357">
        <ele>2023</ele>
        <time>2018-01-30T09:37:41Z</time>
      </trkpt>
      <trkpt lat="45.688280209599" lon="6.906071793463">
        <ele>2021.8</ele>
        <time>2018-01-30T09:37:42Z</time>
      </trkpt>
      <trkpt lat="45.688325639497" lon="6.906124934709">
        <ele>2020.2</ele>
        <time>2018-01-30T09:37:43Z</time>
      </trkpt>
      <trkpt lat="45.688388084652" lon="6.906117055723">
        <ele>2018.4</ele>
        <time>2018-01-30T09:37:44Z</time>
      </trkpt>
      <trkpt lat="45.68845111654" lon="6.906128287469">
        <ele>2016.4</ele>
        <time>2018-01-30T09:37:45Z</time>
      </trkpt>
      <trkpt lat="45.688506101804" lon="6.906209424261">
        <ele>2014.4</ele>
        <time>2018-01-30T09:37:46Z</time>
      </trkpt>
      <trkpt lat="45.688574833384" lon="6.906273881072">
        <ele>2011.8</ele>
        <time>2018-01-30T09:37:47Z</time>
      </trkpt>
      <trkpt lat="45.688676170555" lon="6.906265499172">
        <ele>2008.6</ele>
        <time>2018-01-30T09:37:48Z</time>
      </trkpt>
      <trkpt lat="45.68878471616" lon="6.906251585218">
        <ele>2005.4</ele>
        <time>2018-01-30T09:37:49Z</time>
      </trkpt>
      <trkpt lat="45.688907427176" lon="6.906296093107">
        <ele>2001.8</ele>
        <time>2018-01-30T09:37:50Z</time>
      </trkpt>
      <trkpt lat="45.689190819215" lon="6.906350575457">
        <ele>1997.8</ele>
        <time>2018-01-30T09:37:51Z</time>
      </trkpt>
      <trkpt lat="45.689328533832" lon="6.906415535182">
        <ele>1993.2</ele>
        <time>2018-01-30T09:37:52Z</time>
      </trkpt>
      <trkpt lat="45.689328533832" lon="6.906415535182">
        <ele>1988.6</ele>
        <time>2018-01-30T09:37:53Z</time>
      </trkpt>
      <trkpt lat="45.689573285312" lon="6.906582083535">
        <ele>1984.6</ele>
        <time>2018-01-30T09:37:54Z</time>
      </trkpt>
      <trkpt lat="45.689573285312" lon="6.906582083535">
        <ele>1980</ele>
        <time>2018-01-30T09:37:55Z</time>
      </trkpt>
      <trkpt lat="45.689763302985" lon="6.906545873727">
        <ele>1975.6</ele>
        <time>2018-01-30T09:37:56Z</time>
      </trkpt>
      <trkpt lat="45.689832202203" lon="6.906566493201">
        <ele>1971.4</ele>
        <time>2018-01-30T09:37:57Z</time>
      </trkpt>
      <trkpt lat="45.689832202203" lon="6.906566493201">
        <ele>1968.6</ele>
        <time>2018-01-30T09:37:58Z</time>
      </trkpt>
      <trkpt lat="45.689939490523" lon="6.906601194267">
        <ele>1966.8</ele>
        <time>2018-01-30T09:37:59Z</time>
      </trkpt>
      <trkpt lat="45.690008389741" lon="6.906605385217">
        <ele>1965.4</ele>
        <time>2018-01-30T09:38:00Z</time>
      </trkpt>
      <trkpt lat="45.690141494313" lon="6.906692389339">
        <ele>1963.8</ele>
        <time>2018-01-30T09:38:02Z</time>
      </trkpt>
      <trkpt lat="45.690214919757" lon="6.906733712106">
        <ele>1962.6</ele>
        <time>2018-01-30T09:38:03Z</time>
      </trkpt>
      <trkpt lat="45.690302762069" lon="6.906800515849">
        <ele>1961</ele>
        <time>2018-01-30T09:38:04Z</time>
      </trkpt>
      <trkpt lat="45.690302762069" lon="6.906800515849">
        <ele>1959</ele>
        <time>2018-01-30T09:38:05Z</time>
      </trkpt>
      <trkpt lat="45.690388592725" lon="6.906859524425">
        <ele>1956.4</ele>
        <time>2018-01-30T09:38:06Z</time>
      </trkpt>
      <trkpt lat="45.69048624186" lon="6.906924316512">
        <ele>1954</ele>
        <time>2018-01-30T09:38:07Z</time>
      </trkpt>
      <trkpt lat="45.690582717529" lon="6.907022217104">
        <ele>1951</ele>
        <time>2018-01-30T09:38:08Z</time>
      </trkpt>
      <trkpt lat="45.690683803243" lon="6.907115172375">
        <ele>1947.6</ele>
        <time>2018-01-30T09:38:09Z</time>
      </trkpt>
      <trkpt lat="45.690797294169" lon="6.907180635014">
        <ele>1943.8</ele>
        <time>2018-01-30T09:38:10Z</time>
      </trkpt>
      <trkpt lat="45.690918328805" lon="6.907259508693">
        <ele>1939.4</ele>
        <time>2018-01-30T09:38:11Z</time>
      </trkpt>
      <trkpt lat="45.691044895495" lon="6.90733016811">
        <ele>1935.4</ele>
        <time>2018-01-30T09:38:12Z</time>
      </trkpt>
      <trkpt lat="45.691172216556" lon="6.907358079837">
        <ele>1931.2</ele>
        <time>2018-01-30T09:38:13Z</time>
      </trkpt>
      <trkpt lat="45.691301633092" lon="6.907387667944">
        <ele>1928</ele>
        <time>2018-01-30T09:38:14Z</time>
      </trkpt>
      <trkpt lat="45.691415543113" lon="6.907420273535">
        <ele>1924.8</ele>
        <time>2018-01-30T09:38:15Z</time>
      </trkpt>
      <trkpt lat="45.691546971305" lon="6.907416585499">
        <ele>1921.6</ele>
        <time>2018-01-30T09:38:16Z</time>
      </trkpt>
      <trkpt lat="45.691667838303" lon="6.907415076757">
        <ele>1918.4</ele>
        <time>2018-01-30T09:38:17Z</time>
      </trkpt>
      <trkpt lat="45.691783340885" lon="6.907461261026">
        <ele>1915.8</ele>
        <time>2018-01-30T09:38:18Z</time>
      </trkpt>
      <trkpt lat="45.691894317241" lon="6.907495962092">
        <ele>1913</ele>
        <time>2018-01-30T09:38:19Z</time>
      </trkpt>
      <trkpt lat="45.69200085119" lon="6.907534435013">
        <ele>1910</ele>
        <time>2018-01-30T09:38:20Z</time>
      </trkpt>
      <trkpt lat="45.692092130081" lon="6.907581708929">
        <ele>1907.4</ele>
        <time>2018-01-30T09:38:21Z</time>
      </trkpt>
      <trkpt lat="45.692264461945" lon="6.907633006157">
        <ele>1905.2</ele>
        <time>2018-01-30T09:38:22Z</time>
      </trkpt>
      <trkpt lat="45.692352807171" lon="6.907664354463">
        <ele>1903.2</ele>
        <time>2018-01-30T09:38:23Z</time>
      </trkpt>
      <trkpt lat="45.692352807171" lon="6.907664354463">
        <ele>1901.2</ele>
        <time>2018-01-30T09:38:24Z</time>
      </trkpt>
      <trkpt lat="45.692423047493" lon="6.907712215112">
        <ele>1899.2</ele>
        <time>2018-01-30T09:38:25Z</time>
      </trkpt>
      <trkpt lat="45.692501418258" lon="6.907748005825">
        <ele>1897.8</ele>
        <time>2018-01-30T09:38:26Z</time>
      </trkpt>
      <trkpt lat="45.692663943299" lon="6.907828639703">
        <ele>1896.6</ele>
        <time>2018-01-30T09:38:27Z</time>
      </trkpt>
      <trkpt lat="45.69273175287" lon="6.907918493671">
        <ele>1895.4</ele>
        <time>2018-01-30T09:38:28Z</time>
      </trkpt>
      <trkpt lat="45.69273175287" lon="6.907918493671">
        <ele>1893.8</ele>
        <time>2018-01-30T09:38:29Z</time>
      </trkpt>
      <trkpt lat="45.692801238821" lon="6.907998959911">
        <ele>1892.2</ele>
        <time>2018-01-30T09:38:30Z</time>
      </trkpt>
      <trkpt lat="45.692885057821" lon="6.908033577158">
        <ele>1890.4</ele>
        <time>2018-01-30T09:38:31Z</time>
      </trkpt>
      <trkpt lat="45.692982036404" lon="6.908032319873">
        <ele>1889</ele>
        <time>2018-01-30T09:38:32Z</time>
      </trkpt>
      <trkpt lat="45.69307373439" lon="6.908076911581">
        <ele>1887.6</ele>
        <time>2018-01-30T09:38:33Z</time>
      </trkpt>
      <trkpt lat="45.693150596413" lon="6.908146481351">
        <ele>1885.8</ele>
        <time>2018-01-30T09:38:34Z</time>
      </trkpt>
      <trkpt lat="45.693231984662" lon="6.908191408335">
        <ele>1883.8</ele>
        <time>2018-01-30T09:38:35Z</time>
      </trkpt>
      <trkpt lat="45.69332267682" lon="6.90819601838">
        <ele>1881.6</ele>
        <time>2018-01-30T09:38:36Z</time>
      </trkpt>
      <trkpt lat="45.693408842752" lon="6.908230635627">
        <ele>1879.6</ele>
        <time>2018-01-30T09:38:37Z</time>
      </trkpt>
      <trkpt lat="45.693486459146" lon="6.908301211225">
        <ele>1877.6</ele>
        <time>2018-01-30T09:38:38Z</time>
      </trkpt>
      <trkpt lat="45.693554771631" lon="6.908362902009">
        <ele>1875.6</ele>
        <time>2018-01-30T09:38:39Z</time>
      </trkpt>
      <trkpt lat="45.693634064405" lon="6.908395675238">
        <ele>1873.2</ele>
        <time>2018-01-30T09:38:40Z</time>
      </trkpt>
      <trkpt lat="45.693714279188" lon="6.908448732665">
        <ele>1871</ele>
        <time>2018-01-30T09:38:41Z</time>
      </trkpt>
      <trkpt lat="45.693785441519" lon="6.908514614399">
        <ele>1868.8</ele>
        <time>2018-01-30T09:38:42Z</time>
      </trkpt>
      <trkpt lat="45.693849479235" lon="6.908559122288">
        <ele>1866.8</ele>
        <time>2018-01-30T09:38:43Z</time>
      </trkpt>
      <trkpt lat="45.693938411194" lon="6.908597176114">
        <ele>1864.8</ele>
        <time>2018-01-30T09:38:44Z</time>
      </trkpt>
      <trkpt lat="45.694031282646" lon="6.908663057848">
        <ele>1862.8</ele>
        <time>2018-01-30T09:38:45Z</time>
      </trkpt>
      <trkpt lat="45.694106216832" lon="6.908735393645">
        <ele>1860.6</ele>
        <time>2018-01-30T09:38:46Z</time>
      </trkpt>
      <trkpt lat="45.694161202096" lon="6.90876179663">
        <ele>1857.8</ele>
        <time>2018-01-30T09:38:47Z</time>
      </trkpt>
      <trkpt lat="45.694238567033" lon="6.90874335645">
        <ele>1854.8</ele>
        <time>2018-01-30T09:38:48Z</time>
      </trkpt>
      <trkpt lat="45.694328001906" lon="6.908750313427">
        <ele>1852.4</ele>
        <time>2018-01-30T09:38:49Z</time>
      </trkpt>
      <trkpt lat="45.69447015893" lon="6.908767077227">
        <ele>1850.2</ele>
        <time>2018-01-30T09:38:50Z</time>
      </trkpt>
      <trkpt lat="45.69447015893" lon="6.908767077227">
        <ele>1847.6</ele>
        <time>2018-01-30T09:38:51Z</time>
      </trkpt>
      <trkpt lat="45.694635701455" lon="6.908731370333">
        <ele>1845</ele>
        <time>2018-01-30T09:38:52Z</time>
      </trkpt>
      <trkpt lat="45.694635701455" lon="6.908731370333">
        <ele>1842.4</ele>
        <time>2018-01-30T09:38:53Z</time>
      </trkpt>
      <trkpt lat="45.694809039147" lon="6.908654089215">
        <ele>1839.8</ele>
        <time>2018-01-30T09:38:54Z</time>
      </trkpt>
      <trkpt lat="45.694903419341" lon="6.908641516365">
        <ele>1836.6</ele>
        <time>2018-01-30T09:38:55Z</time>
      </trkpt>
      <trkpt lat="45.694986400151" lon="6.908654675948">
        <ele>1833</ele>
        <time>2018-01-30T09:38:56Z</time>
      </trkpt>
      <trkpt lat="45.694986400151" lon="6.908654675948">
        <ele>1829</ele>
        <time>2018-01-30T09:38:57Z</time>
      </trkpt>
      <trkpt lat="45.695069297142" lon="6.908634224112">
        <ele>1825</ele>
        <time>2018-01-30T09:38:58Z</time>
      </trkpt>
      <trkpt lat="45.695170215218" lon="6.908592566069">
        <ele>1821.4</ele>
        <time>2018-01-30T09:38:59Z</time>
      </trkpt>
      <trkpt lat="45.695256548788" lon="6.908577981563">
        <ele>1818.4</ele>
        <time>2018-01-30T09:39:00Z</time>
      </trkpt>
      <trkpt lat="45.695355119932" lon="6.908551327121">
        <ele>1815</ele>
        <time>2018-01-30T09:39:01Z</time>
      </trkpt>
      <trkpt lat="45.695485877572" lon="6.908493240554">
        <ele>1811.2</ele>
        <time>2018-01-30T09:39:02Z</time>
      </trkpt>
      <trkpt lat="45.695632812279" lon="6.908447223923">
        <ele>1806.6</ele>
        <time>2018-01-30T09:39:03Z</time>
      </trkpt>
      <trkpt lat="45.695751583802" lon="6.908389472632">
        <ele>1800.8</ele>
        <time>2018-01-30T09:39:04Z</time>
      </trkpt>
      <trkpt lat="45.695870020049" lon="6.908280005018">
        <ele>1794</ele>
        <time>2018-01-30T09:39:05Z</time>
      </trkpt>
      <trkpt lat="45.695990132676" lon="6.90817338725">
        <ele>1788.4</ele>
        <time>2018-01-30T09:39:06Z</time>
      </trkpt>
      <trkpt lat="45.696101444308" lon="6.908085461119">
        <ele>1784.2</ele>
        <time>2018-01-30T09:39:07Z</time>
      </trkpt>
      <trkpt lat="45.696174450657" lon="6.907997702626">
        <ele>1780.2</ele>
        <time>2018-01-30T09:39:08Z</time>
      </trkpt>
      <trkpt lat="45.696221054021" lon="6.907907597201">
        <ele>1775.8</ele>
        <time>2018-01-30T09:39:09Z</time>
      </trkpt>
      <trkpt lat="45.696279308226" lon="6.907830148445">
        <ele>1772.2</ele>
        <time>2018-01-30T09:39:10Z</time>
      </trkpt>
      <trkpt lat="45.696344854684" lon="6.907802404356">
        <ele>1769.6</ele>
        <time>2018-01-30T09:39:11Z</time>
      </trkpt>
      <trkpt lat="45.696397241559" lon="6.907793016628">
        <ele>1767.8</ele>
        <time>2018-01-30T09:39:12Z</time>
      </trkpt>
      <trkpt lat="45.6964340381" lon="6.907768625299">
        <ele>1766.4</ele>
        <time>2018-01-30T09:39:13Z</time>
      </trkpt>
      <trkpt lat="45.696447365321" lon="6.907733588957">
        <ele>1764.6</ele>
        <time>2018-01-30T09:39:14Z</time>
      </trkpt>
      <trkpt lat="45.696449796072" lon="6.907688159059">
        <ele>1763</ele>
        <time>2018-01-30T09:39:15Z</time>
      </trkpt>
      <trkpt lat="45.696455244307" lon="6.907645243731">
        <ele>1761.4</ele>
        <time>2018-01-30T09:39:16Z</time>
      </trkpt>
      <trkpt lat="45.696471421374" lon="6.907615404167">
        <ele>1760.2</ele>
        <time>2018-01-30T09:39:17Z</time>
      </trkpt>
      <trkpt lat="45.696512744141" lon="6.907604591516">
        <ele>1758.6</ele>
        <time>2018-01-30T09:39:19Z</time>
      </trkpt>
      <trkpt lat="45.696529005027" lon="6.907600149109">
        <ele>1758</ele>
        <time>2018-01-30T09:39:20Z</time>
      </trkpt>
      <trkpt lat="45.696536464918" lon="6.907580032549">
        <ele>1757.4</ele>
        <time>2018-01-30T09:39:21Z</time>
      </trkpt>
      <trkpt lat="45.696534201805" lon="6.907521694525">
        <ele>1756.4</ele>
        <time>2018-01-30T09:39:23Z</time>
      </trkpt>
      <trkpt lat="45.696541410239" lon="6.907472576591">
        <ele>1755.2</ele>
        <time>2018-01-30T09:39:26Z</time>
      </trkpt>
      <trkpt lat="45.696562364989" lon="6.907433097842">
        <ele>1755</ele>
        <time>2018-01-30T09:39:27Z</time>
      </trkpt>
      <trkpt lat="45.696636544804" lon="6.907324887513">
        <ele>1753.8</ele>
        <time>2018-01-30T09:39:31Z</time>
      </trkpt>
      <trkpt lat="45.69671986089" lon="6.907314829233">
        <ele>1752.4</ele>
        <time>2018-01-30T09:39:33Z</time>
      </trkpt>
      <trkpt lat="45.696763614408" lon="6.907314661595">
        <ele>1751</ele>
        <time>2018-01-30T09:39:34Z</time>
      </trkpt>
      <trkpt lat="45.696813319075" lon="6.907262526177">
        <ele>1749.2</ele>
        <time>2018-01-30T09:39:35Z</time>
      </trkpt>
      <trkpt lat="45.696937874109" lon="6.907238889219">
        <ele>1746.6</ele>
        <time>2018-01-30T09:39:36Z</time>
      </trkpt>
      <trkpt lat="45.696937874109" lon="6.907238889219">
        <ele>1744</ele>
        <time>2018-01-30T09:39:37Z</time>
      </trkpt>
      <trkpt lat="45.696998726703" lon="6.907208127646">
        <ele>1741.4</ele>
        <time>2018-01-30T09:39:38Z</time>
      </trkpt>
      <trkpt lat="45.697054382519" lon="6.907130930347">
        <ele>1738.4</ele>
        <time>2018-01-30T09:39:39Z</time>
      </trkpt>
      <trkpt lat="45.697109786878" lon="6.907072508504">
        <ele>1735.2</ele>
        <time>2018-01-30T09:39:40Z</time>
      </trkpt>
      <trkpt lat="45.697172734947" lon="6.907074939255">
        <ele>1731.8</ele>
        <time>2018-01-30T09:39:41Z</time>
      </trkpt>
      <trkpt lat="45.697212297515" lon="6.907061779672">
        <ele>1728.2</ele>
        <time>2018-01-30T09:39:42Z</time>
      </trkpt>
      <trkpt lat="45.697244316373" lon="6.907020205448">
        <ele>1725.4</ele>
        <time>2018-01-30T09:39:43Z</time>
      </trkpt>
      <trkpt lat="45.69725294973" lon="6.90695549718">
        <ele>1722.6</ele>
        <time>2018-01-30T09:39:44Z</time>
      </trkpt>
      <trkpt lat="45.697283878941" lon="6.906903277943">
        <ele>1720.4</ele>
        <time>2018-01-30T09:39:45Z</time>
      </trkpt>
      <trkpt lat="45.697309024641" lon="6.906847789765">
        <ele>1718</ele>
        <time>2018-01-30T09:39:46Z</time>
      </trkpt>
      <trkpt lat="45.697337523101" lon="6.906795989623">
        <ele>1716</ele>
        <time>2018-01-30T09:39:47Z</time>
      </trkpt>
      <trkpt lat="45.69737197271" lon="6.906705297465">
        <ele>1713.8</ele>
        <time>2018-01-30T09:39:48Z</time>
      </trkpt>
      <trkpt lat="45.697426790336" lon="6.906610498176">
        <ele>1711</ele>
        <time>2018-01-30T09:39:49Z</time>
      </trkpt>
      <trkpt lat="45.697507256576" lon="6.90655232779">
        <ele>1707.6</ele>
        <time>2018-01-30T09:39:50Z</time>
      </trkpt>
      <trkpt lat="45.697582861314" lon="6.906517962">
        <ele>1704</ele>
        <time>2018-01-30T09:39:51Z</time>
      </trkpt>
      <trkpt lat="45.697637511302" lon="6.906496588155">
        <ele>1700.8</ele>
        <time>2018-01-30T09:39:52Z</time>
      </trkpt>
      <trkpt lat="45.697673302015" lon="6.906329704526">
        <ele>1698</ele>
        <time>2018-01-30T09:39:53Z</time>
      </trkpt>
      <trkpt lat="45.697673302015" lon="6.906329704526">
        <ele>1695</ele>
        <time>2018-01-30T09:39:54Z</time>
      </trkpt>
      <trkpt lat="45.697696603697" lon="6.906231971572">
        <ele>1691.6</ele>
        <time>2018-01-30T09:39:55Z</time>
      </trkpt>
      <trkpt lat="45.697753181522" lon="6.906150750961">
        <ele>1688.6</ele>
        <time>2018-01-30T09:39:56Z</time>
      </trkpt>
      <trkpt lat="45.697827696613" lon="6.906159049042">
        <ele>1686.2</ele>
        <time>2018-01-30T09:39:57Z</time>
      </trkpt>
      <trkpt lat="45.697893997442" lon="6.90614832021">
        <ele>1683.6</ele>
        <time>2018-01-30T09:39:58Z</time>
      </trkpt>
      <trkpt lat="45.697946300498" lon="6.906092496756">
        <ele>1680.8</ele>
        <time>2018-01-30T09:39:59Z</time>
      </trkpt>
      <trkpt lat="45.697954933855" lon="6.905961320021">
        <ele>1677.8</ele>
        <time>2018-01-30T09:40:00Z</time>
      </trkpt>
      <trkpt lat="45.69798552779" lon="6.905849756932">
        <ele>1674.6</ele>
        <time>2018-01-30T09:40:01Z</time>
      </trkpt>
      <trkpt lat="45.698038501398" lon="6.905795693677">
        <ele>1670.8</ele>
        <time>2018-01-30T09:40:02Z</time>
      </trkpt>
      <trkpt lat="45.698156853826" lon="6.905712126134">
        <ele>1667.2</ele>
        <time>2018-01-30T09:40:03Z</time>
      </trkpt>
      <trkpt lat="45.698156853826" lon="6.905712126134">
        <ele>1663.8</ele>
        <time>2018-01-30T09:40:04Z</time>
      </trkpt>
      <trkpt lat="45.698227010329" lon="6.905617997397">
        <ele>1660.6</ele>
        <time>2018-01-30T09:40:05Z</time>
      </trkpt>
      <trkpt lat="45.698315942288" lon="6.905566867807">
        <ele>1657.4</ele>
        <time>2018-01-30T09:40:06Z</time>
      </trkpt>
      <trkpt lat="45.698402275858" lon="6.905524539212">
        <ele>1653.6</ele>
        <time>2018-01-30T09:40:07Z</time>
      </trkpt>
      <trkpt lat="45.698476371854" lon="6.905437954185">
        <ele>1649.8</ele>
        <time>2018-01-30T09:40:08Z</time>
      </trkpt>
      <trkpt lat="45.698556167542" lon="6.905350866244">
        <ele>1646.6</ele>
        <time>2018-01-30T09:40:09Z</time>
      </trkpt>
      <trkpt lat="45.698632191375" lon="6.905272663117">
        <ele>1644</ele>
        <time>2018-01-30T09:40:10Z</time>
      </trkpt>
      <trkpt lat="45.698696648186" lon="6.905197896569">
        <ele>1641.2</ele>
        <time>2018-01-30T09:40:11Z</time>
      </trkpt>
      <trkpt lat="45.69872732594" lon="6.905105863307">
        <ele>1638.6</ele>
        <time>2018-01-30T09:40:12Z</time>
      </trkpt>
      <trkpt lat="45.698734953469" lon="6.905007459801">
        <ele>1636.2</ele>
        <time>2018-01-30T09:40:13Z</time>
      </trkpt>
      <trkpt lat="45.698731852166" lon="6.904925401">
        <ele>1634.8</ele>
        <time>2018-01-30T09:40:14Z</time>
      </trkpt>
      <trkpt lat="45.698717183841" lon="6.904813251178">
        <ele>1633.6</ele>
        <time>2018-01-30T09:40:16Z</time>
      </trkpt>
      <trkpt lat="45.698704610991" lon="6.904779304483">
        <ele>1633.4</ele>
        <time>2018-01-30T09:40:17Z</time>
      </trkpt>
      <trkpt lat="45.698656750342" lon="6.904814592282">
        <ele>1632.8</ele>
        <time>2018-01-30T09:40:23Z</time>
      </trkpt>
      <trkpt lat="45.698656750342" lon="6.904814592282">
        <ele>1632.6</ele>
        <time>2018-01-30T09:40:24Z</time>
      </trkpt>
      <trkpt lat="45.698654654867" lon="6.904814508463">
        <ele>1632.6</ele>
        <time>2018-01-30T09:40:26Z</time>
      </trkpt>
      <trkpt lat="45.698455500923" lon="6.904936381289">
        <ele>1631.2</ele>
        <time>2018-01-30T09:41:04Z</time>
      </trkpt>
      <trkpt lat="45.698233045297" lon="6.905038389012">
        <ele>1631.4</ele>
        <time>2018-01-30T09:41:10Z</time>
      </trkpt>
      <trkpt lat="45.69817244416" lon="6.905062612703">
        <ele>1633.2</ele>
        <time>2018-01-30T09:41:12Z</time>
      </trkpt>
      <trkpt lat="45.6952773359" lon="6.906504131865">
        <ele>1785</ele>
        <time>2018-01-30T09:42:44Z</time>
      </trkpt>
      <trkpt lat="45.68585105116" lon="6.911455906928">
        <ele>2103.2</ele>
        <time>2018-01-30T09:52:33Z</time>
      </trkpt>
      <trkpt lat="45.685851973169" lon="6.911586916025">
        <ele>2103.2</ele>
        <time>2018-01-30T09:52:35Z</time>
      </trkpt>
      <trkpt lat="45.685814422257" lon="6.911888580606">
        <ele>2102.4</ele>
        <time>2018-01-30T09:52:37Z</time>
      </trkpt>
      <trkpt lat="45.685756670966" lon="6.912049010172">
        <ele>2101.4</ele>
        <time>2018-01-30T09:52:38Z</time>
      </trkpt>
      <trkpt lat="45.685695902191" lon="6.912210780842">
        <ele>2099.4</ele>
        <time>2018-01-30T09:52:39Z</time>
      </trkpt>
      <trkpt lat="45.685656674899" lon="6.912390991692">
        <ele>2096.6</ele>
        <time>2018-01-30T09:52:40Z</time>
      </trkpt>
      <trkpt lat="45.685599845617" lon="6.912562736823">
        <ele>2093.4</ele>
        <time>2018-01-30T09:52:41Z</time>
      </trkpt>
      <trkpt lat="45.68553589172" lon="6.912724926588">
        <ele>2090.8</ele>
        <time>2018-01-30T09:52:42Z</time>
      </trkpt>
      <trkpt lat="45.685490378003" lon="6.912894408606">
        <ele>2088.6</ele>
        <time>2018-01-30T09:52:43Z</time>
      </trkpt>
      <trkpt lat="45.685440589517" lon="6.91307344599">
        <ele>2086.2</ele>
        <time>2018-01-30T09:52:44Z</time>
      </trkpt>
      <trkpt lat="45.685386023348" lon="6.913244520569">
        <ele>2083.8</ele>
        <time>2018-01-30T09:52:45Z</time>
      </trkpt>
      <trkpt lat="45.685347718065" lon="6.913417187709">
        <ele>2081.4</ele>
        <time>2018-01-30T09:52:46Z</time>
      </trkpt>
      <trkpt lat="45.685312765542" lon="6.91360150569">
        <ele>2079.2</ele>
        <time>2018-01-30T09:52:47Z</time>
      </trkpt>
      <trkpt lat="45.685287452204" lon="6.913783225282">
        <ele>2077</ele>
        <time>2018-01-30T09:52:48Z</time>
      </trkpt>
      <trkpt lat="45.685288458032" lon="6.913952204386">
        <ele>2074.8</ele>
        <time>2018-01-30T09:52:49Z</time>
      </trkpt>
      <trkpt lat="45.685327350048" lon="6.91409603779">
        <ele>2072.4</ele>
        <time>2018-01-30T09:52:50Z</time>
      </trkpt>
      <trkpt lat="45.685382251493" lon="6.914247163447">
        <ele>2070.2</ele>
        <time>2018-01-30T09:52:51Z</time>
      </trkpt>
      <trkpt lat="45.685431620884" lon="6.914399378751">
        <ele>2068.8</ele>
        <time>2018-01-30T09:52:52Z</time>
      </trkpt>
      <trkpt lat="45.685483169569" lon="6.914538769748">
        <ele>2067.2</ele>
        <time>2018-01-30T09:52:53Z</time>
      </trkpt>
      <trkpt lat="45.685548548389" lon="6.91467522708">
        <ele>2066</ele>
        <time>2018-01-30T09:52:54Z</time>
      </trkpt>
      <trkpt lat="45.685618453435" lon="6.914807242005">
        <ele>2064.6</ele>
        <time>2018-01-30T09:52:55Z</time>
      </trkpt>
      <trkpt lat="45.685688526119" lon="6.914942274414">
        <ele>2063.4</ele>
        <time>2018-01-30T09:52:56Z</time>
      </trkpt>
      <trkpt lat="45.685762705934" lon="6.91507923466">
        <ele>2062.2</ele>
        <time>2018-01-30T09:52:57Z</time>
      </trkpt>
      <trkpt lat="45.685837807758" lon="6.915221643141">
        <ele>2061</ele>
        <time>2018-01-30T09:52:58Z</time>
      </trkpt>
      <trkpt lat="45.685919950378" lon="6.915368577848">
        <ele>2059.8</ele>
        <time>2018-01-30T09:52:59Z</time>
      </trkpt>
      <trkpt lat="45.686008547061" lon="6.915513333261">
        <ele>2058.4</ele>
        <time>2018-01-30T09:53:00Z</time>
      </trkpt>
      <trkpt lat="45.6860907735" lon="6.915666722031">
        <ele>2056.8</ele>
        <time>2018-01-30T09:53:01Z</time>
      </trkpt>
      <trkpt lat="45.686156403777" lon="6.915846010872">
        <ele>2055</ele>
        <time>2018-01-30T09:53:02Z</time>
      </trkpt>
      <trkpt lat="45.68621985476" lon="6.916028652473">
        <ele>2052.4</ele>
        <time>2018-01-30T09:53:03Z</time>
      </trkpt>
      <trkpt lat="45.686274253291" lon="6.916212886635">
        <ele>2049.4</ele>
        <time>2018-01-30T09:53:04Z</time>
      </trkpt>
      <trkpt lat="45.686314318773" lon="6.916406005611">
        <ele>2046.6</ele>
        <time>2018-01-30T09:53:05Z</time>
      </trkpt>
      <trkpt lat="45.686341811405" lon="6.916603566994">
        <ele>2044.6</ele>
        <time>2018-01-30T09:53:06Z</time>
      </trkpt>
      <trkpt lat="45.686357737015" lon="6.916798278531">
        <ele>2043.2</ele>
        <time>2018-01-30T09:53:07Z</time>
      </trkpt>
      <trkpt lat="45.686369723132" lon="6.916986033091">
        <ele>2041.8</ele>
        <time>2018-01-30T09:53:08Z</time>
      </trkpt>
      <trkpt lat="45.68637911086" lon="6.91717051871">
        <ele>2040.6</ele>
        <time>2018-01-30T09:53:09Z</time>
      </trkpt>
      <trkpt lat="45.686397467221" lon="6.917350897198">
        <ele>2039.4</ele>
        <time>2018-01-30T09:53:10Z</time>
      </trkpt>
      <trkpt lat="45.686412387003" lon="6.917518954293">
        <ele>2038.2</ele>
        <time>2018-01-30T09:53:11Z</time>
      </trkpt>
      <trkpt lat="45.686428396432" lon="6.917674019443">
        <ele>2036.8</ele>
        <time>2018-01-30T09:53:12Z</time>
      </trkpt>
      <trkpt lat="45.686416745591" lon="6.917809051852">
        <ele>2035.4</ele>
        <time>2018-01-30T09:53:13Z</time>
      </trkpt>
      <trkpt lat="45.686398053954" lon="6.91790728772">
        <ele>2034.2</ele>
        <time>2018-01-30T09:53:14Z</time>
      </trkpt>
      <trkpt lat="45.686361844146" lon="6.917957914396">
        <ele>2033</ele>
        <time>2018-01-30T09:53:15Z</time>
      </trkpt>
      <trkpt lat="45.686304595769" lon="6.917981802811">
        <ele>2031.8</ele>
        <time>2018-01-30T09:53:16Z</time>
      </trkpt>
      <trkpt lat="45.686236786198" lon="6.918010888004">
        <ele>2030.8</ele>
        <time>2018-01-30T09:53:17Z</time>
      </trkpt>
      <trkpt lat="45.686093539527" lon="6.9180682202">
        <ele>2028.8</ele>
        <time>2018-01-30T09:53:19Z</time>
      </trkpt>
      <trkpt lat="45.686023047748" lon="6.918087163294">
        <ele>2028.2</ele>
        <time>2018-01-30T09:53:20Z</time>
      </trkpt>
      <trkpt lat="45.685960518774" lon="6.918094287909">
        <ele>2027.6</ele>
        <time>2018-01-30T09:53:21Z</time>
      </trkpt>
      <trkpt lat="45.685841328156" lon="6.918119098333">
        <ele>2026</ele>
        <time>2018-01-30T09:53:23Z</time>
      </trkpt>
      <trkpt lat="45.685724903565" lon="6.918166204611">
        <ele>2024.6</ele>
        <time>2018-01-30T09:53:25Z</time>
      </trkpt>
      <trkpt lat="45.685597247228" lon="6.918131755002">
        <ele>2023.2</ele>
        <time>2018-01-30T09:53:27Z</time>
      </trkpt>
      <trkpt lat="45.685458275326" lon="6.918100239058">
        <ele>2021.6</ele>
        <time>2018-01-30T09:53:29Z</time>
      </trkpt>
      <trkpt lat="45.68538166476" lon="6.918111554623">
        <ele>2020.4</ele>
        <time>2018-01-30T09:53:30Z</time>
      </trkpt>
      <trkpt lat="45.685305054194" lon="6.918126642043">
        <ele>2018.8</ele>
        <time>2018-01-30T09:53:31Z</time>
      </trkpt>
      <trkpt lat="45.68522157047" lon="6.918171904303">
        <ele>2016.8</ele>
        <time>2018-01-30T09:53:32Z</time>
      </trkpt>
      <trkpt lat="45.685142445334" lon="6.918241138797">
        <ele>2015</ele>
        <time>2018-01-30T09:53:33Z</time>
      </trkpt>
      <trkpt lat="45.685083185301" lon="6.918335686629">
        <ele>2013.4</ele>
        <time>2018-01-30T09:53:34Z</time>
      </trkpt>
      <trkpt lat="45.68502794858" lon="6.918442974949">
        <ele>2012.2</ele>
        <time>2018-01-30T09:53:35Z</time>
      </trkpt>
      <trkpt lat="45.684972795678" lon="6.918569038725">
        <ele>2010.8</ele>
        <time>2018-01-30T09:53:36Z</time>
      </trkpt>
      <trkpt lat="45.684902890632" lon="6.918710692835">
        <ele>2009.4</ele>
        <time>2018-01-30T09:53:37Z</time>
      </trkpt>
      <trkpt lat="45.684824519867" lon="6.91885025147">
        <ele>2008</ele>
        <time>2018-01-30T09:53:38Z</time>
      </trkpt>
      <trkpt lat="45.68475302226" lon="6.918992157037">
        <ele>2006</ele>
        <time>2018-01-30T09:53:39Z</time>
      </trkpt>
      <trkpt lat="45.684695773883" lon="6.919151664594">
        <ele>2004</ele>
        <time>2018-01-30T09:53:40Z</time>
      </trkpt>
      <trkpt lat="45.684638944601" lon="6.919311172151">
        <ele>2002.2</ele>
        <time>2018-01-30T09:53:41Z</time>
      </trkpt>
      <trkpt lat="45.684583456423" lon="6.919457352487">
        <ele>2000.8</ele>
        <time>2018-01-30T09:53:42Z</time>
      </trkpt>
      <trkpt lat="45.684531153367" lon="6.919578973856">
        <ele>1999.2</ele>
        <time>2018-01-30T09:53:43Z</time>
      </trkpt>
      <trkpt lat="45.684472060972" lon="6.919676539172">
        <ele>1997.6</ele>
        <time>2018-01-30T09:53:44Z</time>
      </trkpt>
      <trkpt lat="45.684405508686" lon="6.919754826118">
        <ele>1996.4</ele>
        <time>2018-01-30T09:53:45Z</time>
      </trkpt>
      <trkpt lat="45.68424172636" lon="6.919871753623">
        <ele>1994.8</ele>
        <time>2018-01-30T09:53:47Z</time>
      </trkpt>
      <trkpt lat="45.684004099495" lon="6.920010138792">
        <ele>1992.4</ele>
        <time>2018-01-30T09:53:49Z</time>
      </trkpt>
      <trkpt lat="45.683881220841" lon="6.920099657484">
        <ele>1990.2</ele>
        <time>2018-01-30T09:53:50Z</time>
      </trkpt>
      <trkpt lat="45.683757587816" lon="6.920193534764">
        <ele>1987.4</ele>
        <time>2018-01-30T09:53:51Z</time>
      </trkpt>
      <trkpt lat="45.683640576492" lon="6.920262853077">
        <ele>1984.6</ele>
        <time>2018-01-30T09:53:52Z</time>
      </trkpt>
      <trkpt lat="45.683533958724" lon="6.920326471698">
        <ele>1982.4</ele>
        <time>2018-01-30T09:53:53Z</time>
      </trkpt>
      <trkpt lat="45.683440165263" lon="6.920401824979">
        <ele>1981</ele>
        <time>2018-01-30T09:53:54Z</time>
      </trkpt>
      <trkpt lat="45.683349137829" lon="6.920455301501">
        <ele>1979.8</ele>
        <time>2018-01-30T09:53:55Z</time>
      </trkpt>
      <trkpt lat="45.683264313001" lon="6.920496288992">
        <ele>1978.8</ele>
        <time>2018-01-30T09:53:56Z</time>
      </trkpt>
      <trkpt lat="45.683189881729" lon="6.920548340591">
        <ele>1978</ele>
        <time>2018-01-30T09:53:57Z</time>
      </trkpt>
      <trkpt lat="45.683112013878" lon="6.920606510977">
        <ele>1977.2</ele>
        <time>2018-01-30T09:53:58Z</time>
      </trkpt>
      <trkpt lat="45.683031966733" lon="6.920650515952">
        <ele>1976.6</ele>
        <time>2018-01-30T09:53:59Z</time>
      </trkpt>
      <trkpt lat="45.682957786918" lon="6.920691922538">
        <ele>1976</ele>
        <time>2018-01-30T09:54:00Z</time>
      </trkpt>
      <trkpt lat="45.682812360953" lon="6.920797534478">
        <ele>1974.8</ele>
        <time>2018-01-30T09:54:02Z</time>
      </trkpt>
      <trkpt lat="45.682668779006" lon="6.920882778401">
        <ele>1973.4</ele>
        <time>2018-01-30T09:54:04Z</time>
      </trkpt>
      <trkpt lat="45.6825452298" lon="6.920972967645">
        <ele>1972.2</ele>
        <time>2018-01-30T09:54:06Z</time>
      </trkpt>
      <trkpt lat="45.682308357306" lon="6.921168517372">
        <ele>1970.2</ele>
        <time>2018-01-30T09:54:09Z</time>
      </trkpt>
      <trkpt lat="45.682213390379" lon="6.921261807919">
        <ele>1969</ele>
        <time>2018-01-30T09:54:10Z</time>
      </trkpt>
      <trkpt lat="45.682110544466" lon="6.921364653832">
        <ele>1967.4</ele>
        <time>2018-01-30T09:54:11Z</time>
      </trkpt>
      <trkpt lat="45.682005016345" lon="6.921482335708">
        <ele>1965.8</ele>
        <time>2018-01-30T09:54:12Z</time>
      </trkpt>
      <trkpt lat="45.681903427717" lon="6.921609656769">
        <ele>1963.6</ele>
        <time>2018-01-30T09:54:13Z</time>
      </trkpt>
      <trkpt lat="45.68181684269" lon="6.921758435494">
        <ele>1961.2</ele>
        <time>2018-01-30T09:54:14Z</time>
      </trkpt>
      <trkpt lat="45.681735705898" lon="6.921918781241">
        <ele>1959.2</ele>
        <time>2018-01-30T09:54:15Z</time>
      </trkpt>
      <trkpt lat="45.681662280454" lon="6.922079294626">
        <ele>1957.4</ele>
        <time>2018-01-30T09:54:16Z</time>
      </trkpt>
      <trkpt lat="45.681600673489" lon="6.922234275957">
        <ele>1955.8</ele>
        <time>2018-01-30T09:54:17Z</time>
      </trkpt>
      <trkpt lat="45.68154275456" lon="6.92238154594">
        <ele>1954.4</ele>
        <time>2018-01-30T09:54:18Z</time>
      </trkpt>
      <trkpt lat="45.681495648282" lon="6.922522445679">
        <ele>1952.8</ele>
        <time>2018-01-30T09:54:19Z</time>
      </trkpt>
      <trkpt lat="45.681445692158" lon="6.922651610758">
        <ele>1951.6</ele>
        <time>2018-01-30T09:54:20Z</time>
      </trkpt>
      <trkpt lat="45.68135164724" lon="6.922888734709">
        <ele>1950</ele>
        <time>2018-01-30T09:54:22Z</time>
      </trkpt>
      <trkpt lat="45.681231031699" lon="6.923184867236">
        <ele>1948.8</ele>
        <time>2018-01-30T09:54:25Z</time>
      </trkpt>
      <trkpt lat="45.681135226582" lon="6.923418638427">
        <ele>1947.6</ele>
        <time>2018-01-30T09:54:28Z</time>
      </trkpt>
      <trkpt lat="45.681095831652" lon="6.92354830642">
        <ele>1946.8</ele>
        <time>2018-01-30T09:54:30Z</time>
      </trkpt>
      <trkpt lat="45.681095496376" lon="6.923602034399">
        <ele>1946.6</ele>
        <time>2018-01-30T09:54:31Z</time>
      </trkpt>
      <trkpt lat="45.681120139162" lon="6.923610751575">
        <ele>1945.8</ele>
        <time>2018-01-30T09:54:34Z</time>
      </trkpt>
      <trkpt lat="45.681002792562" lon="6.922466873682">
        <ele>1945.2</ele>
        <time>2018-01-30T09:55:45Z</time>
      </trkpt>
      <trkpt lat="45.680931797869" lon="6.922248944282">
        <ele>1944</ele>
        <time>2018-01-30T09:55:50Z</time>
      </trkpt>
      <trkpt lat="45.680888547265" lon="6.922029422321">
        <ele>1944</ele>
        <time>2018-01-30T09:55:56Z</time>
      </trkpt>
      <trkpt lat="45.680869017438" lon="6.921936969964">
        <ele>1944.6</ele>
        <time>2018-01-30T09:56:02Z</time>
      </trkpt>
      <trkpt lat="45.680853259466" lon="6.92181912045">
        <ele>1944.4</ele>
        <time>2018-01-30T09:56:08Z</time>
      </trkpt>
      <trkpt lat="45.680852337457" lon="6.92181912045">
        <ele>1944.4</ele>
        <time>2018-01-30T09:56:09Z</time>
      </trkpt>
      <trkpt lat="45.680776145986" lon="6.921401785649">
        <ele>1946.6</ele>
        <time>2018-01-30T09:58:21Z</time>
      </trkpt>
      <trkpt lat="45.680850493439" lon="6.921723063876">
        <ele>1945.8</ele>
        <time>2018-01-30T09:58:27Z</time>
      </trkpt>
      <trkpt lat="45.680889050179" lon="6.921903274726">
        <ele>1945.6</ele>
        <time>2018-01-30T09:58:30Z</time>
      </trkpt>
      <trkpt lat="45.680912268042" lon="6.92203202071">
        <ele>1945.2</ele>
        <time>2018-01-30T09:58:32Z</time>
      </trkpt>
      <trkpt lat="45.680974629378" lon="6.922303426632">
        <ele>1944.6</ele>
        <time>2018-01-30T09:58:37Z</time>
      </trkpt>
      <trkpt lat="45.680984184744" lon="6.922356064964">
        <ele>1944.4</ele>
        <time>2018-01-30T09:58:38Z</time>
      </trkpt>
      <trkpt lat="45.68103313504" lon="6.922538538927">
        <ele>1944.4</ele>
        <time>2018-01-30T09:58:44Z</time>
      </trkpt>
      <trkpt lat="45.681051239944" lon="6.92264725217">
        <ele>1945</ele>
        <time>2018-01-30T09:58:50Z</time>
      </trkpt>
      <trkpt lat="45.681063058423" lon="6.922767197159">
        <ele>1945.2</ele>
        <time>2018-01-30T09:58:56Z</time>
      </trkpt>
      <trkpt lat="45.681069261029" lon="6.922781446389">
        <ele>1945.2</ele>
        <time>2018-01-30T09:58:57Z</time>
      </trkpt>
      <trkpt lat="45.681177806634" lon="6.923603459322">
        <ele>1945.4</ele>
        <time>2018-01-30T10:02:10Z</time>
      </trkpt>
      <trkpt lat="45.681165736698" lon="6.923817868324">
        <ele>1945.8</ele>
        <time>2018-01-30T10:02:16Z</time>
      </trkpt>
      <trkpt lat="45.681210579863" lon="6.923948374507">
        <ele>1945.8</ele>
        <time>2018-01-30T10:02:22Z</time>
      </trkpt>
      <trkpt lat="45.681230025871" lon="6.923980058089">
        <ele>1945.6</ele>
        <time>2018-01-30T10:02:26Z</time>
      </trkpt>
      <trkpt lat="45.681073032884" lon="6.923663473726">
        <ele>1943.8</ele>
        <time>2018-01-30T10:13:15Z</time>
      </trkpt>
      <trkpt lat="45.680991560816" lon="6.923809402605">
        <ele>1942.6</ele>
        <time>2018-01-30T10:13:20Z</time>
      </trkpt>
      <trkpt lat="45.680966750392" lon="6.923883247144">
        <ele>1942.6</ele>
        <time>2018-01-30T10:13:22Z</time>
      </trkpt>
      <trkpt lat="45.680941269416" lon="6.92394057934">
        <ele>1942.4</ele>
        <time>2018-01-30T10:13:24Z</time>
      </trkpt>
      <trkpt lat="45.680900449563" lon="6.924115509593">
        <ele>1941.6</ele>
        <time>2018-01-30T10:13:30Z</time>
      </trkpt>
      <trkpt lat="45.680895504242" lon="6.924139398008">
        <ele>1941.4</ele>
        <time>2018-01-30T10:13:31Z</time>
      </trkpt>
      <trkpt lat="45.680911094576" lon="6.924334444821">
        <ele>1940.4</ele>
        <time>2018-01-30T10:13:37Z</time>
      </trkpt>
      <trkpt lat="45.68090070102" lon="6.924440056761">
        <ele>1940.2</ele>
        <time>2018-01-30T10:13:39Z</time>
      </trkpt>
      <trkpt lat="45.680874800949" lon="6.924581710871">
        <ele>1939.6</ele>
        <time>2018-01-30T10:13:41Z</time>
      </trkpt>
      <trkpt lat="45.680874633311" lon="6.924664691681">
        <ele>1939</ele>
        <time>2018-01-30T10:13:42Z</time>
      </trkpt>
      <trkpt lat="45.680892570577" lon="6.92475530002">
        <ele>1938.4</ele>
        <time>2018-01-30T10:13:43Z</time>
      </trkpt>
      <trkpt lat="45.680917800096" lon="6.924851524232">
        <ele>1937.6</ele>
        <time>2018-01-30T10:13:44Z</time>
      </trkpt>
      <trkpt lat="45.680978987966" lon="6.925036261308">
        <ele>1936</ele>
        <time>2018-01-30T10:13:46Z</time>
      </trkpt>
      <trkpt lat="45.681047048994" lon="6.925215382511">
        <ele>1934.4</ele>
        <time>2018-01-30T10:13:48Z</time>
      </trkpt>
      <trkpt lat="45.681117959868" lon="6.925401293053">
        <ele>1933</ele>
        <time>2018-01-30T10:13:50Z</time>
      </trkpt>
      <trkpt lat="45.681189708932" lon="6.925614528589">
        <ele>1931.6</ele>
        <time>2018-01-30T10:13:52Z</time>
      </trkpt>
      <trkpt lat="45.681261709453" lon="6.925862884286">
        <ele>1929.6</ele>
        <time>2018-01-30T10:13:54Z</time>
      </trkpt>
      <trkpt lat="45.681295739967" lon="6.925997749057">
        <ele>1928.6</ele>
        <time>2018-01-30T10:13:55Z</time>
      </trkpt>
      <trkpt lat="45.681321304762" lon="6.926141750099">
        <ele>1927.2</ele>
        <time>2018-01-30T10:13:56Z</time>
      </trkpt>
      <trkpt lat="45.681335637811" lon="6.926291450833">
        <ele>1926</ele>
        <time>2018-01-30T10:13:57Z</time>
      </trkpt>
      <trkpt lat="45.681340164037" lon="6.926439559006">
        <ele>1924.8</ele>
        <time>2018-01-30T10:13:58Z</time>
      </trkpt>
      <trkpt lat="45.68134158896" lon="6.926584314419">
        <ele>1923.4</ele>
        <time>2018-01-30T10:13:59Z</time>
      </trkpt>
      <trkpt lat="45.681346953376" lon="6.926716916077">
        <ele>1921.8</ele>
        <time>2018-01-30T10:14:00Z</time>
      </trkpt>
      <trkpt lat="45.681354413267" lon="6.926844320957">
        <ele>1920.6</ele>
        <time>2018-01-30T10:14:01Z</time>
      </trkpt>
      <trkpt lat="45.681351814878" lon="6.927088653342">
        <ele>1919.4</ele>
        <time>2018-01-30T10:14:03Z</time>
      </trkpt>
      <trkpt lat="45.681340247856" lon="6.92733189608">
        <ele>1918</ele>
        <time>2018-01-30T10:14:05Z</time>
      </trkpt>
      <trkpt lat="45.68132733973" lon="6.927582933985">
        <ele>1916.2</ele>
        <time>2018-01-30T10:14:07Z</time>
      </trkpt>
      <trkpt lat="45.681306636437" lon="6.927832966062">
        <ele>1914.4</ele>
        <time>2018-01-30T10:14:09Z</time>
      </trkpt>
      <trkpt lat="45.681274785217" lon="6.928073023678">
        <ele>1913</ele>
        <time>2018-01-30T10:14:11Z</time>
      </trkpt>
      <trkpt lat="45.681252154087" lon="6.928186346966">
        <ele>1912.2</ele>
        <time>2018-01-30T10:14:12Z</time>
      </trkpt>
      <trkpt lat="45.68120747856" lon="6.928261784066">
        <ele>1911.6</ele>
        <time>2018-01-30T10:14:13Z</time>
      </trkpt>
      <trkpt lat="45.681063226061" lon="6.928297910055">
        <ele>1909.6</ele>
        <time>2018-01-30T10:14:15Z</time>
      </trkpt>
      <trkpt lat="45.681007234969" lon="6.928363037418">
        <ele>1908.4</ele>
        <time>2018-01-30T10:14:16Z</time>
      </trkpt>
      <trkpt lat="45.680970186971" lon="6.928479881104">
        <ele>1906.4</ele>
        <time>2018-01-30T10:14:17Z</time>
      </trkpt>
      <trkpt lat="45.680918889743" lon="6.928592030926">
        <ele>1904.6</ele>
        <time>2018-01-30T10:14:18Z</time>
      </trkpt>
      <trkpt lat="45.68085376238" lon="6.928665959284">
        <ele>1902.4</ele>
        <time>2018-01-30T10:14:19Z</time>
      </trkpt>
      <trkpt lat="45.680787293913" lon="6.928724297308">
        <ele>1900.4</ele>
        <time>2018-01-30T10:14:20Z</time>
      </trkpt>
      <trkpt lat="45.680735912866" lon="6.928814989466">
        <ele>1898.6</ele>
        <time>2018-01-30T10:14:21Z</time>
      </trkpt>
      <trkpt lat="45.680680508507" lon="6.928918505931">
        <ele>1896.8</ele>
        <time>2018-01-30T10:14:22Z</time>
      </trkpt>
      <trkpt lat="45.680612279841" lon="6.929014562505">
        <ele>1894.8</ele>
        <time>2018-01-30T10:14:23Z</time>
      </trkpt>
      <trkpt lat="45.680549164134" lon="6.929112798373">
        <ele>1892.4</ele>
        <time>2018-01-30T10:14:24Z</time>
      </trkpt>
      <trkpt lat="45.680498705096" lon="6.929228803869">
        <ele>1890.4</ele>
        <time>2018-01-30T10:14:25Z</time>
      </trkpt>
      <trkpt lat="45.680465764229" lon="6.929371715264">
        <ele>1888.8</ele>
        <time>2018-01-30T10:14:26Z</time>
      </trkpt>
      <trkpt lat="45.680410443689" lon="6.929504568379">
        <ele>1887.4</ele>
        <time>2018-01-30T10:14:27Z</time>
      </trkpt>
      <trkpt lat="45.680346322154" lon="6.929617137296">
        <ele>1885.8</ele>
        <time>2018-01-30T10:14:28Z</time>
      </trkpt>
      <trkpt lat="45.680293264727" lon="6.929740183588">
        <ele>1883.8</ele>
        <time>2018-01-30T10:14:29Z</time>
      </trkpt>
      <trkpt lat="45.680255210901" lon="6.929892063616">
        <ele>1881.6</ele>
        <time>2018-01-30T10:14:30Z</time>
      </trkpt>
      <trkpt lat="45.680205422415" lon="6.930044698015">
        <ele>1879.6</ele>
        <time>2018-01-30T10:14:31Z</time>
      </trkpt>
      <trkpt lat="45.680138953948" lon="6.930185765392">
        <ele>1877.2</ele>
        <time>2018-01-30T10:14:32Z</time>
      </trkpt>
      <trkpt lat="45.680039796071" lon="6.930333370651">
        <ele>1873.6</ele>
        <time>2018-01-30T10:14:33Z</time>
      </trkpt>
      <trkpt lat="45.679955641795" lon="6.93052707636">
        <ele>1869.2</ele>
        <time>2018-01-30T10:14:34Z</time>
      </trkpt>
      <trkpt lat="45.679913899933" lon="6.93075674042">
        <ele>1864.4</ele>
        <time>2018-01-30T10:14:35Z</time>
      </trkpt>
      <trkpt lat="45.679853634072" lon="6.930963354255">
        <ele>1860.2</ele>
        <time>2018-01-30T10:14:36Z</time>
      </trkpt>
      <trkpt lat="45.679763612466" lon="6.931125292563">
        <ele>1856.6</ele>
        <time>2018-01-30T10:14:37Z</time>
      </trkpt>
      <trkpt lat="45.679691779583" lon="6.931269545062">
        <ele>1853.2</ele>
        <time>2018-01-30T10:14:38Z</time>
      </trkpt>
      <trkpt lat="45.679665041322" lon="6.931436093415">
        <ele>1850</ele>
        <time>2018-01-30T10:14:39Z</time>
      </trkpt>
      <trkpt lat="45.679673926136" lon="6.931600462474">
        <ele>1846.8</ele>
        <time>2018-01-30T10:14:40Z</time>
      </trkpt>
      <trkpt lat="45.67967694362" lon="6.931770531225">
        <ele>1844.8</ele>
        <time>2018-01-30T10:14:41Z</time>
      </trkpt>
      <trkpt lat="45.679635453215" lon="6.931931715162">
        <ele>1843.6</ele>
        <time>2018-01-30T10:14:42Z</time>
      </trkpt>
      <trkpt lat="45.679593040801" lon="6.932096922411">
        <ele>1842</ele>
        <time>2018-01-30T10:14:43Z</time>
      </trkpt>
      <trkpt lat="45.679592705525" lon="6.932279815469">
        <ele>1840</ele>
        <time>2018-01-30T10:14:44Z</time>
      </trkpt>
      <trkpt lat="45.679591867335" lon="6.932471341884">
        <ele>1837.6</ele>
        <time>2018-01-30T10:14:45Z</time>
      </trkpt>
      <trkpt lat="45.679558507373" lon="6.93265356439">
        <ele>1835.8</ele>
        <time>2018-01-30T10:14:46Z</time>
      </trkpt>
      <trkpt lat="45.679508048335" lon="6.932826566806">
        <ele>1832.8</ele>
        <time>2018-01-30T10:14:47Z</time>
      </trkpt>
      <trkpt lat="45.679461780247" lon="6.933010884787">
        <ele>1829.4</ele>
        <time>2018-01-30T10:14:48Z</time>
      </trkpt>
      <trkpt lat="45.679456164374" lon="6.933208949084">
        <ele>1825.6</ele>
        <time>2018-01-30T10:14:49Z</time>
      </trkpt>
      <trkpt lat="45.679460355324" lon="6.93341212634">
        <ele>1823</ele>
        <time>2018-01-30T10:14:50Z</time>
      </trkpt>
      <trkpt lat="45.679457924573" lon="6.933614716863">
        <ele>1820.8</ele>
        <time>2018-01-30T10:14:51Z</time>
      </trkpt>
      <trkpt lat="45.679462031704" lon="6.933810769504">
        <ele>1818</ele>
        <time>2018-01-30T10:14:52Z</time>
      </trkpt>
      <trkpt lat="45.679473766364" lon="6.934007911792">
        <ele>1815</ele>
        <time>2018-01-30T10:14:53Z</time>
      </trkpt>
      <trkpt lat="45.679483740825" lon="6.934194911981">
        <ele>1812.4</ele>
        <time>2018-01-30T10:14:54Z</time>
      </trkpt>
      <trkpt lat="45.679496146037" lon="6.934380487247">
        <ele>1810.4</ele>
        <time>2018-01-30T10:14:55Z</time>
      </trkpt>
      <trkpt lat="45.679504947032" lon="6.934558937898">
        <ele>1809</ele>
        <time>2018-01-30T10:14:56Z</time>
      </trkpt>
      <trkpt lat="45.679509724715" lon="6.934735712169">
        <ele>1807.4</ele>
        <time>2018-01-30T10:14:57Z</time>
      </trkpt>
      <trkpt lat="45.679519028624" lon="6.934912570259">
        <ele>1805.4</ele>
        <time>2018-01-30T10:14:58Z</time>
      </trkpt>
      <trkpt lat="45.679530679465" lon="6.935087249055">
        <ele>1803.6</ele>
        <time>2018-01-30T10:14:59Z</time>
      </trkpt>
      <trkpt lat="45.679540067193" lon="6.935249187363">
        <ele>1802.2</ele>
        <time>2018-01-30T10:15:00Z</time>
      </trkpt>
      <trkpt lat="45.679549203464" lon="6.935402743771">
        <ele>1800.8</ele>
        <time>2018-01-30T10:15:01Z</time>
      </trkpt>
      <trkpt lat="45.679563704151" lon="6.935549846116">
        <ele>1799.8</ele>
        <time>2018-01-30T10:15:02Z</time>
      </trkpt>
      <trkpt lat="45.679624389107" lon="6.935829969214">
        <ele>1798</ele>
        <time>2018-01-30T10:15:04Z</time>
      </trkpt>
      <trkpt lat="45.679711728505" lon="6.936078576368">
        <ele>1796.4</ele>
        <time>2018-01-30T10:15:06Z</time>
      </trkpt>
      <trkpt lat="45.679749949969" lon="6.936205562153">
        <ele>1795.8</ele>
        <time>2018-01-30T10:15:07Z</time>
      </trkpt>
      <trkpt lat="45.679785656863" lon="6.936327434979">
        <ele>1794.8</ele>
        <time>2018-01-30T10:15:08Z</time>
      </trkpt>
      <trkpt lat="45.679831841132" lon="6.936437489326">
        <ele>1793.8</ele>
        <time>2018-01-30T10:15:09Z</time>
      </trkpt>
      <trkpt lat="45.679880959066" lon="6.936540838153">
        <ele>1792.6</ele>
        <time>2018-01-30T10:15:10Z</time>
      </trkpt>
      <trkpt lat="45.679963688419" lon="6.936749128368">
        <ele>1791.6</ele>
        <time>2018-01-30T10:15:12Z</time>
      </trkpt>
      <trkpt lat="45.68020500332" lon="6.937353463358">
        <ele>1790.2</ele>
        <time>2018-01-30T10:15:18Z</time>
      </trkpt>
      <trkpt lat="45.680301814265" lon="6.937578601192">
        <ele>1789</ele>
        <time>2018-01-30T10:15:20Z</time>
      </trkpt>
      <trkpt lat="45.680406588015" lon="6.937783706285">
        <ele>1787</ele>
        <time>2018-01-30T10:15:22Z</time>
      </trkpt>
      <trkpt lat="45.680516893819" lon="6.937951595742">
        <ele>1785.2</ele>
        <time>2018-01-30T10:15:24Z</time>
      </trkpt>
      <trkpt lat="45.680573974558" lon="6.938032983991">
        <ele>1784.6</ele>
        <time>2018-01-30T10:15:25Z</time>
      </trkpt>
      <trkpt lat="45.680633150772" lon="6.938112612041">
        <ele>1784.2</ele>
        <time>2018-01-30T10:15:26Z</time>
      </trkpt>
      <trkpt lat="45.680740774368" lon="6.938260971671">
        <ele>1783.2</ele>
        <time>2018-01-30T10:15:28Z</time>
      </trkpt>
      <trkpt lat="45.680836747123" lon="6.938413773708">
        <ele>1782</ele>
        <time>2018-01-30T10:15:30Z</time>
      </trkpt>
      <trkpt lat="45.680983514192" lon="6.938641258474">
        <ele>1780.6</ele>
        <time>2018-01-30T10:15:33Z</time>
      </trkpt>
      <trkpt lat="45.681126677044" lon="6.938867653593">
        <ele>1779.6</ele>
        <time>2018-01-30T10:15:36Z</time>
      </trkpt>
      <trkpt lat="45.681256596494" lon="6.939123888276">
        <ele>1778</ele>
        <time>2018-01-30T10:15:39Z</time>
      </trkpt>
      <trkpt lat="45.6813969095" lon="6.939394036913">
        <ele>1776.6</ele>
        <time>2018-01-30T10:15:42Z</time>
      </trkpt>
      <trkpt lat="45.68149916868" lon="6.939611044304">
        <ele>1775.4</ele>
        <time>2018-01-30T10:15:44Z</time>
      </trkpt>
      <trkpt lat="45.681553986306" lon="6.939723864678">
        <ele>1774.2</ele>
        <time>2018-01-30T10:15:45Z</time>
      </trkpt>
      <trkpt lat="45.681618024022" lon="6.939827129686">
        <ele>1773</ele>
        <time>2018-01-30T10:15:46Z</time>
      </trkpt>
      <trkpt lat="45.681692874389" lon="6.939921174604">
        <ele>1771.6</ele>
        <time>2018-01-30T10:15:47Z</time>
      </trkpt>
      <trkpt lat="45.681763701444" lon="6.940016141531">
        <ele>1770.2</ele>
        <time>2018-01-30T10:15:48Z</time>
      </trkpt>
      <trkpt lat="45.681825308409" lon="6.940102810377">
        <ele>1768.6</ele>
        <time>2018-01-30T10:15:49Z</time>
      </trkpt>
      <trkpt lat="45.681878114379" lon="6.940189143947">
        <ele>1766.4</ele>
        <time>2018-01-30T10:15:50Z</time>
      </trkpt>
      <trkpt lat="45.681935111299" lon="6.940274555508">
        <ele>1764.2</ele>
        <time>2018-01-30T10:15:51Z</time>
      </trkpt>
      <trkpt lat="45.681982133758" lon="6.940371366453">
        <ele>1761.8</ele>
        <time>2018-01-30T10:15:52Z</time>
      </trkpt>
      <trkpt lat="45.682038208669" lon="6.940456945652">
        <ele>1760</ele>
        <time>2018-01-30T10:15:53Z</time>
      </trkpt>
      <trkpt lat="45.682127727361" lon="6.940497011134">
        <ele>1758</ele>
        <time>2018-01-30T10:15:54Z</time>
      </trkpt>
      <trkpt lat="45.682212216913" lon="6.940552499312">
        <ele>1755.6</ele>
        <time>2018-01-30T10:15:55Z</time>
      </trkpt>
      <trkpt lat="45.682277595733" lon="6.940652243922">
        <ele>1752.4</ele>
        <time>2018-01-30T10:15:56Z</time>
      </trkpt>
      <trkpt lat="45.682337107223" lon="6.94076724359">
        <ele>1748.4</ele>
        <time>2018-01-30T10:15:57Z</time>
      </trkpt>
      <trkpt lat="45.682404581518" lon="6.940881321249">
        <ele>1744.8</ele>
        <time>2018-01-30T10:15:58Z</time>
      </trkpt>
      <trkpt lat="45.682488400518" lon="6.940987939017">
        <ele>1741.6</ele>
        <time>2018-01-30T10:15:59Z</time>
      </trkpt>
      <trkpt lat="45.68257289007" lon="6.941100088839">
        <ele>1738.8</ele>
        <time>2018-01-30T10:16:00Z</time>
      </trkpt>
      <trkpt lat="45.682681687132" lon="6.941229170099">
        <ele>1734.4</ele>
        <time>2018-01-30T10:16:01Z</time>
      </trkpt>
      <trkpt lat="45.682816635722" lon="6.941365292155">
        <ele>1729.2</ele>
        <time>2018-01-30T10:16:02Z</time>
      </trkpt>
      <trkpt lat="45.682993074717" lon="6.941485823877">
        <ele>1724</ele>
        <time>2018-01-30T10:16:03Z</time>
      </trkpt>
      <trkpt lat="45.683166663866" lon="6.941570983981">
        <ele>1720</ele>
        <time>2018-01-30T10:16:04Z</time>
      </trkpt>
      <trkpt lat="45.683300858085" lon="6.94167416517">
        <ele>1716</ele>
        <time>2018-01-30T10:16:05Z</time>
      </trkpt>
      <trkpt lat="45.683417450314" lon="6.941794529254">
        <ele>1711.8</ele>
        <time>2018-01-30T10:16:06Z</time>
      </trkpt>
      <trkpt lat="45.683519541856" lon="6.941928723473">
        <ele>1708.2</ele>
        <time>2018-01-30T10:16:07Z</time>
      </trkpt>
      <trkpt lat="45.683599505182" lon="6.942065683719">
        <ele>1706.2</ele>
        <time>2018-01-30T10:16:08Z</time>
      </trkpt>
      <trkpt lat="45.683673517359" lon="6.942191076943">
        <ele>1705</ele>
        <time>2018-01-30T10:16:09Z</time>
      </trkpt>
      <trkpt lat="45.683808465949" lon="6.942435325509">
        <ele>1703.8</ele>
        <time>2018-01-30T10:16:11Z</time>
      </trkpt>
      <trkpt lat="45.683908545835" lon="6.9426858605">
        <ele>1702</ele>
        <time>2018-01-30T10:16:13Z</time>
      </trkpt>
      <trkpt lat="45.683985743134" lon="6.94292725922">
        <ele>1700.4</ele>
        <time>2018-01-30T10:16:15Z</time>
      </trkpt>
      <trkpt lat="45.684081296794" lon="6.943162120058">
        <ele>1699.2</ele>
        <time>2018-01-30T10:16:17Z</time>
      </trkpt>
      <trkpt lat="45.68420819876" lon="6.94353913792">
        <ele>1698</ele>
        <time>2018-01-30T10:16:20Z</time>
      </trkpt>
      <trkpt lat="45.684300315841" lon="6.943795540241">
        <ele>1696.8</ele>
        <time>2018-01-30T10:16:22Z</time>
      </trkpt>
      <trkpt lat="45.684409867274" lon="6.944050182363">
        <ele>1694.8</ele>
        <time>2018-01-30T10:16:24Z</time>
      </trkpt>
      <trkpt lat="45.684484885279" lon="6.944349248555">
        <ele>1692.2</ele>
        <time>2018-01-30T10:16:26Z</time>
      </trkpt>
      <trkpt lat="45.684539451448" lon="6.944486963172">
        <ele>1690.2</ele>
        <time>2018-01-30T10:16:27Z</time>
      </trkpt>
      <trkpt lat="45.684572727591" lon="6.944640771037">
        <ele>1688.2</ele>
        <time>2018-01-30T10:16:28Z</time>
      </trkpt>
      <trkpt lat="45.684613547444" lon="6.944786532278">
        <ele>1686.6</ele>
        <time>2018-01-30T10:16:29Z</time>
      </trkpt>
      <trkpt lat="45.684659228799" lon="6.944932964071">
        <ele>1685</ele>
        <time>2018-01-30T10:16:30Z</time>
      </trkpt>
      <trkpt lat="45.684713208235" lon="6.945072690344">
        <ele>1683</ele>
        <time>2018-01-30T10:16:31Z</time>
      </trkpt>
      <trkpt lat="45.684770121336" lon="6.945217948671">
        <ele>1681</ele>
        <time>2018-01-30T10:16:32Z</time>
      </trkpt>
      <trkpt lat="45.684822172935" lon="6.945360105695">
        <ele>1679.2</ele>
        <time>2018-01-30T10:16:33Z</time>
      </trkpt>
      <trkpt lat="45.684873637801" lon="6.945514165017">
        <ele>1677.4</ele>
        <time>2018-01-30T10:16:34Z</time>
      </trkpt>
      <trkpt lat="45.684918313328" lon="6.945676354782">
        <ele>1675.2</ele>
        <time>2018-01-30T10:16:35Z</time>
      </trkpt>
      <trkpt lat="45.684952762937" lon="6.945840388565">
        <ele>1673</ele>
        <time>2018-01-30T10:16:36Z</time>
      </trkpt>
      <trkpt lat="45.684999533939" lon="6.94601179842">
        <ele>1670.6</ele>
        <time>2018-01-30T10:16:37Z</time>
      </trkpt>
      <trkpt lat="45.685051920814" lon="6.946186896311">
        <ele>1668.2</ele>
        <time>2018-01-30T10:16:38Z</time>
      </trkpt>
      <trkpt lat="45.68509416559" lon="6.946373980319">
        <ele>1666</ele>
        <time>2018-01-30T10:16:39Z</time>
      </trkpt>
      <trkpt lat="45.685131381226" lon="6.94654572545">
        <ele>1664</ele>
        <time>2018-01-30T10:16:40Z</time>
      </trkpt>
      <trkpt lat="45.68517379364" lon="6.946720655703">
        <ele>1662</ele>
        <time>2018-01-30T10:16:41Z</time>
      </trkpt>
      <trkpt lat="45.685223498307" lon="6.946886617323">
        <ele>1659.6</ele>
        <time>2018-01-30T10:16:42Z</time>
      </trkpt>
      <trkpt lat="45.685285524367" lon="6.947052495124">
        <ele>1657.2</ele>
        <time>2018-01-30T10:16:43Z</time>
      </trkpt>
      <trkpt lat="45.685333552654" lon="6.947235052906">
        <ele>1655.6</ele>
        <time>2018-01-30T10:16:44Z</time>
      </trkpt>
      <trkpt lat="45.685367247892" lon="6.947417778326">
        <ele>1653.4</ele>
        <time>2018-01-30T10:16:45Z</time>
      </trkpt>
      <trkpt lat="45.685407397193" lon="6.947602263945">
        <ele>1650.8</ele>
        <time>2018-01-30T10:16:46Z</time>
      </trkpt>
      <trkpt lat="45.685471602547" lon="6.947773757619">
        <ele>1648.2</ele>
        <time>2018-01-30T10:16:47Z</time>
      </trkpt>
      <trkpt lat="45.685547039647" lon="6.947931504977">
        <ele>1646.4</ele>
        <time>2018-01-30T10:16:48Z</time>
      </trkpt>
      <trkpt lat="45.685617363788" lon="6.948072739992">
        <ele>1644.8</ele>
        <time>2018-01-30T10:16:49Z</time>
      </trkpt>
      <trkpt lat="45.685708391222" lon="6.948127976713">
        <ele>1643</ele>
        <time>2018-01-30T10:16:50Z</time>
      </trkpt>
      <trkpt lat="45.685798748104" lon="6.948175669724">
        <ele>1641.2</ele>
        <time>2018-01-30T10:16:51Z</time>
      </trkpt>
      <trkpt lat="45.685881226" lon="6.948245071856">
        <ele>1639.6</ele>
        <time>2018-01-30T10:16:52Z</time>
      </trkpt>
      <trkpt lat="45.68596588319" lon="6.94832771739">
        <ele>1638.4</ele>
        <time>2018-01-30T10:16:53Z</time>
      </trkpt>
      <trkpt lat="45.686027573974" lon="6.948434418977">
        <ele>1636.8</ele>
        <time>2018-01-30T10:16:54Z</time>
      </trkpt>
      <trkpt lat="45.686074428795" lon="6.94858252715">
        <ele>1634.2</ele>
        <time>2018-01-30T10:16:55Z</time>
      </trkpt>
      <trkpt lat="45.686131509534" lon="6.948713787704">
        <ele>1631</ele>
        <time>2018-01-30T10:16:56Z</time>
      </trkpt>
      <trkpt lat="45.686208623014" lon="6.948849406846">
        <ele>1627.6</ele>
        <time>2018-01-30T10:16:57Z</time>
      </trkpt>
      <trkpt lat="45.686300740095" lon="6.94899659301">
        <ele>1624.8</ele>
        <time>2018-01-30T10:16:58Z</time>
      </trkpt>
      <trkpt lat="45.686395287927" lon="6.949135397274">
        <ele>1621.6</ele>
        <time>2018-01-30T10:16:59Z</time>
      </trkpt>
      <trkpt lat="45.686509449405" lon="6.949255928996">
        <ele>1618.2</ele>
        <time>2018-01-30T10:17:00Z</time>
      </trkpt>
      <trkpt lat="45.686619503752" lon="6.949379729659">
        <ele>1615.2</ele>
        <time>2018-01-30T10:17:01Z</time>
      </trkpt>
      <trkpt lat="45.686746573356" lon="6.949452903646">
        <ele>1612.6</ele>
        <time>2018-01-30T10:17:02Z</time>
      </trkpt>
      <trkpt lat="45.686855957151" lon="6.949527502556">
        <ele>1610.2</ele>
        <time>2018-01-30T10:17:03Z</time>
      </trkpt>
      <trkpt lat="45.686963413109" lon="6.94962942646">
        <ele>1607.6</ele>
        <time>2018-01-30T10:17:04Z</time>
      </trkpt>
      <trkpt lat="45.68705972114" lon="6.94972162736">
        <ele>1605.6</ele>
        <time>2018-01-30T10:17:05Z</time>
      </trkpt>
      <trkpt lat="45.687157621732" lon="6.949777115538">
        <ele>1603.8</ele>
        <time>2018-01-30T10:17:06Z</time>
      </trkpt>
      <trkpt lat="45.687254851772" lon="6.94984065034">
        <ele>1602.4</ele>
        <time>2018-01-30T10:17:07Z</time>
      </trkpt>
      <trkpt lat="45.687357613866" lon="6.949879458537">
        <ele>1601</ele>
        <time>2018-01-30T10:17:08Z</time>
      </trkpt>
      <trkpt lat="45.687473703181" lon="6.949874010302">
        <ele>1599.6</ele>
        <time>2018-01-30T10:17:09Z</time>
      </trkpt>
      <trkpt lat="45.687595995102" lon="6.949880967279">
        <ele>1598.2</ele>
        <time>2018-01-30T10:17:10Z</time>
      </trkpt>
      <trkpt lat="45.687723064706" lon="6.949877446881">
        <ele>1596.4</ele>
        <time>2018-01-30T10:17:11Z</time>
      </trkpt>
      <trkpt lat="45.687853654708" lon="6.949832016983">
        <ele>1594.2</ele>
        <time>2018-01-30T10:17:12Z</time>
      </trkpt>
      <trkpt lat="45.687981897778" lon="6.949795471899">
        <ele>1591.6</ele>
        <time>2018-01-30T10:17:13Z</time>
      </trkpt>
      <trkpt lat="45.688110643762" lon="6.949761776661">
        <ele>1589.2</ele>
        <time>2018-01-30T10:17:14Z</time>
      </trkpt>
      <trkpt lat="45.688233690054" lon="6.949754484408">
        <ele>1586.6</ele>
        <time>2018-01-30T10:17:15Z</time>
      </trkpt>
      <trkpt lat="45.688360843477" lon="6.949787257637">
        <ele>1584.4</ele>
        <time>2018-01-30T10:17:16Z</time>
      </trkpt>
      <trkpt lat="45.688476932792" lon="6.949826820205">
        <ele>1582.8</ele>
        <time>2018-01-30T10:17:17Z</time>
      </trkpt>
      <trkpt lat="45.688567122036" lon="6.949909130463">
        <ele>1581.2</ele>
        <time>2018-01-30T10:17:18Z</time>
      </trkpt>
      <trkpt lat="45.688651611588" lon="6.94998900997">
        <ele>1579.8</ele>
        <time>2018-01-30T10:17:19Z</time>
      </trkpt>
      <trkpt lat="45.688735933502" lon="6.950044665786">
        <ele>1578.6</ele>
        <time>2018-01-30T10:17:20Z</time>
      </trkpt>
      <trkpt lat="45.688817657027" lon="6.950067632192">
        <ele>1577.6</ele>
        <time>2018-01-30T10:17:21Z</time>
      </trkpt>
      <trkpt lat="45.688900051104" lon="6.950073164246">
        <ele>1576.8</ele>
        <time>2018-01-30T10:17:22Z</time>
      </trkpt>
      <trkpt lat="45.688979679154" lon="6.950072996608">
        <ele>1576</ele>
        <time>2018-01-30T10:17:23Z</time>
      </trkpt>
      <trkpt lat="45.689055702987" lon="6.950074337712">
        <ele>1575.6</ele>
        <time>2018-01-30T10:17:24Z</time>
      </trkpt>
      <trkpt lat="45.68915687252" lon="6.950192019588">
        <ele>1574.8</ele>
        <time>2018-01-30T10:17:26Z</time>
      </trkpt>
      <trkpt lat="45.689160309099" lon="6.950390922075">
        <ele>1572.6</ele>
        <time>2018-01-30T10:17:28Z</time>
      </trkpt>
      <trkpt lat="45.689153100665" lon="6.950527044131">
        <ele>1571</ele>
        <time>2018-01-30T10:17:29Z</time>
      </trkpt>
      <trkpt lat="45.689121333264" lon="6.950648497862">
        <ele>1568.4</ele>
        <time>2018-01-30T10:17:30Z</time>
      </trkpt>
      <trkpt lat="45.689090739329" lon="6.950752936336">
        <ele>1565.4</ele>
        <time>2018-01-30T10:17:31Z</time>
      </trkpt>
      <trkpt lat="45.689078334117" lon="6.950837761164">
        <ele>1561.8</ele>
        <time>2018-01-30T10:17:32Z</time>
      </trkpt>
      <trkpt lat="45.689087135112" lon="6.95083977282">
        <ele>1559.2</ele>
        <time>2018-01-30T10:17:33Z</time>
      </trkpt>
      <trkpt lat="45.689085291094" lon="6.95083558187">
        <ele>1557.4</ele>
        <time>2018-01-30T10:17:34Z</time>
      </trkpt>
      <trkpt lat="45.689080429592" lon="6.95083055273">
        <ele>1556.2</ele>
        <time>2018-01-30T10:17:35Z</time>
      </trkpt>
      <trkpt lat="45.689069616941" lon="6.950832899662">
        <ele>1554.8</ele>
        <time>2018-01-30T10:17:37Z</time>
      </trkpt>
      <trkpt lat="45.689070371312" lon="6.950835833327">
        <ele>1554.4</ele>
        <time>2018-01-30T10:17:38Z</time>
      </trkpt>
      <trkpt lat="45.689067605285" lon="6.95083725825">
        <ele>1554.2</ele>
        <time>2018-01-30T10:17:40Z</time>
      </trkpt>
      <trkpt lat="45.688892926489" lon="6.950616227547">
        <ele>1553.2</ele>
        <time>2018-01-30T10:18:29Z</time>
      </trkpt>
      <trkpt lat="45.688898207086" lon="6.95059083039">
        <ele>1553</ele>
        <time>2018-01-30T10:18:30Z</time>
      </trkpt>
      <trkpt lat="45.688898626181" lon="6.950429981729">
        <ele>1554.4</ele>
        <time>2018-01-30T10:18:36Z</time>
      </trkpt>
      <trkpt lat="45.68890206276" lon="6.950405338943">
        <ele>1555.4</ele>
        <time>2018-01-30T10:18:37Z</time>
      </trkpt>
      <trkpt lat="45.68964972824" lon="6.938504298228">
        <ele>1852.8</ele>
        <time>2018-01-30T10:29:57Z</time>
      </trkpt>
      <trkpt lat="45.689564987231" lon="6.938335151486">
        <ele>1852.4</ele>
        <time>2018-01-30T10:30:03Z</time>
      </trkpt>
      <trkpt lat="45.689566663611" lon="6.938243202043">
        <ele>1852.4</ele>
        <time>2018-01-30T10:30:05Z</time>
      </trkpt>
      <trkpt lat="45.689612931699" lon="6.938088555988">
        <ele>1851.8</ele>
        <time>2018-01-30T10:30:08Z</time>
      </trkpt>
      <trkpt lat="45.689619218124" lon="6.938031810525">
        <ele>1851.6</ele>
        <time>2018-01-30T10:30:09Z</time>
      </trkpt>
      <trkpt lat="45.689610249491" lon="6.937988140826">
        <ele>1851.4</ele>
        <time>2018-01-30T10:30:10Z</time>
      </trkpt>
      <trkpt lat="45.689594910614" lon="6.937912871364">
        <ele>1850.4</ele>
        <time>2018-01-30T10:30:12Z</time>
      </trkpt>
      <trkpt lat="45.689598011917" lon="6.937831231658">
        <ele>1849.2</ele>
        <time>2018-01-30T10:30:14Z</time>
      </trkpt>
      <trkpt lat="45.689600107392" lon="6.937768870322">
        <ele>1848.2</ele>
        <time>2018-01-30T10:30:18Z</time>
      </trkpt>
      <trkpt lat="45.689654003009" lon="6.937755459282">
        <ele>1847</ele>
        <time>2018-01-30T10:30:33Z</time>
      </trkpt>
      <trkpt lat="45.689771936342" lon="6.937702234217">
        <ele>1846.6</ele>
        <time>2018-01-30T10:30:35Z</time>
      </trkpt>
      <trkpt lat="45.689898922127" lon="6.937647835686">
        <ele>1845.4</ele>
        <time>2018-01-30T10:30:37Z</time>
      </trkpt>
      <trkpt lat="45.690034541269" lon="6.937621265063">
        <ele>1843.8</ele>
        <time>2018-01-30T10:30:39Z</time>
      </trkpt>
      <trkpt lat="45.690219781259" lon="6.937573991147">
        <ele>1842</ele>
        <time>2018-01-30T10:30:41Z</time>
      </trkpt>
      <trkpt lat="45.690328243045" lon="6.93754105028">
        <ele>1840.6</ele>
        <time>2018-01-30T10:30:42Z</time>
      </trkpt>
      <trkpt lat="45.6904409796" lon="6.937513892924">
        <ele>1838.4</ele>
        <time>2018-01-30T10:30:43Z</time>
      </trkpt>
      <trkpt lat="45.690552877965" lon="6.937517832417">
        <ele>1836</ele>
        <time>2018-01-30T10:30:44Z</time>
      </trkpt>
      <trkpt lat="45.690652371118" lon="6.937570638387">
        <ele>1833.4</ele>
        <time>2018-01-30T10:30:45Z</time>
      </trkpt>
      <trkpt lat="45.690733256453" lon="6.93765923507">
        <ele>1831.4</ele>
        <time>2018-01-30T10:30:46Z</time>
      </trkpt>
      <trkpt lat="45.690799389644" lon="6.937764260277">
        <ele>1830.2</ele>
        <time>2018-01-30T10:30:47Z</time>
      </trkpt>
      <trkpt lat="45.690886226128" lon="6.937998869658">
        <ele>1829</ele>
        <time>2018-01-30T10:30:49Z</time>
      </trkpt>
      <trkpt lat="45.69102352165" lon="6.938403631609">
        <ele>1827.6</ele>
        <time>2018-01-30T10:30:52Z</time>
      </trkpt>
      <trkpt lat="45.691100886587" lon="6.938536903819">
        <ele>1826.6</ele>
        <time>2018-01-30T10:30:53Z</time>
      </trkpt>
      <trkpt lat="45.691193255125" lon="6.938667158545">
        <ele>1825</ele>
        <time>2018-01-30T10:30:54Z</time>
      </trkpt>
      <trkpt lat="45.691275146288" lon="6.938818619478">
        <ele>1823.4</ele>
        <time>2018-01-30T10:30:55Z</time>
      </trkpt>
      <trkpt lat="45.691341363298" lon="6.938987514763">
        <ele>1820.6</ele>
        <time>2018-01-30T10:30:56Z</time>
      </trkpt>
      <trkpt lat="45.691418476778" lon="6.939140819714">
        <ele>1817.4</ele>
        <time>2018-01-30T10:30:57Z</time>
      </trkpt>
      <trkpt lat="45.691487292177" lon="6.939291945371">
        <ele>1814</ele>
        <time>2018-01-30T10:30:58Z</time>
      </trkpt>
      <trkpt lat="45.69153984669" lon="6.939442400476">
        <ele>1812</ele>
        <time>2018-01-30T10:30:59Z</time>
      </trkpt>
      <trkpt lat="45.691610338469" lon="6.939579695998">
        <ele>1810.4</ele>
        <time>2018-01-30T10:31:00Z</time>
      </trkpt>
      <trkpt lat="45.691679153868" lon="6.939720679556">
        <ele>1809</ele>
        <time>2018-01-30T10:31:01Z</time>
      </trkpt>
      <trkpt lat="45.691728523259" lon="6.93986870391">
        <ele>1807.4</ele>
        <time>2018-01-30T10:31:02Z</time>
      </trkpt>
      <trkpt lat="45.691783257066" lon="6.94001287259">
        <ele>1805.8</ele>
        <time>2018-01-30T10:31:03Z</time>
      </trkpt>
      <trkpt lat="45.691830363344" lon="6.940163243876">
        <ele>1804</ele>
        <time>2018-01-30T10:31:04Z</time>
      </trkpt>
      <trkpt lat="45.691866154057" lon="6.940326690926">
        <ele>1802.8</ele>
        <time>2018-01-30T10:31:05Z</time>
      </trkpt>
      <trkpt lat="45.691912673602" lon="6.940495250935">
        <ele>1801</ele>
        <time>2018-01-30T10:31:06Z</time>
      </trkpt>
      <trkpt lat="45.691963048821" lon="6.9406742045">
        <ele>1799.2</ele>
        <time>2018-01-30T10:31:07Z</time>
      </trkpt>
      <trkpt lat="45.691997749887" lon="6.940850643495">
        <ele>1797</ele>
        <time>2018-01-30T10:31:08Z</time>
      </trkpt>
      <trkpt lat="45.692043515061" lon="6.941004367541">
        <ele>1794.8</ele>
        <time>2018-01-30T10:31:09Z</time>
      </trkpt>
      <trkpt lat="45.692100260524" lon="6.941153984456">
        <ele>1792</ele>
        <time>2018-01-30T10:31:10Z</time>
      </trkpt>
      <trkpt lat="45.692129848631" lon="6.941292537263">
        <ele>1789.2</ele>
        <time>2018-01-30T10:31:11Z</time>
      </trkpt>
      <trkpt lat="45.692116772867" lon="6.941417846668">
        <ele>1786.8</ele>
        <time>2018-01-30T10:31:12Z</time>
      </trkpt>
      <trkpt lat="45.692106966044" lon="6.941541395874">
        <ele>1784.6</ele>
        <time>2018-01-30T10:31:13Z</time>
      </trkpt>
      <trkpt lat="45.692129261898" lon="6.941660670311">
        <ele>1782.4</ele>
        <time>2018-01-30T10:31:14Z</time>
      </trkpt>
      <trkpt lat="45.692166728991" lon="6.941795032168">
        <ele>1780.6</ele>
        <time>2018-01-30T10:31:15Z</time>
      </trkpt>
      <trkpt lat="45.692177374004" lon="6.941929980758">
        <ele>1778.8</ele>
        <time>2018-01-30T10:31:16Z</time>
      </trkpt>
      <trkpt lat="45.692170500846" lon="6.942067779194">
        <ele>1776.4</ele>
        <time>2018-01-30T10:31:17Z</time>
      </trkpt>
      <trkpt lat="45.692177541642" lon="6.942202560146">
        <ele>1773.4</ele>
        <time>2018-01-30T10:31:18Z</time>
      </trkpt>
      <trkpt lat="45.692228419775" lon="6.942332647234">
        <ele>1770.6</ele>
        <time>2018-01-30T10:31:19Z</time>
      </trkpt>
      <trkpt lat="45.692329756946" lon="6.942481006864">
        <ele>1767.8</ele>
        <time>2018-01-30T10:31:20Z</time>
      </trkpt>
      <trkpt lat="45.692402595657" lon="6.942642023163">
        <ele>1764.8</ele>
        <time>2018-01-30T10:31:21Z</time>
      </trkpt>
      <trkpt lat="45.692446097718" lon="6.942796082485">
        <ele>1760.6</ele>
        <time>2018-01-30T10:31:22Z</time>
      </trkpt>
      <trkpt lat="45.692503094638" lon="6.94294402302">
        <ele>1756.6</ele>
        <time>2018-01-30T10:31:23Z</time>
      </trkpt>
      <trkpt lat="45.6925616003" lon="6.943093388478">
        <ele>1753</ele>
        <time>2018-01-30T10:31:24Z</time>
      </trkpt>
      <trkpt lat="45.692599067393" lon="6.943235545502">
        <ele>1750.2</ele>
        <time>2018-01-30T10:31:25Z</time>
      </trkpt>
      <trkpt lat="45.692623123446" lon="6.943372086653">
        <ele>1747.4</ele>
        <time>2018-01-30T10:31:26Z</time>
      </trkpt>
      <trkpt lat="45.692662015462" lon="6.943525140147">
        <ele>1744.8</ele>
        <time>2018-01-30T10:31:27Z</time>
      </trkpt>
      <trkpt lat="45.692702667677" lon="6.943684647704">
        <ele>1742</ele>
        <time>2018-01-30T10:31:28Z</time>
      </trkpt>
      <trkpt lat="45.692719096201" lon="6.943836108637">
        <ele>1738.8</ele>
        <time>2018-01-30T10:31:29Z</time>
      </trkpt>
      <trkpt lat="45.692733010155" lon="6.943977427471">
        <ele>1735</ele>
        <time>2018-01-30T10:31:30Z</time>
      </trkpt>
      <trkpt lat="45.692783133917" lon="6.944112040785">
        <ele>1731.2</ele>
        <time>2018-01-30T10:31:31Z</time>
      </trkpt>
      <trkpt lat="45.692817332069" lon="6.944248498117">
        <ele>1727.6</ele>
        <time>2018-01-30T10:31:32Z</time>
      </trkpt>
      <trkpt lat="45.692823031761" lon="6.944386883286">
        <ele>1724.4</ele>
        <time>2018-01-30T10:31:33Z</time>
      </trkpt>
      <trkpt lat="45.692857313732" lon="6.944526190464">
        <ele>1721</ele>
        <time>2018-01-30T10:31:34Z</time>
      </trkpt>
      <trkpt lat="45.692915903213" lon="6.944667593117">
        <ele>1717.8</ele>
        <time>2018-01-30T10:31:35Z</time>
      </trkpt>
      <trkpt lat="45.692934846307" lon="6.944822490629">
        <ele>1714</ele>
        <time>2018-01-30T10:31:36Z</time>
      </trkpt>
      <trkpt lat="45.692965524061" lon="6.944971688449">
        <ele>1710.2</ele>
        <time>2018-01-30T10:31:37Z</time>
      </trkpt>
      <trkpt lat="45.693041715532" lon="6.945069253765">
        <ele>1706.6</ele>
        <time>2018-01-30T10:31:38Z</time>
      </trkpt>
      <trkpt lat="45.693085971964" lon="6.945180146302">
        <ele>1703</ele>
        <time>2018-01-30T10:31:39Z</time>
      </trkpt>
      <trkpt lat="45.693066023042" lon="6.945309814295">
        <ele>1699.4</ele>
        <time>2018-01-30T10:31:40Z</time>
      </trkpt>
      <trkpt lat="45.693052360545" lon="6.945433950234">
        <ele>1695.4</ele>
        <time>2018-01-30T10:31:41Z</time>
      </trkpt>
      <trkpt lat="45.693086223421" lon="6.945557164164">
        <ele>1691.2</ele>
        <time>2018-01-30T10:31:42Z</time>
      </trkpt>
      <trkpt lat="45.693158559218" lon="6.945667386149">
        <ele>1687.2</ele>
        <time>2018-01-30T10:31:43Z</time>
      </trkpt>
      <trkpt lat="45.693214382672" lon="6.945778278686">
        <ele>1683.4</ele>
        <time>2018-01-30T10:31:44Z</time>
      </trkpt>
      <trkpt lat="45.693250257204" lon="6.945910880344">
        <ele>1679.4</ele>
        <time>2018-01-30T10:31:45Z</time>
      </trkpt>
      <trkpt lat="45.693294429817" lon="6.946039793966">
        <ele>1674.6</ele>
        <time>2018-01-30T10:31:46Z</time>
      </trkpt>
      <trkpt lat="45.69334866071" lon="6.94617859823">
        <ele>1669.6</ele>
        <time>2018-01-30T10:31:47Z</time>
      </trkpt>
      <trkpt lat="45.693368861089" lon="6.946332238457">
        <ele>1664.6</ele>
        <time>2018-01-30T10:31:48Z</time>
      </trkpt>
      <trkpt lat="45.693391073124" lon="6.946469869255">
        <ele>1660</ele>
        <time>2018-01-30T10:31:49Z</time>
      </trkpt>
      <trkpt lat="45.693407753105" lon="6.946606326587">
        <ele>1655</ele>
        <time>2018-01-30T10:31:50Z</time>
      </trkpt>
      <trkpt lat="45.69344253799" lon="6.946740017892">
        <ele>1651</ele>
        <time>2018-01-30T10:31:51Z</time>
      </trkpt>
      <trkpt lat="45.693461061989" lon="6.94688435421">
        <ele>1647.2</ele>
        <time>2018-01-30T10:31:52Z</time>
      </trkpt>
      <trkpt lat="45.693491655924" lon="6.947019638076">
        <ele>1643.6</ele>
        <time>2018-01-30T10:31:53Z</time>
      </trkpt>
      <trkpt lat="45.693526524628" lon="6.947148300241">
        <ele>1639</ele>
        <time>2018-01-30T10:31:54Z</time>
      </trkpt>
      <trkpt lat="45.693571283974" lon="6.947260282425">
        <ele>1634.4</ele>
        <time>2018-01-30T10:31:55Z</time>
      </trkpt>
      <trkpt lat="45.693607409963" lon="6.947380227414">
        <ele>1629.8</ele>
        <time>2018-01-30T10:31:56Z</time>
      </trkpt>
      <trkpt lat="45.693646385798" lon="6.947491371408">
        <ele>1626</ele>
        <time>2018-01-30T10:31:57Z</time>
      </trkpt>
      <trkpt lat="45.693699527044" lon="6.947564293938">
        <ele>1622.6</ele>
        <time>2018-01-30T10:31:58Z</time>
      </trkpt>
      <trkpt lat="45.693727271133" lon="6.947614082424">
        <ele>1620</ele>
        <time>2018-01-30T10:31:59Z</time>
      </trkpt>
      <trkpt lat="45.693764151493" lon="6.947662613625">
        <ele>1617.8</ele>
        <time>2018-01-30T10:32:00Z</time>
      </trkpt>
      <trkpt lat="45.693797762912" lon="6.94770494222">
        <ele>1616.2</ele>
        <time>2018-01-30T10:32:01Z</time>
      </trkpt>
      <trkpt lat="45.693838834222" lon="6.947706702419">
        <ele>1615.4</ele>
        <time>2018-01-30T10:32:02Z</time>
      </trkpt>
      <trkpt lat="45.693885521405" lon="6.94769572213">
        <ele>1614.8</ele>
        <time>2018-01-30T10:32:03Z</time>
      </trkpt>
      <trkpt lat="45.693991636259" lon="6.947643167617">
        <ele>1614.2</ele>
        <time>2018-01-30T10:32:06Z</time>
      </trkpt>
      <trkpt lat="45.693961461419" lon="6.947547111043">
        <ele>1613.8</ele>
        <time>2018-01-30T10:32:10Z</time>
      </trkpt>
      <trkpt lat="45.693925503068" lon="6.947536801306">
        <ele>1613.4</ele>
        <time>2018-01-30T10:32:16Z</time>
      </trkpt>
      <trkpt lat="45.693919049005" lon="6.94753646603">
        <ele>1613.4</ele>
        <time>2018-01-30T10:32:18Z</time>
      </trkpt>
      <trkpt lat="45.693854173099" lon="6.947469327011">
        <ele>1612</ele>
        <time>2018-01-30T10:32:53Z</time>
      </trkpt>
      <trkpt lat="45.693860208067" lon="6.947418867973">
        <ele>1611.8</ele>
        <time>2018-01-30T10:32:55Z</time>
      </trkpt>
      <trkpt lat="45.693762810389" lon="6.947108821492">
        <ele>1611.6</ele>
        <time>2018-01-30T10:33:01Z</time>
      </trkpt>
      <trkpt lat="45.693732970825" lon="6.947022571741">
        <ele>1614</ele>
        <time>2018-01-30T10:33:03Z</time>
      </trkpt>
      <trkpt lat="45.689948040061" lon="6.923897244917">
        <ele>1959.8</ele>
        <time>2018-01-30T10:43:16Z</time>
      </trkpt>
      <trkpt lat="45.690062620634" lon="6.924051471877">
        <ele>1961.8</ele>
        <time>2018-01-30T10:43:17Z</time>
      </trkpt>
      <trkpt lat="45.690186086021" lon="6.924183235345">
        <ele>1962.6</ele>
        <time>2018-01-30T10:43:18Z</time>
      </trkpt>
      <trkpt lat="45.690311982159" lon="6.92430770656">
        <ele>1959.2</ele>
        <time>2018-01-30T10:43:19Z</time>
      </trkpt>
      <trkpt lat="45.690533431957" lon="6.924556229895">
        <ele>1960.2</ele>
        <time>2018-01-30T10:43:21Z</time>
      </trkpt>
      <trkpt lat="45.690956801726" lon="6.924965937167">
        <ele>1958.6</ele>
        <time>2018-01-30T10:43:25Z</time>
      </trkpt>
      <trkpt lat="45.691158721697" lon="6.925173305373">
        <ele>1957.4</ele>
        <time>2018-01-30T10:43:27Z</time>
      </trkpt>
      <trkpt lat="45.691254778271" lon="6.925276905657">
        <ele>1956.4</ele>
        <time>2018-01-30T10:43:28Z</time>
      </trkpt>
      <trkpt lat="45.69144429303" lon="6.925461726552">
        <ele>1954.4</ele>
        <time>2018-01-30T10:43:30Z</time>
      </trkpt>
      <trkpt lat="45.691634310703" lon="6.925645793076">
        <ele>1952.2</ele>
        <time>2018-01-30T10:43:32Z</time>
      </trkpt>
      <trkpt lat="45.691725170499" lon="6.925729360619">
        <ele>1950.8</ele>
        <time>2018-01-30T10:43:33Z</time>
      </trkpt>
      <trkpt lat="45.691815108286" lon="6.925810413592">
        <ele>1949</ele>
        <time>2018-01-30T10:43:34Z</time>
      </trkpt>
      <trkpt lat="45.69190026839" lon="6.925905631976">
        <ele>1947.8</ele>
        <time>2018-01-30T10:43:35Z</time>
      </trkpt>
      <trkpt lat="45.691976627499" lon="6.926022391843">
        <ele>1946.6</ele>
        <time>2018-01-30T10:43:36Z</time>
      </trkpt>
      <trkpt lat="45.692051310228" lon="6.92615088637">
        <ele>1945.2</ele>
        <time>2018-01-30T10:43:37Z</time>
      </trkpt>
      <trkpt lat="45.692133871943" lon="6.926277033965">
        <ele>1943.6</ele>
        <time>2018-01-30T10:43:38Z</time>
      </trkpt>
      <trkpt lat="45.692231437259" lon="6.926397230411">
        <ele>1941.6</ele>
        <time>2018-01-30T10:43:39Z</time>
      </trkpt>
      <trkpt lat="45.692340821054" lon="6.926511643346">
        <ele>1939.6</ele>
        <time>2018-01-30T10:43:40Z</time>
      </trkpt>
      <trkpt lat="45.692457497102" lon="6.926627565023">
        <ele>1937</ele>
        <time>2018-01-30T10:43:41Z</time>
      </trkpt>
      <trkpt lat="45.692575933349" lon="6.926751281867">
        <ele>1935</ele>
        <time>2018-01-30T10:43:42Z</time>
      </trkpt>
      <trkpt lat="45.692691016836" lon="6.926880363127">
        <ele>1932.8</ele>
        <time>2018-01-30T10:43:43Z</time>
      </trkpt>
      <trkpt lat="45.692801490278" lon="6.927009779663">
        <ele>1930.8</ele>
        <time>2018-01-30T10:43:44Z</time>
      </trkpt>
      <trkpt lat="45.692907940408" lon="6.927139028561">
        <ele>1929</ele>
        <time>2018-01-30T10:43:45Z</time>
      </trkpt>
      <trkpt lat="45.693011205416" lon="6.927256039885">
        <ele>1927.2</ele>
        <time>2018-01-30T10:43:46Z</time>
      </trkpt>
      <trkpt lat="45.693112039673" lon="6.927367686793">
        <ele>1926</ele>
        <time>2018-01-30T10:43:47Z</time>
      </trkpt>
      <trkpt lat="45.69319694832" lon="6.927478327873">
        <ele>1925</ele>
        <time>2018-01-30T10:43:48Z</time>
      </trkpt>
      <trkpt lat="45.69326232714" lon="6.92759508774">
        <ele>1924.2</ele>
        <time>2018-01-30T10:43:49Z</time>
      </trkpt>
      <trkpt lat="45.693293507808" lon="6.927716038557">
        <ele>1923.6</ele>
        <time>2018-01-30T10:43:50Z</time>
      </trkpt>
      <trkpt lat="45.693308343771" lon="6.927822321049">
        <ele>1922.8</ele>
        <time>2018-01-30T10:43:51Z</time>
      </trkpt>
      <trkpt lat="45.693307840857" lon="6.927911504465">
        <ele>1921.8</ele>
        <time>2018-01-30T10:43:52Z</time>
      </trkpt>
      <trkpt lat="45.693312283264" lon="6.927991719248">
        <ele>1921</ele>
        <time>2018-01-30T10:43:53Z</time>
      </trkpt>
      <trkpt lat="45.693333238014" lon="6.92814996952">
        <ele>1919.6</ele>
        <time>2018-01-30T10:43:55Z</time>
      </trkpt>
      <trkpt lat="45.693386798355" lon="6.928375526449">
        <ele>1918.6</ele>
        <time>2018-01-30T10:43:58Z</time>
      </trkpt>
      <trkpt lat="45.693468018966" lon="6.928676436659">
        <ele>1917.2</ele>
        <time>2018-01-30T10:44:02Z</time>
      </trkpt>
      <trkpt lat="45.693516214891" lon="6.92883477075">
        <ele>1916.4</ele>
        <time>2018-01-30T10:44:04Z</time>
      </trkpt>
      <trkpt lat="45.693544713351" lon="6.928917248646">
        <ele>1916</ele>
        <time>2018-01-30T10:44:05Z</time>
      </trkpt>
      <trkpt lat="45.693604057203" lon="6.929078097307">
        <ele>1915</ele>
        <time>2018-01-30T10:44:07Z</time>
      </trkpt>
      <trkpt lat="45.69368980404" lon="6.929329219031">
        <ele>1913.6</ele>
        <time>2018-01-30T10:44:10Z</time>
      </trkpt>
      <trkpt lat="45.693784938605" lon="6.929601295505">
        <ele>1912.4</ele>
        <time>2018-01-30T10:44:13Z</time>
      </trkpt>
      <trkpt lat="45.693852161443" lon="6.929812435566">
        <ele>1911</ele>
        <time>2018-01-30T10:44:15Z</time>
      </trkpt>
      <trkpt lat="45.693927179448" lon="6.930069173163">
        <ele>1909.8</ele>
        <time>2018-01-30T10:44:17Z</time>
      </trkpt>
      <trkpt lat="45.694016195226" lon="6.93038290768">
        <ele>1907.4</ele>
        <time>2018-01-30T10:44:19Z</time>
      </trkpt>
      <trkpt lat="45.694069001196" lon="6.930553311707">
        <ele>1905.8</ele>
        <time>2018-01-30T10:44:20Z</time>
      </trkpt>
      <trkpt lat="45.694121052795" lon="6.930727319951">
        <ele>1903.8</ele>
        <time>2018-01-30T10:44:21Z</time>
      </trkpt>
      <trkpt lat="45.694166315055" lon="6.930902669299">
        <ele>1901.8</ele>
        <time>2018-01-30T10:44:22Z</time>
      </trkpt>
      <trkpt lat="45.694223814889" lon="6.931068966195">
        <ele>1899.8</ele>
        <time>2018-01-30T10:44:23Z</time>
      </trkpt>
      <trkpt lat="45.694279973619" lon="6.931234341082">
        <ele>1897.6</ele>
        <time>2018-01-30T10:44:24Z</time>
      </trkpt>
      <trkpt lat="45.694336467625" lon="6.931392591354">
        <ele>1895.2</ele>
        <time>2018-01-30T10:44:25Z</time>
      </trkpt>
      <trkpt lat="45.694406959404" lon="6.93153709531">
        <ele>1893.2</ele>
        <time>2018-01-30T10:44:26Z</time>
      </trkpt>
      <trkpt lat="45.694473344052" lon="6.93168210218">
        <ele>1891.4</ele>
        <time>2018-01-30T10:44:27Z</time>
      </trkpt>
      <trkpt lat="45.694536962673" lon="6.931816464037">
        <ele>1890</ele>
        <time>2018-01-30T10:44:28Z</time>
      </trkpt>
      <trkpt lat="45.694610555755" lon="6.93193439737">
        <ele>1888.8</ele>
        <time>2018-01-30T10:44:29Z</time>
      </trkpt>
      <trkpt lat="45.694680879896" lon="6.932044116441">
        <ele>1887.8</ele>
        <time>2018-01-30T10:44:30Z</time>
      </trkpt>
      <trkpt lat="45.694744917612" lon="6.932154757521">
        <ele>1886.8</ele>
        <time>2018-01-30T10:44:31Z</time>
      </trkpt>
      <trkpt lat="45.694801998351" lon="6.932269505732">
        <ele>1886</ele>
        <time>2018-01-30T10:44:32Z</time>
      </trkpt>
      <trkpt lat="45.694874501786" lon="6.932525153682">
        <ele>1884.6</ele>
        <time>2018-01-30T10:44:34Z</time>
      </trkpt>
      <trkpt lat="45.694947256678" lon="6.932800163821">
        <ele>1883</ele>
        <time>2018-01-30T10:44:36Z</time>
      </trkpt>
      <trkpt lat="45.694998889182" lon="6.933096883081">
        <ele>1880.8</ele>
        <time>2018-01-30T10:44:38Z</time>
      </trkpt>
      <trkpt lat="45.69502420252" lon="6.933252115869">
        <ele>1879</ele>
        <time>2018-01-30T10:44:39Z</time>
      </trkpt>
      <trkpt lat="45.695060915242" lon="6.933405169363">
        <ele>1877</ele>
        <time>2018-01-30T10:44:40Z</time>
      </trkpt>
      <trkpt lat="45.695095281032" lon="6.933559480142">
        <ele>1875.4</ele>
        <time>2018-01-30T10:44:41Z</time>
      </trkpt>
      <trkpt lat="45.69513232903" lon="6.933715299663">
        <ele>1873.2</ele>
        <time>2018-01-30T10:44:42Z</time>
      </trkpt>
      <trkpt lat="45.695169879942" lon="6.933879081989">
        <ele>1871</ele>
        <time>2018-01-30T10:44:43Z</time>
      </trkpt>
      <trkpt lat="45.695184212991" lon="6.934048061093">
        <ele>1868.6</ele>
        <time>2018-01-30T10:44:44Z</time>
      </trkpt>
      <trkpt lat="45.695187565751" lon="6.934226511744">
        <ele>1866.6</ele>
        <time>2018-01-30T10:44:45Z</time>
      </trkpt>
      <trkpt lat="45.695206508845" lon="6.934409320983">
        <ele>1864.4</ele>
        <time>2018-01-30T10:44:46Z</time>
      </trkpt>
      <trkpt lat="45.695241964282" lon="6.93460487071">
        <ele>1861.6</ele>
        <time>2018-01-30T10:44:47Z</time>
      </trkpt>
      <trkpt lat="45.69529074694" lon="6.934805617215">
        <ele>1858.6</ele>
        <time>2018-01-30T10:44:48Z</time>
      </trkpt>
      <trkpt lat="45.695335925381" lon="6.935010387032">
        <ele>1855.4</ele>
        <time>2018-01-30T10:44:49Z</time>
      </trkpt>
      <trkpt lat="45.695375571768" lon="6.935213061374">
        <ele>1852</ele>
        <time>2018-01-30T10:44:50Z</time>
      </trkpt>
      <trkpt lat="45.695424270607" lon="6.935438534484">
        <ele>1848</ele>
        <time>2018-01-30T10:44:51Z</time>
      </trkpt>
      <trkpt lat="45.695470203419" lon="6.935663672318">
        <ele>1843.8</ele>
        <time>2018-01-30T10:44:52Z</time>
      </trkpt>
      <trkpt lat="45.69552208738" lon="6.935902807925">
        <ele>1839.4</ele>
        <time>2018-01-30T10:44:53Z</time>
      </trkpt>
      <trkpt lat="45.695566846726" lon="6.936130627967">
        <ele>1835.8</ele>
        <time>2018-01-30T10:44:54Z</time>
      </trkpt>
      <trkpt lat="45.695616132298" lon="6.936356436353">
        <ele>1831.4</ele>
        <time>2018-01-30T10:44:55Z</time>
      </trkpt>
      <trkpt lat="45.695676146702" lon="6.936575958314">
        <ele>1827.6</ele>
        <time>2018-01-30T10:44:56Z</time>
      </trkpt>
      <trkpt lat="45.695728533577" lon="6.936787852746">
        <ele>1823.8</ele>
        <time>2018-01-30T10:44:57Z</time>
      </trkpt>
      <trkpt lat="45.695780920452" lon="6.936984743577">
        <ele>1821</ele>
        <time>2018-01-30T10:44:58Z</time>
      </trkpt>
      <trkpt lat="45.695838839381" lon="6.937152381577">
        <ele>1818.6</ele>
        <time>2018-01-30T10:44:59Z</time>
      </trkpt>
      <trkpt lat="45.695925340589" lon="6.937243828106">
        <ele>1816.8</ele>
        <time>2018-01-30T10:45:00Z</time>
      </trkpt>
      <trkpt lat="45.696014859281" lon="6.93728037319">
        <ele>1814.8</ele>
        <time>2018-01-30T10:45:01Z</time>
      </trkpt>
      <trkpt lat="45.696092140399" lon="6.937318343197">
        <ele>1813</ele>
        <time>2018-01-30T10:45:02Z</time>
      </trkpt>
      <trkpt lat="45.696155423744" lon="6.937358576317">
        <ele>1811.4</ele>
        <time>2018-01-30T10:45:03Z</time>
      </trkpt>
      <trkpt lat="45.696258521114" lon="6.937443568783">
        <ele>1810</ele>
        <time>2018-01-30T10:45:05Z</time>
      </trkpt>
      <trkpt lat="45.696533279796" lon="6.937659989441">
        <ele>1809.2</ele>
        <time>2018-01-30T10:45:11Z</time>
      </trkpt>
      <trkpt lat="45.696630006922" lon="6.937753279988">
        <ele>1808.8</ele>
        <time>2018-01-30T10:45:13Z</time>
      </trkpt>
      <trkpt lat="45.69677266686" lon="6.937876745375">
        <ele>1807.2</ele>
        <time>2018-01-30T10:45:16Z</time>
      </trkpt>
      <trkpt lat="45.696919433929" lon="6.937993589061">
        <ele>1806.2</ele>
        <time>2018-01-30T10:45:19Z</time>
      </trkpt>
      <trkpt lat="45.697007276241" lon="6.938117976457">
        <ele>1805.4</ele>
        <time>2018-01-30T10:45:21Z</time>
      </trkpt>
      <trkpt lat="45.697041306755" lon="6.938203388018">
        <ele>1805</ele>
        <time>2018-01-30T10:45:22Z</time>
      </trkpt>
      <trkpt lat="45.697092352526" lon="6.93839013675">
        <ele>1803.4</ele>
        <time>2018-01-30T10:45:24Z</time>
      </trkpt>
      <trkpt lat="45.697143230659" lon="6.938585518839">
        <ele>1802.2</ele>
        <time>2018-01-30T10:45:26Z</time>
      </trkpt>
      <trkpt lat="45.697166699979" lon="6.938682245965">
        <ele>1802</ele>
        <time>2018-01-30T10:45:27Z</time>
      </trkpt>
      <trkpt lat="45.697171561481" lon="6.938784002231">
        <ele>1801.6</ele>
        <time>2018-01-30T10:45:28Z</time>
      </trkpt>
      <trkpt lat="45.697171896757" lon="6.938885758497">
        <ele>1800.8</ele>
        <time>2018-01-30T10:45:29Z</time>
      </trkpt>
      <trkpt lat="45.697187654729" lon="6.938989358781">
        <ele>1799.8</ele>
        <time>2018-01-30T10:45:30Z</time>
      </trkpt>
      <trkpt lat="45.697211626963" lon="6.939091534142">
        <ele>1798.6</ele>
        <time>2018-01-30T10:45:31Z</time>
      </trkpt>
      <trkpt lat="45.697238029948" lon="6.939165965414">
        <ele>1797.6</ele>
        <time>2018-01-30T10:45:32Z</time>
      </trkpt>
      <trkpt lat="45.69726552258" lon="6.939212233502">
        <ele>1796.6</ele>
        <time>2018-01-30T10:45:33Z</time>
      </trkpt>
      <trkpt lat="45.697259571431" lon="6.939266715852">
        <ele>1795</ele>
        <time>2018-01-30T10:45:35Z</time>
      </trkpt>
      <trkpt lat="45.697206933099" lon="6.939319102727">
        <ele>1794.2</ele>
        <time>2018-01-30T10:45:37Z</time>
      </trkpt>
      <trkpt lat="45.697181787399" lon="6.93935908439">
        <ele>1793.4</ele>
        <time>2018-01-30T10:45:38Z</time>
      </trkpt>
      <trkpt lat="45.697154965319" lon="6.939386241746">
        <ele>1792.2</ele>
        <time>2018-01-30T10:45:39Z</time>
      </trkpt>
      <trkpt lat="45.697124203746" lon="6.939396551483">
        <ele>1791</ele>
        <time>2018-01-30T10:45:40Z</time>
      </trkpt>
      <trkpt lat="45.697078019477" lon="6.939407615591">
        <ele>1789.6</ele>
        <time>2018-01-30T10:45:41Z</time>
      </trkpt>
      <trkpt lat="45.697016663969" lon="6.939418931156">
        <ele>1788.4</ele>
        <time>2018-01-30T10:45:42Z</time>
      </trkpt>
      <trkpt lat="45.696960840515" lon="6.939412309455">
        <ele>1787.4</ele>
        <time>2018-01-30T10:45:43Z</time>
      </trkpt>
      <trkpt lat="45.696916919359" lon="6.939377943665">
        <ele>1786.4</ele>
        <time>2018-01-30T10:45:44Z</time>
      </trkpt>
      <trkpt lat="45.69682882559" lon="6.939327736084">
        <ele>1784.8</ele>
        <time>2018-01-30T10:45:46Z</time>
      </trkpt>
      <trkpt lat="45.696744503676" lon="6.939318683632">
        <ele>1783.8</ele>
        <time>2018-01-30T10:45:48Z</time>
      </trkpt>
      <trkpt lat="45.696716759587" lon="6.939293370294">
        <ele>1783.4</ele>
        <time>2018-01-30T10:45:49Z</time>
      </trkpt>
      <trkpt lat="45.696704019099" lon="6.939263866006">
        <ele>1782.8</ele>
        <time>2018-01-30T10:45:50Z</time>
      </trkpt>
      <trkpt lat="45.696674850087" lon="6.93920401924">
        <ele>1782</ele>
        <time>2018-01-30T10:45:52Z</time>
      </trkpt>
      <trkpt lat="45.696640735754" lon="6.939187925992">
        <ele>1781.6</ele>
        <time>2018-01-30T10:45:54Z</time>
      </trkpt>
      <trkpt lat="45.696614835683" lon="6.939176191332">
        <ele>1781.2</ele>
        <time>2018-01-30T10:45:56Z</time>
      </trkpt>
      <trkpt lat="45.696600083539" lon="6.939169904907">
        <ele>1781</ele>
        <time>2018-01-30T10:45:57Z</time>
      </trkpt>
      <trkpt lat="45.696552055252" lon="6.939152638193">
        <ele>1780</ele>
        <time>2018-01-30T10:46:03Z</time>
      </trkpt>
      <trkpt lat="45.696551133243" lon="6.939153057288">
        <ele>1780</ele>
        <time>2018-01-30T10:46:04Z</time>
      </trkpt>
      <trkpt lat="45.696414340635" lon="6.938841334427">
        <ele>1779.2</ele>
        <time>2018-01-30T10:47:40Z</time>
      </trkpt>
      <trkpt lat="45.696326833599" lon="6.938491473921">
        <ele>1780.2</ele>
        <time>2018-01-30T10:47:46Z</time>
      </trkpt>
      <trkpt lat="45.69629322218" lon="6.938375300787">
        <ele>1782</ele>
        <time>2018-01-30T10:47:48Z</time>
      </trkpt>
      <trkpt lat="45.696272183611" lon="6.938316543668">
        <ele>1783</ele>
        <time>2018-01-30T10:47:49Z</time>
      </trkpt>
      <trkpt lat="45.690177871759" lon="6.919178905769">
        <ele>2084.2</ele>
        <time>2018-01-30T10:59:03Z</time>
      </trkpt>
      <trkpt lat="45.690255907248" lon="6.919333719462">
        <ele>2083.2</ele>
        <time>2018-01-30T10:59:04Z</time>
      </trkpt>
      <trkpt lat="45.690296056549" lon="6.919482498187">
        <ele>2079.8</ele>
        <time>2018-01-30T10:59:05Z</time>
      </trkpt>
      <trkpt lat="45.690325728475" lon="6.919630019627">
        <ele>2078.6</ele>
        <time>2018-01-30T10:59:06Z</time>
      </trkpt>
      <trkpt lat="45.690342659913" lon="6.919759771439">
        <ele>2076.8</ele>
        <time>2018-01-30T10:59:07Z</time>
      </trkpt>
      <trkpt lat="45.690403931602" lon="6.919841075869">
        <ele>2073</ele>
        <time>2018-01-30T10:59:08Z</time>
      </trkpt>
      <trkpt lat="45.690478865788" lon="6.919925900697">
        <ele>2074.6</ele>
        <time>2018-01-30T10:59:09Z</time>
      </trkpt>
      <trkpt lat="45.690639798268" lon="6.920241311594">
        <ele>2069.2</ele>
        <time>2018-01-30T10:59:12Z</time>
      </trkpt>
      <trkpt lat="45.690717749938" lon="6.920309456441">
        <ele>2067</ele>
        <time>2018-01-30T10:59:13Z</time>
      </trkpt>
      <trkpt lat="45.69078631388" lon="6.920411715621">
        <ele>2064.4</ele>
        <time>2018-01-30T10:59:14Z</time>
      </trkpt>
      <trkpt lat="45.690882538092" lon="6.920469383093">
        <ele>2061.2</ele>
        <time>2018-01-30T10:59:15Z</time>
      </trkpt>
      <trkpt lat="45.690976499191" lon="6.920532163524">
        <ele>2058.2</ele>
        <time>2018-01-30T10:59:16Z</time>
      </trkpt>
      <trkpt lat="45.691058138897" lon="6.920648420477">
        <ele>2055.4</ele>
        <time>2018-01-30T10:59:17Z</time>
      </trkpt>
      <trkpt lat="45.691158051145" lon="6.920752439856">
        <ele>2052</ele>
        <time>2018-01-30T10:59:18Z</time>
      </trkpt>
      <trkpt lat="45.691267518759" lon="6.920860566366">
        <ele>2048.2</ele>
        <time>2018-01-30T10:59:19Z</time>
      </trkpt>
      <trkpt lat="45.691367514826" lon="6.920990318178">
        <ele>2044.2</ele>
        <time>2018-01-30T10:59:20Z</time>
      </trkpt>
      <trkpt lat="45.691457201156" lon="6.921155357789">
        <ele>2039.4</ele>
        <time>2018-01-30T10:59:21Z</time>
      </trkpt>
      <trkpt lat="45.691552670997" lon="6.921345878376">
        <ele>2034.6</ele>
        <time>2018-01-30T10:59:22Z</time>
      </trkpt>
      <trkpt lat="45.691614110324" lon="6.921596748643">
        <ele>2030</ele>
        <time>2018-01-30T10:59:23Z</time>
      </trkpt>
      <trkpt lat="45.691662641525" lon="6.921845607254">
        <ele>2025</ele>
        <time>2018-01-30T10:59:24Z</time>
      </trkpt>
      <trkpt lat="45.69174101229" lon="6.922075690409">
        <ele>2019.4</ele>
        <time>2018-01-30T10:59:25Z</time>
      </trkpt>
      <trkpt lat="45.691811587888" lon="6.922312562903">
        <ele>2013.4</ele>
        <time>2018-01-30T10:59:26Z</time>
      </trkpt>
      <trkpt lat="45.69183824233" lon="6.922541807868">
        <ele>2009</ele>
        <time>2018-01-30T10:59:27Z</time>
      </trkpt>
      <trkpt lat="45.691873865405" lon="6.922750433359">
        <ele>2004.4</ele>
        <time>2018-01-30T10:59:28Z</time>
      </trkpt>
      <trkpt lat="45.691952990541" lon="6.922925195974">
        <ele>1999.4</ele>
        <time>2018-01-30T10:59:29Z</time>
      </trkpt>
      <trkpt lat="45.691994900041" lon="6.923108424308">
        <ele>1995.2</ele>
        <time>2018-01-30T10:59:30Z</time>
      </trkpt>
      <trkpt lat="45.691975034938" lon="6.923296178868">
        <ele>1992.2</ele>
        <time>2018-01-30T10:59:31Z</time>
      </trkpt>
      <trkpt lat="45.691948464315" lon="6.923447975077">
        <ele>1989.2</ele>
        <time>2018-01-30T10:59:32Z</time>
      </trkpt>
      <trkpt lat="45.691946620297" lon="6.923553251741">
        <ele>1986</ele>
        <time>2018-01-30T10:59:33Z</time>
      </trkpt>
      <trkpt lat="45.691939998596" lon="6.923575631414">
        <ele>1983</ele>
        <time>2018-01-30T10:59:34Z</time>
      </trkpt>
      <trkpt lat="45.691932035791" lon="6.923572111016">
        <ele>1981</ele>
        <time>2018-01-30T10:59:35Z</time>
      </trkpt>
      <trkpt lat="45.69191870857" lon="6.923577810708">
        <ele>1979.8</ele>
        <time>2018-01-30T10:59:36Z</time>
      </trkpt>
      <trkpt lat="45.691912757421" lon="6.923583007486">
        <ele>1979</ele>
        <time>2018-01-30T10:59:37Z</time>
      </trkpt>
      <trkpt lat="45.691908398833" lon="6.923582504572">
        <ele>1978.4</ele>
        <time>2018-01-30T10:59:38Z</time>
      </trkpt>
      <trkpt lat="45.691909823756" lon="6.923593652499">
        <ele>1977.8</ele>
        <time>2018-01-30T10:59:40Z</time>
      </trkpt>
      <trkpt lat="45.691910661946" lon="6.923601028571">
        <ele>1977.6</ele>
        <time>2018-01-30T10:59:42Z</time>
      </trkpt>
      <trkpt lat="45.692008227262" lon="6.923823987111">
        <ele>1976</ele>
        <time>2018-01-30T11:00:19Z</time>
      </trkpt>
      <trkpt lat="45.692088944959" lon="6.92393135925">
        <ele>1975.2</ele>
        <time>2018-01-30T11:00:21Z</time>
      </trkpt>
      <trkpt lat="45.692111995184" lon="6.924017944277">
        <ele>1974.6</ele>
        <time>2018-01-30T11:00:22Z</time>
      </trkpt>
      <trkpt lat="45.692141583291" lon="6.924100003078">
        <ele>1973.6</ele>
        <time>2018-01-30T11:00:23Z</time>
      </trkpt>
      <trkpt lat="45.692191790872" lon="6.924203351905">
        <ele>1972.2</ele>
        <time>2018-01-30T11:00:24Z</time>
      </trkpt>
      <trkpt lat="45.692228922689" lon="6.92433369045">
        <ele>1970.4</ele>
        <time>2018-01-30T11:00:25Z</time>
      </trkpt>
      <trkpt lat="45.692254152208" lon="6.924470650696">
        <ele>1968.6</ele>
        <time>2018-01-30T11:00:26Z</time>
      </trkpt>
      <trkpt lat="45.692291284025" lon="6.924602917078">
        <ele>1966.4</ele>
        <time>2018-01-30T11:00:27Z</time>
      </trkpt>
      <trkpt lat="45.692320620675" lon="6.924747337215">
        <ele>1964</ele>
        <time>2018-01-30T11:00:28Z</time>
      </trkpt>
      <trkpt lat="45.6923436709" lon="6.924893266094">
        <ele>1961.4</ele>
        <time>2018-01-30T11:00:29Z</time>
      </trkpt>
      <trkpt lat="45.692385328943" lon="6.925012875807">
        <ele>1958.4</ele>
        <time>2018-01-30T11:00:30Z</time>
      </trkpt>
      <trkpt lat="45.692433524868" lon="6.925123768344">
        <ele>1955.2</ele>
        <time>2018-01-30T11:00:31Z</time>
      </trkpt>
      <trkpt lat="45.692472500703" lon="6.925224434963">
        <ele>1952.2</ele>
        <time>2018-01-30T11:00:32Z</time>
      </trkpt>
      <trkpt lat="45.692503346095" lon="6.925316971139">
        <ele>1949.4</ele>
        <time>2018-01-30T11:00:33Z</time>
      </trkpt>
      <trkpt lat="45.69254316012" lon="6.92537975157">
        <ele>1946.6</ele>
        <time>2018-01-30T11:00:34Z</time>
      </trkpt>
      <trkpt lat="45.692586159267" lon="6.925412189523">
        <ele>1944</ele>
        <time>2018-01-30T11:00:35Z</time>
      </trkpt>
      <trkpt lat="45.692619016315" lon="6.925435323567">
        <ele>1942.2</ele>
        <time>2018-01-30T11:00:36Z</time>
      </trkpt>
      <trkpt lat="45.692639132875" lon="6.925456278317">
        <ele>1940.6</ele>
        <time>2018-01-30T11:00:37Z</time>
      </trkpt>
      <trkpt lat="45.6926454193" lon="6.925484441501">
        <ele>1939</ele>
        <time>2018-01-30T11:00:39Z</time>
      </trkpt>
      <trkpt lat="45.692652879191" lon="6.925485531148">
        <ele>1938.4</ele>
        <time>2018-01-30T11:00:41Z</time>
      </trkpt>
      <trkpt lat="45.692658411245" lon="6.925513191418">
        <ele>1938.2</ele>
        <time>2018-01-30T11:00:44Z</time>
      </trkpt>
      <trkpt lat="45.692680874737" lon="6.925574295469">
        <ele>1938.2</ele>
        <time>2018-01-30T11:00:46Z</time>
      </trkpt>
      <trkpt lat="45.692718174192" lon="6.925629029276">
        <ele>1938</ele>
        <time>2018-01-30T11:00:49Z</time>
      </trkpt>
      <trkpt lat="45.692751617973" lon="6.925641685945">
        <ele>1937.6</ele>
        <time>2018-01-30T11:00:55Z</time>
      </trkpt>
      <trkpt lat="45.690082653375" lon="6.916044242807">
        <ele>2177.4</ele>
        <time>2018-01-30T11:10:45Z</time>
      </trkpt>
      <trkpt lat="45.689901604335" lon="6.915991855932">
        <ele>2177.4</ele>
        <time>2018-01-30T11:10:50Z</time>
      </trkpt>
      <trkpt lat="45.689755088723" lon="6.915881717766">
        <ele>2176.2</ele>
        <time>2018-01-30T11:10:53Z</time>
      </trkpt>
      <trkpt lat="45.68958937856" lon="6.915779207129">
        <ele>2175.2</ele>
        <time>2018-01-30T11:10:56Z</time>
      </trkpt>
      <trkpt lat="45.689458118006" lon="6.915684826935">
        <ele>2173.8</ele>
        <time>2018-01-30T11:10:58Z</time>
      </trkpt>
      <trkpt lat="45.689378322318" lon="6.915634032621">
        <ele>2172.8</ele>
        <time>2018-01-30T11:10:59Z</time>
      </trkpt>
      <trkpt lat="45.689302298485" lon="6.915590362922">
        <ele>2171.4</ele>
        <time>2018-01-30T11:11:00Z</time>
      </trkpt>
      <trkpt lat="45.689211522508" lon="6.915558930797">
        <ele>2170</ele>
        <time>2018-01-30T11:11:01Z</time>
      </trkpt>
      <trkpt lat="45.689118231961" lon="6.91550503518">
        <ele>2168.6</ele>
        <time>2018-01-30T11:11:02Z</time>
      </trkpt>
      <trkpt lat="45.689023097396" lon="6.915414929755">
        <ele>2166.8</ele>
        <time>2018-01-30T11:11:03Z</time>
      </trkpt>
      <trkpt lat="45.688925196804" lon="6.915310072186">
        <ele>2164</ele>
        <time>2018-01-30T11:11:04Z</time>
      </trkpt>
      <trkpt lat="45.688816651199" lon="6.915214937621">
        <ele>2160.8</ele>
        <time>2018-01-30T11:11:05Z</time>
      </trkpt>
      <trkpt lat="45.688712967096" lon="6.915108487491">
        <ele>2157.8</ele>
        <time>2018-01-30T11:11:06Z</time>
      </trkpt>
      <trkpt lat="45.68862713644" lon="6.914985860294">
        <ele>2155.6</ele>
        <time>2018-01-30T11:11:07Z</time>
      </trkpt>
      <trkpt lat="45.688539377947" lon="6.914863484554">
        <ele>2153.4</ele>
        <time>2018-01-30T11:11:08Z</time>
      </trkpt>
      <trkpt lat="45.688448350513" lon="6.914742366099">
        <ele>2151.2</ele>
        <time>2018-01-30T11:11:09Z</time>
      </trkpt>
      <trkpt lat="45.688363860961" lon="6.914621499101">
        <ele>2149.2</ele>
        <time>2018-01-30T11:11:10Z</time>
      </trkpt>
      <trkpt lat="45.688287501852" lon="6.914487807796">
        <ele>2147.2</ele>
        <time>2018-01-30T11:11:11Z</time>
      </trkpt>
      <trkpt lat="45.688214579322" lon="6.914352272473">
        <ele>2145.4</ele>
        <time>2018-01-30T11:11:12Z</time>
      </trkpt>
      <trkpt lat="45.688145931561" lon="6.914214054942">
        <ele>2143</ele>
        <time>2018-01-30T11:11:13Z</time>
      </trkpt>
      <trkpt lat="45.688076361791" lon="6.914076675601">
        <ele>2141.4</ele>
        <time>2018-01-30T11:11:14Z</time>
      </trkpt>
      <trkpt lat="45.688000924691" lon="6.91393761988">
        <ele>2139.4</ele>
        <time>2018-01-30T11:11:15Z</time>
      </trkpt>
      <trkpt lat="45.687933701853" lon="6.913803090385">
        <ele>2137.8</ele>
        <time>2018-01-30T11:11:16Z</time>
      </trkpt>
      <trkpt lat="45.687869831775" lon="6.913687168708">
        <ele>2136</ele>
        <time>2018-01-30T11:11:17Z</time>
      </trkpt>
      <trkpt lat="45.687791712467" lon="6.913584490433">
        <ele>2134.4</ele>
        <time>2018-01-30T11:11:18Z</time>
      </trkpt>
      <trkpt lat="45.687715688634" lon="6.913481728339">
        <ele>2133.2</ele>
        <time>2018-01-30T11:11:19Z</time>
      </trkpt>
      <trkpt lat="45.687641425" lon="6.913383073376">
        <ele>2132</ele>
        <time>2018-01-30T11:11:20Z</time>
      </trkpt>
      <trkpt lat="45.687569508298" lon="6.913291710666">
        <ele>2130.8</ele>
        <time>2018-01-30T11:11:21Z</time>
      </trkpt>
      <trkpt lat="45.687494993207" lon="6.913201018508">
        <ele>2129.6</ele>
        <time>2018-01-30T11:11:22Z</time>
      </trkpt>
      <trkpt lat="45.687417795908" lon="6.913109236703">
        <ele>2128.6</ele>
        <time>2018-01-30T11:11:23Z</time>
      </trkpt>
      <trkpt lat="45.687335904745" lon="6.913013180129">
        <ele>2127.4</ele>
        <time>2018-01-30T11:11:24Z</time>
      </trkpt>
      <trkpt lat="45.687252588659" lon="6.912912094415">
        <ele>2126.2</ele>
        <time>2018-01-30T11:11:25Z</time>
      </trkpt>
      <trkpt lat="45.687166422727" lon="6.912809499959">
        <ele>2124.8</ele>
        <time>2018-01-30T11:11:26Z</time>
      </trkpt>
      <trkpt lat="45.687073383637" lon="6.91270464239">
        <ele>2123</ele>
        <time>2018-01-30T11:11:27Z</time>
      </trkpt>
      <trkpt lat="45.686977075606" lon="6.912599449545">
        <ele>2121.4</ele>
        <time>2018-01-30T11:11:28Z</time>
      </trkpt>
      <trkpt lat="45.686879594109" lon="6.912493586148">
        <ele>2119.4</ele>
        <time>2018-01-30T11:11:29Z</time>
      </trkpt>
      <trkpt lat="45.68678311844" lon="6.912390153502">
        <ele>2117.8</ele>
        <time>2018-01-30T11:11:30Z</time>
      </trkpt>
      <trkpt lat="45.68668924116" lon="6.912289989797">
        <ele>2115.6</ele>
        <time>2018-01-30T11:11:31Z</time>
      </trkpt>
      <trkpt lat="45.686600644477" lon="6.912193430309">
        <ele>2113.8</ele>
        <time>2018-01-30T11:11:32Z</time>
      </trkpt>
      <trkpt lat="45.686513556536" lon="6.912097373735">
        <ele>2112</ele>
        <time>2018-01-30T11:11:33Z</time>
      </trkpt>
      <trkpt lat="45.686438035617" lon="6.911996288021">
        <ele>2110.6</ele>
        <time>2018-01-30T11:11:34Z</time>
      </trkpt>
      <trkpt lat="45.686404759474" lon="6.911869050779">
        <ele>2109.6</ele>
        <time>2018-01-30T11:11:35Z</time>
      </trkpt>
      <trkpt lat="45.686432252106" lon="6.911751955636">
        <ele>2108.2</ele>
        <time>2018-01-30T11:11:36Z</time>
      </trkpt>
      <trkpt lat="45.686487405008" lon="6.911659922374">
        <ele>2106.8</ele>
        <time>2018-01-30T11:11:37Z</time>
      </trkpt>
      <trkpt lat="45.686566697782" lon="6.911599153599">
        <ele>2105</ele>
        <time>2018-01-30T11:11:38Z</time>
      </trkpt>
      <trkpt lat="45.686673399369" lon="6.911584569093">
        <ele>2103.4</ele>
        <time>2018-01-30T11:11:39Z</time>
      </trkpt>
      <trkpt lat="45.68677892749" lon="6.911589095319">
        <ele>2101.8</ele>
        <time>2018-01-30T11:11:40Z</time>
      </trkpt>
      <trkpt lat="45.686885209982" lon="6.911598734504">
        <ele>2100.4</ele>
        <time>2018-01-30T11:11:41Z</time>
      </trkpt>
      <trkpt lat="45.686973974303" lon="6.911588005672">
        <ele>2099.2</ele>
        <time>2018-01-30T11:11:42Z</time>
      </trkpt>
      <trkpt lat="45.687045639548" lon="6.911565374542">
        <ele>2098</ele>
        <time>2018-01-30T11:11:43Z</time>
      </trkpt>
      <trkpt lat="45.687141193208" lon="6.911580378143">
        <ele>2096.4</ele>
        <time>2018-01-30T11:11:44Z</time>
      </trkpt>
      <trkpt lat="45.687141193208" lon="6.911580378143">
        <ele>2094.8</ele>
        <time>2018-01-30T11:11:45Z</time>
      </trkpt>
      <trkpt lat="45.687174469351" lon="6.911553975158">
        <ele>2093.4</ele>
        <time>2018-01-30T11:11:46Z</time>
      </trkpt>
      <trkpt lat="45.687174804627" lon="6.911523716499">
        <ele>2092</ele>
        <time>2018-01-30T11:11:47Z</time>
      </trkpt>
      <trkpt lat="45.687163489062" lon="6.911483483379">
        <ele>2091</ele>
        <time>2018-01-30T11:11:48Z</time>
      </trkpt>
      <trkpt lat="45.687128620358" lon="6.911443417897">
        <ele>2090.2</ele>
        <time>2018-01-30T11:11:49Z</time>
      </trkpt>
      <trkpt lat="45.687092745826" lon="6.911371836471">
        <ele>2089.6</ele>
        <time>2018-01-30T11:11:50Z</time>
      </trkpt>
      <trkpt lat="45.687092745826" lon="6.911371836471">
        <ele>2088.8</ele>
        <time>2018-01-30T11:11:51Z</time>
      </trkpt>
      <trkpt lat="45.687052512706" lon="6.911303021072">
        <ele>2087.4</ele>
        <time>2018-01-30T11:11:52Z</time>
      </trkpt>
      <trkpt lat="45.686929382595" lon="6.911180226237">
        <ele>2085.8</ele>
        <time>2018-01-30T11:11:53Z</time>
      </trkpt>
      <trkpt lat="45.686855118961" lon="6.911111159381">
        <ele>2084</ele>
        <time>2018-01-30T11:11:54Z</time>
      </trkpt>
      <trkpt lat="45.68678730939" lon="6.91103077696">
        <ele>2082.2</ele>
        <time>2018-01-30T11:11:55Z</time>
      </trkpt>
      <trkpt lat="45.686720589466" lon="6.910948718159">
        <ele>2080.2</ele>
        <time>2018-01-30T11:11:56Z</time>
      </trkpt>
      <trkpt lat="45.686666358573" lon="6.910874538344">
        <ele>2078</ele>
        <time>2018-01-30T11:11:57Z</time>
      </trkpt>
      <trkpt lat="45.6866607427" lon="6.910798765968">
        <ele>2076.4</ele>
        <time>2018-01-30T11:11:58Z</time>
      </trkpt>
      <trkpt lat="45.6866607427" lon="6.910798765968">
        <ele>2075</ele>
        <time>2018-01-30T11:11:59Z</time>
      </trkpt>
      <trkpt lat="45.686682619459" lon="6.910773955544">
        <ele>2073.2</ele>
        <time>2018-01-30T11:12:00Z</time>
      </trkpt>
      <trkpt lat="45.686694437938" lon="6.9107675853">
        <ele>2071.6</ele>
        <time>2018-01-30T11:12:01Z</time>
      </trkpt>
      <trkpt lat="45.686696030499" lon="6.910781666892">
        <ele>2070</ele>
        <time>2018-01-30T11:12:02Z</time>
      </trkpt>
      <trkpt lat="45.686696030499" lon="6.910781666892">
        <ele>2068.8</ele>
        <time>2018-01-30T11:12:03Z</time>
      </trkpt>
      <trkpt lat="45.68669678487" lon="6.91078854005">
        <ele>2067.4</ele>
        <time>2018-01-30T11:12:05Z</time>
      </trkpt>
      <trkpt lat="45.686694773214" lon="6.910790635525">
        <ele>2067</ele>
        <time>2018-01-30T11:12:07Z</time>
      </trkpt>
      <trkpt lat="45.686811365443" lon="6.910670858174">
        <ele>2065.8</ele>
        <time>2018-01-30T11:12:20Z</time>
      </trkpt>
      <trkpt lat="45.686882779231" lon="6.910609335028">
        <ele>2065.4</ele>
        <time>2018-01-30T11:12:21Z</time>
      </trkpt>
      <trkpt lat="45.686929717871" lon="6.910575136876">
        <ele>2064.4</ele>
        <time>2018-01-30T11:12:23Z</time>
      </trkpt>
      <trkpt lat="45.68705385381" lon="6.910521744173">
        <ele>2063.4</ele>
        <time>2018-01-30T11:12:25Z</time>
      </trkpt>
      <trkpt lat="45.687126860159" lon="6.910511685893">
        <ele>2063</ele>
        <time>2018-01-30T11:12:26Z</time>
      </trkpt>
      <trkpt lat="45.68720724258" lon="6.910513529911">
        <ele>2062.4</ele>
        <time>2018-01-30T11:12:27Z</time>
      </trkpt>
      <trkpt lat="45.687379490625" lon="6.910549823538">
        <ele>2061.8</ele>
        <time>2018-01-30T11:12:28Z</time>
      </trkpt>
      <trkpt lat="45.68755257686" lon="6.910605060259">
        <ele>2059.8</ele>
        <time>2018-01-30T11:12:30Z</time>
      </trkpt>
      <trkpt lat="45.68755257686" lon="6.910605060259">
        <ele>2058.8</ele>
        <time>2018-01-30T11:12:31Z</time>
      </trkpt>
      <trkpt lat="45.68763555767" lon="6.910646299207">
        <ele>2057.8</ele>
        <time>2018-01-30T11:12:32Z</time>
      </trkpt>
      <trkpt lat="45.687713676978" lon="6.910702793213">
        <ele>2057</ele>
        <time>2018-01-30T11:12:33Z</time>
      </trkpt>
      <trkpt lat="45.687785928956" lon="6.910769848413">
        <ele>2056</ele>
        <time>2018-01-30T11:12:34Z</time>
      </trkpt>
      <trkpt lat="45.687856420735" lon="6.910826510057">
        <ele>2054.8</ele>
        <time>2018-01-30T11:12:35Z</time>
      </trkpt>
      <trkpt lat="45.687933534215" lon="6.910846626617">
        <ele>2053.4</ele>
        <time>2018-01-30T11:12:36Z</time>
      </trkpt>
      <trkpt lat="45.688019029595" lon="6.910874286887">
        <ele>2052.2</ele>
        <time>2018-01-30T11:12:37Z</time>
      </trkpt>
      <trkpt lat="45.68810997321" lon="6.910915777292">
        <ele>2050.4</ele>
        <time>2018-01-30T11:12:38Z</time>
      </trkpt>
      <trkpt lat="45.688215166055" lon="6.910904294089">
        <ele>2048.8</ele>
        <time>2018-01-30T11:12:39Z</time>
      </trkpt>
      <trkpt lat="45.688308205145" lon="6.910767250024">
        <ele>2046.8</ele>
        <time>2018-01-30T11:12:40Z</time>
      </trkpt>
      <trkpt lat="45.688412643619" lon="6.910646131569">
        <ele>2044.6</ele>
        <time>2018-01-30T11:12:41Z</time>
      </trkpt>
      <trkpt lat="45.688536779558" lon="6.910609418847">
        <ele>2041.4</ele>
        <time>2018-01-30T11:12:42Z</time>
      </trkpt>
      <trkpt lat="45.688789829119" lon="6.910474721714">
        <ele>2036.4</ele>
        <time>2018-01-30T11:12:43Z</time>
      </trkpt>
      <trkpt lat="45.688937937292" lon="6.910448570186">
        <ele>2031.4</ele>
        <time>2018-01-30T11:12:44Z</time>
      </trkpt>
      <trkpt lat="45.688937937292" lon="6.910448570186">
        <ele>2026.6</ele>
        <time>2018-01-30T11:12:45Z</time>
      </trkpt>
      <trkpt lat="45.689223005711" lon="6.910301467841">
        <ele>2022.6</ele>
        <time>2018-01-30T11:12:46Z</time>
      </trkpt>
      <trkpt lat="45.689362815803" lon="6.910181858128">
        <ele>2019</ele>
        <time>2018-01-30T11:12:47Z</time>
      </trkpt>
      <trkpt lat="45.689362815803" lon="6.910181858128">
        <ele>2015.8</ele>
        <time>2018-01-30T11:12:48Z</time>
      </trkpt>
      <trkpt lat="45.689504553732" lon="6.910137014963">
        <ele>2013</ele>
        <time>2018-01-30T11:12:49Z</time>
      </trkpt>
      <trkpt lat="45.689753328524" lon="6.910130057986">
        <ele>2009.4</ele>
        <time>2018-01-30T11:12:50Z</time>
      </trkpt>
      <trkpt lat="45.689753328524" lon="6.910130057986">
        <ele>2006</ele>
        <time>2018-01-30T11:12:51Z</time>
      </trkpt>
      <trkpt lat="45.689878218834" lon="6.910129638891">
        <ele>2002.8</ele>
        <time>2018-01-30T11:12:52Z</time>
      </trkpt>
      <trkpt lat="45.689987854086" lon="6.910183702146">
        <ele>2000.6</ele>
        <time>2018-01-30T11:12:53Z</time>
      </trkpt>
      <trkpt lat="45.690096651148" lon="6.910232317166">
        <ele>1998.4</ele>
        <time>2018-01-30T11:12:54Z</time>
      </trkpt>
      <trkpt lat="45.690213997748" lon="6.910252014631">
        <ele>1996.4</ele>
        <time>2018-01-30T11:12:55Z</time>
      </trkpt>
      <trkpt lat="45.690325393199" lon="6.910298534176">
        <ele>1994.8</ele>
        <time>2018-01-30T11:12:56Z</time>
      </trkpt>
      <trkpt lat="45.690424634895" lon="6.910387633773">
        <ele>1992.6</ele>
        <time>2018-01-30T11:12:57Z</time>
      </trkpt>
      <trkpt lat="45.690529241007" lon="6.910431806386">
        <ele>1990.6</ele>
        <time>2018-01-30T11:12:58Z</time>
      </trkpt>
      <trkpt lat="45.690642061381" lon="6.910410264903">
        <ele>1988.8</ele>
        <time>2018-01-30T11:12:59Z</time>
      </trkpt>
      <trkpt lat="45.690749684977" lon="6.91044236758">
        <ele>1987</ele>
        <time>2018-01-30T11:13:00Z</time>
      </trkpt>
      <trkpt lat="45.690847669388" lon="6.910528449693">
        <ele>1985.2</ele>
        <time>2018-01-30T11:13:01Z</time>
      </trkpt>
      <trkpt lat="45.691056965431" lon="6.910515960662">
        <ele>1983.4</ele>
        <time>2018-01-30T11:13:02Z</time>
      </trkpt>
      <trkpt lat="45.691143299001" lon="6.910389393972">
        <ele>1981.2</ele>
        <time>2018-01-30T11:13:03Z</time>
      </trkpt>
      <trkpt lat="45.691143299001" lon="6.910389393972">
        <ele>1978.6</ele>
        <time>2018-01-30T11:13:04Z</time>
      </trkpt>
      <trkpt lat="45.691354271424" lon="6.910262827282">
        <ele>1975.6</ele>
        <time>2018-01-30T11:13:05Z</time>
      </trkpt>
      <trkpt lat="45.691451752921" lon="6.910265341852">
        <ele>1972.2</ele>
        <time>2018-01-30T11:13:06Z</time>
      </trkpt>
      <trkpt lat="45.691451752921" lon="6.910265341852">
        <ele>1968.4</ele>
        <time>2018-01-30T11:13:07Z</time>
      </trkpt>
      <trkpt lat="45.691569434797" lon="6.910083286984">
        <ele>1964.8</ele>
        <time>2018-01-30T11:13:08Z</time>
      </trkpt>
      <trkpt lat="45.691569434797" lon="6.910083286984">
        <ele>1962.2</ele>
        <time>2018-01-30T11:13:09Z</time>
      </trkpt>
      <trkpt lat="45.691719722264" lon="6.909793105606">
        <ele>1959.6</ele>
        <time>2018-01-30T11:13:10Z</time>
      </trkpt>
      <trkpt lat="45.69181728758" lon="6.909697468127">
        <ele>1956.4</ele>
        <time>2018-01-30T11:13:11Z</time>
      </trkpt>
      <trkpt lat="45.691890713024" lon="6.909599316078">
        <ele>1951.8</ele>
        <time>2018-01-30T11:13:12Z</time>
      </trkpt>
      <trkpt lat="45.691942010252" lon="6.909445675851">
        <ele>1947</ele>
        <time>2018-01-30T11:13:13Z</time>
      </trkpt>
      <trkpt lat="45.692015854791" lon="6.909320114989">
        <ele>1942.6</ele>
        <time>2018-01-30T11:13:14Z</time>
      </trkpt>
      <trkpt lat="45.692015854791" lon="6.909320114989">
        <ele>1939.2</ele>
        <time>2018-01-30T11:13:15Z</time>
      </trkpt>
      <trkpt lat="45.692147031526" lon="6.909062623021">
        <ele>1935.2</ele>
        <time>2018-01-30T11:13:16Z</time>
      </trkpt>
      <trkpt lat="45.692215344011" lon="6.908923902576">
        <ele>1931.2</ele>
        <time>2018-01-30T11:13:17Z</time>
      </trkpt>
      <trkpt lat="45.692215344011" lon="6.908923902576">
        <ele>1927.8</ele>
        <time>2018-01-30T11:13:18Z</time>
      </trkpt>
      <trkpt lat="45.692297067536" lon="6.908806975071">
        <ele>1924.6</ele>
        <time>2018-01-30T11:13:19Z</time>
      </trkpt>
      <trkpt lat="45.692379293975" lon="6.908691891584">
        <ele>1920.2</ele>
        <time>2018-01-30T11:13:20Z</time>
      </trkpt>
      <trkpt lat="45.692573083503" lon="6.908430376304">
        <ele>1915</ele>
        <time>2018-01-30T11:13:21Z</time>
      </trkpt>
      <trkpt lat="45.692690262465" lon="6.908322333613">
        <ele>1910.2</ele>
        <time>2018-01-30T11:13:22Z</time>
      </trkpt>
      <trkpt lat="45.692835101697" lon="6.908254104947">
        <ele>1905.6</ele>
        <time>2018-01-30T11:13:23Z</time>
      </trkpt>
      <trkpt lat="45.692967535717" lon="6.908184954272">
        <ele>1900.8</ele>
        <time>2018-01-30T11:13:24Z</time>
      </trkpt>
      <trkpt lat="45.69310055647" lon="6.908232312007">
        <ele>1896</ele>
        <time>2018-01-30T11:13:25Z</time>
      </trkpt>
      <trkpt lat="45.693212287197" lon="6.908332727169">
        <ele>1891</ele>
        <time>2018-01-30T11:13:26Z</time>
      </trkpt>
      <trkpt lat="45.693312869997" lon="6.908358291964">
        <ele>1886.6</ele>
        <time>2018-01-30T11:13:27Z</time>
      </trkpt>
      <trkpt lat="45.693402975422" lon="6.908272461308">
        <ele>1882.2</ele>
        <time>2018-01-30T11:13:28Z</time>
      </trkpt>
      <trkpt lat="45.693498109987" lon="6.908201215158">
        <ele>1879.4</ele>
        <time>2018-01-30T11:13:29Z</time>
      </trkpt>
      <trkpt lat="45.693498109987" lon="6.908201215158">
        <ele>1876.8</ele>
        <time>2018-01-30T11:13:30Z</time>
      </trkpt>
      <trkpt lat="45.69360179409" lon="6.908229378342">
        <ele>1874.6</ele>
        <time>2018-01-30T11:13:31Z</time>
      </trkpt>
      <trkpt lat="45.693748225883" lon="6.908363572561">
        <ele>1871.6</ele>
        <time>2018-01-30T11:13:32Z</time>
      </trkpt>
      <trkpt lat="45.693748225883" lon="6.908363572561">
        <ele>1867.8</ele>
        <time>2018-01-30T11:13:33Z</time>
      </trkpt>
      <trkpt lat="45.693835230005" lon="6.908377151239">
        <ele>1864.4</ele>
        <time>2018-01-30T11:13:34Z</time>
      </trkpt>
      <trkpt lat="45.693921731213" lon="6.908402967491">
        <ele>1861.8</ele>
        <time>2018-01-30T11:13:35Z</time>
      </trkpt>
      <trkpt lat="45.693998593236" lon="6.908448565027">
        <ele>1859.8</ele>
        <time>2018-01-30T11:13:36Z</time>
      </trkpt>
      <trkpt lat="45.694046537704" lon="6.908456276375">
        <ele>1857.4</ele>
        <time>2018-01-30T11:13:37Z</time>
      </trkpt>
      <trkpt lat="45.694057098898" lon="6.908391651926">
        <ele>1854.8</ele>
        <time>2018-01-30T11:13:38Z</time>
      </trkpt>
      <trkpt lat="45.694066067531" lon="6.908290650031">
        <ele>1852.2</ele>
        <time>2018-01-30T11:13:39Z</time>
      </trkpt>
      <trkpt lat="45.694128345048" lon="6.908221583175">
        <ele>1849.8</ele>
        <time>2018-01-30T11:13:40Z</time>
      </trkpt>
      <trkpt lat="45.694202189587" lon="6.90817338725">
        <ele>1847.2</ele>
        <time>2018-01-30T11:13:41Z</time>
      </trkpt>
      <trkpt lat="45.694236723015" lon="6.908069284052">
        <ele>1844.2</ele>
        <time>2018-01-30T11:13:42Z</time>
      </trkpt>
      <trkpt lat="45.694246194562" lon="6.907917320205">
        <ele>1840.8</ele>
        <time>2018-01-30T11:13:43Z</time>
      </trkpt>
      <trkpt lat="45.694272178452" lon="6.907795950293">
        <ele>1837.2</ele>
        <time>2018-01-30T11:13:44Z</time>
      </trkpt>
      <trkpt lat="45.694336719082" lon="6.907684387204">
        <ele>1833.6</ele>
        <time>2018-01-30T11:13:45Z</time>
      </trkpt>
      <trkpt lat="45.694390027966" lon="6.907554467754">
        <ele>1829.6</ele>
        <time>2018-01-30T11:13:46Z</time>
      </trkpt>
      <trkpt lat="45.694407629956" lon="6.907365623547">
        <ele>1826.2</ele>
        <time>2018-01-30T11:13:47Z</time>
      </trkpt>
      <trkpt lat="45.694437301882" lon="6.907168062164">
        <ele>1822.8</ele>
        <time>2018-01-30T11:13:48Z</time>
      </trkpt>
      <trkpt lat="45.694484072884" lon="6.906938984837">
        <ele>1818.2</ele>
        <time>2018-01-30T11:13:49Z</time>
      </trkpt>
      <trkpt lat="45.694565293495" lon="6.906697167022">
        <ele>1811.6</ele>
        <time>2018-01-30T11:13:50Z</time>
      </trkpt>
      <trkpt lat="45.694641652604" lon="6.90644168671">
        <ele>1804.4</ele>
        <time>2018-01-30T11:13:51Z</time>
      </trkpt>
      <trkpt lat="45.694674425833" lon="6.906146140916">
        <ele>1798.4</ele>
        <time>2018-01-30T11:13:52Z</time>
      </trkpt>
      <trkpt lat="45.694679454973" lon="6.905851014217">
        <ele>1793.8</ele>
        <time>2018-01-30T11:13:53Z</time>
      </trkpt>
      <trkpt lat="45.694684819389" lon="6.905601736511">
        <ele>1789.8</ele>
        <time>2018-01-30T11:13:54Z</time>
      </trkpt>
      <trkpt lat="45.694712144383" lon="6.90540484568">
        <ele>1786.8</ele>
        <time>2018-01-30T11:13:55Z</time>
      </trkpt>
      <trkpt lat="45.694750617304" lon="6.905244835209">
        <ele>1784.8</ele>
        <time>2018-01-30T11:13:56Z</time>
      </trkpt>
      <trkpt lat="45.694798226496" lon="6.905102175271">
        <ele>1783.4</ele>
        <time>2018-01-30T11:13:57Z</time>
      </trkpt>
      <trkpt lat="45.694855893968" lon="6.904979128979">
        <ele>1782.2</ele>
        <time>2018-01-30T11:13:58Z</time>
      </trkpt>
      <trkpt lat="45.694948346325" lon="6.904788105478">
        <ele>1780.8</ele>
        <time>2018-01-30T11:14:00Z</time>
      </trkpt>
      <trkpt lat="45.695029483117" lon="6.9046487983">
        <ele>1780</ele>
        <time>2018-01-30T11:14:02Z</time>
      </trkpt>
      <trkpt lat="45.695088910788" lon="6.904577803607">
        <ele>1779.2</ele>
        <time>2018-01-30T11:14:03Z</time>
      </trkpt>
      <trkpt lat="45.695144231328" lon="6.904479064825">
        <ele>1778.6</ele>
        <time>2018-01-30T11:14:04Z</time>
      </trkpt>
      <trkpt lat="45.695183626258" lon="6.904347133719">
        <ele>1777</ele>
        <time>2018-01-30T11:14:05Z</time>
      </trkpt>
      <trkpt lat="45.695249927087" lon="6.904228948929">
        <ele>1775</ele>
        <time>2018-01-30T11:14:06Z</time>
      </trkpt>
      <trkpt lat="45.695350509887" lon="6.904151835449">
        <ele>1772.6</ele>
        <time>2018-01-30T11:14:07Z</time>
      </trkpt>
      <trkpt lat="45.69544748847" lon="6.904051420287">
        <ele>1769.6</ele>
        <time>2018-01-30T11:14:08Z</time>
      </trkpt>
      <trkpt lat="45.695551507849" lon="6.903952010953">
        <ele>1766.8</ele>
        <time>2018-01-30T11:14:09Z</time>
      </trkpt>
      <trkpt lat="45.695667848621" lon="6.903961650138">
        <ele>1763.4</ele>
        <time>2018-01-30T11:14:10Z</time>
      </trkpt>
      <trkpt lat="45.695757870227" lon="6.904041026731">
        <ele>1759.8</ele>
        <time>2018-01-30T11:14:11Z</time>
      </trkpt>
      <trkpt lat="45.695817381717" lon="6.904156696951">
        <ele>1755.8</ele>
        <time>2018-01-30T11:14:12Z</time>
      </trkpt>
      <trkpt lat="45.695881251795" lon="6.904251915335">
        <ele>1752.6</ele>
        <time>2018-01-30T11:14:13Z</time>
      </trkpt>
      <trkpt lat="45.695964148786" lon="6.904313019386">
        <ele>1750.2</ele>
        <time>2018-01-30T11:14:14Z</time>
      </trkpt>
      <trkpt lat="45.696044028293" lon="6.904397089843">
        <ele>1748.2</ele>
        <time>2018-01-30T11:14:15Z</time>
      </trkpt>
      <trkpt lat="45.69612055504" lon="6.904504545801">
        <ele>1746</ele>
        <time>2018-01-30T11:14:16Z</time>
      </trkpt>
      <trkpt lat="45.696204541678" lon="6.904567410051">
        <ele>1743.8</ele>
        <time>2018-01-30T11:14:17Z</time>
      </trkpt>
      <trkpt lat="45.696306884677" lon="6.904581324005">
        <ele>1741.2</ele>
        <time>2018-01-30T11:14:18Z</time>
      </trkpt>
      <trkpt lat="45.696405455821" lon="6.904641589866">
        <ele>1738.6</ele>
        <time>2018-01-30T11:14:19Z</time>
      </trkpt>
      <trkpt lat="45.696484580957" lon="6.904761618674">
        <ele>1734.8</ele>
        <time>2018-01-30T11:14:20Z</time>
      </trkpt>
      <trkpt lat="45.696555324193" lon="6.904887850088">
        <ele>1730</ele>
        <time>2018-01-30T11:14:21Z</time>
      </trkpt>
      <trkpt lat="45.696640651935" lon="6.904954234736">
        <ele>1725.2</ele>
        <time>2018-01-30T11:14:22Z</time>
      </trkpt>
      <trkpt lat="45.696828909409" lon="6.904806629477">
        <ele>1721.2</ele>
        <time>2018-01-30T11:14:23Z</time>
      </trkpt>
      <trkpt lat="45.696828909409" lon="6.904806629477">
        <ele>1718</ele>
        <time>2018-01-30T11:14:24Z</time>
      </trkpt>
      <trkpt lat="45.696936197729" lon="6.90479296698">
        <ele>1714.6</ele>
        <time>2018-01-30T11:14:25Z</time>
      </trkpt>
      <trkpt lat="45.697015322865" lon="6.90486840408">
        <ele>1710.8</ele>
        <time>2018-01-30T11:14:26Z</time>
      </trkpt>
      <trkpt lat="45.697082964798" lon="6.904947864492">
        <ele>1707</ele>
        <time>2018-01-30T11:14:27Z</time>
      </trkpt>
      <trkpt lat="45.697170136558" lon="6.904996311874">
        <ele>1703.4</ele>
        <time>2018-01-30T11:14:28Z</time>
      </trkpt>
      <trkpt lat="45.697253620282" lon="6.905060601047">
        <ele>1700.2</ele>
        <time>2018-01-30T11:14:29Z</time>
      </trkpt>
      <trkpt lat="45.697314472876" lon="6.905154143051">
        <ele>1697</ele>
        <time>2018-01-30T11:14:30Z</time>
      </trkpt>
      <trkpt lat="45.69738203099" lon="6.905202506614">
        <ele>1694.2</ele>
        <time>2018-01-30T11:14:31Z</time>
      </trkpt>
      <trkpt lat="45.697465263257" lon="6.905214492731">
        <ele>1691.8</ele>
        <time>2018-01-30T11:14:32Z</time>
      </trkpt>
      <trkpt lat="45.69752871424" lon="6.905288924003">
        <ele>1690</ele>
        <time>2018-01-30T11:14:33Z</time>
      </trkpt>
      <trkpt lat="45.697570288464" lon="6.905376179582">
        <ele>1687.6</ele>
        <time>2018-01-30T11:14:34Z</time>
      </trkpt>
      <trkpt lat="45.697607587919" lon="6.905449185931">
        <ele>1684.8</ele>
        <time>2018-01-30T11:14:35Z</time>
      </trkpt>
      <trkpt lat="45.697664752477" lon="6.905465698274">
        <ele>1682</ele>
        <time>2018-01-30T11:14:36Z</time>
      </trkpt>
      <trkpt lat="45.697743458518" lon="6.905457400193">
        <ele>1680</ele>
        <time>2018-01-30T11:14:37Z</time>
      </trkpt>
      <trkpt lat="45.697888884483" lon="6.905560665201">
        <ele>1677.6</ele>
        <time>2018-01-30T11:14:38Z</time>
      </trkpt>
      <trkpt lat="45.697967171429" lon="6.905570304386">
        <ele>1675</ele>
        <time>2018-01-30T11:14:39Z</time>
      </trkpt>
      <trkpt lat="45.697967171429" lon="6.905570304386">
        <ele>1671.6</ele>
        <time>2018-01-30T11:14:40Z</time>
      </trkpt>
      <trkpt lat="45.69806431765" lon="6.905540045727">
        <ele>1668.6</ele>
        <time>2018-01-30T11:14:41Z</time>
      </trkpt>
      <trkpt lat="45.698169678133" lon="6.905577429001">
        <ele>1665.8</ele>
        <time>2018-01-30T11:14:42Z</time>
      </trkpt>
      <trkpt lat="45.698290461312" lon="6.905633168636">
        <ele>1662</ele>
        <time>2018-01-30T11:14:43Z</time>
      </trkpt>
      <trkpt lat="45.698543175597" lon="6.905535770958">
        <ele>1658.2</ele>
        <time>2018-01-30T11:14:44Z</time>
      </trkpt>
      <trkpt lat="45.698543175597" lon="6.905535770958">
        <ele>1654.2</ele>
        <time>2018-01-30T11:14:45Z</time>
      </trkpt>
      <trkpt lat="45.698638058705" lon="6.905405935327">
        <ele>1650.2</ele>
        <time>2018-01-30T11:14:46Z</time>
      </trkpt>
      <trkpt lat="45.698690948494" lon="6.905260257905">
        <ele>1646</ele>
        <time>2018-01-30T11:14:47Z</time>
      </trkpt>
      <trkpt lat="45.698733528546" lon="6.905106282402">
        <ele>1641.8</ele>
        <time>2018-01-30T11:14:48Z</time>
      </trkpt>
      <trkpt lat="45.698791782751" lon="6.905050626586">
        <ele>1638.6</ele>
        <time>2018-01-30T11:14:49Z</time>
      </trkpt>
      <trkpt lat="45.698843079979" lon="6.905045513627">
        <ele>1636</ele>
        <time>2018-01-30T11:14:50Z</time>
      </trkpt>
      <trkpt lat="45.698884989479" lon="6.90502849837">
        <ele>1633.8</ele>
        <time>2018-01-30T11:14:51Z</time>
      </trkpt>
      <trkpt lat="45.698917259794" lon="6.905014416778">
        <ele>1632.2</ele>
        <time>2018-01-30T11:14:52Z</time>
      </trkpt>
      <trkpt lat="45.698939890924" lon="6.905017015167">
        <ele>1631.2</ele>
        <time>2018-01-30T11:14:53Z</time>
      </trkpt>
      <trkpt lat="45.698951709403" lon="6.905034198062">
        <ele>1630.8</ele>
        <time>2018-01-30T11:14:54Z</time>
      </trkpt>
      <trkpt lat="45.698963863158" lon="6.905097816683">
        <ele>1629.8</ele>
        <time>2018-01-30T11:14:58Z</time>
      </trkpt>
      <trkpt lat="45.698961683864" lon="6.905100750348">
        <ele>1629.6</ele>
        <time>2018-01-30T11:14:59Z</time>
      </trkpt>
      <trkpt lat="45.698951709403" lon="6.905097481407">
        <ele>1629.2</ele>
        <time>2018-01-30T11:15:02Z</time>
      </trkpt>
      <trkpt lat="45.698450471783" lon="6.904861111827">
        <ele>1629.6</ele>
        <time>2018-01-30T11:18:23Z</time>
      </trkpt>
      <trkpt lat="45.698252742762" lon="6.904976195314">
        <ele>1630</ele>
        <time>2018-01-30T11:18:29Z</time>
      </trkpt>
      <trkpt lat="45.698187447761" lon="6.905017685719">
        <ele>1631.6</ele>
        <time>2018-01-30T11:18:31Z</time>
      </trkpt>
      <trkpt lat="45.698154171618" lon="6.905036461175">
        <ele>1633</ele>
        <time>2018-01-30T11:18:32Z</time>
      </trkpt>
      <trkpt lat="45.695257806073" lon="6.906509496281">
        <ele>1781.8</ele>
        <time>2018-01-30T11:20:04Z</time>
      </trkpt>
      <trkpt lat="45.694508631851" lon="6.906882742288">
        <ele>1783.4</ele>
        <time>2018-01-30T11:20:25Z</time>
      </trkpt>
      <trkpt lat="45.686537864046" lon="6.911656653433">
        <ele>2101</ele>
        <time>2018-01-30T11:26:16Z</time>
      </trkpt>
      <trkpt lat="45.686695024671" lon="6.911667717541">
        <ele>2099.8</ele>
        <time>2018-01-30T11:26:19Z</time>
      </trkpt>
      <trkpt lat="45.686834499487" lon="6.91165522851">
        <ele>2098.6</ele>
        <time>2018-01-30T11:26:21Z</time>
      </trkpt>
      <trkpt lat="45.686906080913" lon="6.911659754736">
        <ele>2098</ele>
        <time>2018-01-30T11:26:22Z</time>
      </trkpt>
      <trkpt lat="45.686976824149" lon="6.911651456655">
        <ele>2097.2</ele>
        <time>2018-01-30T11:26:23Z</time>
      </trkpt>
      <trkpt lat="45.687056284561" lon="6.911636620692">
        <ele>2096.2</ele>
        <time>2018-01-30T11:26:24Z</time>
      </trkpt>
      <trkpt lat="45.687129710005" lon="6.911644080583">
        <ele>2095.2</ele>
        <time>2018-01-30T11:26:25Z</time>
      </trkpt>
      <trkpt lat="45.687202297259" lon="6.911645505506">
        <ele>2094</ele>
        <time>2018-01-30T11:26:26Z</time>
      </trkpt>
      <trkpt lat="45.687270190649" lon="6.91162170091">
        <ele>2092.6</ele>
        <time>2018-01-30T11:26:27Z</time>
      </trkpt>
      <trkpt lat="45.687299192023" lon="6.911557495556">
        <ele>2091.4</ele>
        <time>2018-01-30T11:26:28Z</time>
      </trkpt>
      <trkpt lat="45.687291732132" lon="6.911480465895">
        <ele>2090.2</ele>
        <time>2018-01-30T11:26:29Z</time>
      </trkpt>
      <trkpt lat="45.687255606143" lon="6.91140209513">
        <ele>2089.2</ele>
        <time>2018-01-30T11:26:30Z</time>
      </trkpt>
      <trkpt lat="45.687166087451" lon="6.911329926971">
        <ele>2088</ele>
        <time>2018-01-30T11:26:31Z</time>
      </trkpt>
      <trkpt lat="45.687070785248" lon="6.911267230359">
        <ele>2086.8</ele>
        <time>2018-01-30T11:26:32Z</time>
      </trkpt>
      <trkpt lat="45.686976153597" lon="6.911196990037">
        <ele>2085</ele>
        <time>2018-01-30T11:26:33Z</time>
      </trkpt>
      <trkpt lat="45.686805917208" lon="6.911005463622">
        <ele>2083.2</ele>
        <time>2018-01-30T11:26:34Z</time>
      </trkpt>
      <trkpt lat="45.686805917208" lon="6.911005463622">
        <ele>2081</ele>
        <time>2018-01-30T11:26:35Z</time>
      </trkpt>
      <trkpt lat="45.686723523131" lon="6.910913178903">
        <ele>2079.4</ele>
        <time>2018-01-30T11:26:36Z</time>
      </trkpt>
      <trkpt lat="45.686693013015" lon="6.910790300249">
        <ele>2077.8</ele>
        <time>2018-01-30T11:26:37Z</time>
      </trkpt>
      <trkpt lat="45.686719918914" lon="6.91067622259">
        <ele>2075.4</ele>
        <time>2018-01-30T11:26:38Z</time>
      </trkpt>
      <trkpt lat="45.686785046277" lon="6.910600198757">
        <ele>2072.4</ele>
        <time>2018-01-30T11:26:39Z</time>
      </trkpt>
      <trkpt lat="45.686922425618" lon="6.910518810508">
        <ele>2069.2</ele>
        <time>2018-01-30T11:26:40Z</time>
      </trkpt>
      <trkpt lat="45.686922425618" lon="6.910518810508">
        <ele>2066.6</ele>
        <time>2018-01-30T11:26:41Z</time>
      </trkpt>
      <trkpt lat="45.68699266594" lon="6.910476565732">
        <ele>2065</ele>
        <time>2018-01-30T11:26:42Z</time>
      </trkpt>
      <trkpt lat="45.68708235227" lon="6.910464411977">
        <ele>2064</ele>
        <time>2018-01-30T11:26:43Z</time>
      </trkpt>
      <trkpt lat="45.687251247555" lon="6.910501962889">
        <ele>2062.4</ele>
        <time>2018-01-30T11:26:45Z</time>
      </trkpt>
      <trkpt lat="45.687340766247" lon="6.910513529911">
        <ele>2061.2</ele>
        <time>2018-01-30T11:26:46Z</time>
      </trkpt>
      <trkpt lat="45.687428105645" lon="6.910545716407">
        <ele>2060.2</ele>
        <time>2018-01-30T11:26:47Z</time>
      </trkpt>
      <trkpt lat="45.687506392591" lon="6.910593912332">
        <ele>2059.2</ele>
        <time>2018-01-30T11:26:48Z</time>
      </trkpt>
      <trkpt lat="45.687585685365" lon="6.910634229271">
        <ele>2058.2</ele>
        <time>2018-01-30T11:26:49Z</time>
      </trkpt>
      <trkpt lat="45.687672857125" lon="6.910661554265">
        <ele>2057</ele>
        <time>2018-01-30T11:26:50Z</time>
      </trkpt>
      <trkpt lat="45.687753658641" lon="6.910716790986">
        <ele>2056.4</ele>
        <time>2018-01-30T11:26:51Z</time>
      </trkpt>
      <trkpt lat="45.687820043289" lon="6.910798263054">
        <ele>2055.4</ele>
        <time>2018-01-30T11:26:52Z</time>
      </trkpt>
      <trkpt lat="45.687886427937" lon="6.910848805911">
        <ele>2054.4</ele>
        <time>2018-01-30T11:26:53Z</time>
      </trkpt>
      <trkpt lat="45.687961026847" lon="6.910847464807">
        <ele>2053.2</ele>
        <time>2018-01-30T11:26:54Z</time>
      </trkpt>
      <trkpt lat="45.688055071765" lon="6.910821648555">
        <ele>2052</ele>
        <time>2018-01-30T11:26:55Z</time>
      </trkpt>
      <trkpt lat="45.688279371409" lon="6.91078518729">
        <ele>2050.2</ele>
        <time>2018-01-30T11:26:56Z</time>
      </trkpt>
      <trkpt lat="45.688279371409" lon="6.91078518729">
        <ele>2047.6</ele>
        <time>2018-01-30T11:26:57Z</time>
      </trkpt>
      <trkpt lat="45.688415493465" lon="6.910686029413">
        <ele>2044.4</ele>
        <time>2018-01-30T11:26:58Z</time>
      </trkpt>
      <trkpt lat="45.688559662145" lon="6.910632971986">
        <ele>2040.6</ele>
        <time>2018-01-30T11:26:59Z</time>
      </trkpt>
      <trkpt lat="45.688700310427" lon="6.910582261491">
        <ele>2036.2</ele>
        <time>2018-01-30T11:27:00Z</time>
      </trkpt>
      <trkpt lat="45.688835426655" lon="6.910460640122">
        <ele>2031</ele>
        <time>2018-01-30T11:27:01Z</time>
      </trkpt>
      <trkpt lat="45.68898504357" lon="6.910348909395">
        <ele>2026.2</ele>
        <time>2018-01-30T11:27:02Z</time>
      </trkpt>
      <trkpt lat="45.689152346294" lon="6.910302473669">
        <ele>2022.2</ele>
        <time>2018-01-30T11:27:03Z</time>
      </trkpt>
      <trkpt lat="45.689306573254" lon="6.910224941094">
        <ele>2018.2</ele>
        <time>2018-01-30T11:27:04Z</time>
      </trkpt>
      <trkpt lat="45.689451412486" lon="6.910142966112">
        <ele>2013.8</ele>
        <time>2018-01-30T11:27:05Z</time>
      </trkpt>
      <trkpt lat="45.689588121275" lon="6.910144391035">
        <ele>2009.2</ele>
        <time>2018-01-30T11:27:06Z</time>
      </trkpt>
      <trkpt lat="45.689716615802" lon="6.910158137351">
        <ele>2005.8</ele>
        <time>2018-01-30T11:27:07Z</time>
      </trkpt>
      <trkpt lat="45.689981148566" lon="6.91013726642">
        <ele>2002.8</ele>
        <time>2018-01-30T11:27:08Z</time>
      </trkpt>
      <trkpt lat="45.689981148566" lon="6.91013726642">
        <ele>2001</ele>
        <time>2018-01-30T11:27:09Z</time>
      </trkpt>
      <trkpt lat="45.690087431058" lon="6.910223264714">
        <ele>1999.2</ele>
        <time>2018-01-30T11:27:10Z</time>
      </trkpt>
      <trkpt lat="45.690192204808" lon="6.910296941615">
        <ele>1997.6</ele>
        <time>2018-01-30T11:27:11Z</time>
      </trkpt>
      <trkpt lat="45.690308126485" lon="6.910298031262">
        <ele>1994.8</ele>
        <time>2018-01-30T11:27:12Z</time>
      </trkpt>
      <trkpt lat="45.690426059818" lon="6.910299288547">
        <ele>1992.2</ele>
        <time>2018-01-30T11:27:13Z</time>
      </trkpt>
      <trkpt lat="45.690534605423" lon="6.910372630172">
        <ele>1989</ele>
        <time>2018-01-30T11:27:14Z</time>
      </trkpt>
      <trkpt lat="45.690631835463" lon="6.910473129153">
        <ele>1990.4</ele>
        <time>2018-01-30T11:27:15Z</time>
      </trkpt>
      <trkpt lat="45.69086342736" lon="6.910487965116">
        <ele>1984</ele>
        <time>2018-01-30T11:27:17Z</time>
      </trkpt>
      <trkpt lat="45.690994855552" lon="6.910488887125">
        <ele>1977.4</ele>
        <time>2018-01-30T11:27:18Z</time>
      </trkpt>
      <trkpt lat="45.691126199925" lon="6.910512607902">
        <ele>1980.2</ele>
        <time>2018-01-30T11:27:19Z</time>
      </trkpt>
      <trkpt lat="45.69147446787" lon="6.910242962179">
        <ele>1974.2</ele>
        <time>2018-01-30T11:27:22Z</time>
      </trkpt>
      <trkpt lat="45.691594161402" lon="6.910192084046">
        <ele>1970.8</ele>
        <time>2018-01-30T11:27:23Z</time>
      </trkpt>
      <trkpt lat="45.691676387841" lon="6.910081862061">
        <ele>1967</ele>
        <time>2018-01-30T11:27:24Z</time>
      </trkpt>
      <trkpt lat="45.69170497012" lon="6.909873404208">
        <ele>1963</ele>
        <time>2018-01-30T11:27:25Z</time>
      </trkpt>
      <trkpt lat="45.691751405846" lon="6.909679782318">
        <ele>1960</ele>
        <time>2018-01-30T11:27:26Z</time>
      </trkpt>
      <trkpt lat="45.691859448537" lon="6.909547348298">
        <ele>1956.8</ele>
        <time>2018-01-30T11:27:27Z</time>
      </trkpt>
      <trkpt lat="45.691982913924" lon="6.909463529298">
        <ele>1952.2</ele>
        <time>2018-01-30T11:27:28Z</time>
      </trkpt>
      <trkpt lat="45.692091459529" lon="6.90935272058">
        <ele>1947.2</ele>
        <time>2018-01-30T11:27:29Z</time>
      </trkpt>
      <trkpt lat="45.692150216648" lon="6.909200589095">
        <ele>1942.2</ele>
        <time>2018-01-30T11:27:30Z</time>
      </trkpt>
      <trkpt lat="45.692181397316" lon="6.909018869503">
        <ele>1938.4</ele>
        <time>2018-01-30T11:27:31Z</time>
      </trkpt>
      <trkpt lat="45.692227330128" lon="6.908839245386">
        <ele>1934.4</ele>
        <time>2018-01-30T11:27:32Z</time>
      </trkpt>
      <trkpt lat="45.6923101433" lon="6.908711421411">
        <ele>1929.4</ele>
        <time>2018-01-30T11:27:33Z</time>
      </trkpt>
      <trkpt lat="45.69240737334" lon="6.908590051499">
        <ele>1923.8</ele>
        <time>2018-01-30T11:27:34Z</time>
      </trkpt>
      <trkpt lat="45.692503597552" lon="6.908406236432">
        <ele>1918.2</ele>
        <time>2018-01-30T11:27:35Z</time>
      </trkpt>
      <trkpt lat="45.6926202736" lon="6.908262319209">
        <ele>1913.4</ele>
        <time>2018-01-30T11:27:36Z</time>
      </trkpt>
      <trkpt lat="45.692785564668" lon="6.908245136314">
        <ele>1908.8</ele>
        <time>2018-01-30T11:27:37Z</time>
      </trkpt>
      <trkpt lat="45.692930739176" lon="6.908296768818">
        <ele>1902.6</ele>
        <time>2018-01-30T11:27:38Z</time>
      </trkpt>
      <trkpt lat="45.693057892599" lon="6.908350412978">
        <ele>1897.2</ele>
        <time>2018-01-30T11:27:39Z</time>
      </trkpt>
      <trkpt lat="45.693165013281" lon="6.908319651405">
        <ele>1892.4</ele>
        <time>2018-01-30T11:27:40Z</time>
      </trkpt>
      <trkpt lat="45.693275821999" lon="6.908216386397">
        <ele>1889.2</ele>
        <time>2018-01-30T11:27:41Z</time>
      </trkpt>
      <trkpt lat="45.693407920743" lon="6.908186965928">
        <ele>1886.4</ele>
        <time>2018-01-30T11:27:42Z</time>
      </trkpt>
      <trkpt lat="45.693506491887" lon="6.908237592604">
        <ele>1883.8</ele>
        <time>2018-01-30T11:27:43Z</time>
      </trkpt>
      <trkpt lat="45.693578995322" lon="6.908318729396">
        <ele>1880.2</ele>
        <time>2018-01-30T11:27:44Z</time>
      </trkpt>
      <trkpt lat="45.693635237871" lon="6.908410343563">
        <ele>1876.4</ele>
        <time>2018-01-30T11:27:45Z</time>
      </trkpt>
      <trkpt lat="45.693701957795" lon="6.908477482582">
        <ele>1872.8</ele>
        <time>2018-01-30T11:27:46Z</time>
      </trkpt>
      <trkpt lat="45.693776472886" lon="6.908528528353">
        <ele>1870.2</ele>
        <time>2018-01-30T11:27:47Z</time>
      </trkpt>
      <trkpt lat="45.693846210294" lon="6.908567420369">
        <ele>1868.6</ele>
        <time>2018-01-30T11:27:48Z</time>
      </trkpt>
      <trkpt lat="45.693909745096" lon="6.908559960478">
        <ele>1867</ele>
        <time>2018-01-30T11:27:49Z</time>
      </trkpt>
      <trkpt lat="45.693979901599" lon="6.908539424823">
        <ele>1865.2</ele>
        <time>2018-01-30T11:27:50Z</time>
      </trkpt>
      <trkpt lat="45.694046621523" lon="6.908565157256">
        <ele>1863.2</ele>
        <time>2018-01-30T11:27:51Z</time>
      </trkpt>
      <trkpt lat="45.69410554628" lon="6.908622489452">
        <ele>1861</ele>
        <time>2018-01-30T11:27:52Z</time>
      </trkpt>
      <trkpt lat="45.694157011146" lon="6.908685856616">
        <ele>1858.6</ele>
        <time>2018-01-30T11:27:53Z</time>
      </trkpt>
      <trkpt lat="45.694213086057" lon="6.908743188812">
        <ele>1856.6</ele>
        <time>2018-01-30T11:27:54Z</time>
      </trkpt>
      <trkpt lat="45.694268909511" lon="6.908760706983">
        <ele>1855.2</ele>
        <time>2018-01-30T11:27:55Z</time>
      </trkpt>
      <trkpt lat="45.694346693543" lon="6.90871653437">
        <ele>1853.8</ele>
        <time>2018-01-30T11:27:56Z</time>
      </trkpt>
      <trkpt lat="45.69444585142" lon="6.908660794735">
        <ele>1852.2</ele>
        <time>2018-01-30T11:27:57Z</time>
      </trkpt>
      <trkpt lat="45.694561437821" lon="6.908667751712">
        <ele>1850.2</ele>
        <time>2018-01-30T11:27:58Z</time>
      </trkpt>
      <trkpt lat="45.694672246539" lon="6.908716031456">
        <ele>1846.8</ele>
        <time>2018-01-30T11:27:59Z</time>
      </trkpt>
      <trkpt lat="45.694771572054" lon="6.90870982885">
        <ele>1843</ele>
        <time>2018-01-30T11:28:00Z</time>
      </trkpt>
      <trkpt lat="45.694876178166" lon="6.90860170234">
        <ele>1839.2</ele>
        <time>2018-01-30T11:28:01Z</time>
      </trkpt>
      <trkpt lat="45.69499486587" lon="6.908558451736">
        <ele>1836</ele>
        <time>2018-01-30T11:28:02Z</time>
      </trkpt>
      <trkpt lat="45.695110200814" lon="6.90859583501">
        <ele>1832.4</ele>
        <time>2018-01-30T11:28:03Z</time>
      </trkpt>
      <trkpt lat="45.695219081695" lon="6.908647216057">
        <ele>1827.8</ele>
        <time>2018-01-30T11:28:04Z</time>
      </trkpt>
      <trkpt lat="45.695330812422" lon="6.908630703714">
        <ele>1823.2</ele>
        <time>2018-01-30T11:28:05Z</time>
      </trkpt>
      <trkpt lat="45.695441956416" lon="6.908511764553">
        <ele>1819.6</ele>
        <time>2018-01-30T11:28:06Z</time>
      </trkpt>
      <trkpt lat="45.695576150635" lon="6.908390227003">
        <ele>1816.4</ele>
        <time>2018-01-30T11:28:07Z</time>
      </trkpt>
      <trkpt lat="45.695745716472" lon="6.908331050789">
        <ele>1813</ele>
        <time>2018-01-30T11:28:08Z</time>
      </trkpt>
      <trkpt lat="45.695921233458" lon="6.908307665288">
        <ele>1806.6</ele>
        <time>2018-01-30T11:28:09Z</time>
      </trkpt>
      <trkpt lat="45.696083507042" lon="6.908222253727">
        <ele>1798.6</ele>
        <time>2018-01-30T11:28:10Z</time>
      </trkpt>
      <trkpt lat="45.696222227487" lon="6.908080012884">
        <ele>1790.6</ele>
        <time>2018-01-30T11:28:11Z</time>
      </trkpt>
      <trkpt lat="45.696281822796" lon="6.907887061546">
        <ele>1785.2</ele>
        <time>2018-01-30T11:28:12Z</time>
      </trkpt>
      <trkpt lat="45.696310740351" lon="6.907711460741">
        <ele>1782</ele>
        <time>2018-01-30T11:28:13Z</time>
      </trkpt>
      <trkpt lat="45.696353236584" lon="6.90756989045">
        <ele>1778.8</ele>
        <time>2018-01-30T11:28:14Z</time>
      </trkpt>
      <trkpt lat="45.696410820237" lon="6.907495710635">
        <ele>1775.4</ele>
        <time>2018-01-30T11:28:15Z</time>
      </trkpt>
      <trkpt lat="45.696486424975" lon="6.907483975975">
        <ele>1771.8</ele>
        <time>2018-01-30T11:28:16Z</time>
      </trkpt>
      <trkpt lat="45.696547445207" lon="6.907416669318">
        <ele>1769</ele>
        <time>2018-01-30T11:28:17Z</time>
      </trkpt>
      <trkpt lat="45.69660586705" lon="6.907369646859">
        <ele>1766.6</ele>
        <time>2018-01-30T11:28:18Z</time>
      </trkpt>
      <trkpt lat="45.69666370216" lon="6.907364785357">
        <ele>1764.2</ele>
        <time>2018-01-30T11:28:19Z</time>
      </trkpt>
      <trkpt lat="45.696713323008" lon="6.907332263585">
        <ele>1761.8</ele>
        <time>2018-01-30T11:28:20Z</time>
      </trkpt>
      <trkpt lat="45.696756070698" lon="6.90728155309">
        <ele>1759.2</ele>
        <time>2018-01-30T11:28:21Z</time>
      </trkpt>
      <trkpt lat="45.696807954659" lon="6.90724634911">
        <ele>1756.6</ele>
        <time>2018-01-30T11:28:22Z</time>
      </trkpt>
      <trkpt lat="45.696868388158" lon="6.907233357165">
        <ele>1754</ele>
        <time>2018-01-30T11:28:23Z</time>
      </trkpt>
      <trkpt lat="45.696920607395" lon="6.907216341908">
        <ele>1751.6</ele>
        <time>2018-01-30T11:28:24Z</time>
      </trkpt>
      <trkpt lat="45.696967210759" lon="6.907135791849">
        <ele>1748.8</ele>
        <time>2018-01-30T11:28:25Z</time>
      </trkpt>
      <trkpt lat="45.69701825653" lon="6.907082315327">
        <ele>1745.8</ele>
        <time>2018-01-30T11:28:26Z</time>
      </trkpt>
      <trkpt lat="45.697079192943" lon="6.90706530007">
        <ele>1742.4</ele>
        <time>2018-01-30T11:28:27Z</time>
      </trkpt>
      <trkpt lat="45.697118168778" lon="6.907047781899">
        <ele>1738.6</ele>
        <time>2018-01-30T11:28:28Z</time>
      </trkpt>
      <trkpt lat="45.697154630043" lon="6.906972931532">
        <ele>1735</ele>
        <time>2018-01-30T11:28:29Z</time>
      </trkpt>
      <trkpt lat="45.697165861789" lon="6.906890453636">
        <ele>1731.4</ele>
        <time>2018-01-30T11:28:30Z</time>
      </trkpt>
      <trkpt lat="45.697214644447" lon="6.906844520824">
        <ele>1728.4</ele>
        <time>2018-01-30T11:28:31Z</time>
      </trkpt>
      <trkpt lat="45.697268204788" lon="6.906823314617">
        <ele>1725.8</ele>
        <time>2018-01-30T11:28:32Z</time>
      </trkpt>
      <trkpt lat="45.697324112061" lon="6.906800012935">
        <ele>1723.4</ele>
        <time>2018-01-30T11:28:33Z</time>
      </trkpt>
      <trkpt lat="45.697359735136" lon="6.906757851978">
        <ele>1720.6</ele>
        <time>2018-01-30T11:28:34Z</time>
      </trkpt>
      <trkpt lat="45.697372643262" lon="6.906660957214">
        <ele>1717.6</ele>
        <time>2018-01-30T11:28:35Z</time>
      </trkpt>
      <trkpt lat="45.697418240798" lon="6.906579317508">
        <ele>1714.6</ele>
        <time>2018-01-30T11:28:36Z</time>
      </trkpt>
      <trkpt lat="45.697471046768" lon="6.906523661692">
        <ele>1711.4</ele>
        <time>2018-01-30T11:28:37Z</time>
      </trkpt>
      <trkpt lat="45.697515470838" lon="6.906468592609">
        <ele>1708.2</ele>
        <time>2018-01-30T11:28:38Z</time>
      </trkpt>
      <trkpt lat="45.6975823584" lon="6.906394664251">
        <ele>1705</ele>
        <time>2018-01-30T11:28:39Z</time>
      </trkpt>
      <trkpt lat="45.697641786071" lon="6.90634278029">
        <ele>1701.8</ele>
        <time>2018-01-30T11:28:40Z</time>
      </trkpt>
      <trkpt lat="45.697707500167" lon="6.906294584365">
        <ele>1698.8</ele>
        <time>2018-01-30T11:28:41Z</time>
      </trkpt>
      <trkpt lat="45.697752343332" lon="6.906207328786">
        <ele>1696</ele>
        <time>2018-01-30T11:28:42Z</time>
      </trkpt>
      <trkpt lat="45.697774555367" lon="6.906102806493">
        <ele>1692.8</ele>
        <time>2018-01-30T11:28:43Z</time>
      </trkpt>
      <trkpt lat="45.697832558115" lon="6.906027117936">
        <ele>1690</ele>
        <time>2018-01-30T11:28:44Z</time>
      </trkpt>
      <trkpt lat="45.697906402654" lon="6.90599493144">
        <ele>1687</ele>
        <time>2018-01-30T11:28:45Z</time>
      </trkpt>
      <trkpt lat="45.69798385141" lon="6.905960314193">
        <ele>1684</ele>
        <time>2018-01-30T11:28:46Z</time>
      </trkpt>
      <trkpt lat="45.698014193888" lon="6.905881440514">
        <ele>1680.8</ele>
        <time>2018-01-30T11:28:47Z</time>
      </trkpt>
      <trkpt lat="45.69805258299" lon="6.90578286937">
        <ele>1677</ele>
        <time>2018-01-30T11:28:48Z</time>
      </trkpt>
      <trkpt lat="45.69810455077" lon="6.9057132996">
        <ele>1673.6</ele>
        <time>2018-01-30T11:28:49Z</time>
      </trkpt>
      <trkpt lat="45.698167163563" lon="6.90565546449">
        <ele>1670</ele>
        <time>2018-01-30T11:28:50Z</time>
      </trkpt>
      <trkpt lat="45.698256766074" lon="6.905582877236">
        <ele>1666.8</ele>
        <time>2018-01-30T11:28:51Z</time>
      </trkpt>
      <trkpt lat="45.698375705235" lon="6.905542811754">
        <ele>1663.4</ele>
        <time>2018-01-30T11:28:52Z</time>
      </trkpt>
      <trkpt lat="45.698490285808" lon="6.905475421278">
        <ele>1659.4</ele>
        <time>2018-01-30T11:28:53Z</time>
      </trkpt>
      <trkpt lat="45.698617774507" lon="6.905411299743">
        <ele>1655.4</ele>
        <time>2018-01-30T11:28:54Z</time>
      </trkpt>
      <trkpt lat="45.698735540202" lon="6.905360253972">
        <ele>1651.2</ele>
        <time>2018-01-30T11:28:55Z</time>
      </trkpt>
      <trkpt lat="45.698822460505" lon="6.905295797161">
        <ele>1647.6</ele>
        <time>2018-01-30T11:28:56Z</time>
      </trkpt>
      <trkpt lat="45.698847690024" lon="6.905184736986">
        <ele>1644.2</ele>
        <time>2018-01-30T11:28:57Z</time>
      </trkpt>
      <trkpt lat="45.698856323381" lon="6.905066636015">
        <ele>1641.2</ele>
        <time>2018-01-30T11:28:58Z</time>
      </trkpt>
      <trkpt lat="45.698876020846" lon="6.904990109268">
        <ele>1639.2</ele>
        <time>2018-01-30T11:28:59Z</time>
      </trkpt>
      <trkpt lat="45.69892513878" lon="6.904993210571">
        <ele>1638</ele>
        <time>2018-01-30T11:29:00Z</time>
      </trkpt>
      <trkpt lat="45.698950871213" lon="6.905018691547">
        <ele>1636.8</ele>
        <time>2018-01-30T11:29:02Z</time>
      </trkpt>
      <trkpt lat="45.698947183177" lon="6.905020703203">
        <ele>1636.6</ele>
        <time>2018-01-30T11:29:03Z</time>
      </trkpt>
      <trkpt lat="45.698931760481" lon="6.905009387638">
        <ele>1636</ele>
        <time>2018-01-30T11:29:08Z</time>
      </trkpt>
      <trkpt lat="45.69902153063" lon="6.905608609669">
        <ele>1635</ele>
        <time>2018-01-30T11:31:13Z</time>
      </trkpt>
      <trkpt lat="45.699067379623" lon="6.905750515236">
        <ele>1633.8</ele>
        <time>2018-01-30T11:31:15Z</time>
      </trkpt>
      <trkpt lat="45.699142900542" lon="6.90595218375">
        <ele>1632.8</ele>
        <time>2018-01-30T11:31:18Z</time>
      </trkpt>
      <trkpt lat="45.699240884953" lon="6.906187044588">
        <ele>1631.6</ele>
        <time>2018-01-30T11:31:22Z</time>
      </trkpt>
      <trkpt lat="45.699344820513" lon="6.906504886236">
        <ele>1630.6</ele>
        <time>2018-01-30T11:31:28Z</time>
      </trkpt>
      <trkpt lat="45.699454288127" lon="6.90684401791">
        <ele>1629.6</ele>
        <time>2018-01-30T11:31:34Z</time>
      </trkpt>
      <trkpt lat="45.699538442403" lon="6.90710218043">
        <ele>1628.2</ele>
        <time>2018-01-30T11:31:38Z</time>
      </trkpt>
      <trkpt lat="45.699599211178" lon="6.907263029091">
        <ele>1626.8</ele>
        <time>2018-01-30T11:31:40Z</time>
      </trkpt>
      <trkpt lat="45.699699793978" lon="6.907540721438">
        <ele>1625.4</ele>
        <time>2018-01-30T11:31:43Z</time>
      </trkpt>
      <trkpt lat="45.699773051784" lon="6.907727973084">
        <ele>1624.2</ele>
        <time>2018-01-30T11:31:45Z</time>
      </trkpt>
      <trkpt lat="45.699875730059" lon="6.907935257471">
        <ele>1622.8</ele>
        <time>2018-01-30T11:31:47Z</time>
      </trkpt>
      <trkpt lat="45.699938426671" lon="6.908042378153">
        <ele>1622</ele>
        <time>2018-01-30T11:31:48Z</time>
      </trkpt>
      <trkpt lat="45.700008164079" lon="6.908159640934">
        <ele>1621</ele>
        <time>2018-01-30T11:31:49Z</time>
      </trkpt>
      <trkpt lat="45.70008519374" lon="6.908280591751">
        <ele>1619.6</ele>
        <time>2018-01-30T11:31:50Z</time>
      </trkpt>
      <trkpt lat="45.700167084903" lon="6.908393663582">
        <ele>1618</ele>
        <time>2018-01-30T11:31:51Z</time>
      </trkpt>
      <trkpt lat="45.700251239179" lon="6.908501203359">
        <ele>1616.4</ele>
        <time>2018-01-30T11:31:52Z</time>
      </trkpt>
      <trkpt lat="45.700331956876" lon="6.90861092243">
        <ele>1615</ele>
        <time>2018-01-30T11:31:53Z</time>
      </trkpt>
      <trkpt lat="45.700410243822" lon="6.908718881302">
        <ele>1613.6</ele>
        <time>2018-01-30T11:31:54Z</time>
      </trkpt>
      <trkpt lat="45.700490626243" lon="6.908811836573">
        <ele>1612.4</ele>
        <time>2018-01-30T11:31:55Z</time>
      </trkpt>
      <trkpt lat="45.700652396913" lon="6.908945024964">
        <ele>1610.6</ele>
        <time>2018-01-30T11:31:57Z</time>
      </trkpt>
      <trkpt lat="45.700817101248" lon="6.90900654811">
        <ele>1609</ele>
        <time>2018-01-30T11:31:59Z</time>
      </trkpt>
      <trkpt lat="45.700989768388" lon="6.908975115985">
        <ele>1608.2</ele>
        <time>2018-01-30T11:32:01Z</time>
      </trkpt>
      <trkpt lat="45.701070402266" lon="6.908934966684">
        <ele>1607.8</ele>
        <time>2018-01-30T11:32:02Z</time>
      </trkpt>
      <trkpt lat="45.701378604729" lon="6.908803203216">
        <ele>1606.8</ele>
        <time>2018-01-30T11:32:06Z</time>
      </trkpt>
      <trkpt lat="45.701606257133" lon="6.908743859364">
        <ele>1605.4</ele>
        <time>2018-01-30T11:32:09Z</time>
      </trkpt>
      <trkpt lat="45.701817397194" lon="6.908724245718">
        <ele>1604</ele>
        <time>2018-01-30T11:32:12Z</time>
      </trkpt>
      <trkpt lat="45.70200464884" lon="6.908735896559">
        <ele>1602.8</ele>
        <time>2018-01-30T11:32:15Z</time>
      </trkpt>
      <trkpt lat="45.702284017567" lon="6.908789037805">
        <ele>1601.6</ele>
        <time>2018-01-30T11:32:19Z</time>
      </trkpt>
      <trkpt lat="45.702445201504" lon="6.908840754128">
        <ele>1600.6</ele>
        <time>2018-01-30T11:32:21Z</time>
      </trkpt>
      <trkpt lat="45.702617198092" lon="6.908906719681">
        <ele>1599.2</ele>
        <time>2018-01-30T11:32:23Z</time>
      </trkpt>
      <trkpt lat="45.702779806952" lon="6.908979223116">
        <ele>1598</ele>
        <time>2018-01-30T11:32:25Z</time>
      </trkpt>
      <trkpt lat="45.703009135736" lon="6.909105203073">
        <ele>1596.8</ele>
        <time>2018-01-30T11:32:28Z</time>
      </trkpt>
      <trkpt lat="45.703133020218" lon="6.909183825295">
        <ele>1596.6</ele>
        <time>2018-01-30T11:32:30Z</time>
      </trkpt>
      <trkpt lat="45.703225472575" lon="6.9092756071">
        <ele>1596.2</ele>
        <time>2018-01-30T11:32:32Z</time>
      </trkpt>
      <trkpt lat="45.7033071961" lon="6.90940468836">
        <ele>1595.6</ele>
        <time>2018-01-30T11:32:34Z</time>
      </trkpt>
      <trkpt lat="45.703557647272" lon="6.909726050406">
        <ele>1594.8</ele>
        <time>2018-01-30T11:32:40Z</time>
      </trkpt>
      <trkpt lat="45.703659738814" lon="6.909927802739">
        <ele>1596.2</ele>
        <time>2018-01-30T11:32:46Z</time>
      </trkpt>
      <trkpt lat="45.703791586101" lon="6.910171129296">
        <ele>1596.6</ele>
        <time>2018-01-30T11:32:51Z</time>
      </trkpt>
      <trkpt lat="45.703945226328" lon="6.910454856611">
        <ele>1597.6</ele>
        <time>2018-01-30T11:32:57Z</time>
      </trkpt>
      <trkpt lat="45.703996942651" lon="6.910546219321">
        <ele>1597.8</ele>
        <time>2018-01-30T11:32:59Z</time>
      </trkpt>
      <trkpt lat="45.704145889014" lon="6.910704469593">
        <ele>1598.2</ele>
        <time>2018-01-30T11:33:05Z</time>
      </trkpt>
      <trkpt lat="45.704212357481" lon="6.910735482623">
        <ele>1598.8</ele>
        <time>2018-01-30T11:33:08Z</time>
      </trkpt>
      <trkpt lat="45.704355687971" lon="6.910922482812">
        <ele>1599.2</ele>
        <time>2018-01-30T11:33:14Z</time>
      </trkpt>
      <trkpt lat="45.704440261342" lon="6.911010157486">
        <ele>1598.8</ele>
        <time>2018-01-30T11:33:20Z</time>
      </trkpt>
      <trkpt lat="45.704448224147" lon="6.911020467223">
        <ele>1598.6</ele>
        <time>2018-01-30T11:33:22Z</time>
      </trkpt>
      <trkpt lat="45.704277903939" lon="6.910824079306">
        <ele>1598.4</ele>
        <time>2018-01-30T11:34:24Z</time>
      </trkpt>
      <trkpt lat="45.704143877358" lon="6.910696087693">
        <ele>1598.8</ele>
        <time>2018-01-30T11:34:30Z</time>
      </trkpt>
      <trkpt lat="45.70411018212" lon="6.910709666371">
        <ele>1598.4</ele>
        <time>2018-01-30T11:34:34Z</time>
      </trkpt>
      <trkpt lat="45.704192743835" lon="6.911074614297">
        <ele>1596.6</ele>
        <time>2018-01-30T11:35:08Z</time>
      </trkpt>
      <trkpt lat="45.704256194818" lon="6.911322550899">
        <ele>1594.8</ele>
        <time>2018-01-30T11:35:10Z</time>
      </trkpt>
      <trkpt lat="45.704303887829" lon="6.911449452865">
        <ele>1593.4</ele>
        <time>2018-01-30T11:35:11Z</time>
      </trkpt>
      <trkpt lat="45.704361471482" lon="6.911565709818">
        <ele>1592</ele>
        <time>2018-01-30T11:35:12Z</time>
      </trkpt>
      <trkpt lat="45.704426598845" lon="6.911672914319">
        <ele>1590.6</ele>
        <time>2018-01-30T11:35:13Z</time>
      </trkpt>
      <trkpt lat="45.704491893846" lon="6.9117734133">
        <ele>1589.2</ele>
        <time>2018-01-30T11:35:14Z</time>
      </trkpt>
      <trkpt lat="45.704554506639" lon="6.911870056607">
        <ele>1588</ele>
        <time>2018-01-30T11:35:15Z</time>
      </trkpt>
      <trkpt lat="45.704615443052" lon="6.911970220312">
        <ele>1586.8</ele>
        <time>2018-01-30T11:35:16Z</time>
      </trkpt>
      <trkpt lat="45.704732705833" lon="6.912187562979">
        <ele>1585.2</ele>
        <time>2018-01-30T11:35:18Z</time>
      </trkpt>
      <trkpt lat="45.704795234807" lon="6.912282949001">
        <ele>1584.2</ele>
        <time>2018-01-30T11:35:19Z</time>
      </trkpt>
      <trkpt lat="45.704860697446" lon="6.912367941467">
        <ele>1583.2</ele>
        <time>2018-01-30T11:35:20Z</time>
      </trkpt>
      <trkpt lat="45.7049249028" lon="6.912435751038">
        <ele>1582.2</ele>
        <time>2018-01-30T11:35:21Z</time>
      </trkpt>
      <trkpt lat="45.705042919952" lon="6.912506326636">
        <ele>1580.4</ele>
        <time>2018-01-30T11:35:23Z</time>
      </trkpt>
      <trkpt lat="45.705086254375" lon="6.912519821495">
        <ele>1579.8</ele>
        <time>2018-01-30T11:35:24Z</time>
      </trkpt>
      <trkpt lat="45.705117351224" lon="6.912535663286">
        <ele>1579.2</ele>
        <time>2018-01-30T11:35:25Z</time>
      </trkpt>
      <trkpt lat="45.70517971256" lon="6.912604227228">
        <ele>1577.8</ele>
        <time>2018-01-30T11:35:28Z</time>
      </trkpt>
      <trkpt lat="45.705261603723" lon="6.91266273289">
        <ele>1576</ele>
        <time>2018-01-30T11:35:30Z</time>
      </trkpt>
      <trkpt lat="45.705429576999" lon="6.912774463617">
        <ele>1574.8</ele>
        <time>2018-01-30T11:35:31Z</time>
      </trkpt>
      <trkpt lat="45.705537116776" lon="6.912848978708">
        <ele>1573.6</ele>
        <time>2018-01-30T11:35:32Z</time>
      </trkpt>
      <trkpt lat="45.705641471431" lon="6.912931708061">
        <ele>1571.8</ele>
        <time>2018-01-30T11:35:33Z</time>
      </trkpt>
      <trkpt lat="45.705747837742" lon="6.913030279205">
        <ele>1569.8</ele>
        <time>2018-01-30T11:35:34Z</time>
      </trkpt>
      <trkpt lat="45.705856718623" lon="6.91312373739">
        <ele>1567.6</ele>
        <time>2018-01-30T11:35:35Z</time>
      </trkpt>
      <trkpt lat="45.705955289767" lon="6.913227337674">
        <ele>1565.2</ele>
        <time>2018-01-30T11:35:36Z</time>
      </trkpt>
      <trkpt lat="45.706043634993" lon="6.91334334317">
        <ele>1563.4</ele>
        <time>2018-01-30T11:35:37Z</time>
      </trkpt>
      <trkpt lat="45.706136506445" lon="6.913445015617">
        <ele>1562</ele>
        <time>2018-01-30T11:35:38Z</time>
      </trkpt>
      <trkpt lat="45.706230886639" lon="6.913531852101">
        <ele>1560.4</ele>
        <time>2018-01-30T11:35:39Z</time>
      </trkpt>
      <trkpt lat="45.706230886639" lon="6.913531852101">
        <ele>1558.8</ele>
        <time>2018-01-30T11:35:40Z</time>
      </trkpt>
      <trkpt lat="45.706341024805" lon="6.91360150569">
        <ele>1557</ele>
        <time>2018-01-30T11:35:41Z</time>
      </trkpt>
      <trkpt lat="45.70643532118" lon="6.913618856223">
        <ele>1555.4</ele>
        <time>2018-01-30T11:35:42Z</time>
      </trkpt>
      <trkpt lat="45.706597259488" lon="6.913631177616">
        <ele>1554.2</ele>
        <time>2018-01-30T11:35:43Z</time>
      </trkpt>
      <trkpt lat="45.706670098199" lon="6.913618353309">
        <ele>1553.2</ele>
        <time>2018-01-30T11:35:44Z</time>
      </trkpt>
      <trkpt lat="45.706740170883" lon="6.913585244804">
        <ele>1552.2</ele>
        <time>2018-01-30T11:35:45Z</time>
      </trkpt>
      <trkpt lat="45.706802532219" lon="6.913571163212">
        <ele>1551</ele>
        <time>2018-01-30T11:35:46Z</time>
      </trkpt>
      <trkpt lat="45.706860367329" lon="6.913582897872">
        <ele>1549.8</ele>
        <time>2018-01-30T11:35:47Z</time>
      </trkpt>
      <trkpt lat="45.706918453896" lon="6.913582562596">
        <ele>1548.8</ele>
        <time>2018-01-30T11:35:48Z</time>
      </trkpt>
      <trkpt lat="45.706918453896" lon="6.913582562596">
        <ele>1547.8</ele>
        <time>2018-01-30T11:35:49Z</time>
      </trkpt>
      <trkpt lat="45.707041248731" lon="6.913567223719">
        <ele>1546.6</ele>
        <time>2018-01-30T11:35:50Z</time>
      </trkpt>
      <trkpt lat="45.707041248731" lon="6.913567223719">
        <ele>1545.6</ele>
        <time>2018-01-30T11:35:51Z</time>
      </trkpt>
      <trkpt lat="45.707126660292" lon="6.913593542885">
        <ele>1544</ele>
        <time>2018-01-30T11:35:52Z</time>
      </trkpt>
      <trkpt lat="45.707162786281" lon="6.913610306685">
        <ele>1542.6</ele>
        <time>2018-01-30T11:35:53Z</time>
      </trkpt>
      <trkpt lat="45.707192877302" lon="6.913639559516">
        <ele>1541.4</ele>
        <time>2018-01-30T11:35:54Z</time>
      </trkpt>
      <trkpt lat="45.707230009119" lon="6.913652719099">
        <ele>1540.2</ele>
        <time>2018-01-30T11:35:55Z</time>
      </trkpt>
      <trkpt lat="45.707275522836" lon="6.913662023008">
        <ele>1539</ele>
        <time>2018-01-30T11:35:56Z</time>
      </trkpt>
      <trkpt lat="45.707312989929" lon="6.913699993015">
        <ele>1537.8</ele>
        <time>2018-01-30T11:35:57Z</time>
      </trkpt>
      <trkpt lat="45.707352803954" lon="6.913727820923">
        <ele>1536.4</ele>
        <time>2018-01-30T11:35:58Z</time>
      </trkpt>
      <trkpt lat="45.707411309616" lon="6.91374818894">
        <ele>1534.6</ele>
        <time>2018-01-30T11:35:59Z</time>
      </trkpt>
      <trkpt lat="45.707452548564" lon="6.913797725969">
        <ele>1532.8</ele>
        <time>2018-01-30T11:36:00Z</time>
      </trkpt>
      <trkpt lat="45.707484483603" lon="6.913865786997">
        <ele>1531</ele>
        <time>2018-01-30T11:36:01Z</time>
      </trkpt>
      <trkpt lat="45.707523627076" lon="6.91391582694">
        <ele>1529</ele>
        <time>2018-01-30T11:36:02Z</time>
      </trkpt>
      <trkpt lat="45.707523627076" lon="6.91391582694">
        <ele>1527</ele>
        <time>2018-01-30T11:36:03Z</time>
      </trkpt>
      <trkpt lat="45.707646254273" lon="6.913910965438">
        <ele>1525.2</ele>
        <time>2018-01-30T11:36:04Z</time>
      </trkpt>
      <trkpt lat="45.707716746052" lon="6.913940302088">
        <ele>1523.6</ele>
        <time>2018-01-30T11:36:05Z</time>
      </trkpt>
      <trkpt lat="45.707795284455" lon="6.913967124168">
        <ele>1521.8</ele>
        <time>2018-01-30T11:36:06Z</time>
      </trkpt>
      <trkpt lat="45.707795284455" lon="6.913967124168">
        <ele>1519.4</ele>
        <time>2018-01-30T11:36:07Z</time>
      </trkpt>
      <trkpt lat="45.707979937712" lon="6.913957904078">
        <ele>1517</ele>
        <time>2018-01-30T11:36:08Z</time>
      </trkpt>
      <trkpt lat="45.708080352874" lon="6.91395857463">
        <ele>1515</ele>
        <time>2018-01-30T11:36:09Z</time>
      </trkpt>
      <trkpt lat="45.708176744724" lon="6.913947259065">
        <ele>1513</ele>
        <time>2018-01-30T11:36:10Z</time>
      </trkpt>
      <trkpt lat="45.708269951452" lon="6.91393342893">
        <ele>1511</ele>
        <time>2018-01-30T11:36:11Z</time>
      </trkpt>
      <trkpt lat="45.708366762397" lon="6.913923454469">
        <ele>1509</ele>
        <time>2018-01-30T11:36:12Z</time>
      </trkpt>
      <trkpt lat="45.708366762397" lon="6.913923454469">
        <ele>1506.8</ele>
        <time>2018-01-30T11:36:13Z</time>
      </trkpt>
      <trkpt lat="45.708472877251" lon="6.913928148333">
        <ele>1505</ele>
        <time>2018-01-30T11:36:14Z</time>
      </trkpt>
      <trkpt lat="45.708584775616" lon="6.913927896876">
        <ele>1503</ele>
        <time>2018-01-30T11:36:15Z</time>
      </trkpt>
      <trkpt lat="45.708697679809" lon="6.913931584912">
        <ele>1501.2</ele>
        <time>2018-01-30T11:36:16Z</time>
      </trkpt>
      <trkpt lat="45.708828102173" lon="6.913936614052">
        <ele>1498</ele>
        <time>2018-01-30T11:36:17Z</time>
      </trkpt>
      <trkpt lat="45.708959195089" lon="6.913943990124">
        <ele>1493.8</ele>
        <time>2018-01-30T11:36:18Z</time>
      </trkpt>
      <trkpt lat="45.709084923589" lon="6.913935524405">
        <ele>1489</ele>
        <time>2018-01-30T11:36:19Z</time>
      </trkpt>
      <trkpt lat="45.709188104778" lon="6.913884730091">
        <ele>1485.6</ele>
        <time>2018-01-30T11:36:20Z</time>
      </trkpt>
      <trkpt lat="45.709247783906" lon="6.913804096213">
        <ele>1483.4</ele>
        <time>2018-01-30T11:36:21Z</time>
      </trkpt>
      <trkpt lat="45.709244347327" lon="6.913703345775">
        <ele>1481.8</ele>
        <time>2018-01-30T11:36:22Z</time>
      </trkpt>
      <trkpt lat="45.709257423091" lon="6.913594632532">
        <ele>1480.4</ele>
        <time>2018-01-30T11:36:24Z</time>
      </trkpt>
      <trkpt lat="45.709277036737" lon="6.913552220118">
        <ele>1479.6</ele>
        <time>2018-01-30T11:36:26Z</time>
      </trkpt>
      <trkpt lat="45.709278629298" lon="6.913573426325">
        <ele>1479.4</ele>
        <time>2018-01-30T11:36:28Z</time>
      </trkpt>
      <trkpt lat="45.709240407834" lon="6.913679792636">
        <ele>1479.2</ele>
        <time>2018-01-30T11:36:31Z</time>
      </trkpt>
      <trkpt lat="45.709204114207" lon="6.913888753403">
        <ele>1478.6</ele>
        <time>2018-01-30T11:36:37Z</time>
      </trkpt>
      <trkpt lat="45.709213501935" lon="6.913930327627">
        <ele>1478.2</ele>
        <time>2018-01-30T11:36:38Z</time>
      </trkpt>
      <trkpt lat="45.709251220485" lon="6.913947845798">
        <ele>1477.6</ele>
        <time>2018-01-30T11:36:40Z</time>
      </trkpt>
      <trkpt lat="45.709279551307" lon="6.913942732839">
        <ele>1477.2</ele>
        <time>2018-01-30T11:36:42Z</time>
      </trkpt>
      <trkpt lat="45.709308971776" lon="6.913953796947">
        <ele>1477.2</ele>
        <time>2018-01-30T11:36:43Z</time>
      </trkpt>
      <trkpt lat="45.709382481039" lon="6.913950444187">
        <ele>1476.4</ele>
        <time>2018-01-30T11:36:49Z</time>
      </trkpt>
      <trkpt lat="45.709330177983" lon="6.91401892431">
        <ele>1475.4</ele>
        <time>2018-01-30T12:37:17Z</time>
      </trkpt>
      <trkpt lat="45.70933294401" lon="6.914027473848">
        <ele>1475.2</ele>
        <time>2018-01-30T12:37:23Z</time>
      </trkpt>
      <trkpt lat="45.709206461139" lon="6.914661145488">
        <ele>1474.2</ele>
        <time>2018-01-30T12:38:23Z</time>
      </trkpt>
      <trkpt lat="45.709175196652" lon="6.914992481995">
        <ele>1473.8</ele>
        <time>2018-01-30T12:38:29Z</time>
      </trkpt>
      <trkpt lat="45.709170754245" lon="6.915051239114">
        <ele>1473.6</ele>
        <time>2018-01-30T12:38:30Z</time>
      </trkpt>
      <trkpt lat="45.709163461992" lon="6.915164813859">
        <ele>1473.2</ele>
        <time>2018-01-30T12:38:32Z</time>
      </trkpt>
      <trkpt lat="45.709144602717" lon="6.915431525917">
        <ele>1472</ele>
        <time>2018-01-30T12:38:37Z</time>
      </trkpt>
      <trkpt lat="45.709137813378" lon="6.915781721699">
        <ele>1471.2</ele>
        <time>2018-01-30T12:38:43Z</time>
      </trkpt>
      <trkpt lat="45.709138567749" lon="6.915846513786">
        <ele>1471</ele>
        <time>2018-01-30T12:38:44Z</time>
      </trkpt>
      <trkpt lat="45.709132532781" lon="6.916110543636">
        <ele>1469.8</ele>
        <time>2018-01-30T12:38:48Z</time>
      </trkpt>
      <trkpt lat="45.709174107005" lon="6.916557550363">
        <ele>1468.6</ele>
        <time>2018-01-30T12:38:54Z</time>
      </trkpt>
      <trkpt lat="45.709194055927" lon="6.916785286586">
        <ele>1467.4</ele>
        <time>2018-01-30T12:38:57Z</time>
      </trkpt>
      <trkpt lat="45.709199420343" lon="6.91703389374">
        <ele>1466</ele>
        <time>2018-01-30T12:39:00Z</time>
      </trkpt>
      <trkpt lat="45.709176286299" lon="6.917202956663">
        <ele>1465.4</ele>
        <time>2018-01-30T12:39:02Z</time>
      </trkpt>
      <trkpt lat="45.709127252184" lon="6.917359614374">
        <ele>1464.8</ele>
        <time>2018-01-30T12:39:04Z</time>
      </trkpt>
      <trkpt lat="45.709056006034" lon="6.917491713118">
        <ele>1464.4</ele>
        <time>2018-01-30T12:39:06Z</time>
      </trkpt>
      <trkpt lat="45.708876717193" lon="6.917706792672">
        <ele>1463.8</ele>
        <time>2018-01-30T12:39:10Z</time>
      </trkpt>
      <trkpt lat="45.708682843846" lon="6.917876190871">
        <ele>1462.4</ele>
        <time>2018-01-30T12:39:14Z</time>
      </trkpt>
      <trkpt lat="45.708587541643" lon="6.917924554434">
        <ele>1462</ele>
        <time>2018-01-30T12:39:16Z</time>
      </trkpt>
      <trkpt lat="45.708430632475" lon="6.917954477817">
        <ele>1461</ele>
        <time>2018-01-30T12:39:19Z</time>
      </trkpt>
      <trkpt lat="45.708300210111" lon="6.91796931378">
        <ele>1459.8</ele>
        <time>2018-01-30T12:39:21Z</time>
      </trkpt>
      <trkpt lat="45.708162076399" lon="6.91800535595">
        <ele>1458.8</ele>
        <time>2018-01-30T12:39:23Z</time>
      </trkpt>
      <trkpt lat="45.708034922976" lon="6.918094120271">
        <ele>1457.6</ele>
        <time>2018-01-30T12:39:25Z</time>
      </trkpt>
      <trkpt lat="45.707922354059" lon="6.918216244554">
        <ele>1456.4</ele>
        <time>2018-01-30T12:39:27Z</time>
      </trkpt>
      <trkpt lat="45.707864602768" lon="6.918264524298">
        <ele>1455.8</ele>
        <time>2018-01-30T12:39:28Z</time>
      </trkpt>
      <trkpt lat="45.707800565052" lon="6.918293944767">
        <ele>1455.4</ele>
        <time>2018-01-30T12:39:29Z</time>
      </trkpt>
      <trkpt lat="45.707735521508" lon="6.918299644459">
        <ele>1454.8</ele>
        <time>2018-01-30T12:39:30Z</time>
      </trkpt>
      <trkpt lat="45.707670058869" lon="6.918270726904">
        <ele>1454.2</ele>
        <time>2018-01-30T12:39:31Z</time>
      </trkpt>
      <trkpt lat="45.707544581826" lon="6.918243821005">
        <ele>1453</ele>
        <time>2018-01-30T12:39:33Z</time>
      </trkpt>
      <trkpt lat="45.707415081471" lon="6.918284054125">
        <ele>1452.2</ele>
        <time>2018-01-30T12:39:35Z</time>
      </trkpt>
      <trkpt lat="45.707396306015" lon="6.9183783505">
        <ele>1451.6</ele>
        <time>2018-01-30T12:39:36Z</time>
      </trkpt>
      <trkpt lat="45.70739001959" lon="6.918593010959">
        <ele>1449.6</ele>
        <time>2018-01-30T12:39:38Z</time>
      </trkpt>
      <trkpt lat="45.707400496965" lon="6.918801887907">
        <ele>1447.8</ele>
        <time>2018-01-30T12:39:40Z</time>
      </trkpt>
      <trkpt lat="45.707400664603" lon="6.919012608873">
        <ele>1446.6</ele>
        <time>2018-01-30T12:39:42Z</time>
      </trkpt>
      <trkpt lat="45.707386834468" lon="6.919222743106">
        <ele>1445.4</ele>
        <time>2018-01-30T12:39:44Z</time>
      </trkpt>
      <trkpt lat="45.707364538614" lon="6.919546284446">
        <ele>1444</ele>
        <time>2018-01-30T12:39:47Z</time>
      </trkpt>
      <trkpt lat="45.707350037927" lon="6.919775026497">
        <ele>1443.2</ele>
        <time>2018-01-30T12:39:49Z</time>
      </trkpt>
      <trkpt lat="45.707348445366" lon="6.919889942346">
        <ele>1442.8</ele>
        <time>2018-01-30T12:39:50Z</time>
      </trkpt>
      <trkpt lat="45.707345427882" lon="6.920229660753">
        <ele>1441.4</ele>
        <time>2018-01-30T12:39:53Z</time>
      </trkpt>
      <trkpt lat="45.707259010493" lon="6.920417499132">
        <ele>1440.4</ele>
        <time>2018-01-30T12:39:55Z</time>
      </trkpt>
      <trkpt lat="45.707191117103" lon="6.920478770821">
        <ele>1439.6</ele>
        <time>2018-01-30T12:39:56Z</time>
      </trkpt>
      <trkpt lat="45.707113333071" lon="6.920512885154">
        <ele>1438.8</ele>
        <time>2018-01-30T12:39:57Z</time>
      </trkpt>
      <trkpt lat="45.707035381401" lon="6.920539539596">
        <ele>1438.2</ele>
        <time>2018-01-30T12:39:58Z</time>
      </trkpt>
      <trkpt lat="45.706823319331" lon="6.920634255066">
        <ele>1436.8</ele>
        <time>2018-01-30T12:40:01Z</time>
      </trkpt>
      <trkpt lat="45.706737991589" lon="6.920760570299">
        <ele>1436.2</ele>
        <time>2018-01-30T12:40:03Z</time>
      </trkpt>
      <trkpt lat="45.706736985761" lon="6.920852016828">
        <ele>1435.6</ele>
        <time>2018-01-30T12:40:04Z</time>
      </trkpt>
      <trkpt lat="45.706756180312" lon="6.920939691502">
        <ele>1434.6</ele>
        <time>2018-01-30T12:40:05Z</time>
      </trkpt>
      <trkpt lat="45.706782164202" lon="6.921002220476">
        <ele>1433.6</ele>
        <time>2018-01-30T12:40:06Z</time>
      </trkpt>
      <trkpt lat="45.706820134209" lon="6.921045806356">
        <ele>1432.6</ele>
        <time>2018-01-30T12:40:07Z</time>
      </trkpt>
      <trkpt lat="45.706867659582" lon="6.921073550445">
        <ele>1431.6</ele>
        <time>2018-01-30T12:40:08Z</time>
      </trkpt>
      <trkpt lat="45.706929769461" lon="6.921065671459">
        <ele>1430.8</ele>
        <time>2018-01-30T12:40:09Z</time>
      </trkpt>
      <trkpt lat="45.706987772209" lon="6.921037843551">
        <ele>1430</ele>
        <time>2018-01-30T12:40:10Z</time>
      </trkpt>
      <trkpt lat="45.707132276165" lon="6.921039017017">
        <ele>1428.8</ele>
        <time>2018-01-30T12:40:12Z</time>
      </trkpt>
      <trkpt lat="45.70726764385" lon="6.92117539053">
        <ele>1427.8</ele>
        <time>2018-01-30T12:40:14Z</time>
      </trkpt>
      <trkpt lat="45.707358922741" lon="6.921363312728">
        <ele>1426.6</ele>
        <time>2018-01-30T12:40:16Z</time>
      </trkpt>
      <trkpt lat="45.707424972113" lon="6.921678472168">
        <ele>1425.2</ele>
        <time>2018-01-30T12:40:19Z</time>
      </trkpt>
      <trkpt lat="45.707525554913" lon="6.9219825675">
        <ele>1423.8</ele>
        <time>2018-01-30T12:40:22Z</time>
      </trkpt>
      <trkpt lat="45.70761633089" lon="6.922299235682">
        <ele>1422.2</ele>
        <time>2018-01-30T12:40:25Z</time>
      </trkpt>
      <trkpt lat="45.707711213998" lon="6.922502161481">
        <ele>1420.6</ele>
        <time>2018-01-30T12:40:27Z</time>
      </trkpt>
      <trkpt lat="45.707782627786" lon="6.922733837197">
        <ele>1419.4</ele>
        <time>2018-01-30T12:40:29Z</time>
      </trkpt>
      <trkpt lat="45.707750944204" lon="6.922851938168">
        <ele>1419.2</ele>
        <time>2018-01-30T12:40:30Z</time>
      </trkpt>
      <trkpt lat="45.707725127952" lon="6.922963501257">
        <ele>1418.8</ele>
        <time>2018-01-30T12:40:31Z</time>
      </trkpt>
      <trkpt lat="45.70767668057" lon="6.923056372709">
        <ele>1418.4</ele>
        <time>2018-01-30T12:40:32Z</time>
      </trkpt>
      <trkpt lat="45.707618426365" lon="6.923106328833">
        <ele>1417.4</ele>
        <time>2018-01-30T12:40:33Z</time>
      </trkpt>
      <trkpt lat="45.707566207128" lon="6.923111357973">
        <ele>1416.6</ele>
        <time>2018-01-30T12:40:34Z</time>
      </trkpt>
      <trkpt lat="45.707513736434" lon="6.923068275007">
        <ele>1415.6</ele>
        <time>2018-01-30T12:40:35Z</time>
      </trkpt>
      <trkpt lat="45.707463445034" lon="6.92303701052">
        <ele>1414.6</ele>
        <time>2018-01-30T12:40:36Z</time>
      </trkpt>
      <trkpt lat="45.707407453942" lon="6.923029131534">
        <ele>1413.8</ele>
        <time>2018-01-30T12:40:37Z</time>
      </trkpt>
      <trkpt lat="45.707354480334" lon="6.923064586971">
        <ele>1413</ele>
        <time>2018-01-30T12:40:38Z</time>
      </trkpt>
      <trkpt lat="45.707310810635" lon="6.92313004961">
        <ele>1412.4</ele>
        <time>2018-01-30T12:40:39Z</time>
      </trkpt>
      <trkpt lat="45.707259010493" lon="6.923319396731">
        <ele>1411.4</ele>
        <time>2018-01-30T12:40:41Z</time>
      </trkpt>
      <trkpt lat="45.707239564485" lon="6.923532799905">
        <ele>1410.4</ele>
        <time>2018-01-30T12:40:43Z</time>
      </trkpt>
      <trkpt lat="45.707240905589" lon="6.923647631935">
        <ele>1409.8</ele>
        <time>2018-01-30T12:40:44Z</time>
      </trkpt>
      <trkpt lat="45.707269571687" lon="6.923892886329">
        <ele>1409</ele>
        <time>2018-01-30T12:40:46Z</time>
      </trkpt>
      <trkpt lat="45.707334866688" lon="6.924107630607">
        <ele>1407.6</ele>
        <time>2018-01-30T12:40:48Z</time>
      </trkpt>
      <trkpt lat="45.707392617979" lon="6.92431441208">
        <ele>1405.8</ele>
        <time>2018-01-30T12:40:50Z</time>
      </trkpt>
      <trkpt lat="45.70747048583" lon="6.924630744986">
        <ele>1404.8</ele>
        <time>2018-01-30T12:40:53Z</time>
      </trkpt>
      <trkpt lat="45.707550365337" lon="6.924972139773">
        <ele>1403.4</ele>
        <time>2018-01-30T12:40:56Z</time>
      </trkpt>
      <trkpt lat="45.707601578746" lon="6.925204905136">
        <ele>1401.6</ele>
        <time>2018-01-30T12:40:58Z</time>
      </trkpt>
      <trkpt lat="45.707645332264" lon="6.925436999947">
        <ele>1400.2</ele>
        <time>2018-01-30T12:41:00Z</time>
      </trkpt>
      <trkpt lat="45.707577857969" lon="6.925647553275">
        <ele>1398.8</ele>
        <time>2018-01-30T12:41:02Z</time>
      </trkpt>
      <trkpt lat="45.707458248256" lon="6.925783675331">
        <ele>1397.4</ele>
        <time>2018-01-30T12:41:04Z</time>
      </trkpt>
      <trkpt lat="45.707377111464" lon="6.925908984736">
        <ele>1396.6</ele>
        <time>2018-01-30T12:41:06Z</time>
      </trkpt>
      <trkpt lat="45.707383230251" lon="6.926003281111">
        <ele>1396.2</ele>
        <time>2018-01-30T12:41:07Z</time>
      </trkpt>
      <trkpt lat="45.707423882466" lon="6.926108306318">
        <ele>1395.8</ele>
        <time>2018-01-30T12:41:08Z</time>
      </trkpt>
      <trkpt lat="45.707473168038" lon="6.926210649317">
        <ele>1395</ele>
        <time>2018-01-30T12:41:09Z</time>
      </trkpt>
      <trkpt lat="45.707550030061" lon="6.92641072527">
        <ele>1393.4</ele>
        <time>2018-01-30T12:41:11Z</time>
      </trkpt>
      <trkpt lat="45.707611637026" lon="6.926746085089">
        <ele>1392</ele>
        <time>2018-01-30T12:41:14Z</time>
      </trkpt>
      <trkpt lat="45.707625215704" lon="6.926984717782">
        <ele>1390</ele>
        <time>2018-01-30T12:41:16Z</time>
      </trkpt>
      <trkpt lat="45.707630244844" lon="6.927104578952">
        <ele>1389</ele>
        <time>2018-01-30T12:41:17Z</time>
      </trkpt>
      <trkpt lat="45.707629322835" lon="6.927221674095">
        <ele>1388</ele>
        <time>2018-01-30T12:41:18Z</time>
      </trkpt>
      <trkpt lat="45.707624796609" lon="6.927336003211">
        <ele>1387.2</ele>
        <time>2018-01-30T12:41:19Z</time>
      </trkpt>
      <trkpt lat="45.707624796609" lon="6.927676895084">
        <ele>1385.8</ele>
        <time>2018-01-30T12:41:22Z</time>
      </trkpt>
      <trkpt lat="45.707620102745" lon="6.927903709298">
        <ele>1384.8</ele>
        <time>2018-01-30T12:41:24Z</time>
      </trkpt>
      <trkpt lat="45.70762555098" lon="6.928135217376">
        <ele>1383.4</ele>
        <time>2018-01-30T12:41:26Z</time>
      </trkpt>
      <trkpt lat="45.707634016699" lon="6.928380723227">
        <ele>1381.6</ele>
        <time>2018-01-30T12:41:28Z</time>
      </trkpt>
      <trkpt lat="45.707647092463" lon="6.928630084752">
        <ele>1380.2</ele>
        <time>2018-01-30T12:41:30Z</time>
      </trkpt>
      <trkpt lat="45.707661844607" lon="6.928888582548">
        <ele>1379</ele>
        <time>2018-01-30T12:41:32Z</time>
      </trkpt>
      <trkpt lat="45.707668633946" lon="6.929133334028">
        <ele>1377.8</ele>
        <time>2018-01-30T12:41:34Z</time>
      </trkpt>
      <trkpt lat="45.707659162399" lon="6.929381605906">
        <ele>1376.6</ele>
        <time>2018-01-30T12:41:36Z</time>
      </trkpt>
      <trkpt lat="45.707643823522" lon="6.929616969658">
        <ele>1375.4</ele>
        <time>2018-01-30T12:41:38Z</time>
      </trkpt>
      <trkpt lat="45.707602416936" lon="6.929845544071">
        <ele>1374.2</ele>
        <time>2018-01-30T12:41:40Z</time>
      </trkpt>
      <trkpt lat="45.707574253752" lon="6.930069843715">
        <ele>1372.8</ele>
        <time>2018-01-30T12:41:42Z</time>
      </trkpt>
      <trkpt lat="45.707560591255" lon="6.930183669917">
        <ele>1372.2</ele>
        <time>2018-01-30T12:41:43Z</time>
      </trkpt>
      <trkpt lat="45.70755011388" lon="6.930290371504">
        <ele>1371.6</ele>
        <time>2018-01-30T12:41:44Z</time>
      </trkpt>
      <trkpt lat="45.707522034515" lon="6.930430181596">
        <ele>1370</ele>
        <time>2018-01-30T12:41:47Z</time>
      </trkpt>
      <trkpt lat="45.707517927384" lon="6.930401515498">
        <ele>1368.2</ele>
        <time>2018-01-30T12:41:49Z</time>
      </trkpt>
      <trkpt lat="45.707510383674" lon="6.930386008983">
        <ele>1366.4</ele>
        <time>2018-01-30T12:41:51Z</time>
      </trkpt>
      <trkpt lat="45.707509796941" lon="6.930386428078">
        <ele>1366</ele>
        <time>2018-01-30T12:41:52Z</time>
      </trkpt>
      <trkpt lat="45.707657905114" lon="6.93055976577">
        <ele>1364.4</ele>
        <time>2018-01-30T12:42:15Z</time>
      </trkpt>
      <trkpt lat="45.707755135154" lon="6.930671161221">
        <ele>1362.2</ele>
        <time>2018-01-30T12:42:17Z</time>
      </trkpt>
      <trkpt lat="45.707818669956" lon="6.930716423481">
        <ele>1360.6</ele>
        <time>2018-01-30T12:42:18Z</time>
      </trkpt>
      <trkpt lat="45.707897878911" lon="6.930768726537">
        <ele>1358.6</ele>
        <time>2018-01-30T12:42:19Z</time>
      </trkpt>
      <trkpt lat="45.707988403431" lon="6.930856149754">
        <ele>1356.2</ele>
        <time>2018-01-30T12:42:20Z</time>
      </trkpt>
      <trkpt lat="45.708080017598" lon="6.931002665366">
        <ele>1353.8</ele>
        <time>2018-01-30T12:42:21Z</time>
      </trkpt>
      <trkpt lat="45.708154616508" lon="6.931190252288">
        <ele>1351.2</ele>
        <time>2018-01-30T12:42:22Z</time>
      </trkpt>
      <trkpt lat="45.70820390208" lon="6.931396363209">
        <ele>1348.6</ele>
        <time>2018-01-30T12:42:23Z</time>
      </trkpt>
      <trkpt lat="45.708230640341" lon="6.931606413623">
        <ele>1346</ele>
        <time>2018-01-30T12:42:24Z</time>
      </trkpt>
      <trkpt lat="45.708249499616" lon="6.931789474319">
        <ele>1343</ele>
        <time>2018-01-30T12:42:25Z</time>
      </trkpt>
      <trkpt lat="45.708269197081" lon="6.931959459251">
        <ele>1340.6</ele>
        <time>2018-01-30T12:42:26Z</time>
      </trkpt>
      <trkpt lat="45.70830197031" lon="6.932123409215">
        <ele>1337.6</ele>
        <time>2018-01-30T12:42:27Z</time>
      </trkpt>
      <trkpt lat="45.708340862326" lon="6.932274870148">
        <ele>1334.6</ele>
        <time>2018-01-30T12:42:28Z</time>
      </trkpt>
      <trkpt lat="45.708377994143" lon="6.932432533687">
        <ele>1331</ele>
        <time>2018-01-30T12:42:29Z</time>
      </trkpt>
      <trkpt lat="45.708418143444" lon="6.932582485878">
        <ele>1328.4</ele>
        <time>2018-01-30T12:42:30Z</time>
      </trkpt>
      <trkpt lat="45.708445216981" lon="6.932743334539">
        <ele>1326.2</ele>
        <time>2018-01-30T12:42:31Z</time>
      </trkpt>
      <trkpt lat="45.708457119279" lon="6.932916085498">
        <ele>1323.8</ele>
        <time>2018-01-30T12:42:32Z</time>
      </trkpt>
      <trkpt lat="45.708445803714" lon="6.933079784005">
        <ele>1321.8</ele>
        <time>2018-01-30T12:42:33Z</time>
      </trkpt>
      <trkpt lat="45.708434571968" lon="6.933226802531">
        <ele>1319.4</ele>
        <time>2018-01-30T12:42:34Z</time>
      </trkpt>
      <trkpt lat="45.708439014375" lon="6.933366109709">
        <ele>1316.8</ele>
        <time>2018-01-30T12:42:35Z</time>
      </trkpt>
      <trkpt lat="45.708461729324" lon="6.933493682227">
        <ele>1314.2</ele>
        <time>2018-01-30T12:42:36Z</time>
      </trkpt>
      <trkpt lat="45.708492407078" lon="6.93359820452">
        <ele>1312</ele>
        <time>2018-01-30T12:42:37Z</time>
      </trkpt>
      <trkpt lat="45.708519145339" lon="6.933699290234">
        <ele>1310.4</ele>
        <time>2018-01-30T12:42:38Z</time>
      </trkpt>
      <trkpt lat="45.708537585519" lon="6.933765674882">
        <ele>1309.2</ele>
        <time>2018-01-30T12:42:39Z</time>
      </trkpt>
      <trkpt lat="45.708581171399" lon="6.933835999023">
        <ele>1307.6</ele>
        <time>2018-01-30T12:42:40Z</time>
      </trkpt>
      <trkpt lat="45.708635402292" lon="6.933922667869">
        <ele>1306.2</ele>
        <time>2018-01-30T12:42:41Z</time>
      </trkpt>
      <trkpt lat="45.708695332877" lon="6.934017215701">
        <ele>1304.6</ele>
        <time>2018-01-30T12:42:42Z</time>
      </trkpt>
      <trkpt lat="45.708766076113" lon="6.934115786845">
        <ele>1302.4</ele>
        <time>2018-01-30T12:42:43Z</time>
      </trkpt>
      <trkpt lat="45.708850230389" lon="6.934226511744">
        <ele>1299.6</ele>
        <time>2018-01-30T12:42:44Z</time>
      </trkpt>
      <trkpt lat="45.708924494023" lon="6.93434167905">
        <ele>1296.4</ele>
        <time>2018-01-30T12:42:45Z</time>
      </trkpt>
      <trkpt lat="45.709002864788" lon="6.93447411307">
        <ele>1292.8</ele>
        <time>2018-01-30T12:42:46Z</time>
      </trkpt>
      <trkpt lat="45.709073859481" lon="6.934616521551">
        <ele>1289</ele>
        <time>2018-01-30T12:42:47Z</time>
      </trkpt>
      <trkpt lat="45.709139489758" lon="6.934761025507">
        <ele>1285</ele>
        <time>2018-01-30T12:42:48Z</time>
      </trkpt>
      <trkpt lat="45.709220039817" lon="6.934906451472">
        <ele>1280.8</ele>
        <time>2018-01-30T12:42:49Z</time>
      </trkpt>
      <trkpt lat="45.709268654837" lon="6.935061013708">
        <ele>1276.8</ele>
        <time>2018-01-30T12:42:50Z</time>
      </trkpt>
      <trkpt lat="45.709312911269" lon="6.935190011149">
        <ele>1273</ele>
        <time>2018-01-30T12:42:51Z</time>
      </trkpt>
      <trkpt lat="45.709329507431" lon="6.935325211196">
        <ele>1270</ele>
        <time>2018-01-30T12:42:52Z</time>
      </trkpt>
      <trkpt lat="45.709358676443" lon="6.935450855877">
        <ele>1267.2</ele>
        <time>2018-01-30T12:42:53Z</time>
      </trkpt>
      <trkpt lat="45.709390360025" lon="6.935529478099">
        <ele>1264.8</ele>
        <time>2018-01-30T12:42:54Z</time>
      </trkpt>
      <trkpt lat="45.709397149364" lon="6.935564682079">
        <ele>1262.6</ele>
        <time>2018-01-30T12:42:55Z</time>
      </trkpt>
      <trkpt lat="45.709402681418" lon="6.935594940738">
        <ele>1260.4</ele>
        <time>2018-01-30T12:42:56Z</time>
      </trkpt>
      <trkpt lat="45.709415589544" lon="6.935599634602">
        <ele>1258.2</ele>
        <time>2018-01-30T12:42:57Z</time>
      </trkpt>
      <trkpt lat="45.709414751354" lon="6.935596365661">
        <ele>1256.4</ele>
        <time>2018-01-30T12:42:58Z</time>
      </trkpt>
      <trkpt lat="45.709406620911" lon="6.935587145571">
        <ele>1255.2</ele>
        <time>2018-01-30T12:42:59Z</time>
      </trkpt>
      <trkpt lat="45.709390192387" lon="6.935587145571">
        <ele>1253.6</ele>
        <time>2018-01-30T12:43:01Z</time>
      </trkpt>
      <trkpt lat="45.709417852657" lon="6.93570038504">
        <ele>1252.6</ele>
        <time>2018-01-30T12:43:04Z</time>
      </trkpt>
      <trkpt lat="45.709430006412" lon="6.93576492567">
        <ele>1252.4</ele>
        <time>2018-01-30T12:43:05Z</time>
      </trkpt>
      <trkpt lat="45.709483985848" lon="6.935973467342">
        <ele>1251.8</ele>
        <time>2018-01-30T12:43:07Z</time>
      </trkpt>
      <trkpt lat="45.709504940598" lon="6.936077235264">
        <ele>1251</ele>
        <time>2018-01-30T12:43:08Z</time>
      </trkpt>
      <trkpt lat="45.709542407691" lon="6.936193324579">
        <ele>1249.4</ele>
        <time>2018-01-30T12:43:09Z</time>
      </trkpt>
      <trkpt lat="45.709561518423" lon="6.936320980916">
        <ele>1247.6</ele>
        <time>2018-01-30T12:43:10Z</time>
      </trkpt>
      <trkpt lat="45.709568726857" lon="6.936455678049">
        <ele>1245.6</ele>
        <time>2018-01-30T12:43:11Z</time>
      </trkpt>
      <trkpt lat="45.709586831761" lon="6.936614431235">
        <ele>1243.4</ele>
        <time>2018-01-30T12:43:12Z</time>
      </trkpt>
      <trkpt lat="45.709607199778" lon="6.936758599915">
        <ele>1241</ele>
        <time>2018-01-30T12:43:13Z</time>
      </trkpt>
      <trkpt lat="45.709638464265" lon="6.936910479943">
        <ele>1238.6</ele>
        <time>2018-01-30T12:43:14Z</time>
      </trkpt>
      <trkpt lat="45.709675093168" lon="6.937056827917">
        <ele>1235.8</ele>
        <time>2018-01-30T12:43:15Z</time>
      </trkpt>
      <trkpt lat="45.709712727899" lon="6.937207953574">
        <ele>1232.8</ele>
        <time>2018-01-30T12:43:16Z</time>
      </trkpt>
      <trkpt lat="45.709749189164" lon="6.937354553005">
        <ele>1230</ele>
        <time>2018-01-30T12:43:17Z</time>
      </trkpt>
      <trkpt lat="45.709784896058" lon="6.937506768309">
        <ele>1228.2</ele>
        <time>2018-01-30T12:43:18Z</time>
      </trkpt>
      <trkpt lat="45.709807946283" lon="6.937668538979">
        <ele>1226.2</ele>
        <time>2018-01-30T12:43:19Z</time>
      </trkpt>
      <trkpt lat="45.709834013992" lon="6.93782268212">
        <ele>1224.4</ele>
        <time>2018-01-30T12:43:20Z</time>
      </trkpt>
      <trkpt lat="45.70985513638" lon="6.937950757552">
        <ele>1222.2</ele>
        <time>2018-01-30T12:43:21Z</time>
      </trkpt>
      <trkpt lat="45.709876174949" lon="6.938034995647">
        <ele>1220.4</ele>
        <time>2018-01-30T12:43:22Z</time>
      </trkpt>
      <trkpt lat="45.709878521881" lon="6.938075564043">
        <ele>1218.6</ele>
        <time>2018-01-30T12:43:23Z</time>
      </trkpt>
      <trkpt lat="45.709867373954" lon="6.938083275391">
        <ele>1217</ele>
        <time>2018-01-30T12:43:24Z</time>
      </trkpt>
      <trkpt lat="45.709857315674" lon="6.938081347554">
        <ele>1215</ele>
        <time>2018-01-30T12:43:25Z</time>
      </trkpt>
      <trkpt lat="45.70985094543" lon="6.938077659518">
        <ele>1213.4</ele>
        <time>2018-01-30T12:43:26Z</time>
      </trkpt>
      <trkpt lat="45.709849185231" lon="6.938073217111">
        <ele>1212</ele>
        <time>2018-01-30T12:43:27Z</time>
      </trkpt>
      <trkpt lat="45.70984759267" lon="6.938072798016">
        <ele>1211.4</ele>
        <time>2018-01-30T12:43:28Z</time>
      </trkpt>
      <trkpt lat="45.709846335385" lon="6.938068607066">
        <ele>1211</ele>
        <time>2018-01-30T12:43:29Z</time>
      </trkpt>
      <trkpt lat="45.709845832471" lon="6.938058045872">
        <ele>1210.4</ele>
        <time>2018-01-30T12:43:32Z</time>
      </trkpt>
      <trkpt lat="45.709985642563" lon="6.938747792423">
        <ele>1210.2</ele>
        <time>2018-01-30T12:43:52Z</time>
      </trkpt>
      <trkpt lat="45.709998047775" lon="6.938840831513">
        <ele>1209.6</ele>
        <time>2018-01-30T12:43:53Z</time>
      </trkpt>
      <trkpt lat="45.710021517095" lon="6.938985167831">
        <ele>1208.6</ele>
        <time>2018-01-30T12:43:55Z</time>
      </trkpt>
      <trkpt lat="45.710044148225" lon="6.939053061221">
        <ele>1207.4</ele>
        <time>2018-01-30T12:43:57Z</time>
      </trkpt>
      <trkpt lat="45.710109694683" lon="6.938945269987">
        <ele>1206.2</ele>
        <time>2018-01-30T12:43:59Z</time>
      </trkpt>
      <trkpt lat="45.710155040762" lon="6.93890897636">
        <ele>1205.2</ele>
        <time>2018-01-30T12:44:00Z</time>
      </trkpt>
      <trkpt lat="45.710199213375" lon="6.938925488703">
        <ele>1204</ele>
        <time>2018-01-30T12:44:01Z</time>
      </trkpt>
      <trkpt lat="45.710242463979" lon="6.938946778729">
        <ele>1202.6</ele>
        <time>2018-01-30T12:44:02Z</time>
      </trkpt>
      <trkpt lat="45.71029099518" lon="6.938958345751">
        <ele>1201</ele>
        <time>2018-01-30T12:44:03Z</time>
      </trkpt>
      <trkpt lat="45.71034631572" lon="6.93898860441">
        <ele>1199</ele>
        <time>2018-01-30T12:44:04Z</time>
      </trkpt>
      <trkpt lat="45.710399373147" lon="6.939017270508">
        <ele>1196.8</ele>
        <time>2018-01-30T12:44:05Z</time>
      </trkpt>
      <trkpt lat="45.710473636781" lon="6.939045433692">
        <ele>1194.6</ele>
        <time>2018-01-30T12:44:06Z</time>
      </trkpt>
      <trkpt lat="45.710554438297" lon="6.939099748404">
        <ele>1192.2</ele>
        <time>2018-01-30T12:44:07Z</time>
      </trkpt>
      <trkpt lat="45.710624510981" lon="6.939163283206">
        <ele>1189.8</ele>
        <time>2018-01-30T12:44:08Z</time>
      </trkpt>
      <trkpt lat="45.710703971393" lon="6.939232266243">
        <ele>1187</ele>
        <time>2018-01-30T12:44:09Z</time>
      </trkpt>
      <trkpt lat="45.710771780964" lon="6.939330334473">
        <ele>1184.2</ele>
        <time>2018-01-30T12:44:10Z</time>
      </trkpt>
      <trkpt lat="45.710821485631" lon="6.939444412132">
        <ele>1181.2</ele>
        <time>2018-01-30T12:44:11Z</time>
      </trkpt>
      <trkpt lat="45.710859874733" lon="6.93957533741">
        <ele>1178.4</ele>
        <time>2018-01-30T12:44:12Z</time>
      </trkpt>
      <trkpt lat="45.710855683783" lon="6.939729648189">
        <ele>1175.2</ele>
        <time>2018-01-30T12:44:13Z</time>
      </trkpt>
      <trkpt lat="45.710824838391" lon="6.939855711965">
        <ele>1171.8</ele>
        <time>2018-01-30T12:44:14Z</time>
      </trkpt>
      <trkpt lat="45.710767338557" lon="6.939946236485">
        <ele>1168.8</ele>
        <time>2018-01-30T12:44:15Z</time>
      </trkpt>
      <trkpt lat="45.710701205366" lon="6.940024271974">
        <ele>1166.6</ele>
        <time>2018-01-30T12:44:16Z</time>
      </trkpt>
      <trkpt lat="45.710640101315" lon="6.940103145653">
        <ele>1165</ele>
        <time>2018-01-30T12:44:17Z</time>
      </trkpt>
      <trkpt lat="45.710578745807" lon="6.940182103151">
        <ele>1164</ele>
        <time>2018-01-30T12:44:18Z</time>
      </trkpt>
      <trkpt lat="45.710519318136" lon="6.940262988486">
        <ele>1162.6</ele>
        <time>2018-01-30T12:44:19Z</time>
      </trkpt>
      <trkpt lat="45.710464584329" lon="6.940347729495">
        <ele>1161.4</ele>
        <time>2018-01-30T12:44:20Z</time>
      </trkpt>
      <trkpt lat="45.710420998449" lon="6.940447557924">
        <ele>1160.2</ele>
        <time>2018-01-30T12:44:21Z</time>
      </trkpt>
      <trkpt lat="45.710395433654" lon="6.940551158208">
        <ele>1159.4</ele>
        <time>2018-01-30T12:44:22Z</time>
      </trkpt>
      <trkpt lat="45.710388979591" lon="6.94066498441">
        <ele>1158.8</ele>
        <time>2018-01-30T12:44:23Z</time>
      </trkpt>
      <trkpt lat="45.710399456966" lon="6.940786438141">
        <ele>1158.2</ele>
        <time>2018-01-30T12:44:24Z</time>
      </trkpt>
      <trkpt lat="45.710418483879" lon="6.9409088977">
        <ele>1157.4</ele>
        <time>2018-01-30T12:44:25Z</time>
      </trkpt>
      <trkpt lat="45.710473888238" lon="6.941163456003">
        <ele>1155.6</ele>
        <time>2018-01-30T12:44:27Z</time>
      </trkpt>
      <trkpt lat="45.710568938984" lon="6.94142941369">
        <ele>1153.8</ele>
        <time>2018-01-30T12:44:29Z</time>
      </trkpt>
      <trkpt lat="45.710626774094" lon="6.941552124706">
        <ele>1152.4</ele>
        <time>2018-01-30T12:44:30Z</time>
      </trkpt>
      <trkpt lat="45.710687710507" lon="6.941665364175">
        <ele>1151</ele>
        <time>2018-01-30T12:44:31Z</time>
      </trkpt>
      <trkpt lat="45.710757699372" lon="6.941785309164">
        <ele>1149.6</ele>
        <time>2018-01-30T12:44:32Z</time>
      </trkpt>
      <trkpt lat="45.710828945522" lon="6.941911792035">
        <ele>1148.2</ele>
        <time>2018-01-30T12:44:33Z</time>
      </trkpt>
      <trkpt lat="45.710899604939" lon="6.942038442544">
        <ele>1147</ele>
        <time>2018-01-30T12:44:34Z</time>
      </trkpt>
      <trkpt lat="45.710964732302" lon="6.942162662302">
        <ele>1146</ele>
        <time>2018-01-30T12:44:35Z</time>
      </trkpt>
      <trkpt lat="45.711098842702" lon="6.942407162325">
        <ele>1144.4</ele>
        <time>2018-01-30T12:44:37Z</time>
      </trkpt>
      <trkpt lat="45.711230187075" lon="6.942642190801">
        <ele>1142.6</ele>
        <time>2018-01-30T12:44:39Z</time>
      </trkpt>
      <trkpt lat="45.711334290273" lon="6.942863305323">
        <ele>1141.2</ele>
        <time>2018-01-30T12:44:41Z</time>
      </trkpt>
      <trkpt lat="45.711523469756" lon="6.943305785824">
        <ele>1140.2</ele>
        <time>2018-01-30T12:44:45Z</time>
      </trkpt>
      <trkpt lat="45.711606534385" lon="6.943824876891">
        <ele>1139.4</ele>
        <time>2018-01-30T12:44:51Z</time>
      </trkpt>
      <trkpt lat="45.71161533538" lon="6.943994861823">
        <ele>1139</ele>
        <time>2018-01-30T12:44:53Z</time>
      </trkpt>
      <trkpt lat="45.711610892973" lon="6.94428093607">
        <ele>1138.6</ele>
        <time>2018-01-30T12:44:56Z</time>
      </trkpt>
      <trkpt lat="45.711590273499" lon="6.944464918775">
        <ele>1137.8</ele>
        <time>2018-01-30T12:44:58Z</time>
      </trkpt>
      <trkpt lat="45.711546436162" lon="6.94463968139">
        <ele>1136.4</ele>
        <time>2018-01-30T12:45:00Z</time>
      </trkpt>
      <trkpt lat="45.711489187785" lon="6.944906728724">
        <ele>1135.2</ele>
        <time>2018-01-30T12:45:03Z</time>
      </trkpt>
      <trkpt lat="45.711486589396" lon="6.945088029221">
        <ele>1134</ele>
        <time>2018-01-30T12:45:05Z</time>
      </trkpt>
      <trkpt lat="45.711537970443" lon="6.945250973357">
        <ele>1133</ele>
        <time>2018-01-30T12:45:07Z</time>
      </trkpt>
      <trkpt lat="45.711569067292" lon="6.945339402402">
        <ele>1132.6</ele>
        <time>2018-01-30T12:45:08Z</time>
      </trkpt>
      <trkpt lat="45.711593374802" lon="6.945431603302">
        <ele>1132.2</ele>
        <time>2018-01-30T12:45:09Z</time>
      </trkpt>
      <trkpt lat="45.711628830239" lon="6.945640228793">
        <ele>1131.2</ele>
        <time>2018-01-30T12:45:11Z</time>
      </trkpt>
      <trkpt lat="45.711637463596" lon="6.945870228129">
        <ele>1130</ele>
        <time>2018-01-30T12:45:13Z</time>
      </trkpt>
      <trkpt lat="45.711620867434" lon="6.946112967953">
        <ele>1128.8</ele>
        <time>2018-01-30T12:45:15Z</time>
      </trkpt>
      <trkpt lat="45.711608965136" lon="6.946246407801">
        <ele>1127.4</ele>
        <time>2018-01-30T12:45:16Z</time>
      </trkpt>
      <trkpt lat="45.711587088377" lon="6.946388816282">
        <ele>1125.8</ele>
        <time>2018-01-30T12:45:17Z</time>
      </trkpt>
      <trkpt lat="45.711564373428" lon="6.946537427369">
        <ele>1123.6</ele>
        <time>2018-01-30T12:45:18Z</time>
      </trkpt>
      <trkpt lat="45.71153738371" lon="6.946699198039">
        <ele>1121.8</ele>
        <time>2018-01-30T12:45:19Z</time>
      </trkpt>
      <trkpt lat="45.711505029576" lon="6.946860801071">
        <ele>1119.8</ele>
        <time>2018-01-30T12:45:20Z</time>
      </trkpt>
      <trkpt lat="45.711476363478" lon="6.947029109623">
        <ele>1118</ele>
        <time>2018-01-30T12:45:21Z</time>
      </trkpt>
      <trkpt lat="45.711448367932" lon="6.947196915261">
        <ele>1115.8</ele>
        <time>2018-01-30T12:45:22Z</time>
      </trkpt>
      <trkpt lat="45.711413163952" lon="6.947350974583">
        <ele>1113.6</ele>
        <time>2018-01-30T12:45:23Z</time>
      </trkpt>
      <trkpt lat="45.711362704914" lon="6.947486761363">
        <ele>1111.6</ele>
        <time>2018-01-30T12:45:24Z</time>
      </trkpt>
      <trkpt lat="45.711320879233" lon="6.947624895075">
        <ele>1110.2</ele>
        <time>2018-01-30T12:45:25Z</time>
      </trkpt>
      <trkpt lat="45.711292296954" lon="6.947770237221">
        <ele>1108.6</ele>
        <time>2018-01-30T12:45:26Z</time>
      </trkpt>
      <trkpt lat="45.711286681081" lon="6.947918848308">
        <ele>1107</ele>
        <time>2018-01-30T12:45:27Z</time>
      </trkpt>
      <trkpt lat="45.71130688146" lon="6.948043487161">
        <ele>1105.6</ele>
        <time>2018-01-30T12:45:28Z</time>
      </trkpt>
      <trkpt lat="45.711345186743" lon="6.948148177092">
        <ele>1104.2</ele>
        <time>2018-01-30T12:45:29Z</time>
      </trkpt>
      <trkpt lat="45.711467897759" lon="6.948240964725">
        <ele>1102.2</ele>
        <time>2018-01-30T12:45:31Z</time>
      </trkpt>
      <trkpt lat="45.711541323203" lon="6.948308019925">
        <ele>1100.6</ele>
        <time>2018-01-30T12:45:33Z</time>
      </trkpt>
      <trkpt lat="45.711538557176" lon="6.948360239162">
        <ele>1099.2</ele>
        <time>2018-01-30T12:45:36Z</time>
      </trkpt>
      <trkpt lat="45.711538305719" lon="6.948345906113">
        <ele>1098.8</ele>
        <time>2018-01-30T12:45:37Z</time>
      </trkpt>
      <trkpt lat="45.711530762009" lon="6.948304750984">
        <ele>1098.2</ele>
        <time>2018-01-30T12:45:39Z</time>
      </trkpt>
      <trkpt lat="45.711535455873" lon="6.948259740181">
        <ele>1098.2</ele>
        <time>2018-01-30T12:45:41Z</time>
      </trkpt>
      <trkpt lat="45.711551884397" lon="6.948217663043">
        <ele>1098.2</ele>
        <time>2018-01-30T12:45:43Z</time>
      </trkpt>
      <trkpt lat="45.70230555905" lon="6.939127408674">
        <ele>1712.8</ele>
        <time>2018-01-30T12:53:07Z</time>
      </trkpt>
      <trkpt lat="45.694047292075" lon="6.925050510538">
        <ele>1970</ele>
        <time>2018-01-30T13:00:24Z</time>
      </trkpt>
      <trkpt lat="45.690073684742" lon="6.916085146479">
        <ele>2185.8</ele>
        <time>2018-01-30T13:08:16Z</time>
      </trkpt>
      <trkpt lat="45.689866065079" lon="6.915957071047">
        <ele>2184.6</ele>
        <time>2018-01-30T13:08:22Z</time>
      </trkpt>
      <trkpt lat="45.689533806563" lon="6.915791947617">
        <ele>2183.8</ele>
        <time>2018-01-30T13:08:28Z</time>
      </trkpt>
      <trkpt lat="45.689408413339" lon="6.915679043424">
        <ele>2183.2</ele>
        <time>2018-01-30T13:08:29Z</time>
      </trkpt>
      <trkpt lat="45.689340352311" lon="6.915629003481">
        <ele>2181.2</ele>
        <time>2018-01-30T13:08:31Z</time>
      </trkpt>
      <trkpt lat="45.689273883844" lon="6.915576113692">
        <ele>2180</ele>
        <time>2018-01-30T13:08:32Z</time>
      </trkpt>
      <trkpt lat="45.68921303125" lon="6.915518278582">
        <ele>2178.2</ele>
        <time>2018-01-30T13:08:33Z</time>
      </trkpt>
      <trkpt lat="45.689148658258" lon="6.915467568087">
        <ele>2176.2</ele>
        <time>2018-01-30T13:08:34Z</time>
      </trkpt>
      <trkpt lat="45.689067940561" lon="6.915424149845">
        <ele>2174.2</ele>
        <time>2018-01-30T13:08:35Z</time>
      </trkpt>
      <trkpt lat="45.688984959751" lon="6.915364889812">
        <ele>2172.6</ele>
        <time>2018-01-30T13:08:36Z</time>
      </trkpt>
      <trkpt lat="45.688900554018" lon="6.915300600639">
        <ele>2170.6</ele>
        <time>2018-01-30T13:08:37Z</time>
      </trkpt>
      <trkpt lat="45.688810364774" lon="6.915239077493">
        <ele>2168.6</ele>
        <time>2018-01-30T13:08:38Z</time>
      </trkpt>
      <trkpt lat="45.688724953213" lon="6.915167915162">
        <ele>2166.4</ele>
        <time>2018-01-30T13:08:39Z</time>
      </trkpt>
      <trkpt lat="45.688654964348" lon="6.915068673466">
        <ele>2164.6</ele>
        <time>2018-01-30T13:08:40Z</time>
      </trkpt>
      <trkpt lat="45.688512472048" lon="6.914871866454">
        <ele>2163</ele>
        <time>2018-01-30T13:08:41Z</time>
      </trkpt>
      <trkpt lat="45.688454217843" lon="6.914763320849">
        <ele>2161.2</ele>
        <time>2018-01-30T13:08:42Z</time>
      </trkpt>
      <trkpt lat="45.688399484036" lon="6.91465511052">
        <ele>2159.4</ele>
        <time>2018-01-30T13:08:43Z</time>
      </trkpt>
      <trkpt lat="45.688342403297" lon="6.914553102797">
        <ele>2157.6</ele>
        <time>2018-01-30T13:08:44Z</time>
      </trkpt>
      <trkpt lat="45.688275515735" lon="6.914461237173">
        <ele>2156</ele>
        <time>2018-01-30T13:08:45Z</time>
      </trkpt>
      <trkpt lat="45.688204604861" lon="6.914369455368">
        <ele>2154.4</ele>
        <time>2018-01-30T13:08:46Z</time>
      </trkpt>
      <trkpt lat="45.688140315688" lon="6.914267782921">
        <ele>2152.8</ele>
        <time>2018-01-30T13:08:47Z</time>
      </trkpt>
      <trkpt lat="45.688079295456" lon="6.914167116302">
        <ele>2151.8</ele>
        <time>2018-01-30T13:08:48Z</time>
      </trkpt>
      <trkpt lat="45.688079295456" lon="6.914167116302">
        <ele>2150.4</ele>
        <time>2018-01-30T13:08:49Z</time>
      </trkpt>
      <trkpt lat="45.688018359043" lon="6.914059911801">
        <ele>2149</ele>
        <time>2018-01-30T13:08:50Z</time>
      </trkpt>
      <trkpt lat="45.687899503701" lon="6.913829828646">
        <ele>2147.6</ele>
        <time>2018-01-30T13:08:51Z</time>
      </trkpt>
      <trkpt lat="45.687899503701" lon="6.913829828646">
        <ele>2146.2</ele>
        <time>2018-01-30T13:08:52Z</time>
      </trkpt>
      <trkpt lat="45.687778720522" lon="6.913595889817">
        <ele>2145</ele>
        <time>2018-01-30T13:08:53Z</time>
      </trkpt>
      <trkpt lat="45.687778720522" lon="6.913595889817">
        <ele>2143.8</ele>
        <time>2018-01-30T13:08:54Z</time>
      </trkpt>
      <trkpt lat="45.687705714173" lon="6.913486086927">
        <ele>2142.8</ele>
        <time>2018-01-30T13:08:55Z</time>
      </trkpt>
      <trkpt lat="45.687551151937" lon="6.91328299349">
        <ele>2141.6</ele>
        <time>2018-01-30T13:08:56Z</time>
      </trkpt>
      <trkpt lat="45.687551151937" lon="6.91328299349">
        <ele>2140.4</ele>
        <time>2018-01-30T13:08:57Z</time>
      </trkpt>
      <trkpt lat="45.687400780651" lon="6.913083588089">
        <ele>2139.2</ele>
        <time>2018-01-30T13:08:58Z</time>
      </trkpt>
      <trkpt lat="45.687400780651" lon="6.913083588089">
        <ele>2137.8</ele>
        <time>2018-01-30T13:08:59Z</time>
      </trkpt>
      <trkpt lat="45.687322158429" lon="6.912985855135">
        <ele>2136.6</ele>
        <time>2018-01-30T13:09:00Z</time>
      </trkpt>
      <trkpt lat="45.687240183447" lon="6.91288569143">
        <ele>2135</ele>
        <time>2018-01-30T13:09:01Z</time>
      </trkpt>
      <trkpt lat="45.687063660633" lon="6.912689219694">
        <ele>2133.4</ele>
        <time>2018-01-30T13:09:02Z</time>
      </trkpt>
      <trkpt lat="45.686970621543" lon="6.912594252767">
        <ele>2131.6</ele>
        <time>2018-01-30T13:09:03Z</time>
      </trkpt>
      <trkpt lat="45.686873726779" lon="6.912501465134">
        <ele>2129.8</ele>
        <time>2018-01-30T13:09:04Z</time>
      </trkpt>
      <trkpt lat="45.686778340757" lon="6.912413874279">
        <ele>2128</ele>
        <time>2018-01-30T13:09:05Z</time>
      </trkpt>
      <trkpt lat="45.686683625287" lon="6.912329384727">
        <ele>2126.2</ele>
        <time>2018-01-30T13:09:06Z</time>
      </trkpt>
      <trkpt lat="45.686683625287" lon="6.912329384727">
        <ele>2124.6</ele>
        <time>2018-01-30T13:09:07Z</time>
      </trkpt>
      <trkpt lat="45.686504755541" lon="6.912161579089">
        <ele>2123.2</ele>
        <time>2018-01-30T13:09:08Z</time>
      </trkpt>
      <trkpt lat="45.686504755541" lon="6.912161579089">
        <ele>2121.8</ele>
        <time>2018-01-30T13:09:09Z</time>
      </trkpt>
      <trkpt lat="45.686424289301" lon="6.912074910243">
        <ele>2121</ele>
        <time>2018-01-30T13:09:10Z</time>
      </trkpt>
      <trkpt lat="45.686352791694" lon="6.911976003823">
        <ele>2119.6</ele>
        <time>2018-01-30T13:09:11Z</time>
      </trkpt>
      <trkpt lat="45.686295208041" lon="6.91186477601">
        <ele>2118.4</ele>
        <time>2018-01-30T13:09:12Z</time>
      </trkpt>
      <trkpt lat="45.686342901052" lon="6.911591274613">
        <ele>2116.4</ele>
        <time>2018-01-30T13:09:14Z</time>
      </trkpt>
      <trkpt lat="45.686418086695" lon="6.911552047321">
        <ele>2115</ele>
        <time>2018-01-30T13:09:15Z</time>
      </trkpt>
      <trkpt lat="45.686503749713" lon="6.911552214959">
        <ele>2113.2</ele>
        <time>2018-01-30T13:09:16Z</time>
      </trkpt>
      <trkpt lat="45.686590167102" lon="6.911559088117">
        <ele>2111.4</ele>
        <time>2018-01-30T13:09:17Z</time>
      </trkpt>
      <trkpt lat="45.686679601975" lon="6.911566631827">
        <ele>2110</ele>
        <time>2018-01-30T13:09:18Z</time>
      </trkpt>
      <trkpt lat="45.686874900245" lon="6.911573169709">
        <ele>2109</ele>
        <time>2018-01-30T13:09:19Z</time>
      </trkpt>
      <trkpt lat="45.686974812493" lon="6.911569900768">
        <ele>2107.8</ele>
        <time>2018-01-30T13:09:20Z</time>
      </trkpt>
      <trkpt lat="45.686974812493" lon="6.911569900768">
        <ele>2106.8</ele>
        <time>2018-01-30T13:09:21Z</time>
      </trkpt>
      <trkpt lat="45.687161561225" lon="6.911586748387">
        <ele>2105.6</ele>
        <time>2018-01-30T13:09:22Z</time>
      </trkpt>
      <trkpt lat="45.687239764352" lon="6.911576941564">
        <ele>2104.6</ele>
        <time>2018-01-30T13:09:23Z</time>
      </trkpt>
      <trkpt lat="45.687305562267" lon="6.911531930761">
        <ele>2103.2</ele>
        <time>2018-01-30T13:09:24Z</time>
      </trkpt>
      <trkpt lat="45.68731117814" lon="6.911488680157">
        <ele>2102</ele>
        <time>2018-01-30T13:09:25Z</time>
      </trkpt>
      <trkpt lat="45.687282009128" lon="6.911441992974">
        <ele>2100.4</ele>
        <time>2018-01-30T13:09:26Z</time>
      </trkpt>
      <trkpt lat="45.687232807375" lon="6.911393377954">
        <ele>2098.8</ele>
        <time>2018-01-30T13:09:27Z</time>
      </trkpt>
      <trkpt lat="45.687166841822" lon="6.911329843152">
        <ele>2097.4</ele>
        <time>2018-01-30T13:09:28Z</time>
      </trkpt>
      <trkpt lat="45.687091237084" lon="6.911262787952">
        <ele>2096.2</ele>
        <time>2018-01-30T13:09:29Z</time>
      </trkpt>
      <trkpt lat="45.686996773071" lon="6.911187602309">
        <ele>2095</ele>
        <time>2018-01-30T13:09:30Z</time>
      </trkpt>
      <trkpt lat="45.686996773071" lon="6.911187602309">
        <ele>2093.6</ele>
        <time>2018-01-30T13:09:31Z</time>
      </trkpt>
      <trkpt lat="45.686892334597" lon="6.911088444432">
        <ele>2092</ele>
        <time>2018-01-30T13:09:32Z</time>
      </trkpt>
      <trkpt lat="45.686797451489" lon="6.910970092004">
        <ele>2090.2</ele>
        <time>2018-01-30T13:09:33Z</time>
      </trkpt>
      <trkpt lat="45.686714470679" lon="6.910850482291">
        <ele>2088.4</ele>
        <time>2018-01-30T13:09:34Z</time>
      </trkpt>
      <trkpt lat="45.686550772172" lon="6.910594582884">
        <ele>2086.4</ele>
        <time>2018-01-30T13:09:35Z</time>
      </trkpt>
      <trkpt lat="45.686550772172" lon="6.910594582884">
        <ele>2084.4</ele>
        <time>2018-01-30T13:09:36Z</time>
      </trkpt>
      <trkpt lat="45.686476843814" lon="6.910458796104">
        <ele>2082.4</ele>
        <time>2018-01-30T13:09:37Z</time>
      </trkpt>
      <trkpt lat="45.686408950424" lon="6.91031663908">
        <ele>2080.4</ele>
        <time>2018-01-30T13:09:38Z</time>
      </trkpt>
      <trkpt lat="45.68628271901" lon="6.910003826572">
        <ele>2078.6</ele>
        <time>2018-01-30T13:09:39Z</time>
      </trkpt>
      <trkpt lat="45.686221279683" lon="6.909836020934">
        <ele>2077</ele>
        <time>2018-01-30T13:09:40Z</time>
      </trkpt>
      <trkpt lat="45.686168138437" lon="6.909659330482">
        <ele>2075.8</ele>
        <time>2018-01-30T13:09:41Z</time>
      </trkpt>
      <trkpt lat="45.686132012448" lon="6.909452297552">
        <ele>2074.6</ele>
        <time>2018-01-30T13:09:42Z</time>
      </trkpt>
      <trkpt lat="45.686118852865" lon="6.909228333184">
        <ele>2072.4</ele>
        <time>2018-01-30T13:09:43Z</time>
      </trkpt>
      <trkpt lat="45.686125809842" lon="6.908990119586">
        <ele>2070</ele>
        <time>2018-01-30T13:09:44Z</time>
      </trkpt>
      <trkpt lat="45.68615531413" lon="6.90874251826">
        <ele>2066.8</ele>
        <time>2018-01-30T13:09:45Z</time>
      </trkpt>
      <trkpt lat="45.686208623014" lon="6.90849525221">
        <ele>2063.4</ele>
        <time>2018-01-30T13:09:46Z</time>
      </trkpt>
      <trkpt lat="45.68627601349" lon="6.908246645056">
        <ele>2059.6</ele>
        <time>2018-01-30T13:09:47Z</time>
      </trkpt>
      <trkpt lat="45.686358826662" lon="6.907995607151">
        <ele>2056</ele>
        <time>2018-01-30T13:09:48Z</time>
      </trkpt>
      <trkpt lat="45.686475670348" lon="6.907705844868">
        <ele>2052.8</ele>
        <time>2018-01-30T13:09:49Z</time>
      </trkpt>
      <trkpt lat="45.686568960895" lon="6.90744416195">
        <ele>2050</ele>
        <time>2018-01-30T13:09:50Z</time>
      </trkpt>
      <trkpt lat="45.686657809035" lon="6.907214162614">
        <ele>2047.4</ele>
        <time>2018-01-30T13:09:51Z</time>
      </trkpt>
      <trkpt lat="45.686750764306" lon="6.907011488272">
        <ele>2045</ele>
        <time>2018-01-30T13:09:52Z</time>
      </trkpt>
      <trkpt lat="45.686844725405" lon="6.906804455342">
        <ele>2043</ele>
        <time>2018-01-30T13:09:53Z</time>
      </trkpt>
      <trkpt lat="45.686920330143" lon="6.90662273575">
        <ele>2041.4</ele>
        <time>2018-01-30T13:09:54Z</time>
      </trkpt>
      <trkpt lat="45.68699518051" lon="6.906450487705">
        <ele>2039.8</ele>
        <time>2018-01-30T13:09:55Z</time>
      </trkpt>
      <trkpt lat="45.687065756108" lon="6.906307157215">
        <ele>2038.8</ele>
        <time>2018-01-30T13:09:56Z</time>
      </trkpt>
      <trkpt lat="45.687127949806" lon="6.90615921668">
        <ele>2037.2</ele>
        <time>2018-01-30T13:09:58Z</time>
      </trkpt>
      <trkpt lat="45.687271699391" lon="6.905812708934">
        <ele>2036</ele>
        <time>2018-01-30T13:10:00Z</time>
      </trkpt>
      <trkpt lat="45.687409833103" lon="6.905413562856">
        <ele>2035.6</ele>
        <time>2018-01-30T13:10:06Z</time>
      </trkpt>
      <trkpt lat="45.687438666839" lon="6.905232010902">
        <ele>2035.6</ele>
        <time>2018-01-30T13:10:12Z</time>
      </trkpt>
      <trkpt lat="45.687415281338" lon="6.904969573613">
        <ele>2034.8</ele>
        <time>2018-01-30T13:10:18Z</time>
      </trkpt>
      <trkpt lat="45.687436655183" lon="6.904830853168">
        <ele>2034.4</ele>
        <time>2018-01-30T13:10:20Z</time>
      </trkpt>
      <trkpt lat="45.687447300196" lon="6.904742927037">
        <ele>2033.8</ele>
        <time>2018-01-30T13:10:22Z</time>
      </trkpt>
      <trkpt lat="45.687453754259" lon="6.904642511875">
        <ele>2033.4</ele>
        <time>2018-01-30T13:10:23Z</time>
      </trkpt>
      <trkpt lat="45.687437158097" lon="6.904396251653">
        <ele>2032</ele>
        <time>2018-01-30T13:10:25Z</time>
      </trkpt>
      <trkpt lat="45.687344789559" lon="6.904129791052">
        <ele>2030.8</ele>
        <time>2018-01-30T13:10:26Z</time>
      </trkpt>
      <trkpt lat="45.687344789559" lon="6.904129791052">
        <ele>2029.6</ele>
        <time>2018-01-30T13:10:27Z</time>
      </trkpt>
      <trkpt lat="45.687279159282" lon="6.904000793611">
        <ele>2028.2</ele>
        <time>2018-01-30T13:10:28Z</time>
      </trkpt>
      <trkpt lat="45.687200369422" lon="6.903850506144">
        <ele>2026.6</ele>
        <time>2018-01-30T13:10:29Z</time>
      </trkpt>
      <trkpt lat="45.687115796051" lon="6.903698123202">
        <ele>2023.8</ele>
        <time>2018-01-30T13:10:30Z</time>
      </trkpt>
      <trkpt lat="45.687022756961" lon="6.903567030286">
        <ele>2020.8</ele>
        <time>2018-01-30T13:10:31Z</time>
      </trkpt>
      <trkpt lat="45.686930053147" lon="6.903424118891">
        <ele>2017.8</ele>
        <time>2018-01-30T13:10:32Z</time>
      </trkpt>
      <trkpt lat="45.686834415668" lon="6.903286068998">
        <ele>2015.4</ele>
        <time>2018-01-30T13:10:33Z</time>
      </trkpt>
      <trkpt lat="45.686730815384" lon="6.903166543104">
        <ele>2013.6</ele>
        <time>2018-01-30T13:10:34Z</time>
      </trkpt>
      <trkpt lat="45.686635429362" lon="6.903059003327">
        <ele>2012.2</ele>
        <time>2018-01-30T13:10:35Z</time>
      </trkpt>
      <trkpt lat="45.686555382217" lon="6.902950122446">
        <ele>2011.4</ele>
        <time>2018-01-30T13:10:36Z</time>
      </trkpt>
      <trkpt lat="45.686491931234" lon="6.902833697855">
        <ele>2010.4</ele>
        <time>2018-01-30T13:10:37Z</time>
      </trkpt>
      <trkpt lat="45.686446082241" lon="6.902701599111">
        <ele>2009.2</ele>
        <time>2018-01-30T13:10:38Z</time>
      </trkpt>
      <trkpt lat="45.686424289301" lon="6.902551144006">
        <ele>2008</ele>
        <time>2018-01-30T13:10:39Z</time>
      </trkpt>
      <trkpt lat="45.686470808846" lon="6.902232212711">
        <ele>2006.8</ele>
        <time>2018-01-30T13:10:40Z</time>
      </trkpt>
      <trkpt lat="45.686470808846" lon="6.902232212711">
        <ele>2005.6</ele>
        <time>2018-01-30T13:10:41Z</time>
      </trkpt>
      <trkpt lat="45.686578264804" lon="6.901938510935">
        <ele>2004</ele>
        <time>2018-01-30T13:10:42Z</time>
      </trkpt>
      <trkpt lat="45.68662218596" lon="6.901782356138">
        <ele>2002.2</ele>
        <time>2018-01-30T13:10:43Z</time>
      </trkpt>
      <trkpt lat="45.686672393541" lon="6.901617316527">
        <ele>2000.6</ele>
        <time>2018-01-30T13:10:44Z</time>
      </trkpt>
      <trkpt lat="45.686739784017" lon="6.901465268861">
        <ele>1998.8</ele>
        <time>2018-01-30T13:10:45Z</time>
      </trkpt>
      <trkpt lat="45.686806503941" lon="6.901314981394">
        <ele>1997.2</ele>
        <time>2018-01-30T13:10:46Z</time>
      </trkpt>
      <trkpt lat="45.686860148101" lon="6.901147343394">
        <ele>1995</ele>
        <time>2018-01-30T13:10:47Z</time>
      </trkpt>
      <trkpt lat="45.686911277691" lon="6.900971994046">
        <ele>1992.4</ele>
        <time>2018-01-30T13:10:48Z</time>
      </trkpt>
      <trkpt lat="45.686981182737" lon="6.900803853132">
        <ele>1989.8</ele>
        <time>2018-01-30T13:10:49Z</time>
      </trkpt>
      <trkpt lat="45.686981182737" lon="6.900803853132">
        <ele>1987.6</ele>
        <time>2018-01-30T13:10:50Z</time>
      </trkpt>
      <trkpt lat="45.687112862386" lon="6.900463380354">
        <ele>1985.6</ele>
        <time>2018-01-30T13:10:51Z</time>
      </trkpt>
      <trkpt lat="45.687146389986" lon="6.900262466211">
        <ele>1983.2</ele>
        <time>2018-01-30T13:10:52Z</time>
      </trkpt>
      <trkpt lat="45.68718628783" lon="6.90005719348">
        <ele>1981</ele>
        <time>2018-01-30T13:10:53Z</time>
      </trkpt>
      <trkpt lat="45.68718628783" lon="6.90005719348">
        <ele>1978.2</ele>
        <time>2018-01-30T13:10:54Z</time>
      </trkpt>
      <trkpt lat="45.687340766247" lon="6.89969341902">
        <ele>1975.4</ele>
        <time>2018-01-30T13:10:55Z</time>
      </trkpt>
      <trkpt lat="45.687340766247" lon="6.89969341902">
        <ele>1970.6</ele>
        <time>2018-01-30T13:10:56Z</time>
      </trkpt>
      <trkpt lat="45.68743355388" lon="6.899520165147">
        <ele>1965.6</ele>
        <time>2018-01-30T13:10:57Z</time>
      </trkpt>
      <trkpt lat="45.687518127251" lon="6.899323525773">
        <ele>1960.8</ele>
        <time>2018-01-30T13:10:58Z</time>
      </trkpt>
      <trkpt lat="45.687592474704" lon="6.899090592772">
        <ele>1956.6</ele>
        <time>2018-01-30T13:10:59Z</time>
      </trkpt>
      <trkpt lat="45.687639497163" lon="6.89884768531">
        <ele>1952</ele>
        <time>2018-01-30T13:11:00Z</time>
      </trkpt>
      <trkpt lat="45.687662966483" lon="6.898592624093">
        <ele>1947</ele>
        <time>2018-01-30T13:11:01Z</time>
      </trkpt>
      <trkpt lat="45.687613597092" lon="6.898296743023">
        <ele>1942.8</ele>
        <time>2018-01-30T13:11:02Z</time>
      </trkpt>
      <trkpt lat="45.687592726161" lon="6.898041095073">
        <ele>1939.6</ele>
        <time>2018-01-30T13:11:03Z</time>
      </trkpt>
      <trkpt lat="45.687605718106" lon="6.897791314453">
        <ele>1936.8</ele>
        <time>2018-01-30T13:11:04Z</time>
      </trkpt>
      <trkpt lat="45.687637066412" lon="6.897534157761">
        <ele>1934.2</ele>
        <time>2018-01-30T13:11:05Z</time>
      </trkpt>
      <trkpt lat="45.687676796618" lon="6.897296949991">
        <ele>1930.4</ele>
        <time>2018-01-30T13:11:06Z</time>
      </trkpt>
      <trkpt lat="45.687724154353" lon="6.89707072251">
        <ele>1926.6</ele>
        <time>2018-01-30T13:11:07Z</time>
      </trkpt>
      <trkpt lat="45.687763130188" lon="6.896837202776">
        <ele>1923.2</ele>
        <time>2018-01-30T13:11:08Z</time>
      </trkpt>
      <trkpt lat="45.687797495978" lon="6.89660804163">
        <ele>1921.2</ele>
        <time>2018-01-30T13:11:09Z</time>
      </trkpt>
      <trkpt lat="45.687824569515" lon="6.896394219361">
        <ele>1919.4</ele>
        <time>2018-01-30T13:11:10Z</time>
      </trkpt>
      <trkpt lat="45.687837980555" lon="6.896187773164">
        <ele>1917.4</ele>
        <time>2018-01-30T13:11:11Z</time>
      </trkpt>
      <trkpt lat="45.687837226184" lon="6.896013681101">
        <ele>1915.6</ele>
        <time>2018-01-30T13:11:12Z</time>
      </trkpt>
      <trkpt lat="45.687831610311" lon="6.895847216567">
        <ele>1914.4</ele>
        <time>2018-01-30T13:11:13Z</time>
      </trkpt>
      <trkpt lat="45.687790706639" lon="6.895473802922">
        <ele>1912.6</ele>
        <time>2018-01-30T13:11:15Z</time>
      </trkpt>
      <trkpt lat="45.687765560939" lon="6.895315468831">
        <ele>1911.6</ele>
        <time>2018-01-30T13:11:16Z</time>
      </trkpt>
      <trkpt lat="45.687728093846" lon="6.895162415337">
        <ele>1910</ele>
        <time>2018-01-30T13:11:17Z</time>
      </trkpt>
      <trkpt lat="45.687686603441" lon="6.895011205861">
        <ele>1908.6</ele>
        <time>2018-01-30T13:11:18Z</time>
      </trkpt>
      <trkpt lat="45.687640670629" lon="6.894865779896">
        <ele>1907</ele>
        <time>2018-01-30T13:11:19Z</time>
      </trkpt>
      <trkpt lat="45.687531957386" lon="6.894575849975">
        <ele>1905.2</ele>
        <time>2018-01-30T13:11:21Z</time>
      </trkpt>
      <trkpt lat="45.687467332937" lon="6.894426652155">
        <ele>1904</ele>
        <time>2018-01-30T13:11:22Z</time>
      </trkpt>
      <trkpt lat="45.68740086447" lon="6.894273514842">
        <ele>1902.8</ele>
        <time>2018-01-30T13:11:23Z</time>
      </trkpt>
      <trkpt lat="45.687328444854" lon="6.894117360045">
        <ele>1900.8</ele>
        <time>2018-01-30T13:11:24Z</time>
      </trkpt>
      <trkpt lat="45.687250996098" lon="6.893951901339">
        <ele>1898.6</ele>
        <time>2018-01-30T13:11:25Z</time>
      </trkpt>
      <trkpt lat="45.687172206238" lon="6.893777893095">
        <ele>1896</ele>
        <time>2018-01-30T13:11:26Z</time>
      </trkpt>
      <trkpt lat="45.687094170749" lon="6.89359977772">
        <ele>1893.8</ele>
        <time>2018-01-30T13:11:27Z</time>
      </trkpt>
      <trkpt lat="45.687017895459" lon="6.893425937114">
        <ele>1891.6</ele>
        <time>2018-01-30T13:11:28Z</time>
      </trkpt>
      <trkpt lat="45.68694405092" lon="6.893255113992">
        <ele>1889.2</ele>
        <time>2018-01-30T13:11:29Z</time>
      </trkpt>
      <trkpt lat="45.686871296028" lon="6.893092588951">
        <ele>1887.2</ele>
        <time>2018-01-30T13:11:30Z</time>
      </trkpt>
      <trkpt lat="45.686727127348" lon="6.892767874145">
        <ele>1885.6</ele>
        <time>2018-01-30T13:11:31Z</time>
      </trkpt>
      <trkpt lat="45.686653869542" lon="6.892596045195">
        <ele>1884</ele>
        <time>2018-01-30T13:11:32Z</time>
      </trkpt>
      <trkpt lat="45.686581869021" lon="6.892420109114">
        <ele>1882.6</ele>
        <time>2018-01-30T13:11:33Z</time>
      </trkpt>
      <trkpt lat="45.686513640355" lon="6.892242915748">
        <ele>1880.6</ele>
        <time>2018-01-30T13:11:34Z</time>
      </trkpt>
      <trkpt lat="45.686442478024" lon="6.892060357966">
        <ele>1878.6</ele>
        <time>2018-01-30T13:11:35Z</time>
      </trkpt>
      <trkpt lat="45.686366789467" lon="6.891874195967">
        <ele>1876.6</ele>
        <time>2018-01-30T13:11:36Z</time>
      </trkpt>
      <trkpt lat="45.686296800602" lon="6.891702031741">
        <ele>1874.8</ele>
        <time>2018-01-30T13:11:37Z</time>
      </trkpt>
      <trkpt lat="45.686235696551" lon="6.891547804781">
        <ele>1873</ele>
        <time>2018-01-30T13:11:38Z</time>
      </trkpt>
      <trkpt lat="45.686174424862" lon="6.891399612789">
        <ele>1871.2</ele>
        <time>2018-01-30T13:11:39Z</time>
      </trkpt>
      <trkpt lat="45.686113153173" lon="6.891250163512">
        <ele>1869.6</ele>
        <time>2018-01-30T13:11:40Z</time>
      </trkpt>
      <trkpt lat="45.686041907023" lon="6.891107084479">
        <ele>1868</ele>
        <time>2018-01-30T13:11:41Z</time>
      </trkpt>
      <trkpt lat="45.685962111335" lon="6.890966687654">
        <ele>1866.4</ele>
        <time>2018-01-30T13:11:42Z</time>
      </trkpt>
      <trkpt lat="45.685879046706" lon="6.890824949725">
        <ele>1865</ele>
        <time>2018-01-30T13:11:43Z</time>
      </trkpt>
      <trkpt lat="45.685797407" lon="6.89068036195">
        <ele>1863.4</ele>
        <time>2018-01-30T13:11:44Z</time>
      </trkpt>
      <trkpt lat="45.685715683475" lon="6.890540468039">
        <ele>1862.2</ele>
        <time>2018-01-30T13:11:45Z</time>
      </trkpt>
      <trkpt lat="45.685634630502" lon="6.890400825585">
        <ele>1861</ele>
        <time>2018-01-30T13:11:46Z</time>
      </trkpt>
      <trkpt lat="45.685485097406" lon="6.890119780478">
        <ele>1858.6</ele>
        <time>2018-01-30T13:11:48Z</time>
      </trkpt>
      <trkpt lat="45.68541435417" lon="6.889983323146">
        <ele>1856.6</ele>
        <time>2018-01-30T13:11:49Z</time>
      </trkpt>
      <trkpt lat="45.685344532943" lon="6.889853571334">
        <ele>1854.4</ele>
        <time>2018-01-30T13:11:50Z</time>
      </trkpt>
      <trkpt lat="45.685268676748" lon="6.889720885857">
        <ele>1852.4</ele>
        <time>2018-01-30T13:11:51Z</time>
      </trkpt>
      <trkpt lat="45.685195335123" lon="6.889599683583">
        <ele>1850.8</ele>
        <time>2018-01-30T13:11:52Z</time>
      </trkpt>
      <trkpt lat="45.685116042349" lon="6.889478984223">
        <ele>1849.6</ele>
        <time>2018-01-30T13:11:53Z</time>
      </trkpt>
      <trkpt lat="45.685037252489" lon="6.889354261551">
        <ele>1848.2</ele>
        <time>2018-01-30T13:11:54Z</time>
      </trkpt>
      <trkpt lat="45.684956870068" lon="6.889230963802">
        <ele>1846.8</ele>
        <time>2018-01-30T13:11:55Z</time>
      </trkpt>
      <trkpt lat="45.684874895086" lon="6.88910288837">
        <ele>1845.2</ele>
        <time>2018-01-30T13:11:56Z</time>
      </trkpt>
      <trkpt lat="45.68479576995" lon="6.888975399671">
        <ele>1843.4</ele>
        <time>2018-01-30T13:11:57Z</time>
      </trkpt>
      <trkpt lat="45.684724439981" lon="6.888853610664">
        <ele>1841.8</ele>
        <time>2018-01-30T13:11:58Z</time>
      </trkpt>
      <trkpt lat="45.684652942374" lon="6.888731234924">
        <ele>1840.8</ele>
        <time>2018-01-30T13:11:59Z</time>
      </trkpt>
      <trkpt lat="45.684492596627" lon="6.888485477616">
        <ele>1839.2</ele>
        <time>2018-01-30T13:12:01Z</time>
      </trkpt>
      <trkpt lat="45.684414728776" lon="6.888359916754">
        <ele>1838</ele>
        <time>2018-01-30T13:12:02Z</time>
      </trkpt>
      <trkpt lat="45.684341219513" lon="6.888238546842">
        <ele>1836.4</ele>
        <time>2018-01-30T13:12:03Z</time>
      </trkpt>
      <trkpt lat="45.684271649743" lon="6.888123630993">
        <ele>1834.8</ele>
        <time>2018-01-30T13:12:04Z</time>
      </trkpt>
      <trkpt lat="45.684203756353" lon="6.888012067904">
        <ele>1833.4</ele>
        <time>2018-01-30T13:12:05Z</time>
      </trkpt>
      <trkpt lat="45.684136701153" lon="6.887910814552">
        <ele>1832.4</ele>
        <time>2018-01-30T13:12:06Z</time>
      </trkpt>
      <trkpt lat="45.684005524418" lon="6.887715097187">
        <ele>1830.8</ele>
        <time>2018-01-30T13:12:08Z</time>
      </trkpt>
      <trkpt lat="45.68387711371" lon="6.887535724527">
        <ele>1829.2</ele>
        <time>2018-01-30T13:12:10Z</time>
      </trkpt>
      <trkpt lat="45.683713834298" lon="6.887296924196">
        <ele>1827.6</ele>
        <time>2018-01-30T13:12:13Z</time>
      </trkpt>
      <trkpt lat="45.683661279785" lon="6.887195251749">
        <ele>1826.4</ele>
        <time>2018-01-30T13:12:14Z</time>
      </trkpt>
      <trkpt lat="45.683619118828" lon="6.887089220714">
        <ele>1825.2</ele>
        <time>2018-01-30T13:12:15Z</time>
      </trkpt>
      <trkpt lat="45.683579891536" lon="6.886967264069">
        <ele>1823.4</ele>
        <time>2018-01-30T13:12:16Z</time>
      </trkpt>
      <trkpt lat="45.683561786632" lon="6.886825945235">
        <ele>1822</ele>
        <time>2018-01-30T13:12:17Z</time>
      </trkpt>
      <trkpt lat="45.683567067229" lon="6.886674484302">
        <ele>1820.8</ele>
        <time>2018-01-30T13:12:18Z</time>
      </trkpt>
      <trkpt lat="45.683594476042" lon="6.886524867387">
        <ele>1819.4</ele>
        <time>2018-01-30T13:12:19Z</time>
      </trkpt>
      <trkpt lat="45.68363068585" lon="6.886390337892">
        <ele>1818.2</ele>
        <time>2018-01-30T13:12:20Z</time>
      </trkpt>
      <trkpt lat="45.683671002789" lon="6.886277685156">
        <ele>1816.8</ele>
        <time>2018-01-30T13:12:21Z</time>
      </trkpt>
      <trkpt lat="45.683718611981" lon="6.886186657722">
        <ele>1815.8</ele>
        <time>2018-01-30T13:12:22Z</time>
      </trkpt>
      <trkpt lat="45.683811399614" lon="6.886052128227">
        <ele>1814.4</ele>
        <time>2018-01-30T13:12:24Z</time>
      </trkpt>
      <trkpt lat="45.683905025437" lon="6.885979876249">
        <ele>1813.8</ele>
        <time>2018-01-30T13:12:26Z</time>
      </trkpt>
      <trkpt lat="45.684104514657" lon="6.885960094965">
        <ele>1814</ele>
        <time>2018-01-30T13:12:32Z</time>
      </trkpt>
      <trkpt lat="45.6841377908" lon="6.886034442418">
        <ele>1814.2</ele>
        <time>2018-01-30T13:12:34Z</time>
      </trkpt>
      <trkpt lat="45.684141562655" lon="6.886075849004">
        <ele>1814</ele>
        <time>2018-01-30T13:12:38Z</time>
      </trkpt>
      <trkpt lat="45.684033939059" lon="6.886250946895">
        <ele>1812</ele>
        <time>2018-01-30T13:13:35Z</time>
      </trkpt>
      <trkpt lat="45.684013151947" lon="6.886260166985">
        <ele>1811.6</ele>
        <time>2018-01-30T13:13:36Z</time>
      </trkpt>
      <trkpt lat="45.683971912999" lon="6.886323785606">
        <ele>1810.8</ele>
        <time>2018-01-30T13:13:38Z</time>
      </trkpt>
      <trkpt lat="45.683827241405" lon="6.886619415219">
        <ele>1810.2</ele>
        <time>2018-01-30T13:13:44Z</time>
      </trkpt>
      <trkpt lat="45.683748703002" lon="6.886759895863">
        <ele>1812</ele>
        <time>2018-01-30T13:13:47Z</time>
      </trkpt>
      <trkpt lat="45.683699668887" lon="6.886848073451">
        <ele>1814</ele>
        <time>2018-01-30T13:13:49Z</time>
      </trkpt>
      <trkpt lat="45.677693953718" lon="6.896735614148">
        <ele>2152.6</ele>
        <time>2018-01-30T13:18:16Z</time>
      </trkpt>
      <trkpt lat="45.677693953718" lon="6.896735614148">
        <ele>2152.2</ele>
        <time>2018-01-30T13:18:18Z</time>
      </trkpt>
      <trkpt lat="45.67177951744" lon="6.893302387908">
        <ele>2055.2</ele>
        <time>2018-01-30T13:21:00Z</time>
      </trkpt>
      <trkpt lat="45.671529485363" lon="6.89300550101">
        <ele>2052.6</ele>
        <time>2018-01-30T13:21:03Z</time>
      </trkpt>
      <trkpt lat="45.671447007467" lon="6.892898715604">
        <ele>2051.2</ele>
        <time>2018-01-30T13:21:04Z</time>
      </trkpt>
      <trkpt lat="45.671177948477" lon="6.892573162608">
        <ele>2050.6</ele>
        <time>2018-01-30T13:21:07Z</time>
      </trkpt>
      <trkpt lat="45.671079544971" lon="6.892486912857">
        <ele>2049.4</ele>
        <time>2018-01-30T13:21:08Z</time>
      </trkpt>
      <trkpt lat="45.670981141465" lon="6.892403429133">
        <ele>2048</ele>
        <time>2018-01-30T13:21:09Z</time>
      </trkpt>
      <trkpt lat="45.670887012728" lon="6.892313323708">
        <ele>2046.4</ele>
        <time>2018-01-30T13:21:10Z</time>
      </trkpt>
      <trkpt lat="45.670800679158" lon="6.892218859695">
        <ele>2045.2</ele>
        <time>2018-01-30T13:21:11Z</time>
      </trkpt>
      <trkpt lat="45.670727337533" lon="6.89210444676">
        <ele>2044.2</ele>
        <time>2018-01-30T13:21:12Z</time>
      </trkpt>
      <trkpt lat="45.67060018411" lon="6.891864305325">
        <ele>2042.4</ele>
        <time>2018-01-30T13:21:14Z</time>
      </trkpt>
      <trkpt lat="45.670470013203" lon="6.891598515276">
        <ele>2040.4</ele>
        <time>2018-01-30T13:21:16Z</time>
      </trkpt>
      <trkpt lat="45.670395246655" lon="6.891460297745">
        <ele>2039.2</ele>
        <time>2018-01-30T13:21:17Z</time>
      </trkpt>
      <trkpt lat="45.6703160377" lon="6.891319230368">
        <ele>2037.6</ele>
        <time>2018-01-30T13:21:18Z</time>
      </trkpt>
      <trkpt lat="45.670235320003" lon="6.891173888222">
        <ele>2035.6</ele>
        <time>2018-01-30T13:21:19Z</time>
      </trkpt>
      <trkpt lat="45.670157703609" lon="6.891014129208">
        <ele>2033.4</ele>
        <time>2018-01-30T13:21:20Z</time>
      </trkpt>
      <trkpt lat="45.670079751939" lon="6.890861075714">
        <ele>2031</ele>
        <time>2018-01-30T13:21:21Z</time>
      </trkpt>
      <trkpt lat="45.670008673427" lon="6.890696706655">
        <ele>2028.6</ele>
        <time>2018-01-30T13:21:22Z</time>
      </trkpt>
      <trkpt lat="45.669938684562" lon="6.890549939586">
        <ele>2026.6</ele>
        <time>2018-01-30T13:21:23Z</time>
      </trkpt>
      <trkpt lat="45.669871629362" lon="6.89039453916">
        <ele>2024.8</ele>
        <time>2018-01-30T13:21:24Z</time>
      </trkpt>
      <trkpt lat="45.669796192262" lon="6.890244670788">
        <ele>2023.2</ele>
        <time>2018-01-30T13:21:25Z</time>
      </trkpt>
      <trkpt lat="45.66971673185" lon="6.890089940914">
        <ele>2021.8</ele>
        <time>2018-01-30T13:21:26Z</time>
      </trkpt>
      <trkpt lat="45.669636768524" lon="6.889939988723">
        <ele>2020.2</ele>
        <time>2018-01-30T13:21:27Z</time>
      </trkpt>
      <trkpt lat="45.669547585108" lon="6.889789785075">
        <ele>2018.4</ele>
        <time>2018-01-30T13:21:28Z</time>
      </trkpt>
      <trkpt lat="45.66946024571" lon="6.889635641934">
        <ele>2016.4</ele>
        <time>2018-01-30T13:21:29Z</time>
      </trkpt>
      <trkpt lat="45.669372654855" lon="6.88948761758">
        <ele>2014.4</ele>
        <time>2018-01-30T13:21:30Z</time>
      </trkpt>
      <trkpt lat="45.669291937158" lon="6.889337246294">
        <ele>2012</ele>
        <time>2018-01-30T13:21:31Z</time>
      </trkpt>
      <trkpt lat="45.669215326592" lon="6.889185282447">
        <ele>2009.6</ele>
        <time>2018-01-30T13:21:32Z</time>
      </trkpt>
      <trkpt lat="45.669136620551" lon="6.889027367451">
        <ele>2007.4</ele>
        <time>2018-01-30T13:21:33Z</time>
      </trkpt>
      <trkpt lat="45.669054729388" lon="6.888861824926">
        <ele>2005.4</ele>
        <time>2018-01-30T13:21:34Z</time>
      </trkpt>
      <trkpt lat="45.669054729388" lon="6.888861824926">
        <ele>2003.8</ele>
        <time>2018-01-30T13:21:35Z</time>
      </trkpt>
      <trkpt lat="45.668885917922" lon="6.888523447623">
        <ele>2001.6</ele>
        <time>2018-01-30T13:21:36Z</time>
      </trkpt>
      <trkpt lat="45.668802350379" lon="6.888355055252">
        <ele>1999.8</ele>
        <time>2018-01-30T13:21:37Z</time>
      </trkpt>
      <trkpt lat="45.668711825859" lon="6.888178951533">
        <ele>1997.6</ele>
        <time>2018-01-30T13:21:38Z</time>
      </trkpt>
      <trkpt lat="45.668711825859" lon="6.888178951533">
        <ele>1995.6</ele>
        <time>2018-01-30T13:21:39Z</time>
      </trkpt>
      <trkpt lat="45.668528848982" lon="6.887810902304">
        <ele>1993.8</ele>
        <time>2018-01-30T13:21:40Z</time>
      </trkpt>
      <trkpt lat="45.668442515412" lon="6.887633373662">
        <ele>1991.8</ele>
        <time>2018-01-30T13:21:41Z</time>
      </trkpt>
      <trkpt lat="45.668363390276" lon="6.887471938268">
        <ele>1989.8</ele>
        <time>2018-01-30T13:21:42Z</time>
      </trkpt>
      <trkpt lat="45.66827755962" lon="6.887327937226">
        <ele>1988</ele>
        <time>2018-01-30T13:21:43Z</time>
      </trkpt>
      <trkpt lat="45.668193237706" lon="6.887206148219">
        <ele>1986.8</ele>
        <time>2018-01-30T13:21:44Z</time>
      </trkpt>
      <trkpt lat="45.66805041013" lon="6.886980423652">
        <ele>1985</ele>
        <time>2018-01-30T13:21:46Z</time>
      </trkpt>
      <trkpt lat="45.668004225861" lon="6.886846732347">
        <ele>1984.4</ele>
        <time>2018-01-30T13:21:47Z</time>
      </trkpt>
      <trkpt lat="45.667955862298" lon="6.886724775702">
        <ele>1983.6</ele>
        <time>2018-01-30T13:21:48Z</time>
      </trkpt>
      <trkpt lat="45.667901966681" lon="6.886605249808">
        <ele>1982.6</ele>
        <time>2018-01-30T13:21:49Z</time>
      </trkpt>
      <trkpt lat="45.667838515698" lon="6.886495446918">
        <ele>1981.6</ele>
        <time>2018-01-30T13:21:50Z</time>
      </trkpt>
      <trkpt lat="45.667706333135" lon="6.886244828108">
        <ele>1979.8</ele>
        <time>2018-01-30T13:21:52Z</time>
      </trkpt>
      <trkpt lat="45.667666854386" lon="6.886087164569">
        <ele>1978.6</ele>
        <time>2018-01-30T13:21:53Z</time>
      </trkpt>
      <trkpt lat="45.667603487222" lon="6.885923885157">
        <ele>1977.2</ele>
        <time>2018-01-30T13:21:54Z</time>
      </trkpt>
      <trkpt lat="45.667535342375" lon="6.885742333203">
        <ele>1975.8</ele>
        <time>2018-01-30T13:21:55Z</time>
      </trkpt>
      <trkpt lat="45.66745948618" lon="6.885558518136">
        <ele>1973.2</ele>
        <time>2018-01-30T13:21:56Z</time>
      </trkpt>
      <trkpt lat="45.667344402693" lon="6.885403704443">
        <ele>1970.2</ele>
        <time>2018-01-30T13:21:57Z</time>
      </trkpt>
      <trkpt lat="45.667220769668" lon="6.885266828016">
        <ele>1966</ele>
        <time>2018-01-30T13:21:58Z</time>
      </trkpt>
      <trkpt lat="45.667070733658" lon="6.885166412854">
        <ele>1962.4</ele>
        <time>2018-01-30T13:21:59Z</time>
      </trkpt>
      <trkpt lat="45.666896557776" lon="6.885104051518">
        <ele>1958.8</ele>
        <time>2018-01-30T13:22:00Z</time>
      </trkpt>
      <trkpt lat="45.666896557776" lon="6.885104051518">
        <ele>1955.4</ele>
        <time>2018-01-30T13:22:01Z</time>
      </trkpt>
      <trkpt lat="45.666551391134" lon="6.885012772627">
        <ele>1951.6</ele>
        <time>2018-01-30T13:22:02Z</time>
      </trkpt>
      <trkpt lat="45.666360116176" lon="6.885005145098">
        <ele>1947</ele>
        <time>2018-01-30T13:22:03Z</time>
      </trkpt>
      <trkpt lat="45.666194908927" lon="6.884991314963">
        <ele>1943</ele>
        <time>2018-01-30T13:22:04Z</time>
      </trkpt>
      <trkpt lat="45.666036826293" lon="6.884966839815">
        <ele>1938.8</ele>
        <time>2018-01-30T13:22:05Z</time>
      </trkpt>
      <trkpt lat="45.665886790283" lon="6.884929791817">
        <ele>1935.4</ele>
        <time>2018-01-30T13:22:06Z</time>
      </trkpt>
      <trkpt lat="45.665750500589" lon="6.884876399114">
        <ele>1932.8</ele>
        <time>2018-01-30T13:22:07Z</time>
      </trkpt>
      <trkpt lat="45.665626783745" lon="6.884810098285">
        <ele>1931.4</ele>
        <time>2018-01-30T13:22:08Z</time>
      </trkpt>
      <trkpt lat="45.665511867896" lon="6.884726363104">
        <ele>1930.4</ele>
        <time>2018-01-30T13:22:09Z</time>
      </trkpt>
      <trkpt lat="45.665310115563" lon="6.884547828634">
        <ele>1929</ele>
        <time>2018-01-30T13:22:11Z</time>
      </trkpt>
      <trkpt lat="45.665133844206" lon="6.884393182579">
        <ele>1927.8</ele>
        <time>2018-01-30T13:22:13Z</time>
      </trkpt>
      <trkpt lat="45.664981042169" lon="6.884232250099">
        <ele>1926.8</ele>
        <time>2018-01-30T13:22:15Z</time>
      </trkpt>
      <trkpt lat="45.664702343994" lon="6.883903260524">
        <ele>1925.4</ele>
        <time>2018-01-30T13:22:19Z</time>
      </trkpt>
      <trkpt lat="45.664537807297" lon="6.883719780733">
        <ele>1923.8</ele>
        <time>2018-01-30T13:22:21Z</time>
      </trkpt>
      <trkpt lat="45.664458346885" lon="6.883627579833">
        <ele>1923</ele>
        <time>2018-01-30T13:22:22Z</time>
      </trkpt>
      <trkpt lat="45.664381903957" lon="6.883535965666">
        <ele>1921.8</ele>
        <time>2018-01-30T13:22:23Z</time>
      </trkpt>
      <trkpt lat="45.664232119404" lon="6.883332034039">
        <ele>1919.8</ele>
        <time>2018-01-30T13:22:25Z</time>
      </trkpt>
      <trkpt lat="45.664161376168" lon="6.883206054082">
        <ele>1918.6</ele>
        <time>2018-01-30T13:22:26Z</time>
      </trkpt>
      <trkpt lat="45.664093566597" lon="6.883076134632">
        <ele>1917.6</ele>
        <time>2018-01-30T13:22:27Z</time>
      </trkpt>
      <trkpt lat="45.663933723764" lon="6.882805147805">
        <ele>1915</ele>
        <time>2018-01-30T13:22:29Z</time>
      </trkpt>
      <trkpt lat="45.663845462357" lon="6.882669361025">
        <ele>1912.8</ele>
        <time>2018-01-30T13:22:30Z</time>
      </trkpt>
      <trkpt lat="45.663757117131" lon="6.882532652236">
        <ele>1910.4</ele>
        <time>2018-01-30T13:22:31Z</time>
      </trkpt>
      <trkpt lat="45.663660725281" lon="6.882398877112">
        <ele>1907</ele>
        <time>2018-01-30T13:22:32Z</time>
      </trkpt>
      <trkpt lat="45.663554861884" lon="6.882269209119">
        <ele>1903.8</ele>
        <time>2018-01-30T13:22:33Z</time>
      </trkpt>
      <trkpt lat="45.663449752858" lon="6.882139038212">
        <ele>1900.4</ele>
        <time>2018-01-30T13:22:34Z</time>
      </trkpt>
      <trkpt lat="45.66334481147" lon="6.882019763775">
        <ele>1898.6</ele>
        <time>2018-01-30T13:22:35Z</time>
      </trkpt>
      <trkpt lat="45.663243893394" lon="6.881914990025">
        <ele>1897.6</ele>
        <time>2018-01-30T13:22:36Z</time>
      </trkpt>
      <trkpt lat="45.663047337839" lon="6.881727235465">
        <ele>1895.8</ele>
        <time>2018-01-30T13:22:38Z</time>
      </trkpt>
      <trkpt lat="45.662932505809" lon="6.881642326818">
        <ele>1895</ele>
        <time>2018-01-30T13:22:39Z</time>
      </trkpt>
      <trkpt lat="45.662812644639" lon="6.881542582208">
        <ele>1893.6</ele>
        <time>2018-01-30T13:22:40Z</time>
      </trkpt>
      <trkpt lat="45.662690604175" lon="6.881429761834">
        <ele>1892.2</ele>
        <time>2018-01-30T13:22:41Z</time>
      </trkpt>
      <trkpt lat="45.662558421612" lon="6.881302776049">
        <ele>1890</ele>
        <time>2018-01-30T13:22:42Z</time>
      </trkpt>
      <trkpt lat="45.66242615523" lon="6.881176041721">
        <ele>1887.4</ele>
        <time>2018-01-30T13:22:43Z</time>
      </trkpt>
      <trkpt lat="45.662299253264" lon="6.881040590217">
        <ele>1884.6</ele>
        <time>2018-01-30T13:22:44Z</time>
      </trkpt>
      <trkpt lat="45.662179056818" lon="6.8809028756">
        <ele>1882.2</ele>
        <time>2018-01-30T13:22:45Z</time>
      </trkpt>
      <trkpt lat="45.662053495956" lon="6.880755437979">
        <ele>1880</ele>
        <time>2018-01-30T13:22:46Z</time>
      </trkpt>
      <trkpt lat="45.661938747745" lon="6.880606659254">
        <ele>1877.6</ele>
        <time>2018-01-30T13:22:47Z</time>
      </trkpt>
      <trkpt lat="45.66184277499" lon="6.880460981832">
        <ele>1875.4</ele>
        <time>2018-01-30T13:22:48Z</time>
      </trkpt>
      <trkpt lat="45.661752837203" lon="6.880299881714">
        <ele>1873</ele>
        <time>2018-01-30T13:22:49Z</time>
      </trkpt>
      <trkpt lat="45.661677819198" lon="6.880151941179">
        <ele>1870.8</ele>
        <time>2018-01-30T13:22:50Z</time>
      </trkpt>
      <trkpt lat="45.661621157554" lon="6.880007772499">
        <ele>1868.8</ele>
        <time>2018-01-30T13:22:51Z</time>
      </trkpt>
      <trkpt lat="45.661577320217" lon="6.879869722606">
        <ele>1867</ele>
        <time>2018-01-30T13:22:52Z</time>
      </trkpt>
      <trkpt lat="45.661531135948" lon="6.879750280531">
        <ele>1866</ele>
        <time>2018-01-30T13:22:53Z</time>
      </trkpt>
      <trkpt lat="45.661482437109" lon="6.879647350799">
        <ele>1865.2</ele>
        <time>2018-01-30T13:22:54Z</time>
      </trkpt>
      <trkpt lat="45.661446059663" lon="6.879533105502">
        <ele>1864.4</ele>
        <time>2018-01-30T13:22:55Z</time>
      </trkpt>
      <trkpt lat="45.661416471556" lon="6.879418105834">
        <ele>1863.8</ele>
        <time>2018-01-30T13:22:56Z</time>
      </trkpt>
      <trkpt lat="45.661430469329" lon="6.879346272951">
        <ele>1863</ele>
        <time>2018-01-30T13:22:57Z</time>
      </trkpt>
      <trkpt lat="45.661464667481" lon="6.87931282917">
        <ele>1861.8</ele>
        <time>2018-01-30T13:22:58Z</time>
      </trkpt>
      <trkpt lat="45.66148822062" lon="6.879300675415">
        <ele>1860.4</ele>
        <time>2018-01-30T13:22:59Z</time>
      </trkpt>
      <trkpt lat="45.661498865633" lon="6.879301178329">
        <ele>1859</ele>
        <time>2018-01-30T13:23:00Z</time>
      </trkpt>
      <trkpt lat="45.661498027443" lon="6.879303860537">
        <ele>1858.2</ele>
        <time>2018-01-30T13:23:01Z</time>
      </trkpt>
      <trkpt lat="45.661495177597" lon="6.87930696184">
        <ele>1857.6</ele>
        <time>2018-01-30T13:23:02Z</time>
      </trkpt>
      <trkpt lat="45.661492998303" lon="6.879316852482">
        <ele>1857</ele>
        <time>2018-01-30T13:23:05Z</time>
      </trkpt>
      <trkpt lat="45.661248163004" lon="6.879118788185">
        <ele>1855.4</ele>
        <time>2018-01-30T13:23:44Z</time>
      </trkpt>
      <trkpt lat="45.661153112258" lon="6.879044859827">
        <ele>1854.6</ele>
        <time>2018-01-30T13:23:50Z</time>
      </trkpt>
      <trkpt lat="45.66105906734" lon="6.878969087451">
        <ele>1854.6</ele>
        <time>2018-01-30T13:23:56Z</time>
      </trkpt>
      <trkpt lat="45.660939709084" lon="6.878883759709">
        <ele>1854.4</ele>
        <time>2018-01-30T13:24:02Z</time>
      </trkpt>
      <trkpt lat="45.660921855637" lon="6.878866995909">
        <ele>1854.4</ele>
        <time>2018-01-30T13:24:03Z</time>
      </trkpt>
      <trkpt lat="45.660815824602" lon="6.87878560766">
        <ele>1853.6</ele>
        <time>2018-01-30T13:24:09Z</time>
      </trkpt>
      <trkpt lat="45.660702166038" lon="6.878704638506">
        <ele>1853.4</ele>
        <time>2018-01-30T13:24:15Z</time>
      </trkpt>
      <trkpt lat="45.660668554619" lon="6.878677145874">
        <ele>1853.2</ele>
        <time>2018-01-30T13:24:17Z</time>
      </trkpt>
      <trkpt lat="45.660575683167" lon="6.878604055706">
        <ele>1853.4</ele>
        <time>2018-01-30T13:24:23Z</time>
      </trkpt>
      <trkpt lat="45.660487505579" lon="6.878519733792">
        <ele>1853.8</ele>
        <time>2018-01-30T13:24:29Z</time>
      </trkpt>
      <trkpt lat="45.660418103447" lon="6.878465502899">
        <ele>1854.4</ele>
        <time>2018-01-30T13:24:33Z</time>
      </trkpt>
      <trkpt lat="45.660341828157" lon="6.878409092712">
        <ele>1855.4</ele>
        <time>2018-01-30T13:24:38Z</time>
      </trkpt>
      <trkpt lat="45.660281562296" lon="6.878358466036">
        <ele>1856.6</ele>
        <time>2018-01-30T13:24:42Z</time>
      </trkpt>
      <trkpt lat="45.660215512924" lon="6.878308593731">
        <ele>1857.8</ele>
        <time>2018-01-30T13:24:46Z</time>
      </trkpt>
      <trkpt lat="45.660166143533" lon="6.878275233769">
        <ele>1858.8</ele>
        <time>2018-01-30T13:24:49Z</time>
      </trkpt>
      <trkpt lat="45.660115684495" lon="6.878231899346">
        <ele>1860</ele>
        <time>2018-01-30T13:24:52Z</time>
      </trkpt>
      <trkpt lat="45.660086934578" lon="6.878214967908">
        <ele>1861.2</ele>
        <time>2018-01-30T13:24:54Z</time>
      </trkpt>
      <trkpt lat="45.660057178833" lon="6.878195857176">
        <ele>1862.6</ele>
        <time>2018-01-30T13:24:56Z</time>
      </trkpt>
      <trkpt lat="45.656938022386" lon="6.875525551474">
        <ele>2019.6</ele>
        <time>2018-01-30T13:29:57Z</time>
      </trkpt>
      <trkpt lat="45.65681531137" lon="6.875285410039">
        <ele>2019.6</ele>
        <time>2018-01-30T13:30:03Z</time>
      </trkpt>
      <trkpt lat="45.656669633948" lon="6.875007130959">
        <ele>2018.4</ele>
        <time>2018-01-30T13:30:08Z</time>
      </trkpt>
      <trkpt lat="45.656604506585" lon="6.874784004781">
        <ele>2017.4</ele>
        <time>2018-01-30T13:30:11Z</time>
      </trkpt>
      <trkpt lat="45.656600315635" lon="6.874621060645">
        <ele>2016.8</ele>
        <time>2018-01-30T13:30:13Z</time>
      </trkpt>
      <trkpt lat="45.656628646457" lon="6.874433808999">
        <ele>2016</ele>
        <time>2018-01-30T13:30:15Z</time>
      </trkpt>
      <trkpt lat="45.656613978132" lon="6.87423255958">
        <ele>2014.6</ele>
        <time>2018-01-30T13:30:17Z</time>
      </trkpt>
      <trkpt lat="45.656558238497" lon="6.874125606536">
        <ele>2012.6</ele>
        <time>2018-01-30T13:30:19Z</time>
      </trkpt>
      <trkpt lat="45.656492524401" lon="6.874147231838">
        <ele>2011.4</ele>
        <time>2018-01-30T13:30:20Z</time>
      </trkpt>
      <trkpt lat="45.656421194432" lon="6.874139855766">
        <ele>2009.6</ele>
        <time>2018-01-30T13:30:21Z</time>
      </trkpt>
      <trkpt lat="45.656349026273" lon="6.874130887133">
        <ele>2007.8</ele>
        <time>2018-01-30T13:30:22Z</time>
      </trkpt>
      <trkpt lat="45.656266464558" lon="6.874130719495">
        <ele>2005.2</ele>
        <time>2018-01-30T13:30:23Z</time>
      </trkpt>
      <trkpt lat="45.656182394101" lon="6.874093755316">
        <ele>2002.2</ele>
        <time>2018-01-30T13:30:24Z</time>
      </trkpt>
      <trkpt lat="45.656095725255" lon="6.874039608242">
        <ele>1999</ele>
        <time>2018-01-30T13:30:25Z</time>
      </trkpt>
      <trkpt lat="45.656007212391" lon="6.873998956027">
        <ele>1995.8</ele>
        <time>2018-01-30T13:30:26Z</time>
      </trkpt>
      <trkpt lat="45.65588911142" lon="6.873956040699">
        <ele>1992.4</ele>
        <time>2018-01-30T13:30:27Z</time>
      </trkpt>
      <trkpt lat="45.655742931084" lon="6.873897451218">
        <ele>1988.8</ele>
        <time>2018-01-30T13:30:28Z</time>
      </trkpt>
      <trkpt lat="45.655586021916" lon="6.873879346314">
        <ele>1985</ele>
        <time>2018-01-30T13:30:29Z</time>
      </trkpt>
      <trkpt lat="45.655433052241" lon="6.873865180903">
        <ele>1980.2</ele>
        <time>2018-01-30T13:30:30Z</time>
      </trkpt>
      <trkpt lat="45.655433052241" lon="6.873865180903">
        <ele>1975.2</ele>
        <time>2018-01-30T13:30:31Z</time>
      </trkpt>
      <trkpt lat="45.655203555819" lon="6.873723107698">
        <ele>1971.4</ele>
        <time>2018-01-30T13:30:32Z</time>
      </trkpt>
      <trkpt lat="45.655203555819" lon="6.873723107698">
        <ele>1969</ele>
        <time>2018-01-30T13:30:33Z</time>
      </trkpt>
      <trkpt lat="45.655007251721" lon="6.873591428049">
        <ele>1967</ele>
        <time>2018-01-30T13:30:34Z</time>
      </trkpt>
      <trkpt lat="45.654909434948" lon="6.873529988722">
        <ele>1964.8</ele>
        <time>2018-01-30T13:30:35Z</time>
      </trkpt>
      <trkpt lat="45.654815641487" lon="6.873468046481">
        <ele>1963</ele>
        <time>2018-01-30T13:30:36Z</time>
      </trkpt>
      <trkpt lat="45.654815641487" lon="6.873468046481">
        <ele>1961.2</ele>
        <time>2018-01-30T13:30:37Z</time>
      </trkpt>
      <trkpt lat="45.654731403392" lon="6.873389759535">
        <ele>1959.6</ele>
        <time>2018-01-30T13:30:38Z</time>
      </trkpt>
      <trkpt lat="45.654645991831" lon="6.873322536697">
        <ele>1957.4</ele>
        <time>2018-01-30T13:30:39Z</time>
      </trkpt>
      <trkpt lat="45.654560747908" lon="6.873319603032">
        <ele>1955</ele>
        <time>2018-01-30T13:30:40Z</time>
      </trkpt>
      <trkpt lat="45.654350948951" lon="6.873345167827">
        <ele>1952.2</ele>
        <time>2018-01-30T13:30:41Z</time>
      </trkpt>
      <trkpt lat="45.654233350894" lon="6.873381377635">
        <ele>1948.4</ele>
        <time>2018-01-30T13:30:42Z</time>
      </trkpt>
      <trkpt lat="45.654114327914" lon="6.873454635441">
        <ele>1944</ele>
        <time>2018-01-30T13:30:43Z</time>
      </trkpt>
      <trkpt lat="45.654001339902" lon="6.873512386732">
        <ele>1939.8</ele>
        <time>2018-01-30T13:30:44Z</time>
      </trkpt>
      <trkpt lat="45.653890363546" lon="6.873586734185">
        <ele>1936.4</ele>
        <time>2018-01-30T13:30:45Z</time>
      </trkpt>
      <trkpt lat="45.653779135733" lon="6.873651190996">
        <ele>1932.8</ele>
        <time>2018-01-30T13:30:46Z</time>
      </trkpt>
      <trkpt lat="45.653664387522" lon="6.873685472967">
        <ele>1928.8</ele>
        <time>2018-01-30T13:30:47Z</time>
      </trkpt>
      <trkpt lat="45.653664387522" lon="6.873685472967">
        <ele>1925</ele>
        <time>2018-01-30T13:30:48Z</time>
      </trkpt>
      <trkpt lat="45.6535522377" lon="6.873694944514">
        <ele>1921</ele>
        <time>2018-01-30T13:30:49Z</time>
      </trkpt>
      <trkpt lat="45.653437489489" lon="6.873674576497">
        <ele>1917.8</ele>
        <time>2018-01-30T13:30:50Z</time>
      </trkpt>
      <trkpt lat="45.653222409935" lon="6.873620848518">
        <ele>1914.6</ele>
        <time>2018-01-30T13:30:51Z</time>
      </trkpt>
      <trkpt lat="45.65310212967" lon="6.873617914853">
        <ele>1912</ele>
        <time>2018-01-30T13:30:52Z</time>
      </trkpt>
      <trkpt lat="45.65310212967" lon="6.873617914853">
        <ele>1909.2</ele>
        <time>2018-01-30T13:30:53Z</time>
      </trkpt>
      <trkpt lat="45.65283474706" lon="6.873555721155">
        <ele>1906.2</ele>
        <time>2018-01-30T13:30:54Z</time>
      </trkpt>
      <trkpt lat="45.652707425999" lon="6.873561420847">
        <ele>1902.6</ele>
        <time>2018-01-30T13:30:55Z</time>
      </trkpt>
      <trkpt lat="45.652582619508" lon="6.873566701444">
        <ele>1898</ele>
        <time>2018-01-30T13:30:56Z</time>
      </trkpt>
      <trkpt lat="45.652582619508" lon="6.873566701444">
        <ele>1893.6</ele>
        <time>2018-01-30T13:30:57Z</time>
      </trkpt>
      <trkpt lat="45.652458651207" lon="6.87361565174">
        <ele>1889.8</ele>
        <time>2018-01-30T13:30:58Z</time>
      </trkpt>
      <trkpt lat="45.652321104228" lon="6.873722688603">
        <ele>1886.4</ele>
        <time>2018-01-30T13:30:59Z</time>
      </trkpt>
      <trkpt lat="45.652170313847" lon="6.873818326082">
        <ele>1882.6</ele>
        <time>2018-01-30T13:31:00Z</time>
      </trkpt>
      <trkpt lat="45.652007369711" lon="6.873888650223">
        <ele>1878.6</ele>
        <time>2018-01-30T13:31:01Z</time>
      </trkpt>
      <trkpt lat="45.651858926262" lon="6.873944725134">
        <ele>1874</ele>
        <time>2018-01-30T13:31:02Z</time>
      </trkpt>
      <trkpt lat="45.651611660212" lon="6.874182519637">
        <ele>1869.6</ele>
        <time>2018-01-30T13:31:03Z</time>
      </trkpt>
      <trkpt lat="45.65150370134" lon="6.874233649227">
        <ele>1866</ele>
        <time>2018-01-30T13:31:04Z</time>
      </trkpt>
      <trkpt lat="45.651391886794" lon="6.87426608718">
        <ele>1861.6</ele>
        <time>2018-01-30T13:31:05Z</time>
      </trkpt>
      <trkpt lat="45.651284849931" lon="6.87435409713">
        <ele>1857.2</ele>
        <time>2018-01-30T13:31:06Z</time>
      </trkpt>
      <trkpt lat="45.651284849931" lon="6.87435409713">
        <ele>1853.2</ele>
        <time>2018-01-30T13:31:07Z</time>
      </trkpt>
      <trkpt lat="45.651033812026" lon="6.874581498077">
        <ele>1850.4</ele>
        <time>2018-01-30T13:31:08Z</time>
      </trkpt>
      <trkpt lat="45.651033812026" lon="6.874581498077">
        <ele>1848.4</ele>
        <time>2018-01-30T13:31:09Z</time>
      </trkpt>
      <trkpt lat="45.650903892576" lon="6.874645535793">
        <ele>1845</ele>
        <time>2018-01-30T13:31:10Z</time>
      </trkpt>
      <trkpt lat="45.650774392221" lon="6.874752405018">
        <ele>1841</ele>
        <time>2018-01-30T13:31:11Z</time>
      </trkpt>
      <trkpt lat="45.650641287649" lon="6.874863465193">
        <ele>1837.4</ele>
        <time>2018-01-30T13:31:12Z</time>
      </trkpt>
      <trkpt lat="45.650509440362" lon="6.874968741857">
        <ele>1834</ele>
        <time>2018-01-30T13:31:13Z</time>
      </trkpt>
      <trkpt lat="45.650367283338" lon="6.875049375735">
        <ele>1831.4</ele>
        <time>2018-01-30T13:31:14Z</time>
      </trkpt>
      <trkpt lat="45.650220683907" lon="6.875095308547">
        <ele>1829.2</ele>
        <time>2018-01-30T13:31:15Z</time>
      </trkpt>
      <trkpt lat="45.649919438421" lon="6.874986260028">
        <ele>1825.4</ele>
        <time>2018-01-30T13:31:16Z</time>
      </trkpt>
      <trkpt lat="45.649773844818" lon="6.874898585354">
        <ele>1820.2</ele>
        <time>2018-01-30T13:31:17Z</time>
      </trkpt>
      <trkpt lat="45.649624982274" lon="6.874826081919">
        <ele>1815</ele>
        <time>2018-01-30T13:31:18Z</time>
      </trkpt>
      <trkpt lat="45.649624982274" lon="6.874826081919">
        <ele>1810.8</ele>
        <time>2018-01-30T13:31:19Z</time>
      </trkpt>
      <trkpt lat="45.649464301251" lon="6.874743771661">
        <ele>1807</ele>
        <time>2018-01-30T13:31:20Z</time>
      </trkpt>
      <trkpt lat="45.649148722716" lon="6.87455107178">
        <ele>1803.2</ele>
        <time>2018-01-30T13:31:21Z</time>
      </trkpt>
      <trkpt lat="45.649148722716" lon="6.87455107178">
        <ele>1799</ele>
        <time>2018-01-30T13:31:22Z</time>
      </trkpt>
      <trkpt lat="45.64900002781" lon="6.874460714898">
        <ele>1795.2</ele>
        <time>2018-01-30T13:31:23Z</time>
      </trkpt>
      <trkpt lat="45.648848650696" lon="6.874408411842">
        <ele>1791.2</ele>
        <time>2018-01-30T13:31:24Z</time>
      </trkpt>
      <trkpt lat="45.64868989751" lon="6.874388882015">
        <ele>1787.4</ele>
        <time>2018-01-30T13:31:25Z</time>
      </trkpt>
      <trkpt lat="45.648546986115" lon="6.87432895143">
        <ele>1784</ele>
        <time>2018-01-30T13:31:26Z</time>
      </trkpt>
      <trkpt lat="45.648397620657" lon="6.874322748824">
        <ele>1780.6</ele>
        <time>2018-01-30T13:31:27Z</time>
      </trkpt>
      <trkpt lat="45.648081958303" lon="6.874356024967">
        <ele>1777.2</ele>
        <time>2018-01-30T13:31:28Z</time>
      </trkpt>
      <trkpt lat="45.647927731343" lon="6.874397934467">
        <ele>1773.8</ele>
        <time>2018-01-30T13:31:29Z</time>
      </trkpt>
      <trkpt lat="45.647927731343" lon="6.874397934467">
        <ele>1770.8</ele>
        <time>2018-01-30T13:31:30Z</time>
      </trkpt>
      <trkpt lat="45.647645261313" lon="6.874464905848">
        <ele>1767.4</ele>
        <time>2018-01-30T13:31:31Z</time>
      </trkpt>
      <trkpt lat="45.647645261313" lon="6.874464905848">
        <ele>1762.8</ele>
        <time>2018-01-30T13:31:32Z</time>
      </trkpt>
      <trkpt lat="45.647396235064" lon="6.874642602128">
        <ele>1758.2</ele>
        <time>2018-01-30T13:31:33Z</time>
      </trkpt>
      <trkpt lat="45.647396235064" lon="6.874642602128">
        <ele>1753.6</ele>
        <time>2018-01-30T13:31:34Z</time>
      </trkpt>
      <trkpt lat="45.647181071691" lon="6.874905039417">
        <ele>1750</ele>
        <time>2018-01-30T13:31:35Z</time>
      </trkpt>
      <trkpt lat="45.647067413127" lon="6.874987182037">
        <ele>1745.6</ele>
        <time>2018-01-30T13:31:36Z</time>
      </trkpt>
      <trkpt lat="45.64696574068" lon="6.875089608855">
        <ele>1741</ele>
        <time>2018-01-30T13:31:37Z</time>
      </trkpt>
      <trkpt lat="45.646866247527" lon="6.875215421174">
        <ele>1736.4</ele>
        <time>2018-01-30T13:31:38Z</time>
      </trkpt>
      <trkpt lat="45.646866247527" lon="6.875215421174">
        <ele>1733.2</ele>
        <time>2018-01-30T13:31:39Z</time>
      </trkpt>
      <trkpt lat="45.646784607821" lon="6.875363529347">
        <ele>1730.6</ele>
        <time>2018-01-30T13:31:40Z</time>
      </trkpt>
      <trkpt lat="45.646605151342" lon="6.875619596392">
        <ele>1728</ele>
        <time>2018-01-30T13:31:41Z</time>
      </trkpt>
      <trkpt lat="45.646605151342" lon="6.875619596392">
        <ele>1724.2</ele>
        <time>2018-01-30T13:31:42Z</time>
      </trkpt>
      <trkpt lat="45.646511022605" lon="6.875752700964">
        <ele>1721</ele>
        <time>2018-01-30T13:31:43Z</time>
      </trkpt>
      <trkpt lat="45.646401303534" lon="6.875833334842">
        <ele>1716.4</ele>
        <time>2018-01-30T13:31:44Z</time>
      </trkpt>
      <trkpt lat="45.646198042459" lon="6.876040954505">
        <ele>1711.8</ele>
        <time>2018-01-30T13:31:45Z</time>
      </trkpt>
      <trkpt lat="45.646198042459" lon="6.876040954505">
        <ele>1706.6</ele>
        <time>2018-01-30T13:31:46Z</time>
      </trkpt>
      <trkpt lat="45.646098968401" lon="6.876166934462">
        <ele>1701.2</ele>
        <time>2018-01-30T13:31:47Z</time>
      </trkpt>
      <trkpt lat="45.646010623175" lon="6.876298614111">
        <ele>1695.2</ele>
        <time>2018-01-30T13:31:48Z</time>
      </trkpt>
      <trkpt lat="45.645872573282" lon="6.876670686652">
        <ele>1689</ele>
        <time>2018-01-30T13:31:49Z</time>
      </trkpt>
      <trkpt lat="45.645872573282" lon="6.876670686652">
        <ele>1683.8</ele>
        <time>2018-01-30T13:31:50Z</time>
      </trkpt>
      <trkpt lat="45.645705354377" lon="6.877056673147">
        <ele>1678.4</ele>
        <time>2018-01-30T13:31:51Z</time>
      </trkpt>
      <trkpt lat="45.645581972809" lon="6.877228502097">
        <ele>1672.8</ele>
        <time>2018-01-30T13:31:52Z</time>
      </trkpt>
      <trkpt lat="45.645437133577" lon="6.87732464249">
        <ele>1667.4</ele>
        <time>2018-01-30T13:31:53Z</time>
      </trkpt>
      <trkpt lat="45.645437133577" lon="6.87732464249">
        <ele>1663</ele>
        <time>2018-01-30T13:31:54Z</time>
      </trkpt>
      <trkpt lat="45.645288690128" lon="6.877385662722">
        <ele>1659.2</ele>
        <time>2018-01-30T13:31:55Z</time>
      </trkpt>
      <trkpt lat="45.645167152578" lon="6.877416424295">
        <ele>1655.6</ele>
        <time>2018-01-30T13:31:56Z</time>
      </trkpt>
      <trkpt lat="45.645065312493" lon="6.877463111478">
        <ele>1652.8</ele>
        <time>2018-01-30T13:31:57Z</time>
      </trkpt>
      <trkpt lat="45.644981242036" lon="6.877500159476">
        <ele>1650.6</ele>
        <time>2018-01-30T13:31:58Z</time>
      </trkpt>
      <trkpt lat="45.645022229527" lon="6.877412568621">
        <ele>1648.8</ele>
        <time>2018-01-30T13:31:59Z</time>
      </trkpt>
      <trkpt lat="45.645042010811" lon="6.877353392407">
        <ele>1647.4</ele>
        <time>2018-01-30T13:32:00Z</time>
      </trkpt>
      <trkpt lat="45.645040250612" lon="6.877329084897">
        <ele>1646.2</ele>
        <time>2018-01-30T13:32:01Z</time>
      </trkpt>
      <trkpt lat="45.645040082974" lon="6.87733134801">
        <ele>1645.2</ele>
        <time>2018-01-30T13:32:03Z</time>
      </trkpt>
      <trkpt lat="45.645040082974" lon="6.87733134801">
        <ele>1644.8</ele>
        <time>2018-01-30T13:32:04Z</time>
      </trkpt>
      <trkpt lat="45.645035975843" lon="6.877334281675">
        <ele>1644.6</ele>
        <time>2018-01-30T13:32:06Z</time>
      </trkpt>
      <trkpt lat="45.644398029434" lon="6.876979894943">
        <ele>1643.4</ele>
        <time>2018-01-30T13:33:06Z</time>
      </trkpt>
      <trkpt lat="45.644255453315" lon="6.876792810935">
        <ele>1641.6</ele>
        <time>2018-01-30T13:33:08Z</time>
      </trkpt>
      <trkpt lat="45.644185380631" lon="6.876692563411">
        <ele>1640.2</ele>
        <time>2018-01-30T13:33:09Z</time>
      </trkpt>
      <trkpt lat="45.644115224128" lon="6.876585191272">
        <ele>1639</ele>
        <time>2018-01-30T13:33:10Z</time>
      </trkpt>
      <trkpt lat="45.644115224128" lon="6.876585191272">
        <ele>1637.4</ele>
        <time>2018-01-30T13:33:11Z</time>
      </trkpt>
      <trkpt lat="45.644044229435" lon="6.87647304145">
        <ele>1636.2</ele>
        <time>2018-01-30T13:33:12Z</time>
      </trkpt>
      <trkpt lat="45.643900647488" lon="6.876253603308">
        <ele>1635</ele>
        <time>2018-01-30T13:33:13Z</time>
      </trkpt>
      <trkpt lat="45.643773326427" lon="6.876026369999">
        <ele>1633</ele>
        <time>2018-01-30T13:33:15Z</time>
      </trkpt>
      <trkpt lat="45.643659164949" lon="6.875795448654">
        <ele>1631.6</ele>
        <time>2018-01-30T13:33:17Z</time>
      </trkpt>
      <trkpt lat="45.643549613516" lon="6.875568466802">
        <ele>1630.2</ele>
        <time>2018-01-30T13:33:19Z</time>
      </trkpt>
      <trkpt lat="45.643429333251" lon="6.875368474668">
        <ele>1628.6</ele>
        <time>2018-01-30T13:33:21Z</time>
      </trkpt>
      <trkpt lat="45.643367223372" lon="6.875274932664">
        <ele>1627.6</ele>
        <time>2018-01-30T13:33:23Z</time>
      </trkpt>
      <trkpt lat="45.643163794659" lon="6.874977878128">
        <ele>1626.2</ele>
        <time>2018-01-30T13:33:25Z</time>
      </trkpt>
      <trkpt lat="45.643025912404" lon="6.874798086373">
        <ele>1624.8</ele>
        <time>2018-01-30T13:33:27Z</time>
      </trkpt>
      <trkpt lat="45.642861878621" lon="6.874626341242">
        <ele>1622.8</ele>
        <time>2018-01-30T13:33:29Z</time>
      </trkpt>
      <trkpt lat="45.642679572296" lon="6.874463648563">
        <ele>1620.8</ele>
        <time>2018-01-30T13:33:31Z</time>
      </trkpt>
      <trkpt lat="45.642583515722" lon="6.874385445436">
        <ele>1619.8</ele>
        <time>2018-01-30T13:33:32Z</time>
      </trkpt>
      <trkpt lat="45.642484190207" lon="6.874305314472">
        <ele>1618.8</ele>
        <time>2018-01-30T13:33:33Z</time>
      </trkpt>
      <trkpt lat="45.642383775045" lon="6.874219064721">
        <ele>1617.8</ele>
        <time>2018-01-30T13:33:34Z</time>
      </trkpt>
      <trkpt lat="45.642282354055" lon="6.874133904617">
        <ele>1616.6</ele>
        <time>2018-01-30T13:33:35Z</time>
      </trkpt>
      <trkpt lat="45.642184872558" lon="6.874044972658">
        <ele>1615.4</ele>
        <time>2018-01-30T13:33:36Z</time>
      </trkpt>
      <trkpt lat="45.642089318898" lon="6.873958555269">
        <ele>1614.4</ele>
        <time>2018-01-30T13:33:37Z</time>
      </trkpt>
      <trkpt lat="45.641984880424" lon="6.873866941102">
        <ele>1613.2</ele>
        <time>2018-01-30T13:33:38Z</time>
      </trkpt>
      <trkpt lat="45.641879100846" lon="6.873769208148">
        <ele>1612.2</ele>
        <time>2018-01-30T13:33:39Z</time>
      </trkpt>
      <trkpt lat="45.641778266589" lon="6.873665691683">
        <ele>1611</ele>
        <time>2018-01-30T13:33:40Z</time>
      </trkpt>
      <trkpt lat="45.641685898051" lon="6.873543483581">
        <ele>1609.8</ele>
        <time>2018-01-30T13:33:41Z</time>
      </trkpt>
      <trkpt lat="45.641596966092" lon="6.873422448945">
        <ele>1608.6</ele>
        <time>2018-01-30T13:33:42Z</time>
      </trkpt>
      <trkpt lat="45.641517757137" lon="6.873301246671">
        <ele>1607.4</ele>
        <time>2018-01-30T13:33:43Z</time>
      </trkpt>
      <trkpt lat="45.641449444652" lon="6.873160933665">
        <ele>1606.2</ele>
        <time>2018-01-30T13:33:44Z</time>
      </trkpt>
      <trkpt lat="45.6413901008" lon="6.873021626487">
        <ele>1605</ele>
        <time>2018-01-30T13:33:45Z</time>
      </trkpt>
      <trkpt lat="45.641330086396" lon="6.872881648757">
        <ele>1603.8</ele>
        <time>2018-01-30T13:33:46Z</time>
      </trkpt>
      <trkpt lat="45.641270994001" lon="6.872744688511">
        <ele>1602.8</ele>
        <time>2018-01-30T13:33:47Z</time>
      </trkpt>
      <trkpt lat="45.64120066986" lon="6.872617451269">
        <ele>1601.8</ele>
        <time>2018-01-30T13:33:48Z</time>
      </trkpt>
      <trkpt lat="45.641123472561" lon="6.872508151293">
        <ele>1600.6</ele>
        <time>2018-01-30T13:33:49Z</time>
      </trkpt>
      <trkpt lat="45.641037474267" lon="6.872414357832">
        <ele>1599.4</ele>
        <time>2018-01-30T13:33:50Z</time>
      </trkpt>
      <trkpt lat="45.640938148752" lon="6.872346212985">
        <ele>1598.2</ele>
        <time>2018-01-30T13:33:51Z</time>
      </trkpt>
      <trkpt lat="45.640846869861" lon="6.87227203317">
        <ele>1597</ele>
        <time>2018-01-30T13:33:52Z</time>
      </trkpt>
      <trkpt lat="45.640846869861" lon="6.87227203317">
        <ele>1595.8</ele>
        <time>2018-01-30T13:33:53Z</time>
      </trkpt>
      <trkpt lat="45.64063908256" lon="6.872094253071">
        <ele>1595</ele>
        <time>2018-01-30T13:33:54Z</time>
      </trkpt>
      <trkpt lat="45.640559370691" lon="6.871982522344">
        <ele>1594</ele>
        <time>2018-01-30T13:33:55Z</time>
      </trkpt>
      <trkpt lat="45.64049910483" lon="6.871871881264">
        <ele>1592.6</ele>
        <time>2018-01-30T13:33:57Z</time>
      </trkpt>
      <trkpt lat="45.640341106015" lon="6.871483631656">
        <ele>1591</ele>
        <time>2018-01-30T13:33:59Z</time>
      </trkpt>
      <trkpt lat="45.640274386091" lon="6.871361675011">
        <ele>1590</ele>
        <time>2018-01-30T13:34:00Z</time>
      </trkpt>
      <trkpt lat="45.64020154738" lon="6.871266288989">
        <ele>1589.2</ele>
        <time>2018-01-30T13:34:01Z</time>
      </trkpt>
      <trkpt lat="45.640110352308" lon="6.871215410856">
        <ele>1588</ele>
        <time>2018-01-30T13:34:02Z</time>
      </trkpt>
      <trkpt lat="45.640009937146" lon="6.871186828577">
        <ele>1586.6</ele>
        <time>2018-01-30T13:34:03Z</time>
      </trkpt>
      <trkpt lat="45.639892422908" lon="6.871167885483">
        <ele>1585.4</ele>
        <time>2018-01-30T13:34:04Z</time>
      </trkpt>
      <trkpt lat="45.639792091565" lon="6.871138465014">
        <ele>1584</ele>
        <time>2018-01-30T13:34:05Z</time>
      </trkpt>
      <trkpt lat="45.639694358611" lon="6.871100159731">
        <ele>1583</ele>
        <time>2018-01-30T13:34:06Z</time>
      </trkpt>
      <trkpt lat="45.639505765861" lon="6.870988261366">
        <ele>1581.4</ele>
        <time>2018-01-30T13:34:08Z</time>
      </trkpt>
      <trkpt lat="45.639341648259" lon="6.870817102968">
        <ele>1580</ele>
        <time>2018-01-30T13:34:10Z</time>
      </trkpt>
      <trkpt lat="45.639217428501" lon="6.870609567124">
        <ele>1578.2</ele>
        <time>2018-01-30T13:34:12Z</time>
      </trkpt>
      <trkpt lat="45.639096980598" lon="6.870405467859">
        <ele>1576.6</ele>
        <time>2018-01-30T13:34:14Z</time>
      </trkpt>
      <trkpt lat="45.63893839505" lon="6.87022601138">
        <ele>1575</ele>
        <time>2018-01-30T13:34:16Z</time>
      </trkpt>
      <trkpt lat="45.638845523598" lon="6.870146634787">
        <ele>1573</ele>
        <time>2018-01-30T13:34:18Z</time>
      </trkpt>
      <trkpt lat="45.638637820116" lon="6.870023588495">
        <ele>1572</ele>
        <time>2018-01-30T13:34:19Z</time>
      </trkpt>
      <trkpt lat="45.638532124357" lon="6.869978661511">
        <ele>1570.8</ele>
        <time>2018-01-30T13:34:20Z</time>
      </trkpt>
      <trkpt lat="45.638321654848" lon="6.869892914674">
        <ele>1569</ele>
        <time>2018-01-30T13:34:22Z</time>
      </trkpt>
      <trkpt lat="45.638110430968" lon="6.869772969685">
        <ele>1567</ele>
        <time>2018-01-30T13:34:24Z</time>
      </trkpt>
      <trkpt lat="45.637997023861" lon="6.869711195082">
        <ele>1565.6</ele>
        <time>2018-01-30T13:34:25Z</time>
      </trkpt>
      <trkpt lat="45.637886215143" lon="6.869667273926">
        <ele>1564.2</ele>
        <time>2018-01-30T13:34:26Z</time>
      </trkpt>
      <trkpt lat="45.637665687354" lon="6.869631650851">
        <ele>1562.4</ele>
        <time>2018-01-30T13:34:28Z</time>
      </trkpt>
      <trkpt lat="45.637426803204" lon="6.869611953386">
        <ele>1560.2</ele>
        <time>2018-01-30T13:34:30Z</time>
      </trkpt>
      <trkpt lat="45.637210131089" lon="6.869574821569">
        <ele>1558.6</ele>
        <time>2018-01-30T13:34:32Z</time>
      </trkpt>
      <trkpt lat="45.63700301434" lon="6.869532995888">
        <ele>1557.4</ele>
        <time>2018-01-30T13:34:34Z</time>
      </trkpt>
      <trkpt lat="45.63678927589" lon="6.869506676722">
        <ele>1555.6</ele>
        <time>2018-01-30T13:34:36Z</time>
      </trkpt>
      <trkpt lat="45.63667528205" lon="6.869479603185">
        <ele>1554.6</ele>
        <time>2018-01-30T13:34:37Z</time>
      </trkpt>
      <trkpt lat="45.636438828651" lon="6.869434927658">
        <ele>1552.6</ele>
        <time>2018-01-30T13:34:39Z</time>
      </trkpt>
      <trkpt lat="45.636210840971" lon="6.869381283498">
        <ele>1550.6</ele>
        <time>2018-01-30T13:34:41Z</time>
      </trkpt>
      <trkpt lat="45.635996934883" lon="6.869296961584">
        <ele>1548.6</ele>
        <time>2018-01-30T13:34:43Z</time>
      </trkpt>
      <trkpt lat="45.635895513893" lon="6.86922772709">
        <ele>1547.8</ele>
        <time>2018-01-30T13:34:44Z</time>
      </trkpt>
      <trkpt lat="45.635806833391" lon="6.869143237538">
        <ele>1546.8</ele>
        <time>2018-01-30T13:34:45Z</time>
      </trkpt>
      <trkpt lat="45.635732402119" lon="6.86903913434">
        <ele>1546</ele>
        <time>2018-01-30T13:34:46Z</time>
      </trkpt>
      <trkpt lat="45.635674734647" lon="6.868917429152">
        <ele>1545.4</ele>
        <time>2018-01-30T13:34:47Z</time>
      </trkpt>
      <trkpt lat="45.635633160423" lon="6.868782564381">
        <ele>1544.8</ele>
        <time>2018-01-30T13:34:48Z</time>
      </trkpt>
      <trkpt lat="45.635584880679" lon="6.868661445926">
        <ele>1544</ele>
        <time>2018-01-30T13:34:49Z</time>
      </trkpt>
      <trkpt lat="45.635523944266" lon="6.868558683832">
        <ele>1543.2</ele>
        <time>2018-01-30T13:34:50Z</time>
      </trkpt>
      <trkpt lat="45.635448842442" lon="6.868492383003">
        <ele>1542</ele>
        <time>2018-01-30T13:34:51Z</time>
      </trkpt>
      <trkpt lat="45.635356306266" lon="6.868450976417">
        <ele>1540.6</ele>
        <time>2018-01-30T13:34:52Z</time>
      </trkpt>
      <trkpt lat="45.635240468408" lon="6.868470925339">
        <ele>1538.6</ele>
        <time>2018-01-30T13:34:53Z</time>
      </trkpt>
      <trkpt lat="45.635102083239" lon="6.868543009679">
        <ele>1536.4</ele>
        <time>2018-01-30T13:34:54Z</time>
      </trkpt>
      <trkpt lat="45.634947101908" lon="6.868626577222">
        <ele>1534</ele>
        <time>2018-01-30T13:34:55Z</time>
      </trkpt>
      <trkpt lat="45.634794048414" lon="6.868709474213">
        <ele>1531.4</ele>
        <time>2018-01-30T13:34:56Z</time>
      </trkpt>
      <trkpt lat="45.63464602406" lon="6.868795640145">
        <ele>1529.2</ele>
        <time>2018-01-30T13:34:57Z</time>
      </trkpt>
      <trkpt lat="45.634493641118" lon="6.868880632611">
        <ele>1526.2</ele>
        <time>2018-01-30T13:34:58Z</time>
      </trkpt>
      <trkpt lat="45.634338743606" lon="6.868980125764">
        <ele>1523.4</ele>
        <time>2018-01-30T13:34:59Z</time>
      </trkpt>
      <trkpt lat="45.634174626004" lon="6.869078696908">
        <ele>1520</ele>
        <time>2018-01-30T13:35:00Z</time>
      </trkpt>
      <trkpt lat="45.634004221977" lon="6.869186739599">
        <ele>1517</ele>
        <time>2018-01-30T13:35:01Z</time>
      </trkpt>
      <trkpt lat="45.633834488502" lon="6.869289501693">
        <ele>1513.4</ele>
        <time>2018-01-30T13:35:02Z</time>
      </trkpt>
      <trkpt lat="45.63366701814" lon="6.869386899371">
        <ele>1509.6</ele>
        <time>2018-01-30T13:35:03Z</time>
      </trkpt>
      <trkpt lat="45.633501391796" lon="6.86947499314">
        <ele>1505.8</ele>
        <time>2018-01-30T13:35:04Z</time>
      </trkpt>
      <trkpt lat="45.633342387153" lon="6.869523356703">
        <ele>1502.4</ele>
        <time>2018-01-30T13:35:05Z</time>
      </trkpt>
      <trkpt lat="45.633185226528" lon="6.869569289515">
        <ele>1500</ele>
        <time>2018-01-30T13:35:06Z</time>
      </trkpt>
      <trkpt lat="45.633039465287" lon="6.86959150155">
        <ele>1498.4</ele>
        <time>2018-01-30T13:35:07Z</time>
      </trkpt>
      <trkpt lat="45.63288079592" lon="6.869610109368">
        <ele>1497</ele>
        <time>2018-01-30T13:35:08Z</time>
      </trkpt>
      <trkpt lat="45.632740147638" lon="6.869631567032">
        <ele>1495.6</ele>
        <time>2018-01-30T13:35:09Z</time>
      </trkpt>
      <trkpt lat="45.632607294523" lon="6.869643385511">
        <ele>1494.6</ele>
        <time>2018-01-30T13:35:10Z</time>
      </trkpt>
      <trkpt lat="45.632607294523" lon="6.869643385511">
        <ele>1493.6</ele>
        <time>2018-01-30T13:35:11Z</time>
      </trkpt>
      <trkpt lat="45.632363884147" lon="6.869632824317">
        <ele>1492.2</ele>
        <time>2018-01-30T13:35:12Z</time>
      </trkpt>
      <trkpt lat="45.632363884147" lon="6.869632824317">
        <ele>1490.6</ele>
        <time>2018-01-30T13:35:13Z</time>
      </trkpt>
      <trkpt lat="45.632238910018" lon="6.869477340072">
        <ele>1489.2</ele>
        <time>2018-01-30T13:35:14Z</time>
      </trkpt>
      <trkpt lat="45.632238910018" lon="6.869477340072">
        <ele>1488.2</ele>
        <time>2018-01-30T13:35:15Z</time>
      </trkpt>
      <trkpt lat="45.632251566687" lon="6.869355299608">
        <ele>1487.4</ele>
        <time>2018-01-30T13:35:16Z</time>
      </trkpt>
      <trkpt lat="45.632277047663" lon="6.869347252984">
        <ele>1486.4</ele>
        <time>2018-01-30T13:35:17Z</time>
      </trkpt>
      <trkpt lat="45.632303953562" lon="6.869346917708">
        <ele>1485</ele>
        <time>2018-01-30T13:35:19Z</time>
      </trkpt>
      <trkpt lat="45.63230579758" lon="6.869341972387">
        <ele>1484.6</ele>
        <time>2018-01-30T13:35:20Z</time>
      </trkpt>
      <trkpt lat="45.63233848699" lon="6.86931238428">
        <ele>1484.2</ele>
        <time>2018-01-30T13:35:25Z</time>
      </trkpt>
      <trkpt lat="45.632677702483" lon="6.869165114297">
        <ele>1483</ele>
        <time>2018-01-30T13:35:52Z</time>
      </trkpt>
      <trkpt lat="45.632799575309" lon="6.869092359405">
        <ele>1483.2</ele>
        <time>2018-01-30T13:35:55Z</time>
      </trkpt>
      <trkpt lat="45.632876688789" lon="6.869054054122">
        <ele>1484.6</ele>
        <time>2018-01-30T13:35:57Z</time>
      </trkpt>
      <trkpt lat="45.63291264714" lon="6.869034021381">
        <ele>1485.8</ele>
        <time>2018-01-30T13:35:58Z</time>
      </trkpt>
      <trkpt lat="45.643756562627" lon="6.859633049979">
        <ele>1904.4</ele>
        <time>2018-01-30T13:44:09Z</time>
      </trkpt>
      <trkpt lat="45.643657153293" lon="6.85950472309">
        <ele>1905.8</ele>
        <time>2018-01-30T13:44:10Z</time>
      </trkpt>
      <trkpt lat="45.643555313208" lon="6.859365415912">
        <ele>1904.2</ele>
        <time>2018-01-30T13:44:11Z</time>
      </trkpt>
      <trkpt lat="45.643483396506" lon="6.859198113188">
        <ele>1898.4</ele>
        <time>2018-01-30T13:44:12Z</time>
      </trkpt>
      <trkpt lat="45.643419861704" lon="6.859037515984">
        <ele>1899.8</ele>
        <time>2018-01-30T13:44:13Z</time>
      </trkpt>
      <trkpt lat="45.643172511835" lon="6.85846872025">
        <ele>1896.6</ele>
        <time>2018-01-30T13:44:17Z</time>
      </trkpt>
      <trkpt lat="45.643117023657" lon="6.858348691442">
        <ele>1894.6</ele>
        <time>2018-01-30T13:44:18Z</time>
      </trkpt>
      <trkpt lat="45.643076119985" lon="6.858225142236">
        <ele>1893.2</ele>
        <time>2018-01-30T13:44:19Z</time>
      </trkpt>
      <trkpt lat="45.64304217329" lon="6.858099665193">
        <ele>1891.4</ele>
        <time>2018-01-30T13:44:20Z</time>
      </trkpt>
      <trkpt lat="45.643006717853" lon="6.857967985544">
        <ele>1889.4</ele>
        <time>2018-01-30T13:44:21Z</time>
      </trkpt>
      <trkpt lat="45.642968077294" lon="6.857831863488">
        <ele>1887.6</ele>
        <time>2018-01-30T13:44:22Z</time>
      </trkpt>
      <trkpt lat="45.642903704302" lon="6.857706134988">
        <ele>1884.8</ele>
        <time>2018-01-30T13:44:23Z</time>
      </trkpt>
      <trkpt lat="45.642804043511" lon="6.857614353183">
        <ele>1882.6</ele>
        <time>2018-01-30T13:44:24Z</time>
      </trkpt>
      <trkpt lat="45.642698347752" lon="6.857525505043">
        <ele>1879.6</ele>
        <time>2018-01-30T13:44:25Z</time>
      </trkpt>
      <trkpt lat="45.642580498238" lon="6.857482086801">
        <ele>1875.8</ele>
        <time>2018-01-30T13:44:26Z</time>
      </trkpt>
      <trkpt lat="45.642470443891" lon="6.857473704901">
        <ele>1871.6</ele>
        <time>2018-01-30T13:44:27Z</time>
      </trkpt>
      <trkpt lat="45.642369693453" lon="6.857428107365">
        <ele>1867.4</ele>
        <time>2018-01-30T13:44:28Z</time>
      </trkpt>
      <trkpt lat="45.642270870852" lon="6.857386700779">
        <ele>1864.2</ele>
        <time>2018-01-30T13:44:29Z</time>
      </trkpt>
      <trkpt lat="45.642168863129" lon="6.857341857614">
        <ele>1860.4</ele>
        <time>2018-01-30T13:44:30Z</time>
      </trkpt>
      <trkpt lat="45.642068112691" lon="6.85730028339">
        <ele>1857</ele>
        <time>2018-01-30T13:44:31Z</time>
      </trkpt>
      <trkpt lat="45.641965182959" lon="6.857263067754">
        <ele>1853.4</ele>
        <time>2018-01-30T13:44:32Z</time>
      </trkpt>
      <trkpt lat="45.641850183291" lon="6.857219146598">
        <ele>1850.8</ele>
        <time>2018-01-30T13:44:33Z</time>
      </trkpt>
      <trkpt lat="45.641733423424" lon="6.857169609569">
        <ele>1847.4</ele>
        <time>2018-01-30T13:44:34Z</time>
      </trkpt>
      <trkpt lat="45.641616579738" lon="6.857111942097">
        <ele>1843.4</ele>
        <time>2018-01-30T13:44:35Z</time>
      </trkpt>
      <trkpt lat="45.641500909518" lon="6.85705972286">
        <ele>1839.2</ele>
        <time>2018-01-30T13:44:36Z</time>
      </trkpt>
      <trkpt lat="45.641403176564" lon="6.85706978114">
        <ele>1836.2</ele>
        <time>2018-01-30T13:44:37Z</time>
      </trkpt>
      <trkpt lat="45.641303180497" lon="6.85709744141">
        <ele>1833.6</ele>
        <time>2018-01-30T13:44:38Z</time>
      </trkpt>
      <trkpt lat="45.641210225226" lon="6.857103811654">
        <ele>1831.4</ele>
        <time>2018-01-30T13:44:39Z</time>
      </trkpt>
      <trkpt lat="45.641106038209" lon="6.857096770858">
        <ele>1828.6</ele>
        <time>2018-01-30T13:44:40Z</time>
      </trkpt>
      <trkpt lat="45.641006880332" lon="6.857079085049">
        <ele>1826.4</ele>
        <time>2018-01-30T13:44:41Z</time>
      </trkpt>
      <trkpt lat="45.640908644464" lon="6.857061650697">
        <ele>1823.8</ele>
        <time>2018-01-30T13:44:42Z</time>
      </trkpt>
      <trkpt lat="45.640801523782" lon="6.857029045106">
        <ele>1822</ele>
        <time>2018-01-30T13:44:43Z</time>
      </trkpt>
      <trkpt lat="45.640675376187" lon="6.85698344757">
        <ele>1820.4</ele>
        <time>2018-01-30T13:44:44Z</time>
      </trkpt>
      <trkpt lat="45.640547636031" lon="6.856933575265">
        <ele>1818</ele>
        <time>2018-01-30T13:44:45Z</time>
      </trkpt>
      <trkpt lat="45.640418890047" lon="6.856876494526">
        <ele>1815.2</ele>
        <time>2018-01-30T13:44:46Z</time>
      </trkpt>
      <trkpt lat="45.64028369" lon="6.856797537028">
        <ele>1811.6</ele>
        <time>2018-01-30T13:44:47Z</time>
      </trkpt>
      <trkpt lat="45.640147232668" lon="6.856724949774">
        <ele>1808.2</ele>
        <time>2018-01-30T13:44:48Z</time>
      </trkpt>
      <trkpt lat="45.640017229399" lon="6.856642220421">
        <ele>1804</ele>
        <time>2018-01-30T13:44:49Z</time>
      </trkpt>
      <trkpt lat="45.639895021297" lon="6.856573824117">
        <ele>1800.2</ele>
        <time>2018-01-30T13:44:50Z</time>
      </trkpt>
      <trkpt lat="45.639769125159" lon="6.856509283487">
        <ele>1796.6</ele>
        <time>2018-01-30T13:44:51Z</time>
      </trkpt>
      <trkpt lat="45.639654376948" lon="6.856451029282">
        <ele>1793.8</ele>
        <time>2018-01-30T13:44:52Z</time>
      </trkpt>
      <trkpt lat="45.639538203814" lon="6.856387662118">
        <ele>1790.4</ele>
        <time>2018-01-30T13:44:53Z</time>
      </trkpt>
      <trkpt lat="45.639423455603" lon="6.856324378773">
        <ele>1787.2</ele>
        <time>2018-01-30T13:44:54Z</time>
      </trkpt>
      <trkpt lat="45.639317508387" lon="6.856264196731">
        <ele>1784.2</ele>
        <time>2018-01-30T13:44:55Z</time>
      </trkpt>
      <trkpt lat="45.639218937243" lon="6.856204852879">
        <ele>1781.4</ele>
        <time>2018-01-30T13:44:56Z</time>
      </trkpt>
      <trkpt lat="45.639121874841" lon="6.856143162095">
        <ele>1779</ele>
        <time>2018-01-30T13:44:57Z</time>
      </trkpt>
      <trkpt lat="45.639021794955" lon="6.856069652832">
        <ele>1776.6</ele>
        <time>2018-01-30T13:44:58Z</time>
      </trkpt>
      <trkpt lat="45.638924313458" lon="6.856004357831">
        <ele>1774.2</ele>
        <time>2018-01-30T13:44:59Z</time>
      </trkpt>
      <trkpt lat="45.638821635183" lon="6.855936883536">
        <ele>1771.6</ele>
        <time>2018-01-30T13:45:00Z</time>
      </trkpt>
      <trkpt lat="45.638713089578" lon="6.855862200807">
        <ele>1768.6</ele>
        <time>2018-01-30T13:45:01Z</time>
      </trkpt>
      <trkpt lat="45.638615021348" lon="6.85580159967">
        <ele>1765.2</ele>
        <time>2018-01-30T13:45:02Z</time>
      </trkpt>
      <trkpt lat="45.638508571218" lon="6.855759857808">
        <ele>1762</ele>
        <time>2018-01-30T13:45:03Z</time>
      </trkpt>
      <trkpt lat="45.638419303983" lon="6.855731526986">
        <ele>1758.6</ele>
        <time>2018-01-30T13:45:04Z</time>
      </trkpt>
      <trkpt lat="45.638328025092" lon="6.855702441793">
        <ele>1755</ele>
        <time>2018-01-30T13:45:05Z</time>
      </trkpt>
      <trkpt lat="45.638230543595" lon="6.855686264726">
        <ele>1751.4</ele>
        <time>2018-01-30T13:45:06Z</time>
      </trkpt>
      <trkpt lat="45.638129206424" lon="6.855665729071">
        <ele>1748</ele>
        <time>2018-01-30T13:45:07Z</time>
      </trkpt>
      <trkpt lat="45.638025941416" lon="6.855625831227">
        <ele>1744.8</ele>
        <time>2018-01-30T13:45:08Z</time>
      </trkpt>
      <trkpt lat="45.637930723032" lon="6.85560462502">
        <ele>1742.2</ele>
        <time>2018-01-30T13:45:09Z</time>
      </trkpt>
      <trkpt lat="45.637839025046" lon="6.855614096567">
        <ele>1739.6</ele>
        <time>2018-01-30T13:45:10Z</time>
      </trkpt>
      <trkpt lat="45.637745483042" lon="6.85561384511">
        <ele>1737.4</ele>
        <time>2018-01-30T13:45:11Z</time>
      </trkpt>
      <trkpt lat="45.637659149472" lon="6.855561374416">
        <ele>1734.8</ele>
        <time>2018-01-30T13:45:12Z</time>
      </trkpt>
      <trkpt lat="45.637573318816" lon="6.855501192374">
        <ele>1732</ele>
        <time>2018-01-30T13:45:13Z</time>
      </trkpt>
      <trkpt lat="45.637517746819" lon="6.855360963187">
        <ele>1729</ele>
        <time>2018-01-30T13:45:14Z</time>
      </trkpt>
      <trkpt lat="45.637424037177" lon="6.85525677617">
        <ele>1726.2</ele>
        <time>2018-01-30T13:45:15Z</time>
      </trkpt>
      <trkpt lat="45.637330914268" lon="6.855162563614">
        <ele>1723</ele>
        <time>2018-01-30T13:45:16Z</time>
      </trkpt>
      <trkpt lat="45.637233013676" lon="6.85510674016">
        <ele>1719.2</ele>
        <time>2018-01-30T13:45:17Z</time>
      </trkpt>
      <trkpt lat="45.637140226043" lon="6.85505980152">
        <ele>1715</ele>
        <time>2018-01-30T13:45:18Z</time>
      </trkpt>
      <trkpt lat="45.637035871388" lon="6.854999368021">
        <ele>1710.6</ele>
        <time>2018-01-30T13:45:19Z</time>
      </trkpt>
      <trkpt lat="45.636925733222" lon="6.85492904388">
        <ele>1706.2</ele>
        <time>2018-01-30T13:45:20Z</time>
      </trkpt>
      <trkpt lat="45.636807883708" lon="6.854863245965">
        <ele>1701</ele>
        <time>2018-01-30T13:45:21Z</time>
      </trkpt>
      <trkpt lat="45.636676623154" lon="6.854797112774">
        <ele>1696.2</ele>
        <time>2018-01-30T13:45:22Z</time>
      </trkpt>
      <trkpt lat="45.636547122799" lon="6.854767105572">
        <ele>1691.4</ele>
        <time>2018-01-30T13:45:23Z</time>
      </trkpt>
      <trkpt lat="45.636408318535" lon="6.854741792234">
        <ele>1687.8</ele>
        <time>2018-01-30T13:45:24Z</time>
      </trkpt>
      <trkpt lat="45.636274124316" lon="6.85465747032">
        <ele>1684.2</ele>
        <time>2018-01-30T13:45:25Z</time>
      </trkpt>
      <trkpt lat="45.636142444667" lon="6.85455604933">
        <ele>1681</ele>
        <time>2018-01-30T13:45:26Z</time>
      </trkpt>
      <trkpt lat="45.636018308728" lon="6.854457226729">
        <ele>1676.8</ele>
        <time>2018-01-30T13:45:27Z</time>
      </trkpt>
      <trkpt lat="45.635898363739" lon="6.854362678897">
        <ele>1672.2</ele>
        <time>2018-01-30T13:45:28Z</time>
      </trkpt>
      <trkpt lat="45.635768276651" lon="6.854284308132">
        <ele>1667.4</ele>
        <time>2018-01-30T13:45:29Z</time>
      </trkpt>
      <trkpt lat="45.63563592645" lon="6.854217672027">
        <ele>1663.4</ele>
        <time>2018-01-30T13:45:30Z</time>
      </trkpt>
      <trkpt lat="45.635509611217" lon="6.85413276338">
        <ele>1659.8</ele>
        <time>2018-01-30T13:45:31Z</time>
      </trkpt>
      <trkpt lat="45.635401065612" lon="6.854048525285">
        <ele>1656.8</ele>
        <time>2018-01-30T13:45:32Z</time>
      </trkpt>
      <trkpt lat="45.635279444243" lon="6.853951881978">
        <ele>1653.8</ele>
        <time>2018-01-30T13:45:33Z</time>
      </trkpt>
      <trkpt lat="45.635153631924" lon="6.853842079088">
        <ele>1651.4</ele>
        <time>2018-01-30T13:45:34Z</time>
      </trkpt>
      <trkpt lat="45.635026394682" lon="6.85373797589">
        <ele>1648.8</ele>
        <time>2018-01-30T13:45:35Z</time>
      </trkpt>
      <trkpt lat="45.634892368101" lon="6.853635465253">
        <ele>1645.4</ele>
        <time>2018-01-30T13:45:36Z</time>
      </trkpt>
      <trkpt lat="45.634764041212" lon="6.853533206073">
        <ele>1641.8</ele>
        <time>2018-01-30T13:45:37Z</time>
      </trkpt>
      <trkpt lat="45.634623560568" lon="6.853432455635">
        <ele>1639</ele>
        <time>2018-01-30T13:45:38Z</time>
      </trkpt>
      <trkpt lat="45.634480230078" lon="6.853333213939">
        <ele>1635.8</ele>
        <time>2018-01-30T13:45:39Z</time>
      </trkpt>
      <trkpt lat="45.634349723895" lon="6.853209748552">
        <ele>1633</ele>
        <time>2018-01-30T13:45:40Z</time>
      </trkpt>
      <trkpt lat="45.634229778906" lon="6.853107070277">
        <ele>1629</ele>
        <time>2018-01-30T13:45:41Z</time>
      </trkpt>
      <trkpt lat="45.634105810605" lon="6.853019982336">
        <ele>1625.6</ele>
        <time>2018-01-30T13:45:42Z</time>
      </trkpt>
      <trkpt lat="45.633986033254" lon="6.852971786411">
        <ele>1622.6</ele>
        <time>2018-01-30T13:45:43Z</time>
      </trkpt>
      <trkpt lat="45.633873464337" lon="6.852933732585">
        <ele>1620.2</ele>
        <time>2018-01-30T13:45:44Z</time>
      </trkpt>
      <trkpt lat="45.633786795491" lon="6.852925183047">
        <ele>1618.2</ele>
        <time>2018-01-30T13:45:45Z</time>
      </trkpt>
      <trkpt lat="45.633733318969" lon="6.852910430903">
        <ele>1616.4</ele>
        <time>2018-01-30T13:45:46Z</time>
      </trkpt>
      <trkpt lat="45.633703479405" lon="6.852894170017">
        <ele>1615</ele>
        <time>2018-01-30T13:45:47Z</time>
      </trkpt>
      <trkpt lat="45.633691744745" lon="6.85288805123">
        <ele>1614</ele>
        <time>2018-01-30T13:45:48Z</time>
      </trkpt>
      <trkpt lat="45.633678920438" lon="6.852880675158">
        <ele>1613</ele>
        <time>2018-01-30T13:45:49Z</time>
      </trkpt>
      <trkpt lat="45.633665425579" lon="6.852871706525">
        <ele>1612.2</ele>
        <time>2018-01-30T13:45:50Z</time>
      </trkpt>
      <trkpt lat="45.633651595444" lon="6.852862989349">
        <ele>1611.2</ele>
        <time>2018-01-30T13:45:52Z</time>
      </trkpt>
      <trkpt lat="45.63364103425" lon="6.852873131448">
        <ele>1610.8</ele>
        <time>2018-01-30T13:45:55Z</time>
      </trkpt>
      <trkpt lat="45.633639525508" lon="6.852876065113">
        <ele>1610.6</ele>
        <time>2018-01-30T13:45:57Z</time>
      </trkpt>
      <trkpt lat="45.634006652728" lon="6.852395279329">
        <ele>1607.4</ele>
        <time>2018-01-30T14:22:42Z</time>
      </trkpt>
      <trkpt lat="45.634025428184" lon="6.852387232705">
        <ele>1607.2</ele>
        <time>2018-01-30T14:22:46Z</time>
      </trkpt>
      <trkpt lat="45.634122490586" lon="6.852350687621">
        <ele>1606.2</ele>
        <time>2018-01-30T14:23:49Z</time>
      </trkpt>
      <trkpt lat="45.634091812832" lon="6.852219762343">
        <ele>1606.2</ele>
        <time>2018-01-30T14:23:52Z</time>
      </trkpt>
      <trkpt lat="45.634118467274" lon="6.852086490133">
        <ele>1605.2</ele>
        <time>2018-01-30T14:23:54Z</time>
      </trkpt>
      <trkpt lat="45.634132632685" lon="6.851883983429">
        <ele>1603.4</ele>
        <time>2018-01-30T14:23:56Z</time>
      </trkpt>
      <trkpt lat="45.634144367345" lon="6.851768732304">
        <ele>1602</ele>
        <time>2018-01-30T14:23:57Z</time>
      </trkpt>
      <trkpt lat="45.63415316834" lon="6.851645937469">
        <ele>1600</ele>
        <time>2018-01-30T14:23:58Z</time>
      </trkpt>
      <trkpt lat="45.634176050927" lon="6.851530015792">
        <ele>1597.8</ele>
        <time>2018-01-30T14:23:59Z</time>
      </trkpt>
      <trkpt lat="45.634176050927" lon="6.851530015792">
        <ele>1595.2</ele>
        <time>2018-01-30T14:24:00Z</time>
      </trkpt>
      <trkpt lat="45.634198346781" lon="6.8514069695">
        <ele>1592.2</ele>
        <time>2018-01-30T14:24:01Z</time>
      </trkpt>
      <trkpt lat="45.6342654858" lon="6.851200020389">
        <ele>1589.4</ele>
        <time>2018-01-30T14:24:02Z</time>
      </trkpt>
      <trkpt lat="45.634300186866" lon="6.85110689748">
        <ele>1586.4</ele>
        <time>2018-01-30T14:24:03Z</time>
      </trkpt>
      <trkpt lat="45.634335390846" lon="6.851020060996">
        <ele>1583.4</ele>
        <time>2018-01-30T14:24:04Z</time>
      </trkpt>
      <trkpt lat="45.634335390846" lon="6.851020060996">
        <ele>1580.4</ele>
        <time>2018-01-30T14:24:05Z</time>
      </trkpt>
      <trkpt lat="45.634429938678" lon="6.850874132117">
        <ele>1577.8</ele>
        <time>2018-01-30T14:24:06Z</time>
      </trkpt>
      <trkpt lat="45.634462963364" lon="6.850784697244">
        <ele>1574.8</ele>
        <time>2018-01-30T14:24:07Z</time>
      </trkpt>
      <trkpt lat="45.634512248936" lon="6.850713031999">
        <ele>1572</ele>
        <time>2018-01-30T14:24:08Z</time>
      </trkpt>
      <trkpt lat="45.634512248936" lon="6.850713031999">
        <ele>1569</ele>
        <time>2018-01-30T14:24:09Z</time>
      </trkpt>
      <trkpt lat="45.634566144553" lon="6.850656454174">
        <ele>1565.8</ele>
        <time>2018-01-30T14:24:10Z</time>
      </trkpt>
      <trkpt lat="45.634610065709" lon="6.850605156946">
        <ele>1562.4</ele>
        <time>2018-01-30T14:24:11Z</time>
      </trkpt>
      <trkpt lat="45.63462004017" lon="6.850505244698">
        <ele>1559.4</ele>
        <time>2018-01-30T14:24:12Z</time>
      </trkpt>
      <trkpt lat="45.63465272958" lon="6.850435591109">
        <ele>1557</ele>
        <time>2018-01-30T14:24:13Z</time>
      </trkpt>
      <trkpt lat="45.634732189992" lon="6.850258481562">
        <ele>1554.2</ele>
        <time>2018-01-30T14:24:14Z</time>
      </trkpt>
      <trkpt lat="45.634769154171" lon="6.850180362254">
        <ele>1550.4</ele>
        <time>2018-01-30T14:24:15Z</time>
      </trkpt>
      <trkpt lat="45.634768148343" lon="6.850063686206">
        <ele>1546.2</ele>
        <time>2018-01-30T14:24:16Z</time>
      </trkpt>
      <trkpt lat="45.634789019274" lon="6.849979699568">
        <ele>1541.6</ele>
        <time>2018-01-30T14:24:17Z</time>
      </trkpt>
      <trkpt lat="45.634802933228" lon="6.849905603572">
        <ele>1537.6</ele>
        <time>2018-01-30T14:24:18Z</time>
      </trkpt>
      <trkpt lat="45.634802933228" lon="6.849905603572">
        <ele>1533.4</ele>
        <time>2018-01-30T14:24:19Z</time>
      </trkpt>
      <trkpt lat="45.634819277933" lon="6.849876686017">
        <ele>1529.6</ele>
        <time>2018-01-30T14:24:20Z</time>
      </trkpt>
      <trkpt lat="45.634828246566" lon="6.849896215844">
        <ele>1526.2</ele>
        <time>2018-01-30T14:24:21Z</time>
      </trkpt>
      <trkpt lat="45.634823804159" lon="6.849917757327">
        <ele>1523.4</ele>
        <time>2018-01-30T14:24:22Z</time>
      </trkpt>
      <trkpt lat="45.63482288215" lon="6.84993343148">
        <ele>1521.6</ele>
        <time>2018-01-30T14:24:23Z</time>
      </trkpt>
      <trkpt lat="45.634825731996" lon="6.849945585235">
        <ele>1520.2</ele>
        <time>2018-01-30T14:24:24Z</time>
      </trkpt>
      <trkpt lat="45.634833108068" lon="6.849962097578">
        <ele>1519</ele>
        <time>2018-01-30T14:24:26Z</time>
      </trkpt>
      <trkpt lat="45.634833610982" lon="6.849958744818">
        <ele>1518.4</ele>
        <time>2018-01-30T14:24:29Z</time>
      </trkpt>
      <trkpt lat="45.634973421074" lon="6.849607040294">
        <ele>1515.8</ele>
        <time>2018-01-30T14:24:48Z</time>
      </trkpt>
      <trkpt lat="45.634973421074" lon="6.849607040294">
        <ele>1513.8</ele>
        <time>2018-01-30T14:24:49Z</time>
      </trkpt>
      <trkpt lat="45.635012899823" lon="6.849364551927">
        <ele>1511</ele>
        <time>2018-01-30T14:24:50Z</time>
      </trkpt>
      <trkpt lat="45.635012899823" lon="6.849364551927">
        <ele>1508.2</ele>
        <time>2018-01-30T14:24:51Z</time>
      </trkpt>
      <trkpt lat="45.635112141519" lon="6.849129439632">
        <ele>1504</ele>
        <time>2018-01-30T14:24:52Z</time>
      </trkpt>
      <trkpt lat="45.635112141519" lon="6.849129439632">
        <ele>1499.8</ele>
        <time>2018-01-30T14:24:53Z</time>
      </trkpt>
      <trkpt lat="45.635162684376" lon="6.848959203243">
        <ele>1495.8</ele>
        <time>2018-01-30T14:24:54Z</time>
      </trkpt>
      <trkpt lat="45.635196966347" lon="6.848759881661">
        <ele>1492.8</ele>
        <time>2018-01-30T14:24:55Z</time>
      </trkpt>
      <trkpt lat="45.635198894184" lon="6.848268031769">
        <ele>1489</ele>
        <time>2018-01-30T14:24:56Z</time>
      </trkpt>
      <trkpt lat="45.635171066276" lon="6.848003499005">
        <ele>1484.2</ele>
        <time>2018-01-30T14:24:57Z</time>
      </trkpt>
      <trkpt lat="45.635102921429" lon="6.847758496068">
        <ele>1479</ele>
        <time>2018-01-30T14:24:58Z</time>
      </trkpt>
      <trkpt lat="45.63501901861" lon="6.847534112605">
        <ele>1474.6</ele>
        <time>2018-01-30T14:24:59Z</time>
      </trkpt>
      <trkpt lat="45.634904270399" lon="6.84742640519">
        <ele>1471.4</ele>
        <time>2018-01-30T14:25:00Z</time>
      </trkpt>
      <trkpt lat="45.634822714512" lon="6.847329929521">
        <ele>1469.2</ele>
        <time>2018-01-30T14:25:01Z</time>
      </trkpt>
      <trkpt lat="45.634822714512" lon="6.847329929521">
        <ele>1468.2</ele>
        <time>2018-01-30T14:25:02Z</time>
      </trkpt>
      <trkpt lat="45.634757168054" lon="6.847234962594">
        <ele>1467.4</ele>
        <time>2018-01-30T14:25:03Z</time>
      </trkpt>
      <trkpt lat="45.634593050452" lon="6.846923072095">
        <ele>1467.2</ele>
        <time>2018-01-30T14:25:06Z</time>
      </trkpt>
      <trkpt lat="45.63452113375" lon="6.846711010025">
        <ele>1467.2</ele>
        <time>2018-01-30T14:25:10Z</time>
      </trkpt>
      <trkpt lat="45.634412588145" lon="6.846458714835">
        <ele>1466.4</ele>
        <time>2018-01-30T14:25:14Z</time>
      </trkpt>
      <trkpt lat="45.634412588145" lon="6.846458714835">
        <ele>1466</ele>
        <time>2018-01-30T14:25:15Z</time>
      </trkpt>
      <trkpt lat="45.634398171277" lon="6.84638872597">
        <ele>1465.6</ele>
        <time>2018-01-30T14:25:16Z</time>
      </trkpt>
      <trkpt lat="45.634459526785" lon="6.846174316968">
        <ele>1464.8</ele>
        <time>2018-01-30T14:25:18Z</time>
      </trkpt>
      <trkpt lat="45.634553906979" lon="6.84604590626">
        <ele>1463.8</ele>
        <time>2018-01-30T14:25:20Z</time>
      </trkpt>
      <trkpt lat="45.634608221691" lon="6.845967451676">
        <ele>1463.2</ele>
        <time>2018-01-30T14:25:21Z</time>
      </trkpt>
      <trkpt lat="45.634668236095" lon="6.845889500006">
        <ele>1462.8</ele>
        <time>2018-01-30T14:25:22Z</time>
      </trkpt>
      <trkpt lat="45.634727496128" lon="6.84579528745">
        <ele>1462</ele>
        <time>2018-01-30T14:25:23Z</time>
      </trkpt>
      <trkpt lat="45.634845848556" lon="6.845589176529">
        <ele>1459.8</ele>
        <time>2018-01-30T14:25:25Z</time>
      </trkpt>
      <trkpt lat="45.634903264571" lon="6.845478870725">
        <ele>1458.6</ele>
        <time>2018-01-30T14:25:26Z</time>
      </trkpt>
      <trkpt lat="45.634903264571" lon="6.845478870725">
        <ele>1457.6</ele>
        <time>2018-01-30T14:25:27Z</time>
      </trkpt>
      <trkpt lat="45.635026729958" lon="6.845334534407">
        <ele>1456</ele>
        <time>2018-01-30T14:25:28Z</time>
      </trkpt>
      <trkpt lat="45.635026729958" lon="6.845334534407">
        <ele>1454</ele>
        <time>2018-01-30T14:25:29Z</time>
      </trkpt>
      <trkpt lat="45.635138125409" lon="6.845264210266">
        <ele>1451.4</ele>
        <time>2018-01-30T14:25:30Z</time>
      </trkpt>
      <trkpt lat="45.635192272483" lon="6.845199669636">
        <ele>1449.4</ele>
        <time>2018-01-30T14:25:31Z</time>
      </trkpt>
      <trkpt lat="45.635192272483" lon="6.845199669636">
        <ele>1447.6</ele>
        <time>2018-01-30T14:25:32Z</time>
      </trkpt>
      <trkpt lat="45.635273996008" lon="6.845032618369">
        <ele>1446</ele>
        <time>2018-01-30T14:25:33Z</time>
      </trkpt>
      <trkpt lat="45.635302997382" lon="6.844929018085">
        <ele>1444</ele>
        <time>2018-01-30T14:25:34Z</time>
      </trkpt>
      <trkpt lat="45.635302997382" lon="6.844929018085">
        <ele>1441.8</ele>
        <time>2018-01-30T14:25:35Z</time>
      </trkpt>
      <trkpt lat="45.635361503044" lon="6.844741012068">
        <ele>1439</ele>
        <time>2018-01-30T14:25:36Z</time>
      </trkpt>
      <trkpt lat="45.635378685939" lon="6.844654427041">
        <ele>1436</ele>
        <time>2018-01-30T14:25:37Z</time>
      </trkpt>
      <trkpt lat="45.635378685939" lon="6.844654427041">
        <ele>1433</ele>
        <time>2018-01-30T14:25:38Z</time>
      </trkpt>
      <trkpt lat="45.635397712852" lon="6.844567590557">
        <ele>1430.2</ele>
        <time>2018-01-30T14:25:39Z</time>
      </trkpt>
      <trkpt lat="45.635414560471" lon="6.844403305317">
        <ele>1427.4</ele>
        <time>2018-01-30T14:25:40Z</time>
      </trkpt>
      <trkpt lat="45.635414560471" lon="6.844403305317">
        <ele>1424.6</ele>
        <time>2018-01-30T14:25:41Z</time>
      </trkpt>
      <trkpt lat="45.635428390606" lon="6.844318648127">
        <ele>1422.2</ele>
        <time>2018-01-30T14:25:42Z</time>
      </trkpt>
      <trkpt lat="45.635452027564" lon="6.844248743081">
        <ele>1419.2</ele>
        <time>2018-01-30T14:25:43Z</time>
      </trkpt>
      <trkpt lat="45.635472814676" lon="6.844100383451">
        <ele>1416</ele>
        <time>2018-01-30T14:25:44Z</time>
      </trkpt>
      <trkpt lat="45.63549427234" lon="6.844020252487">
        <ele>1412.8</ele>
        <time>2018-01-30T14:25:45Z</time>
      </trkpt>
      <trkpt lat="45.63549427234" lon="6.844020252487">
        <ele>1409.8</ele>
        <time>2018-01-30T14:25:46Z</time>
      </trkpt>
      <trkpt lat="45.635518663669" lon="6.843952778192">
        <ele>1406.6</ele>
        <time>2018-01-30T14:25:47Z</time>
      </trkpt>
      <trkpt lat="45.635518831307" lon="6.84381380629">
        <ele>1403.6</ele>
        <time>2018-01-30T14:25:48Z</time>
      </trkpt>
      <trkpt lat="45.635525453008" lon="6.843736525172">
        <ele>1401</ele>
        <time>2018-01-30T14:25:49Z</time>
      </trkpt>
      <trkpt lat="45.635525453008" lon="6.843736525172">
        <ele>1398.6</ele>
        <time>2018-01-30T14:25:50Z</time>
      </trkpt>
      <trkpt lat="45.635545318111" lon="6.843673409465">
        <ele>1395.8</ele>
        <time>2018-01-30T14:25:51Z</time>
      </trkpt>
      <trkpt lat="45.635574151847" lon="6.843521529437">
        <ele>1393</ele>
        <time>2018-01-30T14:25:52Z</time>
      </trkpt>
      <trkpt lat="45.635594603683" lon="6.843407619416">
        <ele>1390.2</ele>
        <time>2018-01-30T14:25:53Z</time>
      </trkpt>
      <trkpt lat="45.635594603683" lon="6.843407619416">
        <ele>1387.6</ele>
        <time>2018-01-30T14:25:54Z</time>
      </trkpt>
      <trkpt lat="45.635623688876" lon="6.843312401032">
        <ele>1384.4</ele>
        <time>2018-01-30T14:25:55Z</time>
      </trkpt>
      <trkpt lat="45.635636261726" lon="6.843104865188">
        <ele>1381.2</ele>
        <time>2018-01-30T14:25:56Z</time>
      </trkpt>
      <trkpt lat="45.635636261726" lon="6.843104865188">
        <ele>1378.2</ele>
        <time>2018-01-30T14:25:57Z</time>
      </trkpt>
      <trkpt lat="45.635643218703" lon="6.843000678171">
        <ele>1375.6</ele>
        <time>2018-01-30T14:25:58Z</time>
      </trkpt>
      <trkpt lat="45.635664508729" lon="6.842934209704">
        <ele>1372.6</ele>
        <time>2018-01-30T14:25:59Z</time>
      </trkpt>
      <trkpt lat="45.635655707734" lon="6.842795824535">
        <ele>1370</ele>
        <time>2018-01-30T14:26:00Z</time>
      </trkpt>
      <trkpt lat="45.635649840404" lon="6.842709323327">
        <ele>1367.6</ele>
        <time>2018-01-30T14:26:01Z</time>
      </trkpt>
      <trkpt lat="45.635664508729" lon="6.842634724417">
        <ele>1365.6</ele>
        <time>2018-01-30T14:26:02Z</time>
      </trkpt>
      <trkpt lat="45.635664508729" lon="6.842634724417">
        <ele>1363</ele>
        <time>2018-01-30T14:26:03Z</time>
      </trkpt>
      <trkpt lat="45.635685798755" lon="6.842580325886">
        <ele>1360</ele>
        <time>2018-01-30T14:26:04Z</time>
      </trkpt>
      <trkpt lat="45.63565101387" lon="6.842461638182">
        <ele>1357.2</ele>
        <time>2018-01-30T14:26:05Z</time>
      </trkpt>
      <trkpt lat="45.635642548151" lon="6.842378657372">
        <ele>1355</ele>
        <time>2018-01-30T14:26:06Z</time>
      </trkpt>
      <trkpt lat="45.635655875372" lon="6.842296933847">
        <ele>1353</ele>
        <time>2018-01-30T14:26:07Z</time>
      </trkpt>
      <trkpt lat="45.635655875372" lon="6.842296933847">
        <ele>1350</ele>
        <time>2018-01-30T14:26:08Z</time>
      </trkpt>
      <trkpt lat="45.635674147914" lon="6.842226525887">
        <ele>1346.8</ele>
        <time>2018-01-30T14:26:09Z</time>
      </trkpt>
      <trkpt lat="45.635669370231" lon="6.842182017998">
        <ele>1343.8</ele>
        <time>2018-01-30T14:26:10Z</time>
      </trkpt>
      <trkpt lat="45.635632657509" lon="6.842132732426">
        <ele>1341.2</ele>
        <time>2018-01-30T14:26:11Z</time>
      </trkpt>
      <trkpt lat="45.635599968099" lon="6.842070119633">
        <ele>1338.8</ele>
        <time>2018-01-30T14:26:12Z</time>
      </trkpt>
      <trkpt lat="45.635600471013" lon="6.841991665049">
        <ele>1335.8</ele>
        <time>2018-01-30T14:26:13Z</time>
      </trkpt>
      <trkpt lat="45.635569541802" lon="6.841802066471">
        <ele>1333</ele>
        <time>2018-01-30T14:26:14Z</time>
      </trkpt>
      <trkpt lat="45.635573565114" lon="6.841679020179">
        <ele>1330.2</ele>
        <time>2018-01-30T14:26:15Z</time>
      </trkpt>
      <trkpt lat="45.635573565114" lon="6.841679020179">
        <ele>1327.8</ele>
        <time>2018-01-30T14:26:16Z</time>
      </trkpt>
      <trkpt lat="45.635594184588" lon="6.841581454863">
        <ele>1324.2</ele>
        <time>2018-01-30T14:26:17Z</time>
      </trkpt>
      <trkpt lat="45.635623940333" lon="6.841524457943">
        <ele>1320.8</ele>
        <time>2018-01-30T14:26:18Z</time>
      </trkpt>
      <trkpt lat="45.635632741328" lon="6.841451619232">
        <ele>1317.6</ele>
        <time>2018-01-30T14:26:19Z</time>
      </trkpt>
      <trkpt lat="45.635611032207" lon="6.84140903918">
        <ele>1315.4</ele>
        <time>2018-01-30T14:26:20Z</time>
      </trkpt>
      <trkpt lat="45.635611032207" lon="6.84140903918">
        <ele>1314.2</ele>
        <time>2018-01-30T14:26:21Z</time>
      </trkpt>
      <trkpt lat="45.635602566488" lon="6.841377523236">
        <ele>1313</ele>
        <time>2018-01-30T14:26:22Z</time>
      </trkpt>
      <trkpt lat="45.635600135737" lon="6.841379031978">
        <ele>1311.4</ele>
        <time>2018-01-30T14:26:23Z</time>
      </trkpt>
      <trkpt lat="45.635600135737" lon="6.841379031978">
        <ele>1310</ele>
        <time>2018-01-30T14:26:24Z</time>
      </trkpt>
      <trkpt lat="45.635591586199" lon="6.841405602601">
        <ele>1308.8</ele>
        <time>2018-01-30T14:26:25Z</time>
      </trkpt>
      <trkpt lat="45.635582114652" lon="6.841417672537">
        <ele>1307.8</ele>
        <time>2018-01-30T14:26:27Z</time>
      </trkpt>
      <trkpt lat="45.635611535121" lon="6.841378109969">
        <ele>1306.8</ele>
        <time>2018-01-30T14:26:33Z</time>
      </trkpt>
      <trkpt lat="45.63561916265" lon="6.841362687273">
        <ele>1306.6</ele>
        <time>2018-01-30T14:26:36Z</time>
      </trkpt>
      <trkpt lat="45.635621006668" lon="6.841358496323">
        <ele>1305.6</ele>
        <time>2018-01-30T14:26:39Z</time>
      </trkpt>
      <trkpt lat="45.635596280063" lon="6.841303594878">
        <ele>1304.2</ele>
        <time>2018-01-30T14:27:17Z</time>
      </trkpt>
      <trkpt lat="45.635588820172" lon="6.841180883862">
        <ele>1303.4</ele>
        <time>2018-01-30T14:27:20Z</time>
      </trkpt>
      <trkpt lat="45.635562249549" lon="6.841113577205">
        <ele>1302.6</ele>
        <time>2018-01-30T14:27:21Z</time>
      </trkpt>
      <trkpt lat="45.635543222636" lon="6.841037134277">
        <ele>1302</ele>
        <time>2018-01-30T14:27:22Z</time>
      </trkpt>
      <trkpt lat="45.635518244574" lon="6.840972761285">
        <ele>1300.8</ele>
        <time>2018-01-30T14:27:23Z</time>
      </trkpt>
      <trkpt lat="45.635470132468" lon="6.840912076329">
        <ele>1299.6</ele>
        <time>2018-01-30T14:27:24Z</time>
      </trkpt>
      <trkpt lat="45.635470132468" lon="6.840912076329">
        <ele>1297.8</ele>
        <time>2018-01-30T14:27:25Z</time>
      </trkpt>
      <trkpt lat="45.635443394207" lon="6.840837728876">
        <ele>1295.8</ele>
        <time>2018-01-30T14:27:26Z</time>
      </trkpt>
      <trkpt lat="45.635371393686" lon="6.840698673155">
        <ele>1293.2</ele>
        <time>2018-01-30T14:27:27Z</time>
      </trkpt>
      <trkpt lat="45.635343062864" lon="6.84061694963">
        <ele>1290.8</ele>
        <time>2018-01-30T14:27:28Z</time>
      </trkpt>
      <trkpt lat="45.635358904655" lon="6.840531705707">
        <ele>1288</ele>
        <time>2018-01-30T14:27:29Z</time>
      </trkpt>
      <trkpt lat="45.635372148057" lon="6.840444617766">
        <ele>1284.8</ele>
        <time>2018-01-30T14:27:30Z</time>
      </trkpt>
      <trkpt lat="45.6353299871" lon="6.840343783509">
        <ele>1281.6</ele>
        <time>2018-01-30T14:27:31Z</time>
      </trkpt>
      <trkpt lat="45.635302662106" lon="6.840222245959">
        <ele>1279</ele>
        <time>2018-01-30T14:27:32Z</time>
      </trkpt>
      <trkpt lat="45.635313642395" lon="6.840108419757">
        <ele>1276.2</ele>
        <time>2018-01-30T14:27:33Z</time>
      </trkpt>
      <trkpt lat="45.635323449218" lon="6.839988726225">
        <ele>1272.4</ele>
        <time>2018-01-30T14:27:34Z</time>
      </trkpt>
      <trkpt lat="45.635312468929" lon="6.839846820658">
        <ele>1268.2</ele>
        <time>2018-01-30T14:27:35Z</time>
      </trkpt>
      <trkpt lat="45.635317498069" lon="6.839690414404">
        <ele>1264</ele>
        <time>2018-01-30T14:27:36Z</time>
      </trkpt>
      <trkpt lat="45.635366196908" lon="6.839538031462">
        <ele>1260.6</ele>
        <time>2018-01-30T14:27:37Z</time>
      </trkpt>
      <trkpt lat="45.635441382551" lon="6.839408363469">
        <ele>1256.8</ele>
        <time>2018-01-30T14:27:38Z</time>
      </trkpt>
      <trkpt lat="45.635529811596" lon="6.839312809809">
        <ele>1253.4</ele>
        <time>2018-01-30T14:27:39Z</time>
      </trkpt>
      <trkpt lat="45.635608349999" lon="6.839224883678">
        <ele>1250</ele>
        <time>2018-01-30T14:27:40Z</time>
      </trkpt>
      <trkpt lat="45.635695857035" lon="6.839184902015">
        <ele>1247.2</ele>
        <time>2018-01-30T14:27:41Z</time>
      </trkpt>
      <trkpt lat="45.635774646895" lon="6.839138885384">
        <ele>1245</ele>
        <time>2018-01-30T14:27:42Z</time>
      </trkpt>
      <trkpt lat="45.63584715033" lon="6.839095467142">
        <ele>1242.8</ele>
        <time>2018-01-30T14:27:43Z</time>
      </trkpt>
      <trkpt lat="45.635922671249" lon="6.839059844067">
        <ele>1241.2</ele>
        <time>2018-01-30T14:27:44Z</time>
      </trkpt>
      <trkpt lat="45.635999030358" lon="6.839020952051">
        <ele>1240</ele>
        <time>2018-01-30T14:27:45Z</time>
      </trkpt>
      <trkpt lat="45.636077904037" lon="6.838970995927">
        <ele>1238.8</ele>
        <time>2018-01-30T14:27:46Z</time>
      </trkpt>
      <trkpt lat="45.636154430784" lon="6.838904443641">
        <ele>1237.4</ele>
        <time>2018-01-30T14:27:47Z</time>
      </trkpt>
      <trkpt lat="45.636228610599" lon="6.838823558306">
        <ele>1236</ele>
        <time>2018-01-30T14:27:48Z</time>
      </trkpt>
      <trkpt lat="45.636285858976" lon="6.838713503959">
        <ele>1234</ele>
        <time>2018-01-30T14:27:49Z</time>
      </trkpt>
      <trkpt lat="45.636327600838" lon="6.838574448238">
        <ele>1232.2</ele>
        <time>2018-01-30T14:27:50Z</time>
      </trkpt>
      <trkpt lat="45.636364229741" lon="6.838428854635">
        <ele>1230.2</ele>
        <time>2018-01-30T14:27:51Z</time>
      </trkpt>
      <trkpt lat="45.636364229741" lon="6.838428854635">
        <ele>1228</ele>
        <time>2018-01-30T14:27:52Z</time>
      </trkpt>
      <trkpt lat="45.63638945926" lon="6.838129872262">
        <ele>1225.4</ele>
        <time>2018-01-30T14:27:53Z</time>
      </trkpt>
      <trkpt lat="45.636349058502" lon="6.837971454352">
        <ele>1222.4</ele>
        <time>2018-01-30T14:27:54Z</time>
      </trkpt>
      <trkpt lat="45.636287116261" lon="6.837815970107">
        <ele>1220</ele>
        <time>2018-01-30T14:27:55Z</time>
      </trkpt>
      <trkpt lat="45.636219139052" lon="6.837664676812">
        <ele>1217.8</ele>
        <time>2018-01-30T14:27:56Z</time>
      </trkpt>
      <trkpt lat="45.636115706406" lon="6.837532494249">
        <ele>1215</ele>
        <time>2018-01-30T14:27:57Z</time>
      </trkpt>
      <trkpt lat="45.635965502758" lon="6.837476754614">
        <ele>1212.2</ele>
        <time>2018-01-30T14:27:58Z</time>
      </trkpt>
      <trkpt lat="45.635788560849" lon="6.83745445876">
        <ele>1208.6</ele>
        <time>2018-01-30T14:27:59Z</time>
      </trkpt>
      <trkpt lat="45.635589993638" lon="6.837438114055">
        <ele>1205.4</ele>
        <time>2018-01-30T14:28:00Z</time>
      </trkpt>
      <trkpt lat="45.635457475799" lon="6.837359072738">
        <ele>1202</ele>
        <time>2018-01-30T14:28:01Z</time>
      </trkpt>
      <trkpt lat="45.635322359571" lon="6.837291514624">
        <ele>1198.4</ele>
        <time>2018-01-30T14:28:02Z</time>
      </trkpt>
      <trkpt lat="45.635182968574" lon="6.837216245162">
        <ele>1195.2</ele>
        <time>2018-01-30T14:28:03Z</time>
      </trkpt>
      <trkpt lat="45.635061682481" lon="6.837122116425">
        <ele>1191.4</ele>
        <time>2018-01-30T14:28:04Z</time>
      </trkpt>
      <trkpt lat="45.634934948153" lon="6.837039219434">
        <ele>1187.6</ele>
        <time>2018-01-30T14:28:05Z</time>
      </trkpt>
      <trkpt lat="45.634753899113" lon="6.837020108702">
        <ele>1183.6</ele>
        <time>2018-01-30T14:28:06Z</time>
      </trkpt>
      <trkpt lat="45.634622973835" lon="6.836961938316">
        <ele>1180.2</ele>
        <time>2018-01-30T14:28:07Z</time>
      </trkpt>
      <trkpt lat="45.634496071869" lon="6.836921872834">
        <ele>1177.8</ele>
        <time>2018-01-30T14:28:08Z</time>
      </trkpt>
      <trkpt lat="45.634372690301" lon="6.836945258335">
        <ele>1175.2</ele>
        <time>2018-01-30T14:28:09Z</time>
      </trkpt>
      <trkpt lat="45.634260540479" lon="6.836963195601">
        <ele>1172.4</ele>
        <time>2018-01-30T14:28:10Z</time>
      </trkpt>
      <trkpt lat="45.6341481392" lon="6.83697417589">
        <ele>1169.6</ele>
        <time>2018-01-30T14:28:11Z</time>
      </trkpt>
      <trkpt lat="45.634052669359" lon="6.837007954947">
        <ele>1166.8</ele>
        <time>2018-01-30T14:28:12Z</time>
      </trkpt>
      <trkpt lat="45.633931634723" lon="6.83706050946">
        <ele>1163.8</ele>
        <time>2018-01-30T14:28:13Z</time>
      </trkpt>
      <trkpt lat="45.633840272013" lon="6.837055731777">
        <ele>1161.2</ele>
        <time>2018-01-30T14:28:14Z</time>
      </trkpt>
      <trkpt lat="45.633754860452" lon="6.837038632701">
        <ele>1158.2</ele>
        <time>2018-01-30T14:28:15Z</time>
      </trkpt>
      <trkpt lat="45.633669281253" lon="6.837035112303">
        <ele>1155.2</ele>
        <time>2018-01-30T14:28:16Z</time>
      </trkpt>
      <trkpt lat="45.633566602978" lon="6.83703452557">
        <ele>1151.8</ele>
        <time>2018-01-30T14:28:17Z</time>
      </trkpt>
      <trkpt lat="45.633455626622" lon="6.836999237771">
        <ele>1148.8</ele>
        <time>2018-01-30T14:28:18Z</time>
      </trkpt>
      <trkpt lat="45.633346159008" lon="6.836993538079">
        <ele>1144.8</ele>
        <time>2018-01-30T14:28:19Z</time>
      </trkpt>
      <trkpt lat="45.633216491015" lon="6.836982222514">
        <ele>1140.6</ele>
        <time>2018-01-30T14:28:20Z</time>
      </trkpt>
      <trkpt lat="45.63310207808" lon="6.836917933341">
        <ele>1135.6</ele>
        <time>2018-01-30T14:28:21Z</time>
      </trkpt>
      <trkpt lat="45.632989257706" lon="6.836843502069">
        <ele>1130.4</ele>
        <time>2018-01-30T14:28:22Z</time>
      </trkpt>
      <trkpt lat="45.632839976067" lon="6.836766556227">
        <ele>1124.4</ele>
        <time>2018-01-30T14:28:23Z</time>
      </trkpt>
      <trkpt lat="45.632713660834" lon="6.836678043363">
        <ele>1119</ele>
        <time>2018-01-30T14:28:24Z</time>
      </trkpt>
      <trkpt lat="45.632584244298" lon="6.836593050897">
        <ele>1113.4</ele>
        <time>2018-01-30T14:28:25Z</time>
      </trkpt>
      <trkpt lat="45.632448541337" lon="6.83652239148">
        <ele>1108.4</ele>
        <time>2018-01-30T14:28:26Z</time>
      </trkpt>
      <trkpt lat="45.632343432311" lon="6.836461371248">
        <ele>1103.2</ele>
        <time>2018-01-30T14:28:27Z</time>
      </trkpt>
      <trkpt lat="45.632239161475" lon="6.836384760682">
        <ele>1098.8</ele>
        <time>2018-01-30T14:28:28Z</time>
      </trkpt>
      <trkpt lat="45.632150313335" lon="6.836347377408">
        <ele>1093.8</ele>
        <time>2018-01-30T14:28:29Z</time>
      </trkpt>
      <trkpt lat="45.632088119637" lon="6.836304713537">
        <ele>1088.8</ele>
        <time>2018-01-30T14:28:30Z</time>
      </trkpt>
      <trkpt lat="45.632095914804" lon="6.83632876959">
        <ele>1084.8</ele>
        <time>2018-01-30T14:28:31Z</time>
      </trkpt>
      <trkpt lat="45.632107817102" lon="6.836347377408">
        <ele>1082.2</ele>
        <time>2018-01-30T14:28:32Z</time>
      </trkpt>
      <trkpt lat="45.63211720483" lon="6.83635978262">
        <ele>1080.2</ele>
        <time>2018-01-30T14:28:33Z</time>
      </trkpt>
      <trkpt lat="45.632125922006" lon="6.836381743198">
        <ele>1078.4</ele>
        <time>2018-01-30T14:28:34Z</time>
      </trkpt>
      <trkpt lat="45.632130280594" lon="6.836384676863">
        <ele>1077.4</ele>
        <time>2018-01-30T14:28:35Z</time>
      </trkpt>
      <trkpt lat="45.632142182892" lon="6.836391214745">
        <ele>1076.4</ele>
        <time>2018-01-30T14:28:37Z</time>
      </trkpt>
      <trkpt lat="45.632142182892" lon="6.836391214745">
        <ele>1076.2</ele>
        <time>2018-01-30T14:28:38Z</time>
      </trkpt>
      <trkpt lat="45.632289536694" lon="6.836134896243">
        <ele>1074.8</ele>
        <time>2018-01-30T14:29:17Z</time>
      </trkpt>
      <trkpt lat="45.632322812837" lon="6.835912272979">
        <ele>1072.8</ele>
        <time>2018-01-30T14:29:19Z</time>
      </trkpt>
      <trkpt lat="45.632323651027" lon="6.835779336045">
        <ele>1071.2</ele>
        <time>2018-01-30T14:29:20Z</time>
      </trkpt>
      <trkpt lat="45.632335720963" lon="6.835653356088">
        <ele>1069</ele>
        <time>2018-01-30T14:29:21Z</time>
      </trkpt>
      <trkpt lat="45.632345024872" lon="6.83553500366">
        <ele>1066.4</ele>
        <time>2018-01-30T14:29:22Z</time>
      </trkpt>
      <trkpt lat="45.632349970193" lon="6.835393181912">
        <ele>1063.6</ele>
        <time>2018-01-30T14:29:23Z</time>
      </trkpt>
      <trkpt lat="45.632383916888" lon="6.835267453412">
        <ele>1060.8</ele>
        <time>2018-01-30T14:29:24Z</time>
      </trkpt>
      <trkpt lat="45.632426999854" lon="6.835167205888">
        <ele>1058.2</ele>
        <time>2018-01-30T14:29:25Z</time>
      </trkpt>
      <trkpt lat="45.632433705374" lon="6.835027731072">
        <ele>1054.8</ele>
        <time>2018-01-30T14:29:26Z</time>
      </trkpt>
      <trkpt lat="45.632442254912" lon="6.834885741686">
        <ele>1051.4</ele>
        <time>2018-01-30T14:29:27Z</time>
      </trkpt>
      <trkpt lat="45.632442254912" lon="6.834885741686">
        <ele>1048</ele>
        <time>2018-01-30T14:29:28Z</time>
      </trkpt>
      <trkpt lat="45.632434292107" lon="6.834725647396">
        <ele>1044.8</ele>
        <time>2018-01-30T14:29:29Z</time>
      </trkpt>
      <trkpt lat="45.632499335651" lon="6.834440578977">
        <ele>1041.4</ele>
        <time>2018-01-30T14:29:30Z</time>
      </trkpt>
      <trkpt lat="45.632544765549" lon="6.834299176324">
        <ele>1037.8</ele>
        <time>2018-01-30T14:29:31Z</time>
      </trkpt>
      <trkpt lat="45.63259832589" lon="6.834141345147">
        <ele>1033.4</ele>
        <time>2018-01-30T14:29:32Z</time>
      </trkpt>
      <trkpt lat="45.632682480166" lon="6.834018298855">
        <ele>1029.4</ele>
        <time>2018-01-30T14:29:33Z</time>
      </trkpt>
      <trkpt lat="45.632748948633" lon="6.833879494591">
        <ele>1025.6</ele>
        <time>2018-01-30T14:29:34Z</time>
      </trkpt>
      <trkpt lat="45.632828660502" lon="6.833757370308">
        <ele>1022.4</ele>
        <time>2018-01-30T14:29:35Z</time>
      </trkpt>
      <trkpt lat="45.63290175067" lon="6.833633821102">
        <ele>1019</ele>
        <time>2018-01-30T14:29:36Z</time>
      </trkpt>
      <trkpt lat="45.632988419516" lon="6.833539608546">
        <ele>1016</ele>
        <time>2018-01-30T14:29:37Z</time>
      </trkpt>
      <trkpt lat="45.633060671494" lon="6.833424273602">
        <ele>1013</ele>
        <time>2018-01-30T14:29:38Z</time>
      </trkpt>
      <trkpt lat="45.633116075853" lon="6.833303574242">
        <ele>1010.2</ele>
        <time>2018-01-30T14:29:39Z</time>
      </trkpt>
      <trkpt lat="45.633157314801" lon="6.833165356711">
        <ele>1007.8</ele>
        <time>2018-01-30T14:29:40Z</time>
      </trkpt>
      <trkpt lat="45.633195787722" lon="6.833035604899">
        <ele>1005.2</ele>
        <time>2018-01-30T14:29:41Z</time>
      </trkpt>
      <trkpt lat="45.633224789096" lon="6.832910127856">
        <ele>1002.6</ele>
        <time>2018-01-30T14:29:42Z</time>
      </trkpt>
      <trkpt lat="45.633240211792" lon="6.832777693836">
        <ele>1000.2</ele>
        <time>2018-01-30T14:29:43Z</time>
      </trkpt>
      <trkpt lat="45.633266447139" lon="6.832673674457">
        <ele>997.6</ele>
        <time>2018-01-30T14:29:44Z</time>
      </trkpt>
      <trkpt lat="45.633293688314" lon="6.832586502697">
        <ele>994.8</ele>
        <time>2018-01-30T14:29:45Z</time>
      </trkpt>
      <trkpt lat="45.633299471825" lon="6.832500001489">
        <ele>992.2</ele>
        <time>2018-01-30T14:29:46Z</time>
      </trkpt>
      <trkpt lat="45.633284971138" lon="6.832395898291">
        <ele>989.6</ele>
        <time>2018-01-30T14:29:47Z</time>
      </trkpt>
      <trkpt lat="45.63326468694" lon="6.832294225844">
        <ele>987.2</ele>
        <time>2018-01-30T14:29:48Z</time>
      </trkpt>
      <trkpt lat="45.633275248134" lon="6.832211328853">
        <ele>984.6</ele>
        <time>2018-01-30T14:29:49Z</time>
      </trkpt>
      <trkpt lat="45.633282791844" lon="6.832127174577">
        <ele>982</ele>
        <time>2018-01-30T14:29:50Z</time>
      </trkpt>
      <trkpt lat="45.63326887789" lon="6.832028687252">
        <ele>979.6</ele>
        <time>2018-01-30T14:29:51Z</time>
      </trkpt>
      <trkpt lat="45.633268123519" lon="6.831918716724">
        <ele>977.2</ele>
        <time>2018-01-30T14:29:52Z</time>
      </trkpt>
      <trkpt lat="45.633252365547" lon="6.831791814758">
        <ele>975.2</ele>
        <time>2018-01-30T14:29:53Z</time>
      </trkpt>
      <trkpt lat="45.633233590091" lon="6.831648735725">
        <ele>972.6</ele>
        <time>2018-01-30T14:29:54Z</time>
      </trkpt>
      <trkpt lat="45.633238200136" lon="6.831484282847">
        <ele>969.8</ele>
        <time>2018-01-30T14:29:55Z</time>
      </trkpt>
      <trkpt lat="45.633240966163" lon="6.831313292087">
        <ele>966</ele>
        <time>2018-01-30T14:29:56Z</time>
      </trkpt>
      <trkpt lat="45.633202325604" lon="6.831098128714">
        <ele>962.4</ele>
        <time>2018-01-30T14:29:57Z</time>
      </trkpt>
      <trkpt lat="45.633193273152" lon="6.830881708056">
        <ele>958</ele>
        <time>2018-01-30T14:29:58Z</time>
      </trkpt>
      <trkpt lat="45.633191512953" lon="6.830655732032">
        <ele>953.6</ele>
        <time>2018-01-30T14:29:59Z</time>
      </trkpt>
      <trkpt lat="45.633170390565" lon="6.830421709384">
        <ele>947.8</ele>
        <time>2018-01-30T14:30:00Z</time>
      </trkpt>
      <trkpt lat="45.633144322856" lon="6.830184250157">
        <ele>942</ele>
        <time>2018-01-30T14:30:01Z</time>
      </trkpt>
      <trkpt lat="45.633125212124" lon="6.829955089011">
        <ele>936.6</ele>
        <time>2018-01-30T14:30:02Z</time>
      </trkpt>
      <trkpt lat="45.633105179383" lon="6.829746547339">
        <ele>931</ele>
        <time>2018-01-30T14:30:03Z</time>
      </trkpt>
      <trkpt lat="45.633112639274" lon="6.829526690102">
        <ele>925.8</ele>
        <time>2018-01-30T14:30:04Z</time>
      </trkpt>
      <trkpt lat="45.633136779146" lon="6.829374223341">
        <ele>920.8</ele>
        <time>2018-01-30T14:30:05Z</time>
      </trkpt>
      <trkpt lat="45.633128564884" lon="6.82917733251">
        <ele>916.4</ele>
        <time>2018-01-30T14:30:06Z</time>
      </trkpt>
      <trkpt lat="45.633133258748" lon="6.828993182167">
        <ele>912.4</ele>
        <time>2018-01-30T14:30:07Z</time>
      </trkpt>
      <trkpt lat="45.633141221553" lon="6.828810624385">
        <ele>909</ele>
        <time>2018-01-30T14:30:08Z</time>
      </trkpt>
      <trkpt lat="45.633129067798" lon="6.828630078259">
        <ele>905.8</ele>
        <time>2018-01-30T14:30:09Z</time>
      </trkpt>
      <trkpt lat="45.633126134133" lon="6.828454142178">
        <ele>902.6</ele>
        <time>2018-01-30T14:30:10Z</time>
      </trkpt>
      <trkpt lat="45.633128816341" lon="6.828279128106">
        <ele>899.6</ele>
        <time>2018-01-30T14:30:11Z</time>
      </trkpt>
      <trkpt lat="45.633135018947" lon="6.828113753219">
        <ele>896.6</ele>
        <time>2018-01-30T14:30:12Z</time>
      </trkpt>
      <trkpt lat="45.633143400847" lon="6.827922729718">
        <ele>893.2</ele>
        <time>2018-01-30T14:30:13Z</time>
      </trkpt>
      <trkpt lat="45.633156057516" lon="6.827736064805">
        <ele>889.4</ele>
        <time>2018-01-30T14:30:14Z</time>
      </trkpt>
      <trkpt lat="45.633175252067" lon="6.827557865611">
        <ele>886</ele>
        <time>2018-01-30T14:30:15Z</time>
      </trkpt>
      <trkpt lat="45.633197967016" lon="6.827365584825">
        <ele>882.8</ele>
        <time>2018-01-30T14:30:16Z</time>
      </trkpt>
      <trkpt lat="45.633221017241" lon="6.827143715932">
        <ele>879.4</ele>
        <time>2018-01-30T14:30:17Z</time>
      </trkpt>
      <trkpt lat="45.633255131574" lon="6.826941209228">
        <ele>876.8</ele>
        <time>2018-01-30T14:30:18Z</time>
      </trkpt>
      <trkpt lat="45.633290167916" lon="6.82678262368">
        <ele>874</ele>
        <time>2018-01-30T14:30:19Z</time>
      </trkpt>
      <trkpt lat="45.633304165689" lon="6.826606184685">
        <ele>871.6</ele>
        <time>2018-01-30T14:30:20Z</time>
      </trkpt>
      <trkpt lat="45.633304165689" lon="6.826606184685">
        <ele>869.2</ele>
        <time>2018-01-30T14:30:21Z</time>
      </trkpt>
      <trkpt lat="45.633300226196" lon="6.826320613352">
        <ele>866.8</ele>
        <time>2018-01-30T14:30:22Z</time>
      </trkpt>
      <trkpt lat="45.633312715227" lon="6.82618918516">
        <ele>864.8</ele>
        <time>2018-01-30T14:30:23Z</time>
      </trkpt>
      <trkpt lat="45.633312715227" lon="6.82618918516">
        <ele>862.6</ele>
        <time>2018-01-30T14:30:24Z</time>
      </trkpt>
      <trkpt lat="45.633316906177" lon="6.826068234343">
        <ele>860.4</ele>
        <time>2018-01-30T14:30:25Z</time>
      </trkpt>
      <trkpt lat="45.63330072911" lon="6.825821135931">
        <ele>858.4</ele>
        <time>2018-01-30T14:30:26Z</time>
      </trkpt>
      <trkpt lat="45.633290167916" lon="6.825715943086">
        <ele>856.6</ele>
        <time>2018-01-30T14:30:27Z</time>
      </trkpt>
      <trkpt lat="45.633290167916" lon="6.825715943086">
        <ele>855</ele>
        <time>2018-01-30T14:30:28Z</time>
      </trkpt>
      <trkpt lat="45.633293520676" lon="6.825621814349">
        <ele>853.4</ele>
        <time>2018-01-30T14:30:29Z</time>
      </trkpt>
      <trkpt lat="45.633261585637" lon="6.825531792743">
        <ele>851.8</ele>
        <time>2018-01-30T14:30:30Z</time>
      </trkpt>
      <trkpt lat="45.633244738018" lon="6.825475214918">
        <ele>850.4</ele>
        <time>2018-01-30T14:30:31Z</time>
      </trkpt>
      <trkpt lat="45.633230824064" lon="6.825392988479">
        <ele>849</ele>
        <time>2018-01-30T14:30:32Z</time>
      </trkpt>
      <trkpt lat="45.633210707504" lon="6.825288214729">
        <ele>847.6</ele>
        <time>2018-01-30T14:30:33Z</time>
      </trkpt>
      <trkpt lat="45.633210707504" lon="6.825288214729">
        <ele>846.2</ele>
        <time>2018-01-30T14:30:34Z</time>
      </trkpt>
      <trkpt lat="45.63320014631" lon="6.825034662254">
        <ele>845.2</ele>
        <time>2018-01-30T14:30:35Z</time>
      </trkpt>
      <trkpt lat="45.633178269551" lon="6.824738445908">
        <ele>843.4</ele>
        <time>2018-01-30T14:30:37Z</time>
      </trkpt>
      <trkpt lat="45.633202912337" lon="6.824582877844">
        <ele>842.2</ele>
        <time>2018-01-30T14:30:38Z</time>
      </trkpt>
      <trkpt lat="45.633214479359" lon="6.824421861545">
        <ele>840.8</ele>
        <time>2018-01-30T14:30:39Z</time>
      </trkpt>
      <trkpt lat="45.633214479359" lon="6.824421861545">
        <ele>838.6</ele>
        <time>2018-01-30T14:30:40Z</time>
      </trkpt>
      <trkpt lat="45.633208276753" lon="6.824065798433">
        <ele>836.8</ele>
        <time>2018-01-30T14:30:41Z</time>
      </trkpt>
      <trkpt lat="45.63322026287" lon="6.823879384977">
        <ele>835</ele>
        <time>2018-01-30T14:30:42Z</time>
      </trkpt>
      <trkpt lat="45.633236523756" lon="6.823703784172">
        <ele>833.2</ele>
        <time>2018-01-30T14:30:43Z</time>
      </trkpt>
      <trkpt lat="45.633218418852" lon="6.823526926082">
        <ele>830.6</ele>
        <time>2018-01-30T14:30:44Z</time>
      </trkpt>
      <trkpt lat="45.633218418852" lon="6.823526926082">
        <ele>827.6</ele>
        <time>2018-01-30T14:30:45Z</time>
      </trkpt>
      <trkpt lat="45.633180951759" lon="6.823363562851">
        <ele>824.2</ele>
        <time>2018-01-30T14:30:46Z</time>
      </trkpt>
      <trkpt lat="45.633123619563" lon="6.823140185216">
        <ele>821</ele>
        <time>2018-01-30T14:30:47Z</time>
      </trkpt>
      <trkpt lat="45.633153794403" lon="6.823155440274">
        <ele>818.2</ele>
        <time>2018-01-30T14:30:48Z</time>
      </trkpt>
      <trkpt lat="45.633170977298" lon="6.823167845486">
        <ele>815.8</ele>
        <time>2018-01-30T14:30:49Z</time>
      </trkpt>
      <trkpt lat="45.6331842207" lon="6.823186369485">
        <ele>814.4</ele>
        <time>2018-01-30T14:30:50Z</time>
      </trkpt>
      <trkpt lat="45.633206097459" lon="6.823197349774">
        <ele>813</ele>
        <time>2018-01-30T14:30:52Z</time>
      </trkpt>
      <trkpt lat="45.633276756876" lon="6.823179496327">
        <ele>812.4</ele>
        <time>2018-01-30T14:30:58Z</time>
      </trkpt>
      <trkpt lat="45.633282037473" lon="6.823186872399">
        <ele>812.4</ele>
        <time>2018-01-30T14:31:00Z</time>
      </trkpt>
      <trkpt lat="45.637856627036" lon="6.847850110235">
        <ele>1542.8</ele>
        <time>2018-01-30T14:48:23Z</time>
      </trkpt>
      <trkpt lat="45.637786302895" lon="6.848029315257">
        <ele>1542.4</ele>
        <time>2018-01-30T14:48:27Z</time>
      </trkpt>
      <trkpt lat="45.637539036845" lon="6.84851269943">
        <ele>1541</ele>
        <time>2018-01-30T14:48:31Z</time>
      </trkpt>
      <trkpt lat="45.637469969989" lon="6.848624597795">
        <ele>1539.4</ele>
        <time>2018-01-30T14:48:32Z</time>
      </trkpt>
      <trkpt lat="45.63740199278" lon="6.848733646314">
        <ele>1538</ele>
        <time>2018-01-30T14:48:33Z</time>
      </trkpt>
      <trkpt lat="45.637337116874" lon="6.848842191919">
        <ele>1536.8</ele>
        <time>2018-01-30T14:48:34Z</time>
      </trkpt>
      <trkpt lat="45.637210382546" lon="6.849056014188">
        <ele>1535</ele>
        <time>2018-01-30T14:48:36Z</time>
      </trkpt>
      <trkpt lat="45.637077194155" lon="6.849266567516">
        <ele>1533.8</ele>
        <time>2018-01-30T14:48:38Z</time>
      </trkpt>
      <trkpt lat="45.636861192592" lon="6.849543924587">
        <ele>1532.4</ele>
        <time>2018-01-30T14:48:41Z</time>
      </trkpt>
      <trkpt lat="45.636640161889" lon="6.849770487344">
        <ele>1531.2</ele>
        <time>2018-01-30T14:48:44Z</time>
      </trkpt>
      <trkpt lat="45.636493730096" lon="6.849916583861">
        <ele>1530.2</ele>
        <time>2018-01-30T14:48:46Z</time>
      </trkpt>
      <trkpt lat="45.636350818701" lon="6.850056813048">
        <ele>1528.8</ele>
        <time>2018-01-30T14:48:48Z</time>
      </trkpt>
      <trkpt lat="45.636138421355" lon="6.850251608404">
        <ele>1527.6</ele>
        <time>2018-01-30T14:48:51Z</time>
      </trkpt>
      <trkpt lat="45.635919989041" lon="6.850422180069">
        <ele>1526.6</ele>
        <time>2018-01-30T14:48:54Z</time>
      </trkpt>
      <trkpt lat="45.635754446516" lon="6.850476327143">
        <ele>1525.6</ele>
        <time>2018-01-30T14:48:56Z</time>
      </trkpt>
      <trkpt lat="45.635594100769" lon="6.850445817027">
        <ele>1524.4</ele>
        <time>2018-01-30T14:48:58Z</time>
      </trkpt>
      <trkpt lat="45.635373070066" lon="6.850358812905">
        <ele>1523</ele>
        <time>2018-01-30T14:49:01Z</time>
      </trkpt>
      <trkpt lat="45.635076099349" lon="6.850245489617">
        <ele>1521.6</ele>
        <time>2018-01-30T14:49:05Z</time>
      </trkpt>
      <trkpt lat="45.634918603448" lon="6.850176171304">
        <ele>1520.8</ele>
        <time>2018-01-30T14:49:08Z</time>
      </trkpt>
      <trkpt lat="45.634874179378" lon="6.850141134962">
        <ele>1520.6</ele>
        <time>2018-01-30T14:49:09Z</time>
      </trkpt>
      <trkpt lat="45.634829671489" lon="6.850096375616">
        <ele>1520.6</ele>
        <time>2018-01-30T14:49:10Z</time>
      </trkpt>
      <trkpt lat="45.634675025434" lon="6.849865202814">
        <ele>1519.6</ele>
        <time>2018-01-30T14:49:14Z</time>
      </trkpt>
      <trkpt lat="45.6346426713" lon="6.849795297768">
        <ele>1519.2</ele>
        <time>2018-01-30T14:49:15Z</time>
      </trkpt>
      <trkpt lat="45.634576789566" lon="6.849643250102">
        <ele>1518.2</ele>
        <time>2018-01-30T14:49:17Z</time>
      </trkpt>
      <trkpt lat="45.634451899256" lon="6.849416603526">
        <ele>1516.8</ele>
        <time>2018-01-30T14:49:20Z</time>
      </trkpt>
      <trkpt lat="45.634320387245" lon="6.849261286919">
        <ele>1516</ele>
        <time>2018-01-30T14:49:23Z</time>
      </trkpt>
      <trkpt lat="45.634268922379" lon="6.849221053799">
        <ele>1515.8</ele>
        <time>2018-01-30T14:49:24Z</time>
      </trkpt>
      <trkpt lat="45.634217457513" lon="6.849190124588">
        <ele>1515.6</ele>
        <time>2018-01-30T14:49:25Z</time>
      </trkpt>
      <trkpt lat="45.634001539769" lon="6.849118207886">
        <ele>1514.8</ele>
        <time>2018-01-30T14:49:29Z</time>
      </trkpt>
      <trkpt lat="45.633762487981" lon="6.849086608123">
        <ele>1513.6</ele>
        <time>2018-01-30T14:49:33Z</time>
      </trkpt>
      <trkpt lat="45.633639274051" lon="6.849072358893">
        <ele>1512.2</ele>
        <time>2018-01-30T14:49:35Z</time>
      </trkpt>
      <trkpt lat="45.63358068457" lon="6.84906590483">
        <ele>1511</ele>
        <time>2018-01-30T14:49:36Z</time>
      </trkpt>
      <trkpt lat="45.633521340718" lon="6.849062132975">
        <ele>1510</ele>
        <time>2018-01-30T14:49:37Z</time>
      </trkpt>
      <trkpt lat="45.633213641169" lon="6.849073616178">
        <ele>1509.6</ele>
        <time>2018-01-30T14:49:42Z</time>
      </trkpt>
      <trkpt lat="45.632928237474" lon="6.849085350838">
        <ele>1508.8</ele>
        <time>2018-01-30T14:49:47Z</time>
      </trkpt>
      <trkpt lat="45.632755570334" lon="6.849065150459">
        <ele>1507.8</ele>
        <time>2018-01-30T14:49:50Z</time>
      </trkpt>
      <trkpt lat="45.632699327785" lon="6.84905081741">
        <ele>1507.4</ele>
        <time>2018-01-30T14:49:51Z</time>
      </trkpt>
      <trkpt lat="45.632588938162" lon="6.849011841575">
        <ele>1507</ele>
        <time>2018-01-30T14:49:53Z</time>
      </trkpt>
      <trkpt lat="45.632535377821" lon="6.848985354771">
        <ele>1506.6</ele>
        <time>2018-01-30T14:49:54Z</time>
      </trkpt>
      <trkpt lat="45.632327339063" lon="6.848871193293">
        <ele>1505.6</ele>
        <time>2018-01-30T14:49:58Z</time>
      </trkpt>
      <trkpt lat="45.632273862541" lon="6.848837833331">
        <ele>1505.2</ele>
        <time>2018-01-30T14:49:59Z</time>
      </trkpt>
      <trkpt lat="45.632119887038" lon="6.848694670479">
        <ele>1504.2</ele>
        <time>2018-01-30T14:50:02Z</time>
      </trkpt>
      <trkpt lat="45.631969012838" lon="6.848514627267">
        <ele>1503</ele>
        <time>2018-01-30T14:50:05Z</time>
      </trkpt>
      <trkpt lat="45.631790646006" lon="6.848253111987">
        <ele>1501.8</ele>
        <time>2018-01-30T14:50:09Z</time>
      </trkpt>
      <trkpt lat="45.631596940297" lon="6.848017161502">
        <ele>1500.6</ele>
        <time>2018-01-30T14:50:13Z</time>
      </trkpt>
      <trkpt lat="45.631544218146" lon="6.847966115731">
        <ele>1500.2</ele>
        <time>2018-01-30T14:50:14Z</time>
      </trkpt>
      <trkpt lat="45.631355625396" lon="6.847809960934">
        <ele>1499.2</ele>
        <time>2018-01-30T14:50:17Z</time>
      </trkpt>
      <trkpt lat="45.631189160862" lon="6.847624469487">
        <ele>1497.6</ele>
        <time>2018-01-30T14:50:20Z</time>
      </trkpt>
      <trkpt lat="45.631030575314" lon="6.847451718528">
        <ele>1496.2</ele>
        <time>2018-01-30T14:50:23Z</time>
      </trkpt>
      <trkpt lat="45.630815747217" lon="6.84726128176">
        <ele>1495.2</ele>
        <time>2018-01-30T14:50:27Z</time>
      </trkpt>
      <trkpt lat="45.630656910212" lon="6.847167823575">
        <ele>1494.6</ele>
        <time>2018-01-30T14:50:30Z</time>
      </trkpt>
      <trkpt lat="45.630503186166" lon="6.847053662097">
        <ele>1494</ele>
        <time>2018-01-30T14:50:33Z</time>
      </trkpt>
      <trkpt lat="45.630456331345" lon="6.847006891095">
        <ele>1493.8</ele>
        <time>2018-01-30T14:50:34Z</time>
      </trkpt>
      <trkpt lat="45.630308893724" lon="6.84683129029">
        <ele>1492.8</ele>
        <time>2018-01-30T14:50:37Z</time>
      </trkpt>
      <trkpt lat="45.630145865769" lon="6.846692569845">
        <ele>1491.8</ele>
        <time>2018-01-30T14:50:40Z</time>
      </trkpt>
      <trkpt lat="45.630091215781" lon="6.846668094697">
        <ele>1491.6</ele>
        <time>2018-01-30T14:50:41Z</time>
      </trkpt>
      <trkpt lat="45.630028938264" lon="6.846664406661">
        <ele>1491.4</ele>
        <time>2018-01-30T14:50:42Z</time>
      </trkpt>
      <trkpt lat="45.629943191427" lon="6.846836738525">
        <ele>1490.2</ele>
        <time>2018-01-30T14:50:45Z</time>
      </trkpt>
      <trkpt lat="45.629936318269" lon="6.846969088726">
        <ele>1489.6</ele>
        <time>2018-01-30T14:50:47Z</time>
      </trkpt>
      <trkpt lat="45.629939168115" lon="6.847059529427">
        <ele>1489.2</ele>
        <time>2018-01-30T14:50:49Z</time>
      </trkpt>
      <trkpt lat="45.62994545454" lon="6.847084926584">
        <ele>1489</ele>
        <time>2018-01-30T14:50:51Z</time>
      </trkpt>
      <trkpt lat="45.629195023033" lon="6.848279095877">
        <ele>1491.2</ele>
        <time>2018-01-30T14:51:54Z</time>
      </trkpt>
      <trkpt lat="45.629093769681" lon="6.84855460893">
        <ele>1490.4</ele>
        <time>2018-01-30T14:52:00Z</time>
      </trkpt>
      <trkpt lat="45.629109443834" lon="6.848658209214">
        <ele>1490</ele>
        <time>2018-01-30T14:52:04Z</time>
      </trkpt>
      <trkpt lat="45.629117741915" lon="6.848650330228">
        <ele>1489.8</ele>
        <time>2018-01-30T14:52:06Z</time>
      </trkpt>
      <trkpt lat="45.629198543431" lon="6.848356544633">
        <ele>1488.6</ele>
        <time>2018-01-30T14:52:57Z</time>
      </trkpt>
      <trkpt lat="45.62921371467" lon="6.848335338426">
        <ele>1488.6</ele>
        <time>2018-01-30T14:53:01Z</time>
      </trkpt>
      <trkpt lat="45.647601507795" lon="6.862025076601">
        <ele>1963.8</ele>
        <time>2018-01-30T15:02:48Z</time>
      </trkpt>
      <trkpt lat="45.647771576546" lon="6.862138567527">
        <ele>1962.8</ele>
        <time>2018-01-30T15:02:52Z</time>
      </trkpt>
      <trkpt lat="45.647814743331" lon="6.862178968285">
        <ele>1962.6</ele>
        <time>2018-01-30T15:02:53Z</time>
      </trkpt>
      <trkpt lat="45.647944159867" lon="6.862314922703">
        <ele>1961.4</ele>
        <time>2018-01-30T15:02:56Z</time>
      </trkpt>
      <trkpt lat="45.647986572281" lon="6.862357838031">
        <ele>1961</ele>
        <time>2018-01-30T15:02:57Z</time>
      </trkpt>
      <trkpt lat="45.64806963691" lon="6.862406872146">
        <ele>1960.2</ele>
        <time>2018-01-30T15:02:59Z</time>
      </trkpt>
      <trkpt lat="45.648132836436" lon="6.862436544072">
        <ele>1959.2</ele>
        <time>2018-01-30T15:03:02Z</time>
      </trkpt>
      <trkpt lat="45.64822889301" lon="6.862444003963">
        <ele>1958</ele>
        <time>2018-01-30T15:03:10Z</time>
      </trkpt>
      <trkpt lat="45.648333582941" lon="6.862480632866">
        <ele>1957.6</ele>
        <time>2018-01-30T15:03:13Z</time>
      </trkpt>
      <trkpt lat="45.648487726082" lon="6.862565206237">
        <ele>1956.6</ele>
        <time>2018-01-30T15:03:16Z</time>
      </trkpt>
      <trkpt lat="45.648619154274" lon="6.862637542034">
        <ele>1955.4</ele>
        <time>2018-01-30T15:03:18Z</time>
      </trkpt>
      <trkpt lat="45.648685790379" lon="6.862666124313">
        <ele>1954.6</ele>
        <time>2018-01-30T15:03:19Z</time>
      </trkpt>
      <trkpt lat="45.648762903859" lon="6.862675260584">
        <ele>1953.8</ele>
        <time>2018-01-30T15:03:20Z</time>
      </trkpt>
      <trkpt lat="45.648913107507" lon="6.862736699911">
        <ele>1952.8</ele>
        <time>2018-01-30T15:03:21Z</time>
      </trkpt>
      <trkpt lat="45.648913107507" lon="6.862736699911">
        <ele>1951</ele>
        <time>2018-01-30T15:03:22Z</time>
      </trkpt>
      <trkpt lat="45.64898074944" lon="6.86278791332">
        <ele>1949.8</ele>
        <time>2018-01-30T15:03:23Z</time>
      </trkpt>
      <trkpt lat="45.649055432169" lon="6.862831080105">
        <ele>1948.4</ele>
        <time>2018-01-30T15:03:24Z</time>
      </trkpt>
      <trkpt lat="45.649126343043" lon="6.862883215523">
        <ele>1946.8</ele>
        <time>2018-01-30T15:03:25Z</time>
      </trkpt>
      <trkpt lat="45.649185770714" lon="6.86297231512">
        <ele>1944.8</ele>
        <time>2018-01-30T15:03:26Z</time>
      </trkpt>
      <trkpt lat="45.649238744322" lon="6.863079938716">
        <ele>1942.6</ele>
        <time>2018-01-30T15:03:27Z</time>
      </trkpt>
      <trkpt lat="45.649298088174" lon="6.863195357479">
        <ele>1940.8</ele>
        <time>2018-01-30T15:03:28Z</time>
      </trkpt>
      <trkpt lat="45.649364389003" lon="6.863315386287">
        <ele>1939.2</ele>
        <time>2018-01-30T15:03:29Z</time>
      </trkpt>
      <trkpt lat="45.64940906453" lon="6.863452765628">
        <ele>1937.8</ele>
        <time>2018-01-30T15:03:30Z</time>
      </trkpt>
      <trkpt lat="45.649410908548" lon="6.863601209077">
        <ele>1935.8</ele>
        <time>2018-01-30T15:03:31Z</time>
      </trkpt>
      <trkpt lat="45.649382493907" lon="6.86376440467">
        <ele>1933.4</ele>
        <time>2018-01-30T15:03:32Z</time>
      </trkpt>
      <trkpt lat="45.6493445239" lon="6.86393958638">
        <ele>1931.4</ele>
        <time>2018-01-30T15:03:33Z</time>
      </trkpt>
      <trkpt lat="45.649264476755" lon="6.864298080243">
        <ele>1929.2</ele>
        <time>2018-01-30T15:03:34Z</time>
      </trkpt>
      <trkpt lat="45.649264476755" lon="6.864298080243">
        <ele>1926.6</ele>
        <time>2018-01-30T15:03:35Z</time>
      </trkpt>
      <trkpt lat="45.649166324706" lon="6.864617179176">
        <ele>1923.8</ele>
        <time>2018-01-30T15:03:36Z</time>
      </trkpt>
      <trkpt lat="45.649166324706" lon="6.864617179176">
        <ele>1921</ele>
        <time>2018-01-30T15:03:37Z</time>
      </trkpt>
      <trkpt lat="45.649112932003" lon="6.864787331746">
        <ele>1918.8</ele>
        <time>2018-01-30T15:03:38Z</time>
      </trkpt>
      <trkpt lat="45.649049397201" lon="6.864956813764">
        <ele>1916.6</ele>
        <time>2018-01-30T15:03:39Z</time>
      </trkpt>
      <trkpt lat="45.648976977585" lon="6.865139120089">
        <ele>1914.2</ele>
        <time>2018-01-30T15:03:40Z</time>
      </trkpt>
      <trkpt lat="45.648882345934" lon="6.865322264604">
        <ele>1910.8</ele>
        <time>2018-01-30T15:03:41Z</time>
      </trkpt>
      <trkpt lat="45.648641953042" lon="6.865597274743">
        <ele>1906.4</ele>
        <time>2018-01-30T15:03:42Z</time>
      </trkpt>
      <trkpt lat="45.648641953042" lon="6.865597274743">
        <ele>1901.2</ele>
        <time>2018-01-30T15:03:43Z</time>
      </trkpt>
      <trkpt lat="45.648540364414" lon="6.865751501703">
        <ele>1896.8</ele>
        <time>2018-01-30T15:03:44Z</time>
      </trkpt>
      <trkpt lat="45.648451180998" lon="6.865916708952">
        <ele>1893.4</ele>
        <time>2018-01-30T15:03:45Z</time>
      </trkpt>
      <trkpt lat="45.648351771664" lon="6.86601829758">
        <ele>1890.8</ele>
        <time>2018-01-30T15:03:46Z</time>
      </trkpt>
      <trkpt lat="45.648235682349" lon="6.866059955623">
        <ele>1887.6</ele>
        <time>2018-01-30T15:03:47Z</time>
      </trkpt>
      <trkpt lat="45.64812244288" lon="6.866107229539">
        <ele>1883.8</ele>
        <time>2018-01-30T15:03:48Z</time>
      </trkpt>
      <trkpt lat="45.648016998578" lon="6.866192305824">
        <ele>1880.2</ele>
        <time>2018-01-30T15:03:49Z</time>
      </trkpt>
      <trkpt lat="45.647940890926" lon="6.866326583862">
        <ele>1876.8</ele>
        <time>2018-01-30T15:03:50Z</time>
      </trkpt>
      <trkpt lat="45.647729667046" lon="6.866481313736">
        <ele>1873.4</ele>
        <time>2018-01-30T15:03:51Z</time>
      </trkpt>
      <trkpt lat="45.647729667046" lon="6.866481313736">
        <ele>1869.4</ele>
        <time>2018-01-30T15:03:52Z</time>
      </trkpt>
      <trkpt lat="45.647624306563" lon="6.866552978981">
        <ele>1865.8</ele>
        <time>2018-01-30T15:03:53Z</time>
      </trkpt>
      <trkpt lat="45.647532860034" lon="6.866652639772">
        <ele>1862.2</ele>
        <time>2018-01-30T15:03:54Z</time>
      </trkpt>
      <trkpt lat="45.647466894481" lon="6.866801753773">
        <ele>1858.4</ele>
        <time>2018-01-30T15:03:55Z</time>
      </trkpt>
      <trkpt lat="45.647463541721" lon="6.866973666542">
        <ele>1854.4</ele>
        <time>2018-01-30T15:03:56Z</time>
      </trkpt>
      <trkpt lat="45.647469157594" lon="6.867137448868">
        <ele>1850.4</ele>
        <time>2018-01-30T15:03:57Z</time>
      </trkpt>
      <trkpt lat="45.647433031605" lon="6.867255633658">
        <ele>1846.6</ele>
        <time>2018-01-30T15:03:58Z</time>
      </trkpt>
      <trkpt lat="45.647363964749" lon="6.867334088242">
        <ele>1842.6</ele>
        <time>2018-01-30T15:03:59Z</time>
      </trkpt>
      <trkpt lat="45.647287689459" lon="6.867404747659">
        <ele>1838.2</ele>
        <time>2018-01-30T15:04:00Z</time>
      </trkpt>
      <trkpt lat="45.64721133035" lon="6.867491500324">
        <ele>1834.4</ele>
        <time>2018-01-30T15:04:01Z</time>
      </trkpt>
      <trkpt lat="45.647181071691" lon="6.867610774761">
        <ele>1831.2</ele>
        <time>2018-01-30T15:04:02Z</time>
      </trkpt>
      <trkpt lat="45.647170678135" lon="6.867741783858">
        <ele>1828.2</ele>
        <time>2018-01-30T15:04:03Z</time>
      </trkpt>
      <trkpt lat="45.647128433359" lon="6.867872206222">
        <ele>1825</ele>
        <time>2018-01-30T15:04:04Z</time>
      </trkpt>
      <trkpt lat="45.647068167498" lon="6.868011010486">
        <ele>1821.6</ele>
        <time>2018-01-30T15:04:05Z</time>
      </trkpt>
      <trkpt lat="45.64701267932" lon="6.868161214134">
        <ele>1818.4</ele>
        <time>2018-01-30T15:04:06Z</time>
      </trkpt>
      <trkpt lat="45.646942774274" lon="6.86832415827">
        <ele>1815</ele>
        <time>2018-01-30T15:04:07Z</time>
      </trkpt>
      <trkpt lat="45.646871109029" lon="6.868489114062">
        <ele>1811.8</ele>
        <time>2018-01-30T15:04:08Z</time>
      </trkpt>
      <trkpt lat="45.646806903675" lon="6.868670582197">
        <ele>1808.8</ele>
        <time>2018-01-30T15:04:09Z</time>
      </trkpt>
      <trkpt lat="45.646727024168" lon="6.868849116667">
        <ele>1805.4</ele>
        <time>2018-01-30T15:04:10Z</time>
      </trkpt>
      <trkpt lat="45.646646977023" lon="6.869024298377">
        <ele>1801.8</ele>
        <time>2018-01-30T15:04:11Z</time>
      </trkpt>
      <trkpt lat="45.646591321207" lon="6.869205431236">
        <ele>1798.4</ele>
        <time>2018-01-30T15:04:12Z</time>
      </trkpt>
      <trkpt lat="45.646584783325" lon="6.869384636258">
        <ele>1795.6</ele>
        <time>2018-01-30T15:04:13Z</time>
      </trkpt>
      <trkpt lat="45.646581430565" lon="6.869560153244">
        <ele>1793.6</ele>
        <time>2018-01-30T15:04:14Z</time>
      </trkpt>
      <trkpt lat="45.646561397824" lon="6.869722929742">
        <ele>1791.4</ele>
        <time>2018-01-30T15:04:15Z</time>
      </trkpt>
      <trkpt lat="45.646551171906" lon="6.869887885534">
        <ele>1789.2</ele>
        <time>2018-01-30T15:04:16Z</time>
      </trkpt>
      <trkpt lat="45.646568606258" lon="6.870065330357">
        <ele>1786.8</ele>
        <time>2018-01-30T15:04:17Z</time>
      </trkpt>
      <trkpt lat="45.646599535469" lon="6.87025283346">
        <ele>1784.6</ele>
        <time>2018-01-30T15:04:18Z</time>
      </trkpt>
      <trkpt lat="45.646617221278" lon="6.870460285485">
        <ele>1782.2</ele>
        <time>2018-01-30T15:04:19Z</time>
      </trkpt>
      <trkpt lat="45.646589058094" lon="6.87068366312">
        <ele>1778.6</ele>
        <time>2018-01-30T15:04:20Z</time>
      </trkpt>
      <trkpt lat="45.646558967073" lon="6.870899580864">
        <ele>1774.4</ele>
        <time>2018-01-30T15:04:21Z</time>
      </trkpt>
      <trkpt lat="45.646546142766" lon="6.871103763948">
        <ele>1770.2</ele>
        <time>2018-01-30T15:04:22Z</time>
      </trkpt>
      <trkpt lat="45.646531893536" lon="6.871266875722">
        <ele>1767</ele>
        <time>2018-01-30T15:04:23Z</time>
      </trkpt>
      <trkpt lat="45.646482607964" lon="6.871369637816">
        <ele>1763.8</ele>
        <time>2018-01-30T15:04:24Z</time>
      </trkpt>
      <trkpt lat="45.64642929908" lon="6.871391598394">
        <ele>1761</ele>
        <time>2018-01-30T15:04:25Z</time>
      </trkpt>
      <trkpt lat="45.646405075389" lon="6.871367207065">
        <ele>1758.4</ele>
        <time>2018-01-30T15:04:26Z</time>
      </trkpt>
      <trkpt lat="45.646391245254" lon="6.871344827392">
        <ele>1756.8</ele>
        <time>2018-01-30T15:04:27Z</time>
      </trkpt>
      <trkpt lat="45.64639577148" lon="6.871316077475">
        <ele>1755.6</ele>
        <time>2018-01-30T15:04:28Z</time>
      </trkpt>
      <trkpt lat="45.646397866955" lon="6.871299984227">
        <ele>1754.6</ele>
        <time>2018-01-30T15:04:29Z</time>
      </trkpt>
      <trkpt lat="45.646399208059" lon="6.871292943431">
        <ele>1754.2</ele>
        <time>2018-01-30T15:04:30Z</time>
      </trkpt>
      <trkpt lat="45.646397783136" lon="6.871376091879">
        <ele>1754</ele>
        <time>2018-01-30T15:04:34Z</time>
      </trkpt>
      <trkpt lat="45.646333326325" lon="6.871632997114">
        <ele>1753.6</ele>
        <time>2018-01-30T15:04:40Z</time>
      </trkpt>
      <trkpt lat="45.64629686506" lon="6.871758977071">
        <ele>1753</ele>
        <time>2018-01-30T15:04:42Z</time>
      </trkpt>
      <trkpt lat="45.646255877569" lon="6.871912365841">
        <ele>1751.6</ele>
        <time>2018-01-30T15:04:45Z</time>
      </trkpt>
      <trkpt lat="45.646201059943" lon="6.872209420377">
        <ele>1750.2</ele>
        <time>2018-01-30T15:04:47Z</time>
      </trkpt>
      <trkpt lat="45.646158815167" lon="6.872296005404">
        <ele>1748.8</ele>
        <time>2018-01-30T15:04:49Z</time>
      </trkpt>
      <trkpt lat="45.646116486572" lon="6.87238267425">
        <ele>1747.8</ele>
        <time>2018-01-30T15:04:50Z</time>
      </trkpt>
      <trkpt lat="45.646090335044" lon="6.872473282589">
        <ele>1746.2</ele>
        <time>2018-01-30T15:04:51Z</time>
      </trkpt>
      <trkpt lat="45.646082623696" lon="6.872574787398">
        <ele>1744.2</ele>
        <time>2018-01-30T15:04:52Z</time>
      </trkpt>
      <trkpt lat="45.646057729453" lon="6.872671263067">
        <ele>1742.4</ele>
        <time>2018-01-30T15:04:53Z</time>
      </trkpt>
      <trkpt lat="45.646020010903" lon="6.872763463967">
        <ele>1740.6</ele>
        <time>2018-01-30T15:04:54Z</time>
      </trkpt>
      <trkpt lat="45.64600182218" lon="6.872873937409">
        <ele>1738.6</ele>
        <time>2018-01-30T15:04:55Z</time>
      </trkpt>
      <trkpt lat="45.645983465819" lon="6.872992206018">
        <ele>1736.4</ele>
        <time>2018-01-30T15:04:56Z</time>
      </trkpt>
      <trkpt lat="45.645944489984" lon="6.873099661976">
        <ele>1733.8</ele>
        <time>2018-01-30T15:04:57Z</time>
      </trkpt>
      <trkpt lat="45.64591465042" lon="6.873215332196">
        <ele>1731.4</ele>
        <time>2018-01-30T15:04:58Z</time>
      </trkpt>
      <trkpt lat="45.645884643218" lon="6.873336031556">
        <ele>1729</ele>
        <time>2018-01-30T15:04:59Z</time>
      </trkpt>
      <trkpt lat="45.64584591884" lon="6.873457569106">
        <ele>1727</ele>
        <time>2018-01-30T15:05:00Z</time>
      </trkpt>
      <trkpt lat="45.645805015168" lon="6.873587907651">
        <ele>1724.6</ele>
        <time>2018-01-30T15:05:01Z</time>
      </trkpt>
      <trkpt lat="45.64576293803" lon="6.873729394123">
        <ele>1722</ele>
        <time>2018-01-30T15:05:02Z</time>
      </trkpt>
      <trkpt lat="45.645700576694" lon="6.87386291779">
        <ele>1718.6</ele>
        <time>2018-01-30T15:05:03Z</time>
      </trkpt>
      <trkpt lat="45.645639891738" lon="6.874008092298">
        <ele>1715.6</ele>
        <time>2018-01-30T15:05:04Z</time>
      </trkpt>
      <trkpt lat="45.645582308085" lon="6.874164079457">
        <ele>1712.2</ele>
        <time>2018-01-30T15:05:05Z</time>
      </trkpt>
      <trkpt lat="45.645522796595" lon="6.874311852354">
        <ele>1708.8</ele>
        <time>2018-01-30T15:05:06Z</time>
      </trkpt>
      <trkpt lat="45.645470912634" lon="6.874469348255">
        <ele>1705</ele>
        <time>2018-01-30T15:05:07Z</time>
      </trkpt>
      <trkpt lat="45.645415843551" lon="6.874637321531">
        <ele>1701.6</ele>
        <time>2018-01-30T15:05:08Z</time>
      </trkpt>
      <trkpt lat="45.64535306312" lon="6.87481258706">
        <ele>1698</ele>
        <time>2018-01-30T15:05:09Z</time>
      </trkpt>
      <trkpt lat="45.645297826399" lon="6.87499950343">
        <ele>1694.6</ele>
        <time>2018-01-30T15:05:10Z</time>
      </trkpt>
      <trkpt lat="45.645253150872" lon="6.875166638516">
        <ele>1690.2</ele>
        <time>2018-01-30T15:05:11Z</time>
      </trkpt>
      <trkpt lat="45.645104288328" lon="6.875444498501">
        <ele>1686.8</ele>
        <time>2018-01-30T15:05:12Z</time>
      </trkpt>
      <trkpt lat="45.645049973616" lon="6.875589253914">
        <ele>1683.6</ele>
        <time>2018-01-30T15:05:13Z</time>
      </trkpt>
      <trkpt lat="45.645018960586" lon="6.875741720675">
        <ele>1681.8</ele>
        <time>2018-01-30T15:05:14Z</time>
      </trkpt>
      <trkpt lat="45.645018960586" lon="6.875741720675">
        <ele>1680.2</ele>
        <time>2018-01-30T15:05:15Z</time>
      </trkpt>
      <trkpt lat="45.644939081079" lon="6.876070961707">
        <ele>1678</ele>
        <time>2018-01-30T15:05:16Z</time>
      </trkpt>
      <trkpt lat="45.64489624957" lon="6.876249579996">
        <ele>1675.4</ele>
        <time>2018-01-30T15:05:17Z</time>
      </trkpt>
      <trkpt lat="45.644852328414" lon="6.876448147207">
        <ele>1672</ele>
        <time>2018-01-30T15:05:18Z</time>
      </trkpt>
      <trkpt lat="45.644852328414" lon="6.876448147207">
        <ele>1668.6</ele>
        <time>2018-01-30T15:05:19Z</time>
      </trkpt>
      <trkpt lat="45.644805222136" lon="6.876849807855">
        <ele>1665</ele>
        <time>2018-01-30T15:05:20Z</time>
      </trkpt>
      <trkpt lat="45.644796756417" lon="6.877045944315">
        <ele>1662</ele>
        <time>2018-01-30T15:05:21Z</time>
      </trkpt>
      <trkpt lat="45.64480237229" lon="6.877226825717">
        <ele>1660.2</ele>
        <time>2018-01-30T15:05:22Z</time>
      </trkpt>
      <trkpt lat="45.644824332868" lon="6.877400582504">
        <ele>1658.2</ele>
        <time>2018-01-30T15:05:23Z</time>
      </trkpt>
      <trkpt lat="45.644824332868" lon="6.877400582504">
        <ele>1655.8</ele>
        <time>2018-01-30T15:05:24Z</time>
      </trkpt>
      <trkpt lat="45.644858028106" lon="6.877543242442">
        <ele>1653.4</ele>
        <time>2018-01-30T15:05:25Z</time>
      </trkpt>
      <trkpt lat="45.64485098731" lon="6.877670395865">
        <ele>1651.2</ele>
        <time>2018-01-30T15:05:26Z</time>
      </trkpt>
      <trkpt lat="45.644853334242" lon="6.877777935642">
        <ele>1649.4</ele>
        <time>2018-01-30T15:05:27Z</time>
      </trkpt>
      <trkpt lat="45.644844114152" lon="6.877929731851">
        <ele>1647.4</ele>
        <time>2018-01-30T15:05:28Z</time>
      </trkpt>
      <trkpt lat="45.644850232939" lon="6.877909112377">
        <ele>1645.8</ele>
        <time>2018-01-30T15:05:29Z</time>
      </trkpt>
      <trkpt lat="45.644855932631" lon="6.877930067127">
        <ele>1644.2</ele>
        <time>2018-01-30T15:05:30Z</time>
      </trkpt>
      <trkpt lat="45.644880659236" lon="6.877905591979">
        <ele>1643</ele>
        <time>2018-01-30T15:05:31Z</time>
      </trkpt>
      <trkpt lat="45.644904966746" lon="6.877887235618">
        <ele>1642.2</ele>
        <time>2018-01-30T15:05:32Z</time>
      </trkpt>
      <trkpt lat="45.644927430238" lon="6.877868292524">
        <ele>1641.4</ele>
        <time>2018-01-30T15:05:33Z</time>
      </trkpt>
      <trkpt lat="45.64495073192" lon="6.877850439077">
        <ele>1640.8</ele>
        <time>2018-01-30T15:05:36Z</time>
      </trkpt>
      <trkpt lat="45.645032539264" lon="6.877813139622">
        <ele>1640.8</ele>
        <time>2018-01-30T15:05:42Z</time>
      </trkpt>
      <trkpt lat="45.64505718205" lon="6.877800063858">
        <ele>1640.6</ele>
        <time>2018-01-30T15:05:44Z</time>
      </trkpt>
      <trkpt lat="45.645199422893" lon="6.877676430833">
        <ele>1639.2</ele>
        <time>2018-01-30T15:06:44Z</time>
      </trkpt>
      <trkpt lat="45.645466302589" lon="6.87764650745">
        <ele>1638.6</ele>
        <time>2018-01-30T15:06:50Z</time>
      </trkpt>
      <trkpt lat="45.645600832084" lon="6.877646339812">
        <ele>1640.4</ele>
        <time>2018-01-30T15:06:53Z</time>
      </trkpt>
      <trkpt lat="45.645646932534" lon="6.877643741423">
        <ele>1641.6</ele>
        <time>2018-01-30T15:06:54Z</time>
      </trkpt>
      <trkpt lat="45.657446636078" lon="6.87705306893">
        <ele>2021.4</ele>
        <time>2018-01-30T15:12:25Z</time>
      </trkpt>
      <trkpt lat="45.657446636078" lon="6.87705306893">
        <ele>2020.2</ele>
        <time>2018-01-30T15:12:26Z</time>
      </trkpt>
      <trkpt lat="45.657481756239" lon="6.877325983594">
        <ele>2018.4</ele>
        <time>2018-01-30T15:12:27Z</time>
      </trkpt>
      <trkpt lat="45.657524755386" lon="6.877446012402">
        <ele>2016.8</ele>
        <time>2018-01-30T15:12:28Z</time>
      </trkpt>
      <trkpt lat="45.657577477537" lon="6.877552211075">
        <ele>2015</ele>
        <time>2018-01-30T15:12:29Z</time>
      </trkpt>
      <trkpt lat="45.657643275452" lon="6.877644914889">
        <ele>2012.8</ele>
        <time>2018-01-30T15:12:30Z</time>
      </trkpt>
      <trkpt lat="45.657643275452" lon="6.877644914889">
        <ele>2010.4</ele>
        <time>2018-01-30T15:12:31Z</time>
      </trkpt>
      <trkpt lat="45.657710917385" lon="6.877724794396">
        <ele>2007.6</ele>
        <time>2018-01-30T15:12:32Z</time>
      </trkpt>
      <trkpt lat="45.657861204852" lon="6.877715071392">
        <ele>2005.4</ele>
        <time>2018-01-30T15:12:33Z</time>
      </trkpt>
      <trkpt lat="45.657925326387" lon="6.877640053387">
        <ele>2003.6</ele>
        <time>2018-01-30T15:12:34Z</time>
      </trkpt>
      <trkpt lat="45.65797368995" lon="6.877516336543">
        <ele>2001.6</ele>
        <time>2018-01-30T15:12:35Z</time>
      </trkpt>
      <trkpt lat="45.657963799308" lon="6.877326486508">
        <ele>1999.2</ele>
        <time>2018-01-30T15:12:36Z</time>
      </trkpt>
      <trkpt lat="45.657968409353" lon="6.87718215019">
        <ele>1996.2</ele>
        <time>2018-01-30T15:12:37Z</time>
      </trkpt>
      <trkpt lat="45.657969582819" lon="6.877045776677">
        <ele>1993</ele>
        <time>2018-01-30T15:12:38Z</time>
      </trkpt>
      <trkpt lat="45.657970169552" lon="6.876912504467">
        <ele>1990</ele>
        <time>2018-01-30T15:12:39Z</time>
      </trkpt>
      <trkpt lat="45.658006127903" lon="6.876843940525">
        <ele>1987.4</ele>
        <time>2018-01-30T15:12:40Z</time>
      </trkpt>
      <trkpt lat="45.658062454271" lon="6.876813598047">
        <ele>1985</ele>
        <time>2018-01-30T15:12:41Z</time>
      </trkpt>
      <trkpt lat="45.658108722359" lon="6.876862715981">
        <ele>1983</ele>
        <time>2018-01-30T15:12:42Z</time>
      </trkpt>
      <trkpt lat="45.658141076493" lon="6.876934297407">
        <ele>1981</ele>
        <time>2018-01-30T15:12:43Z</time>
      </trkpt>
      <trkpt lat="45.658164126718" lon="6.877046195772">
        <ele>1979.4</ele>
        <time>2018-01-30T15:12:44Z</time>
      </trkpt>
      <trkpt lat="45.658206287675" lon="6.8771561663">
        <ele>1977.8</ele>
        <time>2018-01-30T15:12:45Z</time>
      </trkpt>
      <trkpt lat="45.658253896867" lon="6.877268316122">
        <ele>1976.2</ele>
        <time>2018-01-30T15:12:46Z</time>
      </trkpt>
      <trkpt lat="45.658322460809" lon="6.877371329673">
        <ele>1974.6</ele>
        <time>2018-01-30T15:12:47Z</time>
      </trkpt>
      <trkpt lat="45.658380044462" lon="6.877484569142">
        <ele>1972.8</ele>
        <time>2018-01-30T15:12:48Z</time>
      </trkpt>
      <trkpt lat="45.658419271754" lon="6.877603843579">
        <ele>1970.8</ele>
        <time>2018-01-30T15:12:49Z</time>
      </trkpt>
      <trkpt lat="45.6584221216" lon="6.877732086649">
        <ele>1968.8</ele>
        <time>2018-01-30T15:12:50Z</time>
      </trkpt>
      <trkpt lat="45.658414242614" lon="6.877863179565">
        <ele>1966.6</ele>
        <time>2018-01-30T15:12:51Z</time>
      </trkpt>
      <trkpt lat="45.658407117999" lon="6.878006342417">
        <ele>1964.2</ele>
        <time>2018-01-30T15:12:52Z</time>
      </trkpt>
      <trkpt lat="45.658404687248" lon="6.878138692618">
        <ele>1962</ele>
        <time>2018-01-30T15:12:53Z</time>
      </trkpt>
      <trkpt lat="45.658417260098" lon="6.878281604013">
        <ele>1959.8</ele>
        <time>2018-01-30T15:12:54Z</time>
      </trkpt>
      <trkpt lat="45.658432347518" lon="6.878423928675">
        <ele>1957.6</ele>
        <time>2018-01-30T15:12:55Z</time>
      </trkpt>
      <trkpt lat="45.658457074123" lon="6.878568181174">
        <ele>1954.8</ele>
        <time>2018-01-30T15:12:56Z</time>
      </trkpt>
      <trkpt lat="45.658498983623" lon="6.878709416189">
        <ele>1952.4</ele>
        <time>2018-01-30T15:12:57Z</time>
      </trkpt>
      <trkpt lat="45.658563272796" lon="6.878823661486">
        <ele>1949.8</ele>
        <time>2018-01-30T15:12:58Z</time>
      </trkpt>
      <trkpt lat="45.658642817027" lon="6.878928016141">
        <ele>1947.6</ele>
        <time>2018-01-30T15:12:59Z</time>
      </trkpt>
      <trkpt lat="45.658725797837" lon="6.879022396335">
        <ele>1945</ele>
        <time>2018-01-30T15:13:00Z</time>
      </trkpt>
      <trkpt lat="45.658830823044" lon="6.879081237273">
        <ele>1941.6</ele>
        <time>2018-01-30T15:13:01Z</time>
      </trkpt>
      <trkpt lat="45.658955880992" lon="6.879124152601">
        <ele>1938.2</ele>
        <time>2018-01-30T15:13:02Z</time>
      </trkpt>
      <trkpt lat="45.6590675279" lon="6.879196991312">
        <ele>1934.6</ele>
        <time>2018-01-30T15:13:03Z</time>
      </trkpt>
      <trkpt lat="45.659173642754" lon="6.879269997661">
        <ele>1930.8</ele>
        <time>2018-01-30T15:13:04Z</time>
      </trkpt>
      <trkpt lat="45.659304316575" lon="6.879301178329">
        <ele>1926.8</ele>
        <time>2018-01-30T15:13:05Z</time>
      </trkpt>
      <trkpt lat="45.659428117238" lon="6.879341495268">
        <ele>1923</ele>
        <time>2018-01-30T15:13:06Z</time>
      </trkpt>
      <trkpt lat="45.659545128562" lon="6.879376447791">
        <ele>1919.2</ele>
        <time>2018-01-30T15:13:07Z</time>
      </trkpt>
      <trkpt lat="45.659672617261" lon="6.879418105834">
        <ele>1915</ele>
        <time>2018-01-30T15:13:08Z</time>
      </trkpt>
      <trkpt lat="45.659808906955" lon="6.879459596239">
        <ele>1910.8</ele>
        <time>2018-01-30T15:13:09Z</time>
      </trkpt>
      <trkpt lat="45.659927007926" lon="6.879557664469">
        <ele>1907.2</ele>
        <time>2018-01-30T15:13:10Z</time>
      </trkpt>
      <trkpt lat="45.66004150468" lon="6.87966570716">
        <ele>1903.6</ele>
        <time>2018-01-30T15:13:11Z</time>
      </trkpt>
      <trkpt lat="45.66015633671" lon="6.879775677688">
        <ele>1899.8</ele>
        <time>2018-01-30T15:13:12Z</time>
      </trkpt>
      <trkpt lat="45.660282400486" lon="6.879883133646">
        <ele>1896</ele>
        <time>2018-01-30T15:13:13Z</time>
      </trkpt>
      <trkpt lat="45.660420534198" lon="6.879984303179">
        <ele>1892.6</ele>
        <time>2018-01-30T15:13:14Z</time>
      </trkpt>
      <trkpt lat="45.66057040257" lon="6.88007474388">
        <ele>1889.2</ele>
        <time>2018-01-30T15:13:15Z</time>
      </trkpt>
      <trkpt lat="45.660735358362" lon="6.880151522084">
        <ele>1885.8</ele>
        <time>2018-01-30T15:13:16Z</time>
      </trkpt>
      <trkpt lat="45.660904672742" lon="6.880213715782">
        <ele>1883</ele>
        <time>2018-01-30T15:13:17Z</time>
      </trkpt>
      <trkpt lat="45.661069460896" lon="6.880260402965">
        <ele>1880</ele>
        <time>2018-01-30T15:13:18Z</time>
      </trkpt>
      <trkpt lat="45.661232488851" lon="6.880290829262">
        <ele>1877.2</ele>
        <time>2018-01-30T15:13:19Z</time>
      </trkpt>
      <trkpt lat="45.661356792428" lon="6.880038534072">
        <ele>1873.6</ele>
        <time>2018-01-30T15:13:20Z</time>
      </trkpt>
      <trkpt lat="45.661442623084" lon="6.879734522559">
        <ele>1871</ele>
        <time>2018-01-30T15:13:21Z</time>
      </trkpt>
      <trkpt lat="45.661412112968" lon="6.879588677499">
        <ele>1868.4</ele>
        <time>2018-01-30T15:13:22Z</time>
      </trkpt>
      <trkpt lat="45.661474139028" lon="6.879487675604">
        <ele>1866.4</ele>
        <time>2018-01-30T15:13:23Z</time>
      </trkpt>
      <trkpt lat="45.661533566699" lon="6.879455237651">
        <ele>1864.6</ele>
        <time>2018-01-30T15:13:24Z</time>
      </trkpt>
      <trkpt lat="45.661627024884" lon="6.879472336727">
        <ele>1863.2</ele>
        <time>2018-01-30T15:13:26Z</time>
      </trkpt>
      <trkpt lat="45.661642028485" lon="6.879485747767">
        <ele>1862</ele>
        <time>2018-01-30T15:13:29Z</time>
      </trkpt>
      <trkpt lat="45.661624929409" lon="6.879485412491">
        <ele>1861</ele>
        <time>2018-01-30T15:13:33Z</time>
      </trkpt>
      <trkpt lat="45.661624929409" lon="6.879485412491">
        <ele>1860.8</ele>
        <time>2018-01-30T15:13:34Z</time>
      </trkpt>
      <trkpt lat="45.662038743812" lon="6.879361779466">
        <ele>1859.4</ele>
        <time>2018-01-30T15:14:04Z</time>
      </trkpt>
      <trkpt lat="45.662149301073" lon="6.879206881954">
        <ele>1858.4</ele>
        <time>2018-01-30T15:14:06Z</time>
      </trkpt>
      <trkpt lat="45.662183331587" lon="6.879112334122">
        <ele>1857.8</ele>
        <time>2018-01-30T15:14:07Z</time>
      </trkpt>
      <trkpt lat="45.662220211947" lon="6.878945869588">
        <ele>1856.6</ele>
        <time>2018-01-30T15:14:09Z</time>
      </trkpt>
      <trkpt lat="45.662234125901" lon="6.878873198515">
        <ele>1856.2</ele>
        <time>2018-01-30T15:14:10Z</time>
      </trkpt>
      <trkpt lat="45.662315933245" lon="6.87866574649">
        <ele>1855.4</ele>
        <time>2018-01-30T15:14:12Z</time>
      </trkpt>
      <trkpt lat="45.662553979205" lon="6.878464497071">
        <ele>1853.4</ele>
        <time>2018-01-30T15:14:15Z</time>
      </trkpt>
      <trkpt lat="45.66264157006" lon="6.878363830452">
        <ele>1852</ele>
        <time>2018-01-30T15:14:16Z</time>
      </trkpt>
      <trkpt lat="45.662735112064" lon="6.878254111381">
        <ele>1850.2</ele>
        <time>2018-01-30T15:14:17Z</time>
      </trkpt>
      <trkpt lat="45.662828067335" lon="6.878124862483">
        <ele>1848.6</ele>
        <time>2018-01-30T15:14:18Z</time>
      </trkpt>
      <trkpt lat="45.662917083113" lon="6.877996367956">
        <ele>1846.8</ele>
        <time>2018-01-30T15:14:19Z</time>
      </trkpt>
      <trkpt lat="45.662996627344" lon="6.87787030418">
        <ele>1844.8</ele>
        <time>2018-01-30T15:14:20Z</time>
      </trkpt>
      <trkpt lat="45.663070471883" lon="6.877718759428">
        <ele>1842.2</ele>
        <time>2018-01-30T15:14:21Z</time>
      </trkpt>
      <trkpt lat="45.663106681691" lon="6.877518599656">
        <ele>1839.8</ele>
        <time>2018-01-30T15:14:22Z</time>
      </trkpt>
      <trkpt lat="45.663126379156" lon="6.877320116264">
        <ele>1837.4</ele>
        <time>2018-01-30T15:14:23Z</time>
      </trkpt>
      <trkpt lat="45.663148591191" lon="6.877126997288">
        <ele>1836</ele>
        <time>2018-01-30T15:14:24Z</time>
      </trkpt>
      <trkpt lat="45.663168623932" lon="6.876955755071">
        <ele>1834.4</ele>
        <time>2018-01-30T15:14:25Z</time>
      </trkpt>
      <trkpt lat="45.66317549709" lon="6.876793397668">
        <ele>1832.8</ele>
        <time>2018-01-30T15:14:26Z</time>
      </trkpt>
      <trkpt lat="45.663195110736" lon="6.876669010272">
        <ele>1830.6</ele>
        <time>2018-01-30T15:14:27Z</time>
      </trkpt>
      <trkpt lat="45.663232913105" lon="6.876605978384">
        <ele>1828.4</ele>
        <time>2018-01-30T15:14:28Z</time>
      </trkpt>
      <trkpt lat="45.663274235872" lon="6.876590555688">
        <ele>1826.4</ele>
        <time>2018-01-30T15:14:29Z</time>
      </trkpt>
      <trkpt lat="45.663307763472" lon="6.876577396105">
        <ele>1824.8</ele>
        <time>2018-01-30T15:14:30Z</time>
      </trkpt>
      <trkpt lat="45.663335423742" lon="6.876562560142">
        <ele>1823.6</ele>
        <time>2018-01-30T15:14:31Z</time>
      </trkpt>
      <trkpt lat="45.663366101496" lon="6.876534480777">
        <ele>1822.2</ele>
        <time>2018-01-30T15:14:33Z</time>
      </trkpt>
      <trkpt lat="45.663382781477" lon="6.876531798569">
        <ele>1821.6</ele>
        <time>2018-01-30T15:14:35Z</time>
      </trkpt>
      <trkpt lat="45.663389989911" lon="6.876533894044">
        <ele>1821.2</ele>
        <time>2018-01-30T15:14:37Z</time>
      </trkpt>
      <trkpt lat="45.663431647954" lon="6.876521907927">
        <ele>1821</ele>
        <time>2018-01-30T15:14:42Z</time>
      </trkpt>
      <trkpt lat="45.663475066196" lon="6.876540012831">
        <ele>1821</ele>
        <time>2018-01-30T15:14:45Z</time>
      </trkpt>
      <trkpt lat="45.663509515805" lon="6.876580832684">
        <ele>1820.8</ele>
        <time>2018-01-30T15:14:48Z</time>
      </trkpt>
      <trkpt lat="45.663535834971" lon="6.876602290348">
        <ele>1820</ele>
        <time>2018-01-30T15:14:51Z</time>
      </trkpt>
      <trkpt lat="45.663546731441" lon="6.87663145936">
        <ele>1820.4</ele>
        <time>2018-01-30T15:14:56Z</time>
      </trkpt>
      <trkpt lat="45.679693875058" lon="6.903955196075">
        <ele>2202.8</ele>
        <time>2018-01-30T15:31:22Z</time>
      </trkpt>
      <trkpt lat="45.679693875058" lon="6.903955196075">
        <ele>2202.8</ele>
        <time>2018-01-30T15:31:24Z</time>
      </trkpt>
      <trkpt lat="45.68248488012" lon="6.909736360143">
        <ele>2127.6</ele>
        <time>2018-01-30T15:40:25Z</time>
      </trkpt>
      <trkpt lat="45.682628797343" lon="6.910052693049">
        <ele>2125.4</ele>
        <time>2018-01-30T15:40:27Z</time>
      </trkpt>
      <trkpt lat="45.68270197133" lon="6.910204656896">
        <ele>2124.2</ele>
        <time>2018-01-30T15:40:28Z</time>
      </trkpt>
      <trkpt lat="45.68277321748" lon="6.910357626571">
        <ele>2122.8</ele>
        <time>2018-01-30T15:40:29Z</time>
      </trkpt>
      <trkpt lat="45.683100614494" lon="6.910891134506">
        <ele>2121.4</ele>
        <time>2018-01-30T15:40:33Z</time>
      </trkpt>
      <trkpt lat="45.683100614494" lon="6.910891134506">
        <ele>2120.2</ele>
        <time>2018-01-30T15:40:34Z</time>
      </trkpt>
      <trkpt lat="45.683196754887" lon="6.911004876889">
        <ele>2119</ele>
        <time>2018-01-30T15:40:35Z</time>
      </trkpt>
      <trkpt lat="45.683297002411" lon="6.911115685607">
        <ele>2117.8</ele>
        <time>2018-01-30T15:40:36Z</time>
      </trkpt>
      <trkpt lat="45.683398926315" lon="6.911228925076">
        <ele>2116.6</ele>
        <time>2018-01-30T15:40:37Z</time>
      </trkpt>
      <trkpt lat="45.683502275142" lon="6.911345601124">
        <ele>2115.2</ele>
        <time>2018-01-30T15:40:38Z</time>
      </trkpt>
      <trkpt lat="45.683609563462" lon="6.911466803398">
        <ele>2113.8</ele>
        <time>2018-01-30T15:40:39Z</time>
      </trkpt>
      <trkpt lat="45.683719701628" lon="6.911593034812">
        <ele>2112</ele>
        <time>2018-01-30T15:40:40Z</time>
      </trkpt>
      <trkpt lat="45.68393159606" lon="6.911862764354">
        <ele>2110.2</ele>
        <time>2018-01-30T15:40:41Z</time>
      </trkpt>
      <trkpt lat="45.684023294046" lon="6.912016739857">
        <ele>2108.2</ele>
        <time>2018-01-30T15:40:42Z</time>
      </trkpt>
      <trkpt lat="45.684023294046" lon="6.912016739857">
        <ele>2106.4</ele>
        <time>2018-01-30T15:40:43Z</time>
      </trkpt>
      <trkpt lat="45.68411096872" lon="6.912172475559">
        <ele>2104.6</ele>
        <time>2018-01-30T15:40:44Z</time>
      </trkpt>
      <trkpt lat="45.6841880822" lon="6.912332234573">
        <ele>2103.2</ele>
        <time>2018-01-30T15:40:45Z</time>
      </trkpt>
      <trkpt lat="45.684258741617" lon="6.912490652483">
        <ele>2102</ele>
        <time>2018-01-30T15:40:46Z</time>
      </trkpt>
      <trkpt lat="45.684326215912" lon="6.912643789796">
        <ele>2100.4</ele>
        <time>2018-01-30T15:40:47Z</time>
      </trkpt>
      <trkpt lat="45.684453201697" lon="6.91293765921">
        <ele>2099.2</ele>
        <time>2018-01-30T15:40:48Z</time>
      </trkpt>
      <trkpt lat="45.68451665268" lon="6.913076044379">
        <ele>2098</ele>
        <time>2018-01-30T15:40:49Z</time>
      </trkpt>
      <trkpt lat="45.684655876039" lon="6.91332993213">
        <ele>2096.6</ele>
        <time>2018-01-30T15:40:51Z</time>
      </trkpt>
      <trkpt lat="45.684734162985" lon="6.913444512703">
        <ele>2095.8</ele>
        <time>2018-01-30T15:40:52Z</time>
      </trkpt>
      <trkpt lat="45.684817898166" lon="6.91355540524">
        <ele>2094.8</ele>
        <time>2018-01-30T15:40:53Z</time>
      </trkpt>
      <trkpt lat="45.684995845903" lon="6.913777693228">
        <ele>2092.8</ele>
        <time>2018-01-30T15:40:55Z</time>
      </trkpt>
      <trkpt lat="45.68509248921" lon="6.913899146959">
        <ele>2091.8</ele>
        <time>2018-01-30T15:40:56Z</time>
      </trkpt>
      <trkpt lat="45.685192066182" lon="6.914027725305">
        <ele>2090.4</ele>
        <time>2018-01-30T15:40:57Z</time>
      </trkpt>
      <trkpt lat="45.685290134412" lon="6.914163176809">
        <ele>2088.8</ele>
        <time>2018-01-30T15:40:58Z</time>
      </trkpt>
      <trkpt lat="45.685290134412" lon="6.914163176809">
        <ele>2086.8</ele>
        <time>2018-01-30T15:40:59Z</time>
      </trkpt>
      <trkpt lat="45.685487779614" lon="6.914447155581">
        <ele>2084.6</ele>
        <time>2018-01-30T15:41:00Z</time>
      </trkpt>
      <trkpt lat="45.685577465944" lon="6.914599035609">
        <ele>2082.8</ele>
        <time>2018-01-30T15:41:01Z</time>
      </trkpt>
      <trkpt lat="45.685655836709" lon="6.914756447691">
        <ele>2081.4</ele>
        <time>2018-01-30T15:41:02Z</time>
      </trkpt>
      <trkpt lat="45.685724987384" lon="6.914923582777">
        <ele>2080</ele>
        <time>2018-01-30T15:41:03Z</time>
      </trkpt>
      <trkpt lat="45.685798999561" lon="6.915086862189">
        <ele>2078.6</ele>
        <time>2018-01-30T15:41:04Z</time>
      </trkpt>
      <trkpt lat="45.68586613858" lon="6.915256260388">
        <ele>2077</ele>
        <time>2018-01-30T15:41:05Z</time>
      </trkpt>
      <trkpt lat="45.685938642015" lon="6.915437896161">
        <ele>2075.4</ele>
        <time>2018-01-30T15:41:06Z</time>
      </trkpt>
      <trkpt lat="45.686016761323" lon="6.915624477255">
        <ele>2073.4</ele>
        <time>2018-01-30T15:41:07Z</time>
      </trkpt>
      <trkpt lat="45.686099071581" lon="6.915818182964">
        <ele>2071.2</ele>
        <time>2018-01-30T15:41:08Z</time>
      </trkpt>
      <trkpt lat="45.686169479541" lon="6.916023790971">
        <ele>2069.2</ele>
        <time>2018-01-30T15:41:09Z</time>
      </trkpt>
      <trkpt lat="45.686236450922" lon="6.916242223285">
        <ele>2067.2</ele>
        <time>2018-01-30T15:41:10Z</time>
      </trkpt>
      <trkpt lat="45.686289340711" lon="6.916461577608">
        <ele>2064.8</ele>
        <time>2018-01-30T15:41:11Z</time>
      </trkpt>
      <trkpt lat="45.686325215243" lon="6.916690906392">
        <ele>2062.2</ele>
        <time>2018-01-30T15:41:12Z</time>
      </trkpt>
      <trkpt lat="45.686346756726" lon="6.91690900343">
        <ele>2059</ele>
        <time>2018-01-30T15:41:13Z</time>
      </trkpt>
      <trkpt lat="45.686365951277" lon="6.917121736052">
        <ele>2056.6</ele>
        <time>2018-01-30T15:41:14Z</time>
      </trkpt>
      <trkpt lat="45.686375841919" lon="6.917329607172">
        <ele>2054.4</ele>
        <time>2018-01-30T15:41:15Z</time>
      </trkpt>
      <trkpt lat="45.686380200507" lon="6.917530856591">
        <ele>2053</ele>
        <time>2018-01-30T15:41:16Z</time>
      </trkpt>
      <trkpt lat="45.686388833864" lon="6.917722550644">
        <ele>2051.6</ele>
        <time>2018-01-30T15:41:17Z</time>
      </trkpt>
      <trkpt lat="45.686393192452" lon="6.918087582389">
        <ele>2049.6</ele>
        <time>2018-01-30T15:41:19Z</time>
      </trkpt>
      <trkpt lat="45.686409956252" lon="6.918430234461">
        <ele>2047.6</ele>
        <time>2018-01-30T15:41:21Z</time>
      </trkpt>
      <trkpt lat="45.686428731708" lon="6.91858622162">
        <ele>2046.6</ele>
        <time>2018-01-30T15:41:22Z</time>
      </trkpt>
      <trkpt lat="45.686437700341" lon="6.918729887386">
        <ele>2045.2</ele>
        <time>2018-01-30T15:41:23Z</time>
      </trkpt>
      <trkpt lat="45.686444657318" lon="6.918859806836">
        <ele>2043.8</ele>
        <time>2018-01-30T15:41:24Z</time>
      </trkpt>
      <trkpt lat="45.686450943743" lon="6.918982769309">
        <ele>2042.6</ele>
        <time>2018-01-30T15:41:25Z</time>
      </trkpt>
      <trkpt lat="45.686465612068" lon="6.919206230763">
        <ele>2041.4</ele>
        <time>2018-01-30T15:41:27Z</time>
      </trkpt>
      <trkpt lat="45.686522860445" lon="6.919663798684">
        <ele>2040.4</ele>
        <time>2018-01-30T15:41:31Z</time>
      </trkpt>
      <trkpt lat="45.686600644477" lon="6.919908801621">
        <ele>2038.8</ele>
        <time>2018-01-30T15:41:33Z</time>
      </trkpt>
      <trkpt lat="45.686600644477" lon="6.919908801621">
        <ele>2037.8</ele>
        <time>2018-01-30T15:41:34Z</time>
      </trkpt>
      <trkpt lat="45.686709022444" lon="6.920136956939">
        <ele>2036.8</ele>
        <time>2018-01-30T15:41:35Z</time>
      </trkpt>
      <trkpt lat="45.686765348812" lon="6.920250196408">
        <ele>2035.6</ele>
        <time>2018-01-30T15:41:36Z</time>
      </trkpt>
      <trkpt lat="45.686820417895" lon="6.920361256583">
        <ele>2034.4</ele>
        <time>2018-01-30T15:41:37Z</time>
      </trkpt>
      <trkpt lat="45.686877917729" lon="6.920467036161">
        <ele>2033.4</ele>
        <time>2018-01-30T15:41:38Z</time>
      </trkpt>
      <trkpt lat="45.68693650721" lon="6.920574492119">
        <ele>2031.4</ele>
        <time>2018-01-30T15:41:40Z</time>
      </trkpt>
      <trkpt lat="45.687060810787" lon="6.920795187546">
        <ele>2029.6</ele>
        <time>2018-01-30T15:41:42Z</time>
      </trkpt>
      <trkpt lat="45.687188886219" lon="6.921042034501">
        <ele>2028.6</ele>
        <time>2018-01-30T15:41:43Z</time>
      </trkpt>
      <trkpt lat="45.687188886219" lon="6.921042034501">
        <ele>2027.4</ele>
        <time>2018-01-30T15:41:44Z</time>
      </trkpt>
      <trkpt lat="45.687313441253" lon="6.921298353003">
        <ele>2026</ele>
        <time>2018-01-30T15:41:45Z</time>
      </trkpt>
      <trkpt lat="45.687313441253" lon="6.921298353003">
        <ele>2024.6</ele>
        <time>2018-01-30T15:41:46Z</time>
      </trkpt>
      <trkpt lat="45.687371611639" lon="6.921424835874">
        <ele>2023.2</ele>
        <time>2018-01-30T15:41:47Z</time>
      </trkpt>
      <trkpt lat="45.687492813913" lon="6.921673945942">
        <ele>2021.6</ele>
        <time>2018-01-30T15:41:49Z</time>
      </trkpt>
      <trkpt lat="45.687726249828" lon="6.922066302681">
        <ele>2020.6</ele>
        <time>2018-01-30T15:41:53Z</time>
      </trkpt>
      <trkpt lat="45.687935126776" lon="6.92218540948">
        <ele>2021.4</ele>
        <time>2018-01-30T15:41:59Z</time>
      </trkpt>
      <trkpt lat="45.687945352694" lon="6.922192282638">
        <ele>2021.8</ele>
        <time>2018-01-30T15:42:00Z</time>
      </trkpt>
      <trkpt lat="45.688008887496" lon="6.922242154943">
        <ele>2022.6</ele>
        <time>2018-01-30T15:42:06Z</time>
      </trkpt>
      <trkpt lat="45.688074517773" lon="6.922317340586">
        <ele>2023</ele>
        <time>2018-01-30T15:42:11Z</time>
      </trkpt>
      <trkpt lat="45.688164707017" lon="6.922437453213">
        <ele>2023</ele>
        <time>2018-01-30T15:42:17Z</time>
      </trkpt>
      <trkpt lat="45.688262942885" lon="6.922479195075">
        <ele>2023.2</ele>
        <time>2018-01-30T15:42:23Z</time>
      </trkpt>
      <trkpt lat="45.688331003913" lon="6.922505849517">
        <ele>2023.2</ele>
        <time>2018-01-30T15:42:29Z</time>
      </trkpt>
      <trkpt lat="45.688407111565" lon="6.922543232791">
        <ele>2023.2</ele>
        <time>2018-01-30T15:42:35Z</time>
      </trkpt>
      <trkpt lat="45.688471149281" lon="6.922564187541">
        <ele>2023</ele>
        <time>2018-01-30T15:42:41Z</time>
      </trkpt>
      <trkpt lat="45.688479447362" lon="6.922561840609">
        <ele>2023</ele>
        <time>2018-01-30T15:42:43Z</time>
      </trkpt>
      <trkpt lat="45.688756720614" lon="6.922813884342">
        <ele>2021</ele>
        <time>2018-01-30T15:42:57Z</time>
      </trkpt>
      <trkpt lat="45.688833917913" lon="6.922884543759">
        <ele>2019.8</ele>
        <time>2018-01-30T15:42:58Z</time>
      </trkpt>
      <trkpt lat="45.688913713601" lon="6.922960819049">
        <ele>2018.2</ele>
        <time>2018-01-30T15:42:59Z</time>
      </trkpt>
      <trkpt lat="45.689007590881" lon="6.92305042156">
        <ele>2016.4</ele>
        <time>2018-01-30T15:43:00Z</time>
      </trkpt>
      <trkpt lat="45.689113957192" lon="6.923158631889">
        <ele>2015.2</ele>
        <time>2018-01-30T15:43:01Z</time>
      </trkpt>
      <trkpt lat="45.689233231629" lon="6.923290227719">
        <ele>2014</ele>
        <time>2018-01-30T15:43:02Z</time>
      </trkpt>
      <trkpt lat="45.689353428075" lon="6.923435234589">
        <ele>2012</ele>
        <time>2018-01-30T15:43:03Z</time>
      </trkpt>
      <trkpt lat="45.689488711941" lon="6.923585689694">
        <ele>2009.6</ele>
        <time>2018-01-30T15:43:04Z</time>
      </trkpt>
      <trkpt lat="45.689629527861" lon="6.923741006301">
        <ele>2007</ele>
        <time>2018-01-30T15:43:05Z</time>
      </trkpt>
      <trkpt lat="45.689778138948" lon="6.923892215777">
        <ele>2004</ele>
        <time>2018-01-30T15:43:06Z</time>
      </trkpt>
      <trkpt lat="45.689932365908" lon="6.92404535309">
        <ele>2001.4</ele>
        <time>2018-01-30T15:43:07Z</time>
      </trkpt>
      <trkpt lat="45.690087347239" lon="6.924195221462">
        <ele>1998</ele>
        <time>2018-01-30T15:43:08Z</time>
      </trkpt>
      <trkpt lat="45.690243082941" lon="6.924349448422">
        <ele>1994.6</ele>
        <time>2018-01-30T15:43:09Z</time>
      </trkpt>
      <trkpt lat="45.690409379837" lon="6.924499065337">
        <ele>1990.4</ele>
        <time>2018-01-30T15:43:10Z</time>
      </trkpt>
      <trkpt lat="45.690558829114" lon="6.92463627704">
        <ele>1986.8</ele>
        <time>2018-01-30T15:43:11Z</time>
      </trkpt>
      <trkpt lat="45.690699728853" lon="6.924770555078">
        <ele>1983.6</ele>
        <time>2018-01-30T15:43:12Z</time>
      </trkpt>
      <trkpt lat="45.690836521461" lon="6.924902653822">
        <ele>1981</ele>
        <time>2018-01-30T15:43:13Z</time>
      </trkpt>
      <trkpt lat="45.690908438163" lon="6.925018910775">
        <ele>1978.6</ele>
        <time>2018-01-30T15:43:14Z</time>
      </trkpt>
      <trkpt lat="45.690908438163" lon="6.925018910775">
        <ele>1976.8</ele>
        <time>2018-01-30T15:43:15Z</time>
      </trkpt>
      <trkpt lat="45.691130642332" lon="6.925273049983">
        <ele>1975.2</ele>
        <time>2018-01-30T15:43:16Z</time>
      </trkpt>
      <trkpt lat="45.691130642332" lon="6.925273049983">
        <ele>1973.6</ele>
        <time>2018-01-30T15:43:17Z</time>
      </trkpt>
      <trkpt lat="45.691349829017" lon="6.925529536123">
        <ele>1972</ele>
        <time>2018-01-30T15:43:18Z</time>
      </trkpt>
      <trkpt lat="45.691349829017" lon="6.925529536123">
        <ele>1970.6</ele>
        <time>2018-01-30T15:43:19Z</time>
      </trkpt>
      <trkpt lat="45.691450244179" lon="6.925663730342">
        <ele>1969.2</ele>
        <time>2018-01-30T15:43:20Z</time>
      </trkpt>
      <trkpt lat="45.691532805894" lon="6.92578962648">
        <ele>1968</ele>
        <time>2018-01-30T15:43:21Z</time>
      </trkpt>
      <trkpt lat="45.691604303501" lon="6.925908146546">
        <ele>1966.6</ele>
        <time>2018-01-30T15:43:22Z</time>
      </trkpt>
      <trkpt lat="45.691687787225" lon="6.926032114847">
        <ele>1965</ele>
        <time>2018-01-30T15:43:23Z</time>
      </trkpt>
      <trkpt lat="45.691788286206" lon="6.926164129772">
        <ele>1963.6</ele>
        <time>2018-01-30T15:43:24Z</time>
      </trkpt>
      <trkpt lat="45.69200923309" lon="6.926447940906">
        <ele>1961.8</ele>
        <time>2018-01-30T15:43:25Z</time>
      </trkpt>
      <trkpt lat="45.69212741788" lon="6.926593283052">
        <ele>1960</ele>
        <time>2018-01-30T15:43:26Z</time>
      </trkpt>
      <trkpt lat="45.69212741788" lon="6.926593283052">
        <ele>1957.4</ele>
        <time>2018-01-30T15:43:27Z</time>
      </trkpt>
      <trkpt lat="45.692244932118" lon="6.926734518067">
        <ele>1954.8</ele>
        <time>2018-01-30T15:43:28Z</time>
      </trkpt>
      <trkpt lat="45.692486917571" lon="6.927018832115">
        <ele>1951.6</ele>
        <time>2018-01-30T15:43:29Z</time>
      </trkpt>
      <trkpt lat="45.692610466777" lon="6.927149003022">
        <ele>1948.6</ele>
        <time>2018-01-30T15:43:30Z</time>
      </trkpt>
      <trkpt lat="45.692610466777" lon="6.927149003022">
        <ele>1945.8</ele>
        <time>2018-01-30T15:43:31Z</time>
      </trkpt>
      <trkpt lat="45.692836610439" lon="6.92737883472">
        <ele>1943.8</ele>
        <time>2018-01-30T15:43:32Z</time>
      </trkpt>
      <trkpt lat="45.692836610439" lon="6.92737883472">
        <ele>1942.4</ele>
        <time>2018-01-30T15:43:33Z</time>
      </trkpt>
      <trkpt lat="45.692949514632" lon="6.927477322045">
        <ele>1941.2</ele>
        <time>2018-01-30T15:43:34Z</time>
      </trkpt>
      <trkpt lat="45.693170042421" lon="6.927643032208">
        <ele>1940</ele>
        <time>2018-01-30T15:43:35Z</time>
      </trkpt>
      <trkpt lat="45.693358048438" lon="6.927765407948">
        <ele>1938.6</ele>
        <time>2018-01-30T15:43:37Z</time>
      </trkpt>
      <trkpt lat="45.693606404135" lon="6.927929274093">
        <ele>1937.6</ele>
        <time>2018-01-30T15:43:41Z</time>
      </trkpt>
      <trkpt lat="45.693795667437" lon="6.928102611785">
        <ele>1936.4</ele>
        <time>2018-01-30T15:43:46Z</time>
      </trkpt>
      <trkpt lat="45.693963305437" lon="6.928367144549">
        <ele>1935.4</ele>
        <time>2018-01-30T15:43:52Z</time>
      </trkpt>
      <trkpt lat="45.694064558789" lon="6.928613237133">
        <ele>1934.2</ele>
        <time>2018-01-30T15:43:56Z</time>
      </trkpt>
      <trkpt lat="45.694202357225" lon="6.928916242818">
        <ele>1932.8</ele>
        <time>2018-01-30T15:44:00Z</time>
      </trkpt>
      <trkpt lat="45.694269747701" lon="6.929095028745">
        <ele>1931.8</ele>
        <time>2018-01-30T15:44:02Z</time>
      </trkpt>
      <trkpt lat="45.694321547843" lon="6.929318657837">
        <ele>1930.4</ele>
        <time>2018-01-30T15:44:04Z</time>
      </trkpt>
      <trkpt lat="45.694361110411" lon="6.929579167289">
        <ele>1928.6</ele>
        <time>2018-01-30T15:44:06Z</time>
      </trkpt>
      <trkpt lat="45.694380556419" lon="6.929704895789">
        <ele>1927.2</ele>
        <time>2018-01-30T15:44:07Z</time>
      </trkpt>
      <trkpt lat="45.694401678807" lon="6.929832887402">
        <ele>1926</ele>
        <time>2018-01-30T15:44:08Z</time>
      </trkpt>
      <trkpt lat="45.694414419295" lon="6.929964399413">
        <ele>1924.8</ele>
        <time>2018-01-30T15:44:09Z</time>
      </trkpt>
      <trkpt lat="45.694427243602" lon="6.93009205575">
        <ele>1924.2</ele>
        <time>2018-01-30T15:44:10Z</time>
      </trkpt>
      <trkpt lat="45.694459765374" lon="6.930204876124">
        <ele>1923.6</ele>
        <time>2018-01-30T15:44:11Z</time>
      </trkpt>
      <trkpt lat="45.694498154476" lon="6.930323899104">
        <ele>1922.6</ele>
        <time>2018-01-30T15:44:12Z</time>
      </trkpt>
      <trkpt lat="45.694527491126" lon="6.930445939568">
        <ele>1921.4</ele>
        <time>2018-01-30T15:44:13Z</time>
      </trkpt>
      <trkpt lat="45.694563365658" lon="6.930559430494">
        <ele>1920.2</ele>
        <time>2018-01-30T15:44:14Z</time>
      </trkpt>
      <trkpt lat="45.694601922398" lon="6.930674430162">
        <ele>1919</ele>
        <time>2018-01-30T15:44:15Z</time>
      </trkpt>
      <trkpt lat="45.694668474684" lon="6.930916583253">
        <ele>1916.8</ele>
        <time>2018-01-30T15:44:17Z</time>
      </trkpt>
      <trkpt lat="45.694668474684" lon="6.930916583253">
        <ele>1915.6</ele>
        <time>2018-01-30T15:44:18Z</time>
      </trkpt>
      <trkpt lat="45.694721867387" lon="6.93117918818">
        <ele>1914.4</ele>
        <time>2018-01-30T15:44:19Z</time>
      </trkpt>
      <trkpt lat="45.694748270372" lon="6.931319836462">
        <ele>1913</ele>
        <time>2018-01-30T15:44:20Z</time>
      </trkpt>
      <trkpt lat="45.694776517375" lon="6.931469704834">
        <ele>1912</ele>
        <time>2018-01-30T15:44:21Z</time>
      </trkpt>
      <trkpt lat="45.6947995676" lon="6.931630302038">
        <ele>1910.8</ele>
        <time>2018-01-30T15:44:22Z</time>
      </trkpt>
      <trkpt lat="45.694832508467" lon="6.931791737432">
        <ele>1909.2</ele>
        <time>2018-01-30T15:44:23Z</time>
      </trkpt>
      <trkpt lat="45.694832508467" lon="6.931791737432">
        <ele>1907.6</ele>
        <time>2018-01-30T15:44:24Z</time>
      </trkpt>
      <trkpt lat="45.694946418488" lon="6.93208694795">
        <ele>1905.8</ele>
        <time>2018-01-30T15:44:25Z</time>
      </trkpt>
      <trkpt lat="45.695022945235" lon="6.932210580975">
        <ele>1904.4</ele>
        <time>2018-01-30T15:44:26Z</time>
      </trkpt>
      <trkpt lat="45.695110200814" lon="6.932309738852">
        <ele>1903</ele>
        <time>2018-01-30T15:44:27Z</time>
      </trkpt>
      <trkpt lat="45.695197288755" lon="6.932404119046">
        <ele>1901.6</ele>
        <time>2018-01-30T15:44:28Z</time>
      </trkpt>
      <trkpt lat="45.695279682832" lon="6.932499085973">
        <ele>1900.4</ele>
        <time>2018-01-30T15:44:29Z</time>
      </trkpt>
      <trkpt lat="45.695360903443" lon="6.932593466167">
        <ele>1899.2</ele>
        <time>2018-01-30T15:44:30Z</time>
      </trkpt>
      <trkpt lat="45.695448997212" lon="6.93268793018">
        <ele>1898.2</ele>
        <time>2018-01-30T15:44:31Z</time>
      </trkpt>
      <trkpt lat="45.695583442888" lon="6.932912648919">
        <ele>1896</ele>
        <time>2018-01-30T15:44:33Z</time>
      </trkpt>
      <trkpt lat="45.695653850848" lon="6.933017841764">
        <ele>1894.6</ele>
        <time>2018-01-30T15:44:34Z</time>
      </trkpt>
      <trkpt lat="45.695705567171" lon="6.933135858916">
        <ele>1893.4</ele>
        <time>2018-01-30T15:44:35Z</time>
      </trkpt>
      <trkpt lat="45.695815621518" lon="6.933363176044">
        <ele>1891.6</ele>
        <time>2018-01-30T15:44:37Z</time>
      </trkpt>
      <trkpt lat="45.695862811615" lon="6.933488820725">
        <ele>1889.8</ele>
        <time>2018-01-30T15:44:39Z</time>
      </trkpt>
      <trkpt lat="45.695969345564" lon="6.933723597744">
        <ele>1888.8</ele>
        <time>2018-01-30T15:44:40Z</time>
      </trkpt>
      <trkpt lat="45.696023241181" lon="6.933838262136">
        <ele>1887.4</ele>
        <time>2018-01-30T15:44:41Z</time>
      </trkpt>
      <trkpt lat="45.696074538409" lon="6.933963906817">
        <ele>1886</ele>
        <time>2018-01-30T15:44:42Z</time>
      </trkpt>
      <trkpt lat="45.696129188397" lon="6.934089048584">
        <ele>1884.4</ele>
        <time>2018-01-30T15:44:43Z</time>
      </trkpt>
      <trkpt lat="45.696191298276" lon="6.934198851474">
        <ele>1882.8</ele>
        <time>2018-01-30T15:44:44Z</time>
      </trkpt>
      <trkpt lat="45.696230441749" lon="6.934315108427">
        <ele>1881.4</ele>
        <time>2018-01-30T15:44:45Z</time>
      </trkpt>
      <trkpt lat="45.696337310974" lon="6.934537899329">
        <ele>1879.6</ele>
        <time>2018-01-30T15:44:47Z</time>
      </trkpt>
      <trkpt lat="45.69644661095" lon="6.934773598357">
        <ele>1877.8</ele>
        <time>2018-01-30T15:44:49Z</time>
      </trkpt>
      <trkpt lat="45.69644661095" lon="6.934773598357">
        <ele>1876.6</ele>
        <time>2018-01-30T15:44:50Z</time>
      </trkpt>
      <trkpt lat="45.696493130495" lon="6.93504408227">
        <ele>1875</ele>
        <time>2018-01-30T15:44:51Z</time>
      </trkpt>
      <trkpt lat="45.69656060479" lon="6.935138462464">
        <ele>1873.8</ele>
        <time>2018-01-30T15:44:52Z</time>
      </trkpt>
      <trkpt lat="45.696634616967" lon="6.935237033608">
        <ele>1872.2</ele>
        <time>2018-01-30T15:44:53Z</time>
      </trkpt>
      <trkpt lat="45.696672503155" lon="6.935367539791">
        <ele>1870.8</ele>
        <time>2018-01-30T15:44:54Z</time>
      </trkpt>
      <trkpt lat="45.696672503155" lon="6.935367539791">
        <ele>1869</ele>
        <time>2018-01-30T15:44:55Z</time>
      </trkpt>
      <trkpt lat="45.696653224785" lon="6.935663001766">
        <ele>1867.4</ele>
        <time>2018-01-30T15:44:56Z</time>
      </trkpt>
      <trkpt lat="45.696653224785" lon="6.935663001766">
        <ele>1865.8</ele>
        <time>2018-01-30T15:44:57Z</time>
      </trkpt>
      <trkpt lat="45.696771409575" lon="6.935902053554">
        <ele>1864.2</ele>
        <time>2018-01-30T15:44:58Z</time>
      </trkpt>
      <trkpt lat="45.696829328504" lon="6.936029458434">
        <ele>1862.4</ele>
        <time>2018-01-30T15:44:59Z</time>
      </trkpt>
      <trkpt lat="45.696829328504" lon="6.936029458434">
        <ele>1860.8</ele>
        <time>2018-01-30T15:45:00Z</time>
      </trkpt>
      <trkpt lat="45.696827400667" lon="6.93618821162">
        <ele>1858.6</ele>
        <time>2018-01-30T15:45:01Z</time>
      </trkpt>
      <trkpt lat="45.696889510546" lon="6.936457689705">
        <ele>1856.8</ele>
        <time>2018-01-30T15:45:02Z</time>
      </trkpt>
      <trkpt lat="45.696975173564" lon="6.936566570586">
        <ele>1854.8</ele>
        <time>2018-01-30T15:45:03Z</time>
      </trkpt>
      <trkpt lat="45.697039378918" lon="6.936702441185">
        <ele>1853.4</ele>
        <time>2018-01-30T15:45:04Z</time>
      </trkpt>
      <trkpt lat="45.697039378918" lon="6.936702441185">
        <ele>1852</ele>
        <time>2018-01-30T15:45:05Z</time>
      </trkpt>
      <trkpt lat="45.697062932057" lon="6.936862367837">
        <ele>1850.4</ele>
        <time>2018-01-30T15:45:06Z</time>
      </trkpt>
      <trkpt lat="45.697099728598" lon="6.937017768263">
        <ele>1848.2</ele>
        <time>2018-01-30T15:45:07Z</time>
      </trkpt>
      <trkpt lat="45.697233922817" lon="6.937280457009">
        <ele>1845.8</ele>
        <time>2018-01-30T15:45:08Z</time>
      </trkpt>
      <trkpt lat="45.697282956932" lon="6.937425463879">
        <ele>1843.8</ele>
        <time>2018-01-30T15:45:09Z</time>
      </trkpt>
      <trkpt lat="45.697332410142" lon="6.9375645196">
        <ele>1842</ele>
        <time>2018-01-30T15:45:10Z</time>
      </trkpt>
      <trkpt lat="45.697332410142" lon="6.9375645196">
        <ele>1840.4</ele>
        <time>2018-01-30T15:45:11Z</time>
      </trkpt>
      <trkpt lat="45.697493342622" lon="6.937762667716">
        <ele>1838.8</ele>
        <time>2018-01-30T15:45:12Z</time>
      </trkpt>
      <trkpt lat="45.697560733098" lon="6.937869788398">
        <ele>1837</ele>
        <time>2018-01-30T15:45:13Z</time>
      </trkpt>
      <trkpt lat="45.697622088606" lon="6.937965677334">
        <ele>1835.6</ele>
        <time>2018-01-30T15:45:14Z</time>
      </trkpt>
      <trkpt lat="45.697702554846" lon="6.938033906">
        <ele>1834.4</ele>
        <time>2018-01-30T15:45:15Z</time>
      </trkpt>
      <trkpt lat="45.697785451837" lon="6.938093166033">
        <ele>1833.2</ele>
        <time>2018-01-30T15:45:16Z</time>
      </trkpt>
      <trkpt lat="45.697868600285" lon="6.9381680164">
        <ele>1831.4</ele>
        <time>2018-01-30T15:45:17Z</time>
      </trkpt>
      <trkpt lat="45.69796122028" lon="6.938238927274">
        <ele>1830</ele>
        <time>2018-01-30T15:45:18Z</time>
      </trkpt>
      <trkpt lat="45.698074878844" lon="6.938294163995">
        <ele>1828.2</ele>
        <time>2018-01-30T15:45:19Z</time>
      </trkpt>
      <trkpt lat="45.698153417247" lon="6.938391729311">
        <ele>1826.4</ele>
        <time>2018-01-30T15:45:20Z</time>
      </trkpt>
      <trkpt lat="45.698224747216" lon="6.938490803369">
        <ele>1824.4</ele>
        <time>2018-01-30T15:45:21Z</time>
      </trkpt>
      <trkpt lat="45.698278559014" lon="6.938592056721">
        <ele>1822.8</ele>
        <time>2018-01-30T15:45:22Z</time>
      </trkpt>
      <trkpt lat="45.698290712769" lon="6.93869188515">
        <ele>1820.8</ele>
        <time>2018-01-30T15:45:23Z</time>
      </trkpt>
      <trkpt lat="45.698278307557" lon="6.938778889272">
        <ele>1818.6</ele>
        <time>2018-01-30T15:45:24Z</time>
      </trkpt>
      <trkpt lat="45.698282917602" lon="6.938860696616">
        <ele>1816.4</ele>
        <time>2018-01-30T15:45:25Z</time>
      </trkpt>
      <trkpt lat="45.698282917602" lon="6.938860696616">
        <ele>1815</ele>
        <time>2018-01-30T15:45:26Z</time>
      </trkpt>
      <trkpt lat="45.698348212603" lon="6.93897435518">
        <ele>1814</ele>
        <time>2018-01-30T15:45:27Z</time>
      </trkpt>
      <trkpt lat="45.698459440416" lon="6.93901794106">
        <ele>1812.2</ele>
        <time>2018-01-30T15:45:29Z</time>
      </trkpt>
      <trkpt lat="45.698571841695" lon="6.939026071503">
        <ele>1810.4</ele>
        <time>2018-01-30T15:45:31Z</time>
      </trkpt>
      <trkpt lat="45.698627832787" lon="6.93902548477">
        <ele>1809.8</ele>
        <time>2018-01-30T15:45:32Z</time>
      </trkpt>
      <trkpt lat="45.698677285997" lon="6.939053061221">
        <ele>1809.2</ele>
        <time>2018-01-30T15:45:33Z</time>
      </trkpt>
      <trkpt lat="45.698701677326" lon="6.939116260747">
        <ele>1808.8</ele>
        <time>2018-01-30T15:45:34Z</time>
      </trkpt>
      <trkpt lat="45.698696899643" lon="6.939199241557">
        <ele>1808</ele>
        <time>2018-01-30T15:45:35Z</time>
      </trkpt>
      <trkpt lat="45.698684662069" lon="6.939278701969">
        <ele>1807.4</ele>
        <time>2018-01-30T15:45:36Z</time>
      </trkpt>
      <trkpt lat="45.698669323192" lon="6.939338213459">
        <ele>1806.8</ele>
        <time>2018-01-30T15:45:37Z</time>
      </trkpt>
      <trkpt lat="45.69865105065" lon="6.939366209005">
        <ele>1805.6</ele>
        <time>2018-01-30T15:45:39Z</time>
      </trkpt>
      <trkpt lat="45.698651721202" lon="6.939358665295">
        <ele>1804.4</ele>
        <time>2018-01-30T15:45:41Z</time>
      </trkpt>
      <trkpt lat="45.698655409238" lon="6.939350199576">
        <ele>1803.4</ele>
        <time>2018-01-30T15:45:44Z</time>
      </trkpt>
      <trkpt lat="45.698985907555" lon="6.938974858094">
        <ele>1803.2</ele>
        <time>2018-01-30T15:46:25Z</time>
      </trkpt>
      <trkpt lat="45.69907936574" lon="6.938976785931">
        <ele>1802.6</ele>
        <time>2018-01-30T15:46:27Z</time>
      </trkpt>
      <trkpt lat="45.699132255529" lon="6.938951640231">
        <ele>1802</ele>
        <time>2018-01-30T15:46:28Z</time>
      </trkpt>
      <trkpt lat="45.69926628211" lon="6.938859187874">
        <ele>1800</ele>
        <time>2018-01-30T15:46:30Z</time>
      </trkpt>
      <trkpt lat="45.69933585188" lon="6.938804370248">
        <ele>1798.6</ele>
        <time>2018-01-30T15:46:31Z</time>
      </trkpt>
      <trkpt lat="45.699402571804" lon="6.938748379156">
        <ele>1797.4</ele>
        <time>2018-01-30T15:46:32Z</time>
      </trkpt>
      <trkpt lat="45.699481194026" lon="6.938708146036">
        <ele>1795.8</ele>
        <time>2018-01-30T15:46:33Z</time>
      </trkpt>
      <trkpt lat="45.699554116556" lon="6.938643773044">
        <ele>1794.2</ele>
        <time>2018-01-30T15:46:34Z</time>
      </trkpt>
      <trkpt lat="45.699625530344" lon="6.938591134712">
        <ele>1792.8</ele>
        <time>2018-01-30T15:46:35Z</time>
      </trkpt>
      <trkpt lat="45.699693172277" lon="6.938544447529">
        <ele>1791.4</ele>
        <time>2018-01-30T15:46:36Z</time>
      </trkpt>
      <trkpt lat="45.699755114518" lon="6.938477727605">
        <ele>1790</ele>
        <time>2018-01-30T15:46:37Z</time>
      </trkpt>
      <trkpt lat="45.699810351239" lon="6.938410001853">
        <ele>1788.4</ele>
        <time>2018-01-30T15:46:38Z</time>
      </trkpt>
      <trkpt lat="45.699863827761" lon="6.938347975793">
        <ele>1787.2</ele>
        <time>2018-01-30T15:46:39Z</time>
      </trkpt>
      <trkpt lat="45.699914705894" lon="6.93827362834">
        <ele>1786</ele>
        <time>2018-01-30T15:46:40Z</time>
      </trkpt>
      <trkpt lat="45.699973295375" lon="6.938197436869">
        <ele>1784.6</ele>
        <time>2018-01-30T15:46:41Z</time>
      </trkpt>
      <trkpt lat="45.700036997815" lon="6.938120155751">
        <ele>1783</ele>
        <time>2018-01-30T15:46:42Z</time>
      </trkpt>
      <trkpt lat="45.700094162373" lon="6.938034157457">
        <ele>1781</ele>
        <time>2018-01-30T15:46:43Z</time>
      </trkpt>
      <trkpt lat="45.700156858985" lon="6.937948494439">
        <ele>1779.2</ele>
        <time>2018-01-30T15:46:44Z</time>
      </trkpt>
      <trkpt lat="45.700227937497" lon="6.937869956036">
        <ele>1777.6</ele>
        <time>2018-01-30T15:46:45Z</time>
      </trkpt>
      <trkpt lat="45.700286107883" lon="6.937793010194">
        <ele>1776.2</ele>
        <time>2018-01-30T15:46:46Z</time>
      </trkpt>
      <trkpt lat="45.700354755644" lon="6.937758225309">
        <ele>1774.6</ele>
        <time>2018-01-30T15:46:47Z</time>
      </trkpt>
      <trkpt lat="45.700425750337" lon="6.937764679372">
        <ele>1773.2</ele>
        <time>2018-01-30T15:46:48Z</time>
      </trkpt>
      <trkpt lat="45.700492051166" lon="6.937835171151">
        <ele>1772.2</ele>
        <time>2018-01-30T15:46:49Z</time>
      </trkpt>
      <trkpt lat="45.700599674762" lon="6.938020243503">
        <ele>1770.2</ele>
        <time>2018-01-30T15:46:51Z</time>
      </trkpt>
      <trkpt lat="45.700670334179" lon="6.938086460513">
        <ele>1768.8</ele>
        <time>2018-01-30T15:46:52Z</time>
      </trkpt>
      <trkpt lat="45.70075323117" lon="6.938131387497">
        <ele>1767.4</ele>
        <time>2018-01-30T15:46:53Z</time>
      </trkpt>
      <trkpt lat="45.700840989663" lon="6.93820489676">
        <ele>1765.4</ele>
        <time>2018-01-30T15:46:54Z</time>
      </trkpt>
      <trkpt lat="45.700924473387" lon="6.938313274727">
        <ele>1762.8</ele>
        <time>2018-01-30T15:46:55Z</time>
      </trkpt>
      <trkpt lat="45.701019607952" lon="6.938404553618">
        <ele>1759.4</ele>
        <time>2018-01-30T15:46:56Z</time>
      </trkpt>
      <trkpt lat="45.701118598191" lon="6.93848233765">
        <ele>1756</ele>
        <time>2018-01-30T15:46:57Z</time>
      </trkpt>
      <trkpt lat="45.701209122711" lon="6.938561798062">
        <ele>1752.6</ele>
        <time>2018-01-30T15:46:58Z</time>
      </trkpt>
      <trkpt lat="45.701291852064" lon="6.938638492447">
        <ele>1750.2</ele>
        <time>2018-01-30T15:46:59Z</time>
      </trkpt>
      <trkpt lat="45.701371899209" lon="6.938704709457">
        <ele>1747.8</ele>
        <time>2018-01-30T15:47:00Z</time>
      </trkpt>
      <trkpt lat="45.701443312997" lon="6.938770004458">
        <ele>1746</ele>
        <time>2018-01-30T15:47:01Z</time>
      </trkpt>
      <trkpt lat="45.701494274949" lon="6.938857260037">
        <ele>1744.2</ele>
        <time>2018-01-30T15:47:02Z</time>
      </trkpt>
      <trkpt lat="45.701536855001" lon="6.938971337696">
        <ele>1742.4</ele>
        <time>2018-01-30T15:47:03Z</time>
      </trkpt>
      <trkpt lat="45.701566191651" lon="6.939114752005">
        <ele>1740.6</ele>
        <time>2018-01-30T15:47:04Z</time>
      </trkpt>
      <trkpt lat="45.701584464193" lon="6.939267973137">
        <ele>1739</ele>
        <time>2018-01-30T15:47:05Z</time>
      </trkpt>
      <trkpt lat="45.701616315413" lon="6.939423792658">
        <ele>1736.8</ele>
        <time>2018-01-30T15:47:06Z</time>
      </trkpt>
      <trkpt lat="45.701667528822" lon="6.939568967166">
        <ele>1734.6</ele>
        <time>2018-01-30T15:47:07Z</time>
      </trkpt>
      <trkpt lat="45.701757047514" lon="6.939673908554">
        <ele>1731.8</ele>
        <time>2018-01-30T15:47:08Z</time>
      </trkpt>
      <trkpt lat="45.701830221501" lon="6.939777089743">
        <ele>1728.8</ele>
        <time>2018-01-30T15:47:09Z</time>
      </trkpt>
      <trkpt lat="45.701886966964" lon="6.939878929828">
        <ele>1725.8</ele>
        <time>2018-01-30T15:47:10Z</time>
      </trkpt>
      <trkpt lat="45.70194178459" lon="6.939949589245">
        <ele>1722.6</ele>
        <time>2018-01-30T15:47:11Z</time>
      </trkpt>
      <trkpt lat="45.701987465945" lon="6.939998371903">
        <ele>1720.2</ele>
        <time>2018-01-30T15:47:12Z</time>
      </trkpt>
      <trkpt lat="45.702064663244" lon="6.940017147359">
        <ele>1718</ele>
        <time>2018-01-30T15:47:13Z</time>
      </trkpt>
      <trkpt lat="45.702075308257" lon="6.940047573656">
        <ele>1716.4</ele>
        <time>2018-01-30T15:47:14Z</time>
      </trkpt>
      <trkpt lat="45.702067010176" lon="6.940070540062">
        <ele>1715</ele>
        <time>2018-01-30T15:47:15Z</time>
      </trkpt>
      <trkpt lat="45.702053096222" lon="6.940073641365">
        <ele>1713.8</ele>
        <time>2018-01-30T15:47:16Z</time>
      </trkpt>
      <trkpt lat="45.70203985282" lon="6.940067606397">
        <ele>1713</ele>
        <time>2018-01-30T15:47:17Z</time>
      </trkpt>
      <trkpt lat="45.702032895843" lon="6.940056542289">
        <ele>1712.2</ele>
        <time>2018-01-30T15:47:18Z</time>
      </trkpt>
      <trkpt lat="45.702027112332" lon="6.940035922815">
        <ele>1711.4</ele>
        <time>2018-01-30T15:47:22Z</time>
      </trkpt>
      <trkpt lat="45.702038427897" lon="6.940093841744">
        <ele>1710.2</ele>
        <time>2018-01-30T15:49:21Z</time>
      </trkpt>
      <trkpt lat="45.702068938013" lon="6.940283272684">
        <ele>1709.6</ele>
        <time>2018-01-30T15:49:24Z</time>
      </trkpt>
      <trkpt lat="45.702155187764" lon="6.940450323951">
        <ele>1708.8</ele>
        <time>2018-01-30T15:49:26Z</time>
      </trkpt>
      <trkpt lat="45.702260883523" lon="6.940648723524">
        <ele>1706.2</ele>
        <time>2018-01-30T15:49:28Z</time>
      </trkpt>
      <trkpt lat="45.702313857131" lon="6.940756263301">
        <ele>1704.2</ele>
        <time>2018-01-30T15:49:29Z</time>
      </trkpt>
      <trkpt lat="45.702359370848" lon="6.940865395639">
        <ele>1701.8</ele>
        <time>2018-01-30T15:49:30Z</time>
      </trkpt>
      <trkpt lat="45.702421899822" lon="6.940965726982">
        <ele>1699.2</ele>
        <time>2018-01-30T15:49:31Z</time>
      </trkpt>
      <trkpt lat="45.70247571162" lon="6.941068572895">
        <ele>1696.4</ele>
        <time>2018-01-30T15:49:32Z</time>
      </trkpt>
      <trkpt lat="45.70251762112" lon="6.941169407152">
        <ele>1693.6</ele>
        <time>2018-01-30T15:49:33Z</time>
      </trkpt>
      <trkpt lat="45.702583586673" lon="6.941249538116">
        <ele>1691.2</ele>
        <time>2018-01-30T15:49:34Z</time>
      </trkpt>
      <trkpt lat="45.702637230833" lon="6.941324723759">
        <ele>1689.2</ele>
        <time>2018-01-30T15:49:35Z</time>
      </trkpt>
      <trkpt lat="45.70268777369" lon="6.941399825583">
        <ele>1687.2</ele>
        <time>2018-01-30T15:49:36Z</time>
      </trkpt>
      <trkpt lat="45.702726414249" lon="6.941437544133">
        <ele>1685.2</ele>
        <time>2018-01-30T15:49:37Z</time>
      </trkpt>
      <trkpt lat="45.702779387857" lon="6.941445423119">
        <ele>1683.2</ele>
        <time>2018-01-30T15:49:38Z</time>
      </trkpt>
      <trkpt lat="45.70283445694" lon="6.941420612695">
        <ele>1681.4</ele>
        <time>2018-01-30T15:49:39Z</time>
      </trkpt>
      <trkpt lat="45.702900087217" lon="6.941385241077">
        <ele>1679.6</ele>
        <time>2018-01-30T15:49:40Z</time>
      </trkpt>
      <trkpt lat="45.702954821024" lon="6.94136487306">
        <ele>1678</ele>
        <time>2018-01-30T15:49:41Z</time>
      </trkpt>
      <trkpt lat="45.70301047684" lon="6.941371494761">
        <ele>1676.2</ele>
        <time>2018-01-30T15:49:42Z</time>
      </trkpt>
      <trkpt lat="45.703067641398" lon="6.941357496988">
        <ele>1674.4</ele>
        <time>2018-01-30T15:49:43Z</time>
      </trkpt>
      <trkpt lat="45.703119944454" lon="6.941311396538">
        <ele>1672.6</ele>
        <time>2018-01-30T15:49:44Z</time>
      </trkpt>
      <trkpt lat="45.703173001881" lon="6.941302847">
        <ele>1670.8</ele>
        <time>2018-01-30T15:49:45Z</time>
      </trkpt>
      <trkpt lat="45.703217928865" lon="6.941316509497">
        <ele>1669</ele>
        <time>2018-01-30T15:49:46Z</time>
      </trkpt>
      <trkpt lat="45.703265873333" lon="6.94129865605">
        <ele>1667</ele>
        <time>2018-01-30T15:49:47Z</time>
      </trkpt>
      <trkpt lat="45.703312476697" lon="6.941247275003">
        <ele>1664.8</ele>
        <time>2018-01-30T15:49:48Z</time>
      </trkpt>
      <trkpt lat="45.703373999843" lon="6.941227158443">
        <ele>1662.4</ele>
        <time>2018-01-30T15:49:49Z</time>
      </trkpt>
      <trkpt lat="45.703427141089" lon="6.941201509829">
        <ele>1660.4</ele>
        <time>2018-01-30T15:49:50Z</time>
      </trkpt>
      <trkpt lat="45.703486904036" lon="6.94115700194">
        <ele>1658</ele>
        <time>2018-01-30T15:49:51Z</time>
      </trkpt>
      <trkpt lat="45.703561670584" lon="6.941117858467">
        <ele>1655.6</ele>
        <time>2018-01-30T15:49:52Z</time>
      </trkpt>
      <trkpt lat="45.703638951702" lon="6.941111823499">
        <ele>1652.8</ele>
        <time>2018-01-30T15:49:53Z</time>
      </trkpt>
      <trkpt lat="45.703699888115" lon="6.94107737389">
        <ele>1649.8</ele>
        <time>2018-01-30T15:49:54Z</time>
      </trkpt>
      <trkpt lat="45.703782952744" lon="6.941030099974">
        <ele>1646.8</ele>
        <time>2018-01-30T15:49:55Z</time>
      </trkpt>
      <trkpt lat="45.703865346821" lon="6.94098936394">
        <ele>1643.8</ele>
        <time>2018-01-30T15:49:56Z</time>
      </trkpt>
      <trkpt lat="45.70394757326" lon="6.940939240178">
        <ele>1640.6</ele>
        <time>2018-01-30T15:49:57Z</time>
      </trkpt>
      <trkpt lat="45.704026866034" lon="6.940849721486">
        <ele>1637.4</ele>
        <time>2018-01-30T15:49:58Z</time>
      </trkpt>
      <trkpt lat="45.704096603442" lon="6.94075383255">
        <ele>1634.4</ele>
        <time>2018-01-30T15:49:59Z</time>
      </trkpt>
      <trkpt lat="45.704160557339" lon="6.940651070456">
        <ele>1631.6</ele>
        <time>2018-01-30T15:50:00Z</time>
      </trkpt>
      <trkpt lat="45.704194168758" lon="6.940530957829">
        <ele>1628.4</ele>
        <time>2018-01-30T15:50:01Z</time>
      </trkpt>
      <trkpt lat="45.704235826801" lon="6.940400032551">
        <ele>1625.6</ele>
        <time>2018-01-30T15:50:02Z</time>
      </trkpt>
      <trkpt lat="45.704277987758" lon="6.940288218005">
        <ele>1623</ele>
        <time>2018-01-30T15:50:03Z</time>
      </trkpt>
      <trkpt lat="45.704321741276" lon="6.940181600237">
        <ele>1620.4</ele>
        <time>2018-01-30T15:50:04Z</time>
      </trkpt>
      <trkpt lat="45.704352251392" lon="6.940057883393">
        <ele>1618</ele>
        <time>2018-01-30T15:50:05Z</time>
      </trkpt>
      <trkpt lat="45.704390891951" lon="6.939939698603">
        <ele>1616</ele>
        <time>2018-01-30T15:50:06Z</time>
      </trkpt>
      <trkpt lat="45.704426515026" lon="6.939827129686">
        <ele>1614.2</ele>
        <time>2018-01-30T15:50:07Z</time>
      </trkpt>
      <trkpt lat="45.704469933268" lon="6.939703077566">
        <ele>1612</ele>
        <time>2018-01-30T15:50:08Z</time>
      </trkpt>
      <trkpt lat="45.704520643763" lon="6.939597884721">
        <ele>1609.6</ele>
        <time>2018-01-30T15:50:09Z</time>
      </trkpt>
      <trkpt lat="45.704569761697" lon="6.9394923566">
        <ele>1607.4</ele>
        <time>2018-01-30T15:50:10Z</time>
      </trkpt>
      <trkpt lat="45.704609575722" lon="6.939367633928">
        <ele>1605.2</ele>
        <time>2018-01-30T15:50:11Z</time>
      </trkpt>
      <trkpt lat="45.704623657314" lon="6.939217095004">
        <ele>1602.4</ele>
        <time>2018-01-30T15:50:12Z</time>
      </trkpt>
      <trkpt lat="45.704652407231" lon="6.939085750631">
        <ele>1599</ele>
        <time>2018-01-30T15:50:13Z</time>
      </trkpt>
      <trkpt lat="45.704681324786" lon="6.938962369063">
        <ele>1595.6</ele>
        <time>2018-01-30T15:50:14Z</time>
      </trkpt>
      <trkpt lat="45.70467931313" lon="6.938811662501">
        <ele>1592.4</ele>
        <time>2018-01-30T15:50:15Z</time>
      </trkpt>
      <trkpt lat="45.704687359754" lon="6.938677552101">
        <ele>1589.2</ele>
        <time>2018-01-30T15:50:16Z</time>
      </trkpt>
      <trkpt lat="45.704711583445" lon="6.938545704814">
        <ele>1586.6</ele>
        <time>2018-01-30T15:50:17Z</time>
      </trkpt>
      <trkpt lat="45.704730945634" lon="6.938410840043">
        <ele>1583.4</ele>
        <time>2018-01-30T15:50:18Z</time>
      </trkpt>
      <trkpt lat="45.704729939806" lon="6.938266000811">
        <ele>1580.2</ele>
        <time>2018-01-30T15:50:19Z</time>
      </trkpt>
      <trkpt lat="45.70473631005" lon="6.938121161579">
        <ele>1577.2</ele>
        <time>2018-01-30T15:50:20Z</time>
      </trkpt>
      <trkpt lat="45.704737483516" lon="6.937969784465">
        <ele>1574.2</ele>
        <time>2018-01-30T15:50:21Z</time>
      </trkpt>
      <trkpt lat="45.704709655608" lon="6.937821508654">
        <ele>1571</ele>
        <time>2018-01-30T15:50:22Z</time>
      </trkpt>
      <trkpt lat="45.704708565961" lon="6.937686224788">
        <ele>1567.8</ele>
        <time>2018-01-30T15:50:23Z</time>
      </trkpt>
      <trkpt lat="45.704702866269" lon="6.937549599818">
        <ele>1565.6</ele>
        <time>2018-01-30T15:50:24Z</time>
      </trkpt>
      <trkpt lat="45.704675457456" lon="6.937394953763">
        <ele>1563.4</ele>
        <time>2018-01-30T15:50:25Z</time>
      </trkpt>
      <trkpt lat="45.704601277641" lon="6.93721499437">
        <ele>1561</ele>
        <time>2018-01-30T15:50:26Z</time>
      </trkpt>
      <trkpt lat="45.704586944592" lon="6.937059258668">
        <ele>1558.2</ele>
        <time>2018-01-30T15:50:27Z</time>
      </trkpt>
      <trkpt lat="45.704552914078" lon="6.936896985084">
        <ele>1554.8</ele>
        <time>2018-01-30T15:50:28Z</time>
      </trkpt>
      <trkpt lat="45.704499605194" lon="6.936725910505">
        <ele>1551.6</ele>
        <time>2018-01-30T15:50:29Z</time>
      </trkpt>
      <trkpt lat="45.704478566625" lon="6.936567241138">
        <ele>1548.6</ele>
        <time>2018-01-30T15:50:30Z</time>
      </trkpt>
      <trkpt lat="45.704463563024" lon="6.936413600911">
        <ele>1546.6</ele>
        <time>2018-01-30T15:50:31Z</time>
      </trkpt>
      <trkpt lat="45.704455348762" lon="6.936257278476">
        <ele>1544.6</ele>
        <time>2018-01-30T15:50:32Z</time>
      </trkpt>
      <trkpt lat="45.704441183351" lon="6.936106488095">
        <ele>1542.8</ele>
        <time>2018-01-30T15:50:33Z</time>
      </trkpt>
      <trkpt lat="45.704412349615" lon="6.935951506764">
        <ele>1541</ele>
        <time>2018-01-30T15:50:34Z</time>
      </trkpt>
      <trkpt lat="45.704405476457" lon="6.935806416075">
        <ele>1539.6</ele>
        <time>2018-01-30T15:50:35Z</time>
      </trkpt>
      <trkpt lat="45.704405308819" lon="6.935691919321">
        <ele>1538.2</ele>
        <time>2018-01-30T15:50:36Z</time>
      </trkpt>
      <trkpt lat="45.704399441489" lon="6.935596533299">
        <ele>1536.6</ele>
        <time>2018-01-30T15:50:37Z</time>
      </trkpt>
      <trkpt lat="45.704424838646" lon="6.93553190885">
        <ele>1534.8</ele>
        <time>2018-01-30T15:50:38Z</time>
      </trkpt>
      <trkpt lat="45.704466496689" lon="6.935548588831">
        <ele>1533.2</ele>
        <time>2018-01-30T15:50:39Z</time>
      </trkpt>
      <trkpt lat="45.704479069539" lon="6.935525873882">
        <ele>1531.8</ele>
        <time>2018-01-30T15:50:40Z</time>
      </trkpt>
      <trkpt lat="45.704498180271" lon="6.93550760134">
        <ele>1530.8</ele>
        <time>2018-01-30T15:50:41Z</time>
      </trkpt>
      <trkpt lat="45.704538413391" lon="6.935421435408">
        <ele>1529</ele>
        <time>2018-01-30T15:50:43Z</time>
      </trkpt>
      <trkpt lat="45.704588118058" lon="6.935306938654">
        <ele>1526.8</ele>
        <time>2018-01-30T15:50:45Z</time>
      </trkpt>
      <trkpt lat="45.704614437224" lon="6.935245918422">
        <ele>1525.2</ele>
        <time>2018-01-30T15:50:46Z</time>
      </trkpt>
      <trkpt lat="45.704643103322" lon="6.935200656162">
        <ele>1523</ele>
        <time>2018-01-30T15:50:47Z</time>
      </trkpt>
      <trkpt lat="45.704679899863" lon="6.935124632329">
        <ele>1520.6</ele>
        <time>2018-01-30T15:50:48Z</time>
      </trkpt>
      <trkpt lat="45.704738405525" lon="6.935053553817">
        <ele>1517.8</ele>
        <time>2018-01-30T15:50:49Z</time>
      </trkpt>
      <trkpt lat="45.704805963639" lon="6.935019271846">
        <ele>1515</ele>
        <time>2018-01-30T15:50:50Z</time>
      </trkpt>
      <trkpt lat="45.704861703274" lon="6.935000412571">
        <ele>1512</ele>
        <time>2018-01-30T15:50:51Z</time>
      </trkpt>
      <trkpt lat="45.704937978564" lon="6.934955150311">
        <ele>1508.8</ele>
        <time>2018-01-30T15:50:52Z</time>
      </trkpt>
      <trkpt lat="45.705012409836" lon="6.934884490894">
        <ele>1505.6</ele>
        <time>2018-01-30T15:50:53Z</time>
      </trkpt>
      <trkpt lat="45.705106957668" lon="6.934811400726">
        <ele>1502</ele>
        <time>2018-01-30T15:50:54Z</time>
      </trkpt>
      <trkpt lat="45.705223885173" lon="6.93478005242">
        <ele>1498.2</ele>
        <time>2018-01-30T15:50:55Z</time>
      </trkpt>
      <trkpt lat="45.705336118814" lon="6.934749961399">
        <ele>1493.6</ele>
        <time>2018-01-30T15:50:56Z</time>
      </trkpt>
      <trkpt lat="45.705462853142" lon="6.934686761873">
        <ele>1489</ele>
        <time>2018-01-30T15:50:57Z</time>
      </trkpt>
      <trkpt lat="45.705590341841" lon="6.934596572629">
        <ele>1484.4</ele>
        <time>2018-01-30T15:50:58Z</time>
      </trkpt>
      <trkpt lat="45.705656894127" lon="6.934526835221">
        <ele>1479.8</ele>
        <time>2018-01-30T15:50:59Z</time>
      </trkpt>
      <trkpt lat="45.705725290431" lon="6.934556339509">
        <ele>1475.2</ele>
        <time>2018-01-30T15:51:00Z</time>
      </trkpt>
      <trkpt lat="45.705794273468" lon="6.934603864882">
        <ele>1470</ele>
        <time>2018-01-30T15:51:01Z</time>
      </trkpt>
      <trkpt lat="45.705855126062" lon="6.934647869857">
        <ele>1465</ele>
        <time>2018-01-30T15:51:02Z</time>
      </trkpt>
      <trkpt lat="45.705853533501" lon="6.934602188502">
        <ele>1461.2</ele>
        <time>2018-01-30T15:51:03Z</time>
      </trkpt>
      <trkpt lat="45.705918660864" lon="6.934570588739">
        <ele>1458</ele>
        <time>2018-01-30T15:51:04Z</time>
      </trkpt>
      <trkpt lat="45.705991164299" lon="6.934563296486">
        <ele>1455.4</ele>
        <time>2018-01-30T15:51:05Z</time>
      </trkpt>
      <trkpt lat="45.706055704929" lon="6.934570002006">
        <ele>1452.6</ele>
        <time>2018-01-30T15:51:06Z</time>
      </trkpt>
      <trkpt lat="45.706130639115" lon="6.934570672558">
        <ele>1449.6</ele>
        <time>2018-01-30T15:51:07Z</time>
      </trkpt>
      <trkpt lat="45.706200125066" lon="6.934563128848">
        <ele>1446.6</ele>
        <time>2018-01-30T15:51:08Z</time>
      </trkpt>
      <trkpt lat="45.706279082564" lon="6.934597746095">
        <ele>1443.6</ele>
        <time>2018-01-30T15:51:09Z</time>
      </trkpt>
      <trkpt lat="45.706354771121" lon="6.934661699992">
        <ele>1440.4</ele>
        <time>2018-01-30T15:51:10Z</time>
      </trkpt>
      <trkpt lat="45.706409169652" lon="6.934736382721">
        <ele>1436.8</ele>
        <time>2018-01-30T15:51:11Z</time>
      </trkpt>
      <trkpt lat="45.706459880147" lon="6.934786171207">
        <ele>1433.2</ele>
        <time>2018-01-30T15:51:12Z</time>
      </trkpt>
      <trkpt lat="45.706526767709" lon="6.934801929179">
        <ele>1430</ele>
        <time>2018-01-30T15:51:13Z</time>
      </trkpt>
      <trkpt lat="45.70657278434" lon="6.934761863697">
        <ele>1427</ele>
        <time>2018-01-30T15:51:14Z</time>
      </trkpt>
      <trkpt lat="45.706622153731" lon="6.934738729653">
        <ele>1424.2</ele>
        <time>2018-01-30T15:51:15Z</time>
      </trkpt>
      <trkpt lat="45.706680743212" lon="6.934759768222">
        <ele>1421.4</ele>
        <time>2018-01-30T15:51:16Z</time>
      </trkpt>
      <trkpt lat="45.706740003245" lon="6.934775610013">
        <ele>1418.6</ele>
        <time>2018-01-30T15:51:17Z</time>
      </trkpt>
      <trkpt lat="45.706777973252" lon="6.93479681622">
        <ele>1415.6</ele>
        <time>2018-01-30T15:51:18Z</time>
      </trkpt>
      <trkpt lat="45.706843603529" lon="6.934841827023">
        <ele>1412.4</ele>
        <time>2018-01-30T15:51:19Z</time>
      </trkpt>
      <trkpt lat="45.706931026746" lon="6.934864625791">
        <ele>1409</ele>
        <time>2018-01-30T15:51:20Z</time>
      </trkpt>
      <trkpt lat="45.707025239302" lon="6.934867727094">
        <ele>1405.6</ele>
        <time>2018-01-30T15:51:21Z</time>
      </trkpt>
      <trkpt lat="45.707104532076" lon="6.934881808686">
        <ele>1402</ele>
        <time>2018-01-30T15:51:22Z</time>
      </trkpt>
      <trkpt lat="45.707193547854" lon="6.934920616883">
        <ele>1397.8</ele>
        <time>2018-01-30T15:51:23Z</time>
      </trkpt>
      <trkpt lat="45.707268649678" lon="6.934945343488">
        <ele>1393.4</ele>
        <time>2018-01-30T15:51:24Z</time>
      </trkpt>
      <trkpt lat="45.707333274127" lon="6.93492841205">
        <ele>1389</ele>
        <time>2018-01-30T15:51:25Z</time>
      </trkpt>
      <trkpt lat="45.707417009308" lon="6.934938302692">
        <ele>1384.8</ele>
        <time>2018-01-30T15:51:26Z</time>
      </trkpt>
      <trkpt lat="45.70750568981" lon="6.934973758129">
        <ele>1380.4</ele>
        <time>2018-01-30T15:51:27Z</time>
      </trkpt>
      <trkpt lat="45.707585485498" lon="6.935029665402">
        <ele>1376.6</ele>
        <time>2018-01-30T15:51:28Z</time>
      </trkpt>
      <trkpt lat="45.707664862091" lon="6.935017763104">
        <ele>1371.8</ele>
        <time>2018-01-30T15:51:29Z</time>
      </trkpt>
      <trkpt lat="45.707723954486" lon="6.934982559124">
        <ele>1367.4</ele>
        <time>2018-01-30T15:51:30Z</time>
      </trkpt>
      <trkpt lat="45.707786902555" lon="6.934991863033">
        <ele>1363.2</ele>
        <time>2018-01-30T15:51:31Z</time>
      </trkpt>
      <trkpt lat="45.707799559224" lon="6.935031090325">
        <ele>1359.8</ele>
        <time>2018-01-30T15:51:32Z</time>
      </trkpt>
      <trkpt lat="45.70780157088" lon="6.935044585184">
        <ele>1356.2</ele>
        <time>2018-01-30T15:51:33Z</time>
      </trkpt>
      <trkpt lat="45.70779570355" lon="6.935046513021">
        <ele>1353.6</ele>
        <time>2018-01-30T15:51:34Z</time>
      </trkpt>
      <trkpt lat="45.707791764057" lon="6.935037460569">
        <ele>1351.8</ele>
        <time>2018-01-30T15:51:35Z</time>
      </trkpt>
      <trkpt lat="45.707786734917" lon="6.935027905203">
        <ele>1350.8</ele>
        <time>2018-01-30T15:51:36Z</time>
      </trkpt>
      <trkpt lat="45.70777055785" lon="6.93501223105">
        <ele>1349.6</ele>
        <time>2018-01-30T15:51:39Z</time>
      </trkpt>
      <trkpt lat="45.707767037452" lon="6.934998903829">
        <ele>1349.6</ele>
        <time>2018-01-30T15:51:42Z</time>
      </trkpt>
      <trkpt lat="45.707921348231" lon="6.935312722165">
        <ele>1347.8</ele>
        <time>2018-01-30T15:51:56Z</time>
      </trkpt>
      <trkpt lat="45.707962670998" lon="6.935390925292">
        <ele>1346.8</ele>
        <time>2018-01-30T15:51:57Z</time>
      </trkpt>
      <trkpt lat="45.707995947141" lon="6.935480863079">
        <ele>1345.6</ele>
        <time>2018-01-30T15:51:58Z</time>
      </trkpt>
      <trkpt lat="45.708036683175" lon="6.935570130314">
        <ele>1343.8</ele>
        <time>2018-01-30T15:51:59Z</time>
      </trkpt>
      <trkpt lat="45.708074066449" lon="6.935664091413">
        <ele>1341.8</ele>
        <time>2018-01-30T15:52:00Z</time>
      </trkpt>
      <trkpt lat="45.708108935153" lon="6.935747910413">
        <ele>1339.4</ele>
        <time>2018-01-30T15:52:01Z</time>
      </trkpt>
      <trkpt lat="45.708149922644" lon="6.935835585087">
        <ele>1337</ele>
        <time>2018-01-30T15:52:02Z</time>
      </trkpt>
      <trkpt lat="45.708187473556" lon="6.935920409915">
        <ele>1335</ele>
        <time>2018-01-30T15:52:03Z</time>
      </trkpt>
      <trkpt lat="45.708227958133" lon="6.936000708517">
        <ele>1333</ele>
        <time>2018-01-30T15:52:04Z</time>
      </trkpt>
      <trkpt lat="45.708258803525" lon="6.93608511425">
        <ele>1331.4</ele>
        <time>2018-01-30T15:52:05Z</time>
      </trkpt>
      <trkpt lat="45.708281267017" lon="6.936145883025">
        <ele>1329.2</ele>
        <time>2018-01-30T15:52:06Z</time>
      </trkpt>
      <trkpt lat="45.708319907576" lon="6.936195168597">
        <ele>1327</ele>
        <time>2018-01-30T15:52:07Z</time>
      </trkpt>
      <trkpt lat="45.708371372442" lon="6.936214949881">
        <ele>1324.8</ele>
        <time>2018-01-30T15:52:08Z</time>
      </trkpt>
      <trkpt lat="45.70843021338" lon="6.936239089753">
        <ele>1322.2</ele>
        <time>2018-01-30T15:52:09Z</time>
      </trkpt>
      <trkpt lat="45.708484444273" lon="6.93628292709">
        <ele>1319.6</ele>
        <time>2018-01-30T15:52:10Z</time>
      </trkpt>
      <trkpt lat="45.708549990731" lon="6.936323830762">
        <ele>1316.4</ele>
        <time>2018-01-30T15:52:11Z</time>
      </trkpt>
      <trkpt lat="45.708618051759" lon="6.936358867104">
        <ele>1313.6</ele>
        <time>2018-01-30T15:52:12Z</time>
      </trkpt>
      <trkpt lat="45.708693656497" lon="6.936414271463">
        <ele>1310.4</ele>
        <time>2018-01-30T15:52:13Z</time>
      </trkpt>
      <trkpt lat="45.708791557089" lon="6.936502113775">
        <ele>1306.8</ele>
        <time>2018-01-30T15:52:14Z</time>
      </trkpt>
      <trkpt lat="45.708889792957" lon="6.936610827018">
        <ele>1302.6</ele>
        <time>2018-01-30T15:52:15Z</time>
      </trkpt>
      <trkpt lat="45.708961374383" lon="6.936765808349">
        <ele>1298.2</ele>
        <time>2018-01-30T15:52:16Z</time>
      </trkpt>
      <trkpt lat="45.708993644698" lon="6.936942414982">
        <ele>1294</ele>
        <time>2018-01-30T15:52:17Z</time>
      </trkpt>
      <trkpt lat="45.709007893928" lon="6.937120446538">
        <ele>1290</ele>
        <time>2018-01-30T15:52:18Z</time>
      </trkpt>
      <trkpt lat="45.709049887247" lon="6.937278864448">
        <ele>1286</ele>
        <time>2018-01-30T15:52:19Z</time>
      </trkpt>
      <trkpt lat="45.709119959931" lon="6.937440383661">
        <ele>1282.2</ele>
        <time>2018-01-30T15:52:20Z</time>
      </trkpt>
      <trkpt lat="45.70916865877" lon="6.937610536231">
        <ele>1279</ele>
        <time>2018-01-30T15:52:21Z</time>
      </trkpt>
      <trkpt lat="45.709214340125" lon="6.937767529218">
        <ele>1276.8</ele>
        <time>2018-01-30T15:52:22Z</time>
      </trkpt>
      <trkpt lat="45.709263038964" lon="6.937916224124">
        <ele>1274.6</ele>
        <time>2018-01-30T15:52:23Z</time>
      </trkpt>
      <trkpt lat="45.709283406981" lon="6.938047149402">
        <ele>1272.2</ele>
        <time>2018-01-30T15:52:24Z</time>
      </trkpt>
      <trkpt lat="45.709316683124" lon="6.938189222607">
        <ele>1269.4</ele>
        <time>2018-01-30T15:52:25Z</time>
      </trkpt>
      <trkpt lat="45.709354904588" lon="6.9383440363">
        <ele>1266.4</ele>
        <time>2018-01-30T15:52:26Z</time>
      </trkpt>
      <trkpt lat="45.709391198215" lon="6.938485606591">
        <ele>1263.6</ele>
        <time>2018-01-30T15:52:27Z</time>
      </trkpt>
      <trkpt lat="45.709436628113" lon="6.938616196593">
        <ele>1260.8</ele>
        <time>2018-01-30T15:52:28Z</time>
      </trkpt>
      <trkpt lat="45.709488092979" lon="6.938750474631">
        <ele>1257.8</ele>
        <time>2018-01-30T15:52:29Z</time>
      </trkpt>
      <trkpt lat="45.709512903403" lon="6.938875029665">
        <ele>1254.6</ele>
        <time>2018-01-30T15:52:30Z</time>
      </trkpt>
      <trkpt lat="45.709535702171" lon="6.938977540302">
        <ele>1251.6</ele>
        <time>2018-01-30T15:52:31Z</time>
      </trkpt>
      <trkpt lat="45.709552298333" lon="6.939044008769">
        <ele>1248.6</ele>
        <time>2018-01-30T15:52:32Z</time>
      </trkpt>
      <trkpt lat="45.709595716575" lon="6.939111483064">
        <ele>1246</ele>
        <time>2018-01-30T15:52:33Z</time>
      </trkpt>
      <trkpt lat="45.709628154528" lon="6.939191614028">
        <ele>1243.6</ele>
        <time>2018-01-30T15:52:34Z</time>
      </trkpt>
      <trkpt lat="45.709667884734" lon="6.939259926513">
        <ele>1241.2</ele>
        <time>2018-01-30T15:52:35Z</time>
      </trkpt>
      <trkpt lat="45.709712224985" lon="6.939341817676">
        <ele>1238.6</ele>
        <time>2018-01-30T15:52:36Z</time>
      </trkpt>
      <trkpt lat="45.709757403426" lon="6.939440137363">
        <ele>1236.2</ele>
        <time>2018-01-30T15:52:37Z</time>
      </trkpt>
      <trkpt lat="45.709775340692" lon="6.939545665484">
        <ele>1233.6</ele>
        <time>2018-01-30T15:52:38Z</time>
      </trkpt>
      <trkpt lat="45.709789925198" lon="6.93963401071">
        <ele>1230.4</ele>
        <time>2018-01-30T15:52:39Z</time>
      </trkpt>
      <trkpt lat="45.709805264075" lon="6.939683799196">
        <ele>1227.6</ele>
        <time>2018-01-30T15:52:40Z</time>
      </trkpt>
      <trkpt lat="45.709854717285" lon="6.939742640134">
        <ele>1225</ele>
        <time>2018-01-30T15:52:41Z</time>
      </trkpt>
      <trkpt lat="45.709900650097" lon="6.93981170699">
        <ele>1222.6</ele>
        <time>2018-01-30T15:52:42Z</time>
      </trkpt>
      <trkpt lat="45.709917246259" lon="6.939890329212">
        <ele>1219.8</ele>
        <time>2018-01-30T15:52:43Z</time>
      </trkpt>
      <trkpt lat="45.709925963435" lon="6.939964341389">
        <ele>1217</ele>
        <time>2018-01-30T15:52:44Z</time>
      </trkpt>
      <trkpt lat="45.70992638253" lon="6.940024439612">
        <ele>1214.2</ele>
        <time>2018-01-30T15:52:45Z</time>
      </trkpt>
      <trkpt lat="45.709933171869" lon="6.940061990524">
        <ele>1211.2</ele>
        <time>2018-01-30T15:52:46Z</time>
      </trkpt>
      <trkpt lat="45.709955300085" lon="6.940090991898">
        <ele>1208.8</ele>
        <time>2018-01-30T15:52:47Z</time>
      </trkpt>
      <trkpt lat="45.71001606886" lon="6.940098787065">
        <ele>1206.6</ele>
        <time>2018-01-30T15:52:48Z</time>
      </trkpt>
      <trkpt lat="45.710075999445" lon="6.940102810377">
        <ele>1204.6</ele>
        <time>2018-01-30T15:52:49Z</time>
      </trkpt>
      <trkpt lat="45.71012670994" lon="6.940139690737">
        <ele>1202.4</ele>
        <time>2018-01-30T15:52:50Z</time>
      </trkpt>
      <trkpt lat="45.710133499279" lon="6.940210350154">
        <ele>1200.2</ele>
        <time>2018-01-30T15:52:51Z</time>
      </trkpt>
      <trkpt lat="45.710130397976" lon="6.940280758114">
        <ele>1198.4</ele>
        <time>2018-01-30T15:52:52Z</time>
      </trkpt>
      <trkpt lat="45.710159147893" lon="6.940372875195">
        <ele>1196.2</ele>
        <time>2018-01-30T15:52:53Z</time>
      </trkpt>
      <trkpt lat="45.710186891982" lon="6.940488796872">
        <ele>1194</ele>
        <time>2018-01-30T15:52:54Z</time>
      </trkpt>
      <trkpt lat="45.710218994659" lon="6.940641850366">
        <ele>1191.2</ele>
        <time>2018-01-30T15:52:55Z</time>
      </trkpt>
      <trkpt lat="45.710279847253" lon="6.940883416724">
        <ele>1187.8</ele>
        <time>2018-01-30T15:52:56Z</time>
      </trkpt>
      <trkpt lat="45.710355032896" lon="6.94111257787">
        <ele>1184.2</ele>
        <time>2018-01-30T15:52:57Z</time>
      </trkpt>
      <trkpt lat="45.710423177743" lon="6.941333105659">
        <ele>1179.6</ele>
        <time>2018-01-30T15:52:58Z</time>
      </trkpt>
      <trkpt lat="45.710561227636" lon="6.941552292344">
        <ele>1174</ele>
        <time>2018-01-30T15:52:59Z</time>
      </trkpt>
      <trkpt lat="45.710685950308" lon="6.941762845672">
        <ele>1168.2</ele>
        <time>2018-01-30T15:53:00Z</time>
      </trkpt>
      <trkpt lat="45.710802039623" lon="6.9419566352">
        <ele>1163.8</ele>
        <time>2018-01-30T15:53:01Z</time>
      </trkpt>
      <trkpt lat="45.710900191672" lon="6.942130559625">
        <ele>1160.8</ele>
        <time>2018-01-30T15:53:02Z</time>
      </trkpt>
      <trkpt lat="45.710974539125" lon="6.942297359435">
        <ele>1158</ele>
        <time>2018-01-30T15:53:03Z</time>
      </trkpt>
      <trkpt lat="45.711058441944" lon="6.942443875047">
        <ele>1155.6</ele>
        <time>2018-01-30T15:53:04Z</time>
      </trkpt>
      <trkpt lat="45.711146535713" lon="6.942597934369">
        <ele>1154</ele>
        <time>2018-01-30T15:53:05Z</time>
      </trkpt>
      <trkpt lat="45.711234964758" lon="6.942739839936">
        <ele>1152.8</ele>
        <time>2018-01-30T15:53:06Z</time>
      </trkpt>
      <trkpt lat="45.711314257532" lon="6.942889792127">
        <ele>1151.8</ele>
        <time>2018-01-30T15:53:07Z</time>
      </trkpt>
      <trkpt lat="45.711389526994" lon="6.943026920011">
        <ele>1150.6</ele>
        <time>2018-01-30T15:53:08Z</time>
      </trkpt>
      <trkpt lat="45.711505867766" lon="6.943320789425">
        <ele>1149.4</ele>
        <time>2018-01-30T15:53:10Z</time>
      </trkpt>
      <trkpt lat="45.711587088377" lon="6.943607450405">
        <ele>1148</ele>
        <time>2018-01-30T15:53:12Z</time>
      </trkpt>
      <trkpt lat="45.711622962909" lon="6.943872821359">
        <ele>1146.8</ele>
        <time>2018-01-30T15:53:14Z</time>
      </trkpt>
      <trkpt lat="45.711631680085" lon="6.944119668314">
        <ele>1145.6</ele>
        <time>2018-01-30T15:53:16Z</time>
      </trkpt>
      <trkpt lat="45.711629333153" lon="6.944246989375">
        <ele>1145.2</ele>
        <time>2018-01-30T15:53:17Z</time>
      </trkpt>
      <trkpt lat="45.711598236304" lon="6.944493081959">
        <ele>1144.4</ele>
        <time>2018-01-30T15:53:19Z</time>
      </trkpt>
      <trkpt lat="45.711567055636" lon="6.944719141802">
        <ele>1143.2</ele>
        <time>2018-01-30T15:53:21Z</time>
      </trkpt>
      <trkpt lat="45.711530510552" lon="6.944931120053">
        <ele>1141.8</ele>
        <time>2018-01-30T15:53:23Z</time>
      </trkpt>
      <trkpt lat="45.711497234409" lon="6.945136476603">
        <ele>1140.8</ele>
        <time>2018-01-30T15:53:25Z</time>
      </trkpt>
      <trkpt lat="45.711520284634" lon="6.945330266131">
        <ele>1139.8</ele>
        <time>2018-01-30T15:53:27Z</time>
      </trkpt>
      <trkpt lat="45.711552806406" lon="6.94542087447">
        <ele>1139.4</ele>
        <time>2018-01-30T15:53:28Z</time>
      </trkpt>
      <trkpt lat="45.71158180778" lon="6.945516595768">
        <ele>1138.8</ele>
        <time>2018-01-30T15:53:29Z</time>
      </trkpt>
      <trkpt lat="45.711604522729" lon="6.945623213536">
        <ele>1138.2</ele>
        <time>2018-01-30T15:53:30Z</time>
      </trkpt>
      <trkpt lat="45.711641067813" lon="6.945856649451">
        <ele>1136.6</ele>
        <time>2018-01-30T15:53:32Z</time>
      </trkpt>
      <trkpt lat="45.711651293731" lon="6.945986736539">
        <ele>1135.8</ele>
        <time>2018-01-30T15:53:33Z</time>
      </trkpt>
      <trkpt lat="45.711646683686" lon="6.946129731753">
        <ele>1134.6</ele>
        <time>2018-01-30T15:53:34Z</time>
      </trkpt>
      <trkpt lat="45.711627153859" lon="6.946291586242">
        <ele>1133.2</ele>
        <time>2018-01-30T15:53:35Z</time>
      </trkpt>
      <trkpt lat="45.711600583236" lon="6.946457380224">
        <ele>1131.4</ele>
        <time>2018-01-30T15:53:36Z</time>
      </trkpt>
      <trkpt lat="45.711572168595" lon="6.946636585246">
        <ele>1129.2</ele>
        <time>2018-01-30T15:53:37Z</time>
      </trkpt>
      <trkpt lat="45.711538808633" lon="6.946812605146">
        <ele>1126.4</ele>
        <time>2018-01-30T15:53:38Z</time>
      </trkpt>
      <trkpt lat="45.711502850282" lon="6.946988876503">
        <ele>1123.8</ele>
        <time>2018-01-30T15:53:39Z</time>
      </trkpt>
      <trkpt lat="45.711469909415" lon="6.947168416801">
        <ele>1121.8</ele>
        <time>2018-01-30T15:53:40Z</time>
      </trkpt>
      <trkpt lat="45.711441494774" lon="6.947357428646">
        <ele>1119.8</ele>
        <time>2018-01-30T15:53:41Z</time>
      </trkpt>
      <trkpt lat="45.711397573618" lon="6.947530682519">
        <ele>1118.2</ele>
        <time>2018-01-30T15:53:42Z</time>
      </trkpt>
      <trkpt lat="45.711345605838" lon="6.947689184248">
        <ele>1116.2</ele>
        <time>2018-01-30T15:53:43Z</time>
      </trkpt>
      <trkpt lat="45.711301684682" lon="6.947838549706">
        <ele>1114.4</ele>
        <time>2018-01-30T15:53:44Z</time>
      </trkpt>
      <trkpt lat="45.711315598636" lon="6.94797651578">
        <ele>1112.4</ele>
        <time>2018-01-30T15:53:45Z</time>
      </trkpt>
      <trkpt lat="45.71135046734" lon="6.948112218741">
        <ele>1111.2</ele>
        <time>2018-01-30T15:53:46Z</time>
      </trkpt>
      <trkpt lat="45.711391287193" lon="6.948216154301">
        <ele>1110</ele>
        <time>2018-01-30T15:53:47Z</time>
      </trkpt>
      <trkpt lat="45.711452223606" lon="6.948263679674">
        <ele>1108.8</ele>
        <time>2018-01-30T15:53:48Z</time>
      </trkpt>
      <trkpt lat="45.711515842227" lon="6.948298296921">
        <ele>1107.6</ele>
        <time>2018-01-30T15:53:49Z</time>
      </trkpt>
      <trkpt lat="45.711561942677" lon="6.948327214476">
        <ele>1106.6</ele>
        <time>2018-01-30T15:53:50Z</time>
      </trkpt>
      <trkpt lat="45.71158683692" lon="6.948366022673">
        <ele>1105.2</ele>
        <time>2018-01-30T15:53:52Z</time>
      </trkpt>
      <trkpt lat="45.71160276253" lon="6.948351438167">
        <ele>1104.6</ele>
        <time>2018-01-30T15:53:54Z</time>
      </trkpt>
      <trkpt lat="45.711606031471" lon="6.94834280481">
        <ele>1104</ele>
        <time>2018-01-30T15:53:56Z</time>
      </trkpt>
      <trkpt lat="45.711110661181" lon="6.947962685645">
        <ele>1106</ele>
        <time>2018-01-30T15:56:24Z</time>
      </trkpt>
      <trkpt lat="45.711325573097" lon="6.948138370269">
        <ele>1105.6</ele>
        <time>2018-01-30T15:56:30Z</time>
      </trkpt>
      <trkpt lat="45.711455492547" lon="6.948251023005">
        <ele>1105</ele>
        <time>2018-01-30T15:56:34Z</time>
      </trkpt>
      <trkpt lat="45.711617263217" lon="6.948297877826">
        <ele>1104.2</ele>
        <time>2018-01-30T15:56:40Z</time>
      </trkpt>
      <trkpt lat="45.711619191054" lon="6.9482933516">
        <ele>1103.8</ele>
        <time>2018-01-30T15:56:41Z</time>
      </trkpt>
      <trkpt lat="45.71175363673" lon="6.947741571123">
        <ele>1103.8</ele>
        <time>2018-01-30T15:58:19Z</time>
      </trkpt>
      <trkpt lat="45.711611479706" lon="6.94761274132">
        <ele>1105</ele>
        <time>2018-01-30T15:58:24Z</time>
      </trkpt>
      <trkpt lat="45.711582478332" lon="6.947584578136">
        <ele>1106</ele>
        <time>2018-01-30T15:58:25Z</time>
      </trkpt>
      <trkpt lat="45.702149823348" lon="6.939219525755">
        <ele>1719.4</ele>
        <time>2018-01-30T16:04:35Z</time>
      </trkpt>
      <trkpt lat="45.702228864665" lon="6.939355312535">
        <ele>1718.2</ele>
        <time>2018-01-30T16:04:38Z</time>
      </trkpt>
      <trkpt lat="45.702246801931" lon="6.93968178754">
        <ele>1716.8</ele>
        <time>2018-01-30T16:04:40Z</time>
      </trkpt>
      <trkpt lat="45.70221838729" lon="6.939788489127">
        <ele>1715.6</ele>
        <time>2018-01-30T16:04:41Z</time>
      </trkpt>
      <trkpt lat="45.702183602405" lon="6.939881360579">
        <ele>1714.6</ele>
        <time>2018-01-30T16:04:42Z</time>
      </trkpt>
      <trkpt lat="45.702148398425" lon="6.939966939778">
        <ele>1713.4</ele>
        <time>2018-01-30T16:04:43Z</time>
      </trkpt>
      <trkpt lat="45.702116379567" lon="6.940038437385">
        <ele>1711.8</ele>
        <time>2018-01-30T16:04:45Z</time>
      </trkpt>
      <trkpt lat="45.702034907499" lon="6.940187467567">
        <ele>1710.6</ele>
        <time>2018-01-30T16:04:47Z</time>
      </trkpt>
      <trkpt lat="45.70201722169" lon="6.940226359583">
        <ele>1709.6</ele>
        <time>2018-01-30T16:04:49Z</time>
      </trkpt>
      <trkpt lat="45.702013617473" lon="6.940260557735">
        <ele>1709.2</ele>
        <time>2018-01-30T16:04:50Z</time>
      </trkpt>
      <trkpt lat="45.702011941093" lon="6.940291486946">
        <ele>1708.4</ele>
        <time>2018-01-30T16:04:52Z</time>
      </trkpt>
      <trkpt lat="45.702079080112" lon="6.940324092537">
        <ele>1707.8</ele>
        <time>2018-01-30T16:04:53Z</time>
      </trkpt>
      <trkpt lat="45.702079080112" lon="6.940324092537">
        <ele>1707</ele>
        <time>2018-01-30T16:04:54Z</time>
      </trkpt>
      <trkpt lat="45.702082935786" lon="6.940416377256">
        <ele>1706.2</ele>
        <time>2018-01-30T16:04:55Z</time>
      </trkpt>
      <trkpt lat="45.702072458411" lon="6.940458035299">
        <ele>1705.4</ele>
        <time>2018-01-30T16:04:56Z</time>
      </trkpt>
      <trkpt lat="45.702068435099" lon="6.940510422174">
        <ele>1703.6</ele>
        <time>2018-01-30T16:04:58Z</time>
      </trkpt>
      <trkpt lat="45.702075308257" lon="6.940532885666">
        <ele>1702.2</ele>
        <time>2018-01-30T16:05:00Z</time>
      </trkpt>
      <trkpt lat="45.70217228684" lon="6.940634390475">
        <ele>1701</ele>
        <time>2018-01-30T16:05:02Z</time>
      </trkpt>
      <trkpt lat="45.702233642348" lon="6.940763555554">
        <ele>1699</ele>
        <time>2018-01-30T16:05:04Z</time>
      </trkpt>
      <trkpt lat="45.702233642348" lon="6.940763555554">
        <ele>1697.8</ele>
        <time>2018-01-30T16:05:05Z</time>
      </trkpt>
      <trkpt lat="45.702323915411" lon="6.940898168868">
        <ele>1696.2</ele>
        <time>2018-01-30T16:05:06Z</time>
      </trkpt>
      <trkpt lat="45.702323915411" lon="6.940898168868">
        <ele>1694.8</ele>
        <time>2018-01-30T16:05:07Z</time>
      </trkpt>
      <trkpt lat="45.702334644243" lon="6.941081983935">
        <ele>1693</ele>
        <time>2018-01-30T16:05:08Z</time>
      </trkpt>
      <trkpt lat="45.702334644243" lon="6.941081983935">
        <ele>1691</ele>
        <time>2018-01-30T16:05:09Z</time>
      </trkpt>
      <trkpt lat="45.70231980828" lon="6.941165635297">
        <ele>1689.2</ele>
        <time>2018-01-30T16:05:10Z</time>
      </trkpt>
      <trkpt lat="45.702312683665" lon="6.941241240035">
        <ele>1687.8</ele>
        <time>2018-01-30T16:05:11Z</time>
      </trkpt>
      <trkpt lat="45.702434221215" lon="6.941400496135">
        <ele>1686</ele>
        <time>2018-01-30T16:05:13Z</time>
      </trkpt>
      <trkpt lat="45.702537821499" lon="6.941473502484">
        <ele>1684.2</ele>
        <time>2018-01-30T16:05:15Z</time>
      </trkpt>
      <trkpt lat="45.70258467632" lon="6.94153586382">
        <ele>1683</ele>
        <time>2018-01-30T16:05:16Z</time>
      </trkpt>
      <trkpt lat="45.70258467632" lon="6.94153586382">
        <ele>1681.8</ele>
        <time>2018-01-30T16:05:17Z</time>
      </trkpt>
      <trkpt lat="45.702639829222" lon="6.941581377537">
        <ele>1680.6</ele>
        <time>2018-01-30T16:05:18Z</time>
      </trkpt>
      <trkpt lat="45.702705291861" lon="6.941604176305">
        <ele>1679.2</ele>
        <time>2018-01-30T16:05:19Z</time>
      </trkpt>
      <trkpt lat="45.702827667601" lon="6.941699059413">
        <ele>1677.8</ele>
        <time>2018-01-30T16:05:20Z</time>
      </trkpt>
      <trkpt lat="45.702827667601" lon="6.941699059413">
        <ele>1676</ele>
        <time>2018-01-30T16:05:21Z</time>
      </trkpt>
      <trkpt lat="45.702875947345" lon="6.941756223971">
        <ele>1674.2</ele>
        <time>2018-01-30T16:05:22Z</time>
      </trkpt>
      <trkpt lat="45.70300209494" lon="6.941845072111">
        <ele>1672</ele>
        <time>2018-01-30T16:05:23Z</time>
      </trkpt>
      <trkpt lat="45.703038723843" lon="6.941910199474">
        <ele>1670</ele>
        <time>2018-01-30T16:05:24Z</time>
      </trkpt>
      <trkpt lat="45.703057331661" lon="6.941973566638">
        <ele>1667.8</ele>
        <time>2018-01-30T16:05:25Z</time>
      </trkpt>
      <trkpt lat="45.703076190936" lon="6.942033329585">
        <ele>1665.6</ele>
        <time>2018-01-30T16:05:26Z</time>
      </trkpt>
      <trkpt lat="45.703076190936" lon="6.942033329585">
        <ele>1663.4</ele>
        <time>2018-01-30T16:05:27Z</time>
      </trkpt>
      <trkpt lat="45.703131092381" lon="6.942080352044">
        <ele>1661.8</ele>
        <time>2018-01-30T16:05:28Z</time>
      </trkpt>
      <trkpt lat="45.703131092381" lon="6.942080352044">
        <ele>1660.4</ele>
        <time>2018-01-30T16:05:29Z</time>
      </trkpt>
      <trkpt lat="45.70320912787" lon="6.942014302672">
        <ele>1659</ele>
        <time>2018-01-30T16:05:30Z</time>
      </trkpt>
      <trkpt lat="45.703254725406" lon="6.941951186965">
        <ele>1657.6</ele>
        <time>2018-01-30T16:05:31Z</time>
      </trkpt>
      <trkpt lat="45.703304932987" lon="6.941879354082">
        <ele>1656.4</ele>
        <time>2018-01-30T16:05:32Z</time>
      </trkpt>
      <trkpt lat="45.703304932987" lon="6.941879354082">
        <ele>1655</ele>
        <time>2018-01-30T16:05:33Z</time>
      </trkpt>
      <trkpt lat="45.703353631826" lon="6.941805006629">
        <ele>1653.8</ele>
        <time>2018-01-30T16:05:34Z</time>
      </trkpt>
      <trkpt lat="45.703449772219" lon="6.941624795779">
        <ele>1652.2</ele>
        <time>2018-01-30T16:05:35Z</time>
      </trkpt>
      <trkpt lat="45.703449772219" lon="6.941624795779">
        <ele>1650.4</ele>
        <time>2018-01-30T16:05:36Z</time>
      </trkpt>
      <trkpt lat="45.703561502946" lon="6.94143192826">
        <ele>1648.8</ele>
        <time>2018-01-30T16:05:37Z</time>
      </trkpt>
      <trkpt lat="45.703636856227" lon="6.941335117315">
        <ele>1646.8</ele>
        <time>2018-01-30T16:05:38Z</time>
      </trkpt>
      <trkpt lat="45.703636856227" lon="6.941335117315">
        <ele>1645.2</ele>
        <time>2018-01-30T16:05:39Z</time>
      </trkpt>
      <trkpt lat="45.703716568096" lon="6.94114442909">
        <ele>1643.6</ele>
        <time>2018-01-30T16:05:40Z</time>
      </trkpt>
      <trkpt lat="45.703742719624" lon="6.941072847664">
        <ele>1642.4</ele>
        <time>2018-01-30T16:05:41Z</time>
      </trkpt>
      <trkpt lat="45.703742719624" lon="6.941072847664">
        <ele>1640.8</ele>
        <time>2018-01-30T16:05:42Z</time>
      </trkpt>
      <trkpt lat="45.703763674374" lon="6.941044181566">
        <ele>1639.2</ele>
        <time>2018-01-30T16:05:43Z</time>
      </trkpt>
      <trkpt lat="45.703776498681" lon="6.941044349204">
        <ele>1637.8</ele>
        <time>2018-01-30T16:05:44Z</time>
      </trkpt>
      <trkpt lat="45.703778929432" lon="6.941052563466">
        <ele>1636.6</ele>
        <time>2018-01-30T16:05:45Z</time>
      </trkpt>
      <trkpt lat="45.70377155336" lon="6.941054072208">
        <ele>1635</ele>
        <time>2018-01-30T16:05:47Z</time>
      </trkpt>
      <trkpt lat="45.703769457885" lon="6.941045438851">
        <ele>1634.2</ele>
        <time>2018-01-30T16:05:50Z</time>
      </trkpt>
      <trkpt lat="45.703889319055" lon="6.940972097226">
        <ele>1632.6</ele>
        <time>2018-01-30T16:06:32Z</time>
      </trkpt>
      <trkpt lat="45.703979089204" lon="6.94088878114">
        <ele>1630.6</ele>
        <time>2018-01-30T16:06:34Z</time>
      </trkpt>
      <trkpt lat="45.704035415572" lon="6.940827341813">
        <ele>1629.4</ele>
        <time>2018-01-30T16:06:35Z</time>
      </trkpt>
      <trkpt lat="45.70409090375" lon="6.940754167826">
        <ele>1627.8</ele>
        <time>2018-01-30T16:06:36Z</time>
      </trkpt>
      <trkpt lat="45.704137088019" lon="6.94065827889">
        <ele>1626.2</ele>
        <time>2018-01-30T16:06:37Z</time>
      </trkpt>
      <trkpt lat="45.704178578424" lon="6.940558701918">
        <ele>1624.6</ele>
        <time>2018-01-30T16:06:38Z</time>
      </trkpt>
      <trkpt lat="45.704241694131" lon="6.940329456953">
        <ele>1622.8</ele>
        <time>2018-01-30T16:06:39Z</time>
      </trkpt>
      <trkpt lat="45.704241694131" lon="6.940329456953">
        <ele>1620.8</ele>
        <time>2018-01-30T16:06:40Z</time>
      </trkpt>
      <trkpt lat="45.704279328862" lon="6.940219570244">
        <ele>1618.4</ele>
        <time>2018-01-30T16:06:41Z</time>
      </trkpt>
      <trkpt lat="45.704304390743" lon="6.940113203933">
        <ele>1616.2</ele>
        <time>2018-01-30T16:06:42Z</time>
      </trkpt>
      <trkpt lat="45.704329955538" lon="6.940008262545">
        <ele>1614</ele>
        <time>2018-01-30T16:06:43Z</time>
      </trkpt>
      <trkpt lat="45.704371948857" lon="6.939916229283">
        <ele>1612.2</ele>
        <time>2018-01-30T16:06:44Z</time>
      </trkpt>
      <trkpt lat="45.704410170321" lon="6.939821849089">
        <ele>1610.2</ele>
        <time>2018-01-30T16:06:45Z</time>
      </trkpt>
      <trkpt lat="45.704432466175" lon="6.939733587682">
        <ele>1608.4</ele>
        <time>2018-01-30T16:06:46Z</time>
      </trkpt>
      <trkpt lat="45.704502957954" lon="6.939587239708">
        <ele>1606.8</ele>
        <time>2018-01-30T16:06:47Z</time>
      </trkpt>
      <trkpt lat="45.704551992069" lon="6.93953007515">
        <ele>1604.8</ele>
        <time>2018-01-30T16:06:48Z</time>
      </trkpt>
      <trkpt lat="45.704551992069" lon="6.93953007515">
        <ele>1602.4</ele>
        <time>2018-01-30T16:06:49Z</time>
      </trkpt>
      <trkpt lat="45.70460722879" lon="6.939414572568">
        <ele>1600.2</ele>
        <time>2018-01-30T16:06:50Z</time>
      </trkpt>
      <trkpt lat="45.70460722879" lon="6.939414572568">
        <ele>1598.4</ele>
        <time>2018-01-30T16:06:51Z</time>
      </trkpt>
      <trkpt lat="45.704612509387" lon="6.939305524049">
        <ele>1596.6</ele>
        <time>2018-01-30T16:06:52Z</time>
      </trkpt>
      <trkpt lat="45.704620807468" lon="6.939284988394">
        <ele>1595</ele>
        <time>2018-01-30T16:06:53Z</time>
      </trkpt>
      <trkpt lat="45.704619717821" lon="6.939278534331">
        <ele>1593.4</ele>
        <time>2018-01-30T16:06:54Z</time>
      </trkpt>
      <trkpt lat="45.70461728707" lon="6.9392660453">
        <ele>1592</ele>
        <time>2018-01-30T16:06:55Z</time>
      </trkpt>
      <trkpt lat="45.704622400029" lon="6.93919982829">
        <ele>1590.4</ele>
        <time>2018-01-30T16:06:57Z</time>
      </trkpt>
      <trkpt lat="45.704639834381" lon="6.939129336511">
        <ele>1589.6</ele>
        <time>2018-01-30T16:06:59Z</time>
      </trkpt>
      <trkpt lat="45.704663471339" lon="6.939046188063">
        <ele>1588.4</ele>
        <time>2018-01-30T16:07:00Z</time>
      </trkpt>
      <trkpt lat="45.704681324786" lon="6.938945772901">
        <ele>1587</ele>
        <time>2018-01-30T16:07:01Z</time>
      </trkpt>
      <trkpt lat="45.704697920948" lon="6.938820212039">
        <ele>1585.4</ele>
        <time>2018-01-30T16:07:02Z</time>
      </trkpt>
      <trkpt lat="45.704723485743" lon="6.938704290362">
        <ele>1583.4</ele>
        <time>2018-01-30T16:07:03Z</time>
      </trkpt>
      <trkpt lat="45.704729772168" lon="6.938569006496">
        <ele>1581</ele>
        <time>2018-01-30T16:07:04Z</time>
      </trkpt>
      <trkpt lat="45.704750726918" lon="6.938264240612">
        <ele>1578.2</ele>
        <time>2018-01-30T16:07:05Z</time>
      </trkpt>
      <trkpt lat="45.704737315878" lon="6.938095764422">
        <ele>1575.4</ele>
        <time>2018-01-30T16:07:06Z</time>
      </trkpt>
      <trkpt lat="45.704742512656" lon="6.937933742295">
        <ele>1572.4</ele>
        <time>2018-01-30T16:07:07Z</time>
      </trkpt>
      <trkpt lat="45.704740668638" lon="6.937768451227">
        <ele>1569.4</ele>
        <time>2018-01-30T16:07:08Z</time>
      </trkpt>
      <trkpt lat="45.70474804471" lon="6.937595448811">
        <ele>1566.8</ele>
        <time>2018-01-30T16:07:09Z</time>
      </trkpt>
      <trkpt lat="45.70474804471" lon="6.937595448811">
        <ele>1564</ele>
        <time>2018-01-30T16:07:10Z</time>
      </trkpt>
      <trkpt lat="45.704745949235" lon="6.937391433365">
        <ele>1560.8</ele>
        <time>2018-01-30T16:07:11Z</time>
      </trkpt>
      <trkpt lat="45.70474133919" lon="6.937189094299">
        <ele>1557.2</ele>
        <time>2018-01-30T16:07:12Z</time>
      </trkpt>
      <trkpt lat="45.704711667264" lon="6.93675901901">
        <ele>1553.6</ele>
        <time>2018-01-30T16:07:13Z</time>
      </trkpt>
      <trkpt lat="45.704701776622" lon="6.936545448198">
        <ele>1550.8</ele>
        <time>2018-01-30T16:07:14Z</time>
      </trkpt>
      <trkpt lat="45.704680570415" lon="6.936342941494">
        <ele>1548.2</ele>
        <time>2018-01-30T16:07:15Z</time>
      </trkpt>
      <trkpt lat="45.704648383919" lon="6.9361395966">
        <ele>1546</ele>
        <time>2018-01-30T16:07:16Z</time>
      </trkpt>
      <trkpt lat="45.704623573495" lon="6.93596106213">
        <ele>1543.6</ele>
        <time>2018-01-30T16:07:17Z</time>
      </trkpt>
      <trkpt lat="45.704594404483" lon="6.935799040003">
        <ele>1541</ele>
        <time>2018-01-30T16:07:18Z</time>
      </trkpt>
      <trkpt lat="45.704566408937" lon="6.935650848011">
        <ele>1538.2</ele>
        <time>2018-01-30T16:07:19Z</time>
      </trkpt>
      <trkpt lat="45.704549645137" lon="6.935528053176">
        <ele>1535.6</ele>
        <time>2018-01-30T16:07:20Z</time>
      </trkpt>
      <trkpt lat="45.704550567146" lon="6.935428727661">
        <ele>1533.4</ele>
        <time>2018-01-30T16:07:21Z</time>
      </trkpt>
      <trkpt lat="45.704539922133" lon="6.935380028822">
        <ele>1531.8</ele>
        <time>2018-01-30T16:07:22Z</time>
      </trkpt>
      <trkpt lat="45.704541095599" lon="6.935325881748">
        <ele>1530.4</ele>
        <time>2018-01-30T16:07:23Z</time>
      </trkpt>
      <trkpt lat="45.704548052576" lon="6.935290929225">
        <ele>1529</ele>
        <time>2018-01-30T16:07:24Z</time>
      </trkpt>
      <trkpt lat="45.704559871055" lon="6.935255389969">
        <ele>1527.6</ele>
        <time>2018-01-30T16:07:25Z</time>
      </trkpt>
      <trkpt lat="45.704586106402" lon="6.935218006695">
        <ele>1526.2</ele>
        <time>2018-01-30T16:07:26Z</time>
      </trkpt>
      <trkpt lat="45.704630111377" lon="6.935159417214">
        <ele>1525</ele>
        <time>2018-01-30T16:07:27Z</time>
      </trkpt>
      <trkpt lat="45.704680570415" lon="6.935110215461">
        <ele>1523.4</ele>
        <time>2018-01-30T16:07:28Z</time>
      </trkpt>
      <trkpt lat="45.704738070249" lon="6.935059924061">
        <ele>1521.6</ele>
        <time>2018-01-30T16:07:29Z</time>
      </trkpt>
      <trkpt lat="45.704738070249" lon="6.935059924061">
        <ele>1519.2</ele>
        <time>2018-01-30T16:07:30Z</time>
      </trkpt>
      <trkpt lat="45.704857596143" lon="6.934937799778">
        <ele>1516.4</ele>
        <time>2018-01-30T16:07:31Z</time>
      </trkpt>
      <trkpt lat="45.704920795669" lon="6.934907205843">
        <ele>1513.6</ele>
        <time>2018-01-30T16:07:32Z</time>
      </trkpt>
      <trkpt lat="45.704993802018" lon="6.934890777319">
        <ele>1510.4</ele>
        <time>2018-01-30T16:07:33Z</time>
      </trkpt>
      <trkpt lat="45.705080219407" lon="6.934863536144">
        <ele>1507.4</ele>
        <time>2018-01-30T16:07:34Z</time>
      </trkpt>
      <trkpt lat="45.705175437791" lon="6.934811568364">
        <ele>1504.2</ele>
        <time>2018-01-30T16:07:35Z</time>
      </trkpt>
      <trkpt lat="45.705266297587" lon="6.934726156803">
        <ele>1500.6</ele>
        <time>2018-01-30T16:07:36Z</time>
      </trkpt>
      <trkpt lat="45.70538339273" lon="6.934698664171">
        <ele>1496.6</ele>
        <time>2018-01-30T16:07:37Z</time>
      </trkpt>
      <trkpt lat="45.705497135113" lon="6.934695646687">
        <ele>1491.6</ele>
        <time>2018-01-30T16:07:38Z</time>
      </trkpt>
      <trkpt lat="45.705599226655" lon="6.934665052752">
        <ele>1486.6</ele>
        <time>2018-01-30T16:07:39Z</time>
      </trkpt>
      <trkpt lat="45.705706514975" lon="6.934611995325">
        <ele>1481.6</ele>
        <time>2018-01-30T16:07:40Z</time>
      </trkpt>
      <trkpt lat="45.705786981215" lon="6.934539827166">
        <ele>1476.8</ele>
        <time>2018-01-30T16:07:41Z</time>
      </trkpt>
      <trkpt lat="45.705831908199" lon="6.9344883623">
        <ele>1472.2</ele>
        <time>2018-01-30T16:07:42Z</time>
      </trkpt>
      <trkpt lat="45.705891671146" lon="6.934499091132">
        <ele>1467.8</ele>
        <time>2018-01-30T16:07:43Z</time>
      </trkpt>
      <trkpt lat="45.705939196519" lon="6.934499342589">
        <ele>1464</ele>
        <time>2018-01-30T16:07:44Z</time>
      </trkpt>
      <trkpt lat="45.705939196519" lon="6.934499342589">
        <ele>1461.2</ele>
        <time>2018-01-30T16:07:45Z</time>
      </trkpt>
      <trkpt lat="45.705953110473" lon="6.934505880471">
        <ele>1458.6</ele>
        <time>2018-01-30T16:07:46Z</time>
      </trkpt>
      <trkpt lat="45.706025027175" lon="6.934593471326">
        <ele>1456</ele>
        <time>2018-01-30T16:07:47Z</time>
      </trkpt>
      <trkpt lat="45.706059476784" lon="6.934676284498">
        <ele>1453</ele>
        <time>2018-01-30T16:07:48Z</time>
      </trkpt>
      <trkpt lat="45.70607154672" lon="6.934750212856">
        <ele>1450.2</ele>
        <time>2018-01-30T16:07:49Z</time>
      </trkpt>
      <trkpt lat="45.706103062664" lon="6.934831433467">
        <ele>1448</ele>
        <time>2018-01-30T16:07:50Z</time>
      </trkpt>
      <trkpt lat="45.706103062664" lon="6.934831433467">
        <ele>1446</ele>
        <time>2018-01-30T16:07:51Z</time>
      </trkpt>
      <trkpt lat="45.706174811728" lon="6.934868230008">
        <ele>1444.2</ele>
        <time>2018-01-30T16:07:52Z</time>
      </trkpt>
      <trkpt lat="45.706174811728" lon="6.934868230008">
        <ele>1442.2</ele>
        <time>2018-01-30T16:07:53Z</time>
      </trkpt>
      <trkpt lat="45.70626013947" lon="6.934950707904">
        <ele>1440.4</ele>
        <time>2018-01-30T16:07:54Z</time>
      </trkpt>
      <trkpt lat="45.70626013947" lon="6.934950707904">
        <ele>1437.8</ele>
        <time>2018-01-30T16:07:55Z</time>
      </trkpt>
      <trkpt lat="45.706338677873" lon="6.93497702707">
        <ele>1435.6</ele>
        <time>2018-01-30T16:07:56Z</time>
      </trkpt>
      <trkpt lat="45.706385951789" lon="6.934993371775">
        <ele>1433.2</ele>
        <time>2018-01-30T16:07:57Z</time>
      </trkpt>
      <trkpt lat="45.706446050012" lon="6.935063695916">
        <ele>1430.8</ele>
        <time>2018-01-30T16:07:58Z</time>
      </trkpt>
      <trkpt lat="45.706446050012" lon="6.935063695916">
        <ele>1427.8</ele>
        <time>2018-01-30T16:07:59Z</time>
      </trkpt>
      <trkpt lat="45.706538753826" lon="6.935103426122">
        <ele>1425</ele>
        <time>2018-01-30T16:08:00Z</time>
      </trkpt>
      <trkpt lat="45.706597594764" lon="6.935068725056">
        <ele>1422</ele>
        <time>2018-01-30T16:08:01Z</time>
      </trkpt>
      <trkpt lat="45.706597594764" lon="6.935068725056">
        <ele>1419.4</ele>
        <time>2018-01-30T16:08:02Z</time>
      </trkpt>
      <trkpt lat="45.706658112082" lon="6.935022205511">
        <ele>1416.6</ele>
        <time>2018-01-30T16:08:03Z</time>
      </trkpt>
      <trkpt lat="45.706783002392" lon="6.935107197977">
        <ele>1413.6</ele>
        <time>2018-01-30T16:08:04Z</time>
      </trkpt>
      <trkpt lat="45.706848465031" lon="6.935115244601">
        <ele>1410.2</ele>
        <time>2018-01-30T16:08:05Z</time>
      </trkpt>
      <trkpt lat="45.706923650674" lon="6.935071071988">
        <ele>1406.8</ele>
        <time>2018-01-30T16:08:06Z</time>
      </trkpt>
      <trkpt lat="45.706982407793" lon="6.935073586558">
        <ele>1403.4</ele>
        <time>2018-01-30T16:08:07Z</time>
      </trkpt>
      <trkpt lat="45.707050301183" lon="6.9351253867">
        <ele>1400.4</ele>
        <time>2018-01-30T16:08:08Z</time>
      </trkpt>
      <trkpt lat="45.707107381922" lon="6.935153633703">
        <ele>1396.8</ele>
        <time>2018-01-30T16:08:09Z</time>
      </trkpt>
      <trkpt lat="45.707172509285" lon="6.935144245975">
        <ele>1393.6</ele>
        <time>2018-01-30T16:08:10Z</time>
      </trkpt>
      <trkpt lat="45.70725171824" lon="6.935117423895">
        <ele>1390.2</ele>
        <time>2018-01-30T16:08:11Z</time>
      </trkpt>
      <trkpt lat="45.707323132028" lon="6.935094625127">
        <ele>1387</ele>
        <time>2018-01-30T16:08:12Z</time>
      </trkpt>
      <trkpt lat="45.707394461997" lon="6.93511868118">
        <ele>1383.6</ele>
        <time>2018-01-30T16:08:13Z</time>
      </trkpt>
      <trkpt lat="45.707456571876" lon="6.935174923729">
        <ele>1380.2</ele>
        <time>2018-01-30T16:08:14Z</time>
      </trkpt>
      <trkpt lat="45.707485154155" lon="6.935230411907">
        <ele>1376.6</ele>
        <time>2018-01-30T16:08:15Z</time>
      </trkpt>
      <trkpt lat="45.707499235747" lon="6.935273578692">
        <ele>1373.2</ele>
        <time>2018-01-30T16:08:16Z</time>
      </trkpt>
      <trkpt lat="45.707524884361" lon="6.9353014066">
        <ele>1370.2</ele>
        <time>2018-01-30T16:08:17Z</time>
      </trkpt>
      <trkpt lat="45.707546844939" lon="6.935311045785">
        <ele>1367.6</ele>
        <time>2018-01-30T16:08:18Z</time>
      </trkpt>
      <trkpt lat="45.707564027834" lon="6.935291264501">
        <ele>1365.6</ele>
        <time>2018-01-30T16:08:19Z</time>
      </trkpt>
      <trkpt lat="45.707594789407" lon="6.93526452624">
        <ele>1364</ele>
        <time>2018-01-30T16:08:20Z</time>
      </trkpt>
      <trkpt lat="45.707634519613" lon="6.935244828775">
        <ele>1362.6</ele>
        <time>2018-01-30T16:08:21Z</time>
      </trkpt>
      <trkpt lat="45.70769176799" lon="6.935278356375">
        <ele>1361</ele>
        <time>2018-01-30T16:08:22Z</time>
      </trkpt>
      <trkpt lat="45.70775630862" lon="6.935315823468">
        <ele>1359</ele>
        <time>2018-01-30T16:08:23Z</time>
      </trkpt>
      <trkpt lat="45.707844905303" lon="6.935370389637">
        <ele>1356.4</ele>
        <time>2018-01-30T16:08:24Z</time>
      </trkpt>
      <trkpt lat="45.707929478674" lon="6.935470218066">
        <ele>1353.6</ele>
        <time>2018-01-30T16:08:25Z</time>
      </trkpt>
      <trkpt lat="45.707976584952" lon="6.935610614891">
        <ele>1350.8</ele>
        <time>2018-01-30T16:08:26Z</time>
      </trkpt>
      <trkpt lat="45.708012291846" lon="6.935752939553">
        <ele>1347.4</ele>
        <time>2018-01-30T16:08:27Z</time>
      </trkpt>
      <trkpt lat="45.708049591301" lon="6.9358965215">
        <ele>1343.8</ele>
        <time>2018-01-30T16:08:28Z</time>
      </trkpt>
      <trkpt lat="45.708073563535" lon="6.93604320475">
        <ele>1340.4</ele>
        <time>2018-01-30T16:08:29Z</time>
      </trkpt>
      <trkpt lat="45.708086639299" lon="6.936181673738">
        <ele>1337.6</ele>
        <time>2018-01-30T16:08:30Z</time>
      </trkpt>
      <trkpt lat="45.708108599877" lon="6.936307905152">
        <ele>1335</ele>
        <time>2018-01-30T16:08:31Z</time>
      </trkpt>
      <trkpt lat="45.708165010064" lon="6.936405973382">
        <ele>1332.4</ele>
        <time>2018-01-30T16:08:32Z</time>
      </trkpt>
      <trkpt lat="45.70820893122" lon="6.936498844834">
        <ele>1330</ele>
        <time>2018-01-30T16:08:33Z</time>
      </trkpt>
      <trkpt lat="45.708241452992" lon="6.936609737371">
        <ele>1328.2</ele>
        <time>2018-01-30T16:08:34Z</time>
      </trkpt>
      <trkpt lat="45.708262826837" lon="6.936718115338">
        <ele>1326.2</ele>
        <time>2018-01-30T16:08:35Z</time>
      </trkpt>
      <trkpt lat="45.708288307813" lon="6.936818865776">
        <ele>1323.8</ele>
        <time>2018-01-30T16:08:36Z</time>
      </trkpt>
      <trkpt lat="45.708324266164" lon="6.936893045591">
        <ele>1321.4</ele>
        <time>2018-01-30T16:08:37Z</time>
      </trkpt>
      <trkpt lat="45.708402804567" lon="6.936916263454">
        <ele>1319.4</ele>
        <time>2018-01-30T16:08:38Z</time>
      </trkpt>
      <trkpt lat="45.708402804567" lon="6.936916263454">
        <ele>1317.2</ele>
        <time>2018-01-30T16:08:39Z</time>
      </trkpt>
      <trkpt lat="45.708676976516" lon="6.936956999488">
        <ele>1314.4</ele>
        <time>2018-01-30T16:08:40Z</time>
      </trkpt>
      <trkpt lat="45.708820223187" lon="6.937019779919">
        <ele>1310.2</ele>
        <time>2018-01-30T16:08:41Z</time>
      </trkpt>
      <trkpt lat="45.708970259197" lon="6.937124721307">
        <ele>1305.8</ele>
        <time>2018-01-30T16:08:42Z</time>
      </trkpt>
      <trkpt lat="45.709088527806" lon="6.93729043147">
        <ele>1300.4</ele>
        <time>2018-01-30T16:08:43Z</time>
      </trkpt>
      <trkpt lat="45.709178214136" lon="6.93749578802">
        <ele>1294.6</ele>
        <time>2018-01-30T16:08:44Z</time>
      </trkpt>
      <trkpt lat="45.709218614894" lon="6.937708353004">
        <ele>1288</ele>
        <time>2018-01-30T16:08:45Z</time>
      </trkpt>
      <trkpt lat="45.709250717571" lon="6.937904908559">
        <ele>1281.4</ele>
        <time>2018-01-30T16:08:46Z</time>
      </trkpt>
      <trkpt lat="45.709297991487" lon="6.938061230994">
        <ele>1276</ele>
        <time>2018-01-30T16:08:47Z</time>
      </trkpt>
      <trkpt lat="45.709326992861" lon="6.938192072453">
        <ele>1272.2</ele>
        <time>2018-01-30T16:08:48Z</time>
      </trkpt>
      <trkpt lat="45.709375188786" lon="6.938317717134">
        <ele>1269.4</ele>
        <time>2018-01-30T16:08:49Z</time>
      </trkpt>
      <trkpt lat="45.709428246213" lon="6.938423412893">
        <ele>1266.4</ele>
        <time>2018-01-30T16:08:50Z</time>
      </trkpt>
      <trkpt lat="45.709477867061" lon="6.938526342625">
        <ele>1263.2</ele>
        <time>2018-01-30T16:08:51Z</time>
      </trkpt>
      <trkpt lat="45.709504018589" lon="6.938644527415">
        <ele>1260.2</ele>
        <time>2018-01-30T16:08:52Z</time>
      </trkpt>
      <trkpt lat="45.709527907004" lon="6.938748379156">
        <ele>1257.4</ele>
        <time>2018-01-30T16:08:53Z</time>
      </trkpt>
      <trkpt lat="45.709568643038" lon="6.938808561198">
        <ele>1254.4</ele>
        <time>2018-01-30T16:08:54Z</time>
      </trkpt>
      <trkpt lat="45.709595046023" lon="6.938863043548">
        <ele>1251.8</ele>
        <time>2018-01-30T16:08:55Z</time>
      </trkpt>
      <trkpt lat="45.709631926383" lon="6.938940492304">
        <ele>1249.6</ele>
        <time>2018-01-30T16:08:56Z</time>
      </trkpt>
      <trkpt lat="45.709679367937" lon="6.939016851413">
        <ele>1247.8</ele>
        <time>2018-01-30T16:08:57Z</time>
      </trkpt>
      <trkpt lat="45.709719098143" lon="6.939098574938">
        <ele>1246.2</ele>
        <time>2018-01-30T16:08:58Z</time>
      </trkpt>
      <trkpt lat="45.709757403426" lon="6.939189853829">
        <ele>1244</ele>
        <time>2018-01-30T16:08:59Z</time>
      </trkpt>
      <trkpt lat="45.709809119749" lon="6.939268978965">
        <ele>1241.4</ele>
        <time>2018-01-30T16:09:00Z</time>
      </trkpt>
      <trkpt lat="45.709860668434" lon="6.939353384698">
        <ele>1238.8</ele>
        <time>2018-01-30T16:09:01Z</time>
      </trkpt>
      <trkpt lat="45.709908445264" lon="6.939453464584">
        <ele>1236</ele>
        <time>2018-01-30T16:09:02Z</time>
      </trkpt>
      <trkpt lat="45.709963933442" lon="6.939550610805">
        <ele>1233.2</ele>
        <time>2018-01-30T16:09:03Z</time>
      </trkpt>
      <trkpt lat="45.709983547088" lon="6.939652031795">
        <ele>1230.2</ele>
        <time>2018-01-30T16:09:04Z</time>
      </trkpt>
      <trkpt lat="45.709994108282" lon="6.93973291713">
        <ele>1227.4</ele>
        <time>2018-01-30T16:09:05Z</time>
      </trkpt>
      <trkpt lat="45.710009614797" lon="6.939796954846">
        <ele>1224.6</ele>
        <time>2018-01-30T16:09:06Z</time>
      </trkpt>
      <trkpt lat="45.710024869855" lon="6.939808689506">
        <ele>1222</ele>
        <time>2018-01-30T16:09:07Z</time>
      </trkpt>
      <trkpt lat="45.710060995844" lon="6.939836098319">
        <ele>1219.4</ele>
        <time>2018-01-30T16:09:08Z</time>
      </trkpt>
      <trkpt lat="45.71009402053" lon="6.939897034732">
        <ele>1217.2</ele>
        <time>2018-01-30T16:09:09Z</time>
      </trkpt>
      <trkpt lat="45.710120674972" lon="6.939972220375">
        <ele>1214.4</ele>
        <time>2018-01-30T16:09:10Z</time>
      </trkpt>
      <trkpt lat="45.710159315531" lon="6.940039275575">
        <ele>1211.6</ele>
        <time>2018-01-30T16:09:11Z</time>
      </trkpt>
      <trkpt lat="45.710189993285" lon="6.940110521725">
        <ele>1208.8</ele>
        <time>2018-01-30T16:09:12Z</time>
      </trkpt>
      <trkpt lat="45.710213714062" lon="6.940192496707">
        <ele>1206</ele>
        <time>2018-01-30T16:09:13Z</time>
      </trkpt>
      <trkpt lat="45.710212959691" lon="6.940268017626">
        <ele>1203.6</ele>
        <time>2018-01-30T16:09:14Z</time>
      </trkpt>
      <trkpt lat="45.710215055166" lon="6.940354435015">
        <ele>1200.8</ele>
        <time>2018-01-30T16:09:15Z</time>
      </trkpt>
      <trkpt lat="45.710222515057" lon="6.940447977019">
        <ele>1198.2</ele>
        <time>2018-01-30T16:09:16Z</time>
      </trkpt>
      <trkpt lat="45.710250845879" lon="6.940565155981">
        <ele>1195.4</ele>
        <time>2018-01-30T16:09:17Z</time>
      </trkpt>
      <trkpt lat="45.71030021527" lon="6.940719969674">
        <ele>1192.4</ele>
        <time>2018-01-30T16:09:18Z</time>
      </trkpt>
      <trkpt lat="45.710362995701" lon="6.940943598766">
        <ele>1188.4</ele>
        <time>2018-01-30T16:09:19Z</time>
      </trkpt>
      <trkpt lat="45.710449664547" lon="6.941162617813">
        <ele>1183.4</ele>
        <time>2018-01-30T16:09:20Z</time>
      </trkpt>
      <trkpt lat="45.710574554857" lon="6.941384235249">
        <ele>1178.2</ele>
        <time>2018-01-30T16:09:21Z</time>
      </trkpt>
      <trkpt lat="45.710699780443" lon="6.941576851311">
        <ele>1173</ele>
        <time>2018-01-30T16:09:22Z</time>
      </trkpt>
      <trkpt lat="45.71082743678" lon="6.94176636607">
        <ele>1168.2</ele>
        <time>2018-01-30T16:09:23Z</time>
      </trkpt>
      <trkpt lat="45.710940005697" lon="6.941939117029">
        <ele>1164</ele>
        <time>2018-01-30T16:09:24Z</time>
      </trkpt>
      <trkpt lat="45.71104117523" lon="6.942113795825">
        <ele>1160.6</ele>
        <time>2018-01-30T16:09:25Z</time>
      </trkpt>
      <trkpt lat="45.71113253794" lon="6.942279003074">
        <ele>1157.8</ele>
        <time>2018-01-30T16:09:26Z</time>
      </trkpt>
      <trkpt lat="45.711206633936" lon="6.942440857563">
        <ele>1155.2</ele>
        <time>2018-01-30T16:09:27Z</time>
      </trkpt>
      <trkpt lat="45.711276119887" lon="6.942591899401">
        <ele>1153</ele>
        <time>2018-01-30T16:09:28Z</time>
      </trkpt>
      <trkpt lat="45.711342504535" lon="6.942733385873">
        <ele>1151.4</ele>
        <time>2018-01-30T16:09:29Z</time>
      </trkpt>
      <trkpt lat="45.711404530595" lon="6.942865484617">
        <ele>1150.2</ele>
        <time>2018-01-30T16:09:30Z</time>
      </trkpt>
      <trkpt lat="45.711507711784" lon="6.943108643536">
        <ele>1148.6</ele>
        <time>2018-01-30T16:09:32Z</time>
      </trkpt>
      <trkpt lat="45.71160443891" lon="6.943340905985">
        <ele>1147.2</ele>
        <time>2018-01-30T16:09:34Z</time>
      </trkpt>
      <trkpt lat="45.711690269566" lon="6.943537293902">
        <ele>1146.6</ele>
        <time>2018-01-30T16:09:36Z</time>
      </trkpt>
      <trkpt lat="45.711707871556" lon="6.943632428467">
        <ele>1146.2</ele>
        <time>2018-01-30T16:09:37Z</time>
      </trkpt>
      <trkpt lat="45.711710637583" lon="6.943725635195">
        <ele>1145.8</ele>
        <time>2018-01-30T16:09:38Z</time>
      </trkpt>
      <trkpt lat="45.711710805221" lon="6.943971811598">
        <ele>1145.2</ele>
        <time>2018-01-30T16:09:41Z</time>
      </trkpt>
      <trkpt lat="45.71168322877" lon="6.944399875231">
        <ele>1144</ele>
        <time>2018-01-30T16:09:46Z</time>
      </trkpt>
      <trkpt lat="45.711651042274" lon="6.944575643674">
        <ele>1142.6</ele>
        <time>2018-01-30T16:09:48Z</time>
      </trkpt>
      <trkpt lat="45.711588261843" lon="6.944807235571">
        <ele>1141.2</ele>
        <time>2018-01-30T16:09:51Z</time>
      </trkpt>
      <trkpt lat="45.711520787548" lon="6.945038073097">
        <ele>1140</ele>
        <time>2018-01-30T16:09:54Z</time>
      </trkpt>
      <trkpt lat="45.711514584942" lon="6.945199759948">
        <ele>1139.4</ele>
        <time>2018-01-30T16:09:56Z</time>
      </trkpt>
      <trkpt lat="45.711529169448" lon="6.945277879256">
        <ele>1139</ele>
        <time>2018-01-30T16:09:57Z</time>
      </trkpt>
      <trkpt lat="45.711578790296" lon="6.945433279682">
        <ele>1138.2</ele>
        <time>2018-01-30T16:09:59Z</time>
      </trkpt>
      <trkpt lat="45.711608797498" lon="6.945513662103">
        <ele>1137.8</ele>
        <time>2018-01-30T16:10:00Z</time>
      </trkpt>
      <trkpt lat="45.711630171343" lon="6.945611897971">
        <ele>1137.4</ele>
        <time>2018-01-30T16:10:01Z</time>
      </trkpt>
      <trkpt lat="45.711643917659" lon="6.945723880155">
        <ele>1136.8</ele>
        <time>2018-01-30T16:10:02Z</time>
      </trkpt>
      <trkpt lat="45.711652467197" lon="6.945853212872">
        <ele>1135.8</ele>
        <time>2018-01-30T16:10:03Z</time>
      </trkpt>
      <trkpt lat="45.711642073641" lon="6.945990676032">
        <ele>1134.6</ele>
        <time>2018-01-30T16:10:04Z</time>
      </trkpt>
      <trkpt lat="45.71163377556" lon="6.946143226612">
        <ele>1133.4</ele>
        <time>2018-01-30T16:10:05Z</time>
      </trkpt>
      <trkpt lat="45.711600918512" lon="6.946460649165">
        <ele>1131</ele>
        <time>2018-01-30T16:10:07Z</time>
      </trkpt>
      <trkpt lat="45.71158599873" lon="6.946633232486">
        <ele>1129.2</ele>
        <time>2018-01-30T16:10:08Z</time>
      </trkpt>
      <trkpt lat="45.711571414224" lon="6.946802965961">
        <ele>1127.2</ele>
        <time>2018-01-30T16:10:09Z</time>
      </trkpt>
      <trkpt lat="45.711549369827" lon="6.946977896214">
        <ele>1125.2</ele>
        <time>2018-01-30T16:10:10Z</time>
      </trkpt>
      <trkpt lat="45.711513243838" lon="6.947153999933">
        <ele>1123.4</ele>
        <time>2018-01-30T16:10:11Z</time>
      </trkpt>
      <trkpt lat="45.711480302971" lon="6.947329852195">
        <ele>1120.6</ele>
        <time>2018-01-30T16:10:12Z</time>
      </trkpt>
      <trkpt lat="45.711448284113" lon="6.947502686973">
        <ele>1118</ele>
        <time>2018-01-30T16:10:13Z</time>
      </trkpt>
      <trkpt lat="45.711426994087" lon="6.947668983869">
        <ele>1115.4</ele>
        <time>2018-01-30T16:10:14Z</time>
      </trkpt>
      <trkpt lat="45.711415427065" lon="6.947831760367">
        <ele>1113.8</ele>
        <time>2018-01-30T16:10:15Z</time>
      </trkpt>
      <trkpt lat="45.711406039337" lon="6.947983891852">
        <ele>1112.6</ele>
        <time>2018-01-30T16:10:16Z</time>
      </trkpt>
      <trkpt lat="45.711413583047" lon="6.948134514595">
        <ele>1111.6</ele>
        <time>2018-01-30T16:10:17Z</time>
      </trkpt>
      <trkpt lat="45.711437555281" lon="6.948262590027">
        <ele>1110.6</ele>
        <time>2018-01-30T16:10:18Z</time>
      </trkpt>
      <trkpt lat="45.711469741777" lon="6.94835789223">
        <ele>1109.2</ele>
        <time>2018-01-30T16:10:19Z</time>
      </trkpt>
      <trkpt lat="45.711529672362" lon="6.948387815613">
        <ele>1108</ele>
        <time>2018-01-30T16:10:20Z</time>
      </trkpt>
      <trkpt lat="45.711588010386" lon="6.948401059015">
        <ele>1107</ele>
        <time>2018-01-30T16:10:21Z</time>
      </trkpt>
      <trkpt lat="45.711616927941" lon="6.948424863611">
        <ele>1106.6</ele>
        <time>2018-01-30T16:10:22Z</time>
      </trkpt>
      <trkpt lat="45.711614916285" lon="6.948420253566">
        <ele>1105.2</ele>
        <time>2018-01-30T16:10:24Z</time>
      </trkpt>
      <trkpt lat="45.711608210765" lon="6.948398544445">
        <ele>1104</ele>
        <time>2018-01-30T16:10:26Z</time>
      </trkpt>
      <trkpt lat="45.711599996503" lon="6.948398544445">
        <ele>1103.6</ele>
        <time>2018-01-30T16:10:32Z</time>
      </trkpt>
      <trkpt lat="45.711602511073" lon="6.948384127577">
        <ele>1103.6</ele>
        <time>2018-01-30T16:10:38Z</time>
      </trkpt>
      <trkpt lat="45.711602343435" lon="6.948380942455">
        <ele>1103.4</ele>
        <time>2018-01-30T16:10:40Z</time>
      </trkpt>
    </trkseg>
  </trk>
</gpx>